<?xml version="1.0" encoding="UTF-8" standalone="no" ?>
<gpx xmlns="http://www.topografix.com/GPX/1/1" xmlns:xsi="http://www.w3.org/2001/XMLSchema-instance" xsi:schemaLocation="http://www.topografix.com/GPX/1/1 http://www.topografix.com/GPX/1/1/gpx.xsd" version="1.1" creator="VisuGPX - https://www.visugpx.com">
  <metadata>
    <name>N-E-Malakoff Bord Erdre Chapelle Erdre Sucé Voie Verte Longrais Mauves Nantes</name>
    <desc><![CDATA[N-E-Malakoff Bord Erdre Chapelle Erdre Sucé Voie Verte Longrais Mauves Nantes]]></desc>
  </metadata>
  <trk>
    <name><![CDATA[2021-06-06 14:22 +02:00]]></name>
    <trkseg>
      <trkpt lat="47.16775" lon="-1.62644">
        <ele>68</ele>
        <time>2021-06-06T12:22:08.000Z</time>
      </trkpt>
      <trkpt lat="47.16781" lon="-1.62656">
        <ele>73</ele>
        <time>2021-06-06T12:24:48.000Z</time>
      </trkpt>
      <trkpt lat="47.16788" lon="-1.62646">
        <ele>73</ele>
        <time>2021-06-06T12:24:50.000Z</time>
      </trkpt>
      <trkpt lat="47.16795" lon="-1.62635">
        <ele>73</ele>
        <time>2021-06-06T12:24:52.000Z</time>
      </trkpt>
      <trkpt lat="47.16803" lon="-1.62623">
        <ele>73</ele>
        <time>2021-06-06T12:24:54.000Z</time>
      </trkpt>
      <trkpt lat="47.16811" lon="-1.6261">
        <ele>73</ele>
        <time>2021-06-06T12:24:56.000Z</time>
      </trkpt>
      <trkpt lat="47.16819" lon="-1.62598">
        <ele>73</ele>
        <time>2021-06-06T12:24:58.000Z</time>
      </trkpt>
      <trkpt lat="47.16826" lon="-1.62585">
        <ele>73</ele>
        <time>2021-06-06T12:25:00.000Z</time>
      </trkpt>
      <trkpt lat="47.16826" lon="-1.62568">
        <ele>72</ele>
        <time>2021-06-06T12:25:02.000Z</time>
      </trkpt>
      <trkpt lat="47.16817" lon="-1.62558">
        <ele>71</ele>
        <time>2021-06-06T12:25:04.000Z</time>
      </trkpt>
      <trkpt lat="47.16808" lon="-1.62551">
        <ele>70</ele>
        <time>2021-06-06T12:25:06.000Z</time>
      </trkpt>
      <trkpt lat="47.16797" lon="-1.62544">
        <ele>70</ele>
        <time>2021-06-06T12:25:08.000Z</time>
      </trkpt>
      <trkpt lat="47.16787" lon="-1.62537">
        <ele>70</ele>
        <time>2021-06-06T12:25:10.000Z</time>
      </trkpt>
      <trkpt lat="47.16776" lon="-1.6253">
        <ele>70</ele>
        <time>2021-06-06T12:25:12.000Z</time>
      </trkpt>
      <trkpt lat="47.16765" lon="-1.62523">
        <ele>70</ele>
        <time>2021-06-06T12:25:14.000Z</time>
      </trkpt>
      <trkpt lat="47.16754" lon="-1.62517">
        <ele>70</ele>
        <time>2021-06-06T12:25:16.000Z</time>
      </trkpt>
      <trkpt lat="47.16742" lon="-1.62511">
        <ele>70</ele>
        <time>2021-06-06T12:25:18.000Z</time>
      </trkpt>
      <trkpt lat="47.16731" lon="-1.62505">
        <ele>70</ele>
        <time>2021-06-06T12:25:20.000Z</time>
      </trkpt>
      <trkpt lat="47.1672" lon="-1.625">
        <ele>70</ele>
        <time>2021-06-06T12:25:22.000Z</time>
      </trkpt>
      <trkpt lat="47.16712" lon="-1.62491">
        <ele>69</ele>
        <time>2021-06-06T12:25:24.000Z</time>
      </trkpt>
      <trkpt lat="47.16711" lon="-1.62473">
        <ele>69</ele>
        <time>2021-06-06T12:25:26.000Z</time>
      </trkpt>
      <trkpt lat="47.16713" lon="-1.62456">
        <ele>68</ele>
        <time>2021-06-06T12:25:28.000Z</time>
      </trkpt>
      <trkpt lat="47.16715" lon="-1.62437">
        <ele>68</ele>
        <time>2021-06-06T12:25:30.000Z</time>
      </trkpt>
      <trkpt lat="47.16719" lon="-1.6242">
        <ele>69</ele>
        <time>2021-06-06T12:25:32.000Z</time>
      </trkpt>
      <trkpt lat="47.16725" lon="-1.62402">
        <ele>69</ele>
        <time>2021-06-06T12:25:34.000Z</time>
      </trkpt>
      <trkpt lat="47.1673" lon="-1.62384">
        <ele>69</ele>
        <time>2021-06-06T12:25:36.000Z</time>
      </trkpt>
      <trkpt lat="47.16737" lon="-1.62368">
        <ele>69</ele>
        <time>2021-06-06T12:25:38.000Z</time>
      </trkpt>
      <trkpt lat="47.16746" lon="-1.62355">
        <ele>70</ele>
        <time>2021-06-06T12:25:40.000Z</time>
      </trkpt>
      <trkpt lat="47.16757" lon="-1.62345">
        <ele>70</ele>
        <time>2021-06-06T12:25:42.000Z</time>
      </trkpt>
      <trkpt lat="47.16768" lon="-1.62337">
        <ele>71</ele>
        <time>2021-06-06T12:25:44.000Z</time>
      </trkpt>
      <trkpt lat="47.1678" lon="-1.6233">
        <ele>72</ele>
        <time>2021-06-06T12:25:46.000Z</time>
      </trkpt>
      <trkpt lat="47.16791" lon="-1.62324">
        <ele>73</ele>
        <time>2021-06-06T12:25:48.000Z</time>
      </trkpt>
      <trkpt lat="47.16803" lon="-1.62318">
        <ele>73</ele>
        <time>2021-06-06T12:25:50.000Z</time>
      </trkpt>
      <trkpt lat="47.16814" lon="-1.62311">
        <ele>72</ele>
        <time>2021-06-06T12:25:52.000Z</time>
      </trkpt>
      <trkpt lat="47.16825" lon="-1.62303">
        <ele>72</ele>
        <time>2021-06-06T12:25:54.000Z</time>
      </trkpt>
      <trkpt lat="47.16835" lon="-1.62292">
        <ele>73</ele>
        <time>2021-06-06T12:25:56.000Z</time>
      </trkpt>
      <trkpt lat="47.16845" lon="-1.62281">
        <ele>73</ele>
        <time>2021-06-06T12:25:58.000Z</time>
      </trkpt>
      <trkpt lat="47.16854" lon="-1.62268">
        <ele>73</ele>
        <time>2021-06-06T12:26:00.000Z</time>
      </trkpt>
      <trkpt lat="47.16863" lon="-1.62256">
        <ele>73</ele>
        <time>2021-06-06T12:26:02.000Z</time>
      </trkpt>
      <trkpt lat="47.16873" lon="-1.62245">
        <ele>73</ele>
        <time>2021-06-06T12:26:04.000Z</time>
      </trkpt>
      <trkpt lat="47.16882" lon="-1.62233">
        <ele>73</ele>
        <time>2021-06-06T12:26:06.000Z</time>
      </trkpt>
      <trkpt lat="47.16892" lon="-1.62221">
        <ele>74</ele>
        <time>2021-06-06T12:26:08.000Z</time>
      </trkpt>
      <trkpt lat="47.169" lon="-1.62207">
        <ele>74</ele>
        <time>2021-06-06T12:26:10.000Z</time>
      </trkpt>
      <trkpt lat="47.1691" lon="-1.62193">
        <ele>73</ele>
        <time>2021-06-06T12:26:12.000Z</time>
      </trkpt>
      <trkpt lat="47.16918" lon="-1.62179">
        <ele>73</ele>
        <time>2021-06-06T12:26:14.000Z</time>
      </trkpt>
      <trkpt lat="47.16926" lon="-1.62164">
        <ele>73</ele>
        <time>2021-06-06T12:26:16.000Z</time>
      </trkpt>
      <trkpt lat="47.16934" lon="-1.6215">
        <ele>73</ele>
        <time>2021-06-06T12:26:18.000Z</time>
      </trkpt>
      <trkpt lat="47.16942" lon="-1.62135">
        <ele>72</ele>
        <time>2021-06-06T12:26:20.000Z</time>
      </trkpt>
      <trkpt lat="47.16949" lon="-1.6212">
        <ele>72</ele>
        <time>2021-06-06T12:26:22.000Z</time>
      </trkpt>
      <trkpt lat="47.16957" lon="-1.62105">
        <ele>72</ele>
        <time>2021-06-06T12:26:24.000Z</time>
      </trkpt>
      <trkpt lat="47.16965" lon="-1.62089">
        <ele>72</ele>
        <time>2021-06-06T12:26:26.000Z</time>
      </trkpt>
      <trkpt lat="47.16972" lon="-1.62075">
        <ele>72</ele>
        <time>2021-06-06T12:26:28.000Z</time>
      </trkpt>
      <trkpt lat="47.1698" lon="-1.6206">
        <ele>72</ele>
        <time>2021-06-06T12:26:30.000Z</time>
      </trkpt>
      <trkpt lat="47.16989" lon="-1.62045">
        <ele>72</ele>
        <time>2021-06-06T12:26:32.000Z</time>
      </trkpt>
      <trkpt lat="47.16997" lon="-1.62031">
        <ele>72</ele>
        <time>2021-06-06T12:26:34.000Z</time>
      </trkpt>
      <trkpt lat="47.17005" lon="-1.62018">
        <ele>72</ele>
        <time>2021-06-06T12:26:36.000Z</time>
      </trkpt>
      <trkpt lat="47.17014" lon="-1.62005">
        <ele>73</ele>
        <time>2021-06-06T12:26:38.000Z</time>
      </trkpt>
      <trkpt lat="47.17023" lon="-1.61992">
        <ele>73</ele>
        <time>2021-06-06T12:26:40.000Z</time>
      </trkpt>
      <trkpt lat="47.17032" lon="-1.61979">
        <ele>73</ele>
        <time>2021-06-06T12:26:42.000Z</time>
      </trkpt>
      <trkpt lat="47.17041" lon="-1.61966">
        <ele>73</ele>
        <time>2021-06-06T12:26:44.000Z</time>
      </trkpt>
      <trkpt lat="47.1705" lon="-1.61953">
        <ele>73</ele>
        <time>2021-06-06T12:26:46.000Z</time>
      </trkpt>
      <trkpt lat="47.17059" lon="-1.6194">
        <ele>73</ele>
        <time>2021-06-06T12:26:48.000Z</time>
      </trkpt>
      <trkpt lat="47.17068" lon="-1.6193">
        <ele>73</ele>
        <time>2021-06-06T12:26:50.000Z</time>
      </trkpt>
      <trkpt lat="47.17078" lon="-1.61919">
        <ele>74</ele>
        <time>2021-06-06T12:26:52.000Z</time>
      </trkpt>
      <trkpt lat="47.17087" lon="-1.61909">
        <ele>73</ele>
        <time>2021-06-06T12:26:54.000Z</time>
      </trkpt>
      <trkpt lat="47.17098" lon="-1.61899">
        <ele>73</ele>
        <time>2021-06-06T12:26:56.000Z</time>
      </trkpt>
      <trkpt lat="47.17108" lon="-1.61889">
        <ele>73</ele>
        <time>2021-06-06T12:26:58.000Z</time>
      </trkpt>
      <trkpt lat="47.17118" lon="-1.61879">
        <ele>73</ele>
        <time>2021-06-06T12:27:00.000Z</time>
      </trkpt>
      <trkpt lat="47.17129" lon="-1.61869">
        <ele>73</ele>
        <time>2021-06-06T12:27:02.000Z</time>
      </trkpt>
      <trkpt lat="47.17139" lon="-1.6186">
        <ele>74</ele>
        <time>2021-06-06T12:27:04.000Z</time>
      </trkpt>
      <trkpt lat="47.17149" lon="-1.61851">
        <ele>74</ele>
        <time>2021-06-06T12:27:06.000Z</time>
      </trkpt>
      <trkpt lat="47.17159" lon="-1.61841">
        <ele>74</ele>
        <time>2021-06-06T12:27:08.000Z</time>
      </trkpt>
      <trkpt lat="47.17169" lon="-1.61831">
        <ele>74</ele>
        <time>2021-06-06T12:27:10.000Z</time>
      </trkpt>
      <trkpt lat="47.17179" lon="-1.61822">
        <ele>73</ele>
        <time>2021-06-06T12:27:12.000Z</time>
      </trkpt>
      <trkpt lat="47.17189" lon="-1.61812">
        <ele>73</ele>
        <time>2021-06-06T12:27:14.000Z</time>
      </trkpt>
      <trkpt lat="47.17199" lon="-1.61802">
        <ele>73</ele>
        <time>2021-06-06T12:27:16.000Z</time>
      </trkpt>
      <trkpt lat="47.17209" lon="-1.61791">
        <ele>73</ele>
        <time>2021-06-06T12:27:18.000Z</time>
      </trkpt>
      <trkpt lat="47.17218" lon="-1.61779">
        <ele>72</ele>
        <time>2021-06-06T12:27:20.000Z</time>
      </trkpt>
      <trkpt lat="47.17223" lon="-1.61763">
        <ele>72</ele>
        <time>2021-06-06T12:27:22.000Z</time>
      </trkpt>
      <trkpt lat="47.1723" lon="-1.61749">
        <ele>71</ele>
        <time>2021-06-06T12:27:24.000Z</time>
      </trkpt>
      <trkpt lat="47.17239" lon="-1.61736">
        <ele>71</ele>
        <time>2021-06-06T12:27:26.000Z</time>
      </trkpt>
      <trkpt lat="47.17247" lon="-1.61723">
        <ele>72</ele>
        <time>2021-06-06T12:27:28.000Z</time>
      </trkpt>
      <trkpt lat="47.17255" lon="-1.61709">
        <ele>72</ele>
        <time>2021-06-06T12:27:30.000Z</time>
      </trkpt>
      <trkpt lat="47.17262" lon="-1.61694">
        <ele>72</ele>
        <time>2021-06-06T12:27:32.000Z</time>
      </trkpt>
      <trkpt lat="47.17268" lon="-1.6168">
        <ele>73</ele>
        <time>2021-06-06T12:27:34.000Z</time>
      </trkpt>
      <trkpt lat="47.17275" lon="-1.61665">
        <ele>74</ele>
        <time>2021-06-06T12:27:36.000Z</time>
      </trkpt>
      <trkpt lat="47.17282" lon="-1.61651">
        <ele>74</ele>
        <time>2021-06-06T12:27:38.000Z</time>
      </trkpt>
      <trkpt lat="47.17289" lon="-1.61637">
        <ele>75</ele>
        <time>2021-06-06T12:27:40.000Z</time>
      </trkpt>
      <trkpt lat="47.17297" lon="-1.61624">
        <ele>75</ele>
        <time>2021-06-06T12:27:42.000Z</time>
      </trkpt>
      <trkpt lat="47.17305" lon="-1.61611">
        <ele>75</ele>
        <time>2021-06-06T12:27:44.000Z</time>
      </trkpt>
      <trkpt lat="47.17314" lon="-1.61599">
        <ele>75</ele>
        <time>2021-06-06T12:27:46.000Z</time>
      </trkpt>
      <trkpt lat="47.17323" lon="-1.61587">
        <ele>76</ele>
        <time>2021-06-06T12:27:48.000Z</time>
      </trkpt>
      <trkpt lat="47.17332" lon="-1.61575">
        <ele>76</ele>
        <time>2021-06-06T12:27:50.000Z</time>
      </trkpt>
      <trkpt lat="47.17342" lon="-1.61564">
        <ele>76</ele>
        <time>2021-06-06T12:27:52.000Z</time>
      </trkpt>
      <trkpt lat="47.17351" lon="-1.61553">
        <ele>76</ele>
        <time>2021-06-06T12:27:54.000Z</time>
      </trkpt>
      <trkpt lat="47.17361" lon="-1.61543">
        <ele>76</ele>
        <time>2021-06-06T12:27:56.000Z</time>
      </trkpt>
      <trkpt lat="47.17371" lon="-1.61533">
        <ele>76</ele>
        <time>2021-06-06T12:27:58.000Z</time>
      </trkpt>
      <trkpt lat="47.17381" lon="-1.61523">
        <ele>75</ele>
        <time>2021-06-06T12:28:00.000Z</time>
      </trkpt>
      <trkpt lat="47.17393" lon="-1.61514">
        <ele>74</ele>
        <time>2021-06-06T12:28:02.000Z</time>
      </trkpt>
      <trkpt lat="47.17404" lon="-1.61505">
        <ele>74</ele>
        <time>2021-06-06T12:28:04.000Z</time>
      </trkpt>
      <trkpt lat="47.17416" lon="-1.61496">
        <ele>74</ele>
        <time>2021-06-06T12:28:06.000Z</time>
      </trkpt>
      <trkpt lat="47.17428" lon="-1.61488">
        <ele>74</ele>
        <time>2021-06-06T12:28:08.000Z</time>
      </trkpt>
      <trkpt lat="47.17441" lon="-1.6148">
        <ele>74</ele>
        <time>2021-06-06T12:28:10.000Z</time>
      </trkpt>
      <trkpt lat="47.17454" lon="-1.61473">
        <ele>73</ele>
        <time>2021-06-06T12:28:12.000Z</time>
      </trkpt>
      <trkpt lat="47.17467" lon="-1.61467">
        <ele>73</ele>
        <time>2021-06-06T12:28:14.000Z</time>
      </trkpt>
      <trkpt lat="47.1748" lon="-1.61461">
        <ele>73</ele>
        <time>2021-06-06T12:28:16.000Z</time>
      </trkpt>
      <trkpt lat="47.17493" lon="-1.61456">
        <ele>72</ele>
        <time>2021-06-06T12:28:18.000Z</time>
      </trkpt>
      <trkpt lat="47.17503" lon="-1.61451">
        <ele>72</ele>
        <time>2021-06-06T12:28:20.000Z</time>
      </trkpt>
      <trkpt lat="47.1751" lon="-1.6144">
        <ele>70</ele>
        <time>2021-06-06T12:28:22.000Z</time>
      </trkpt>
      <trkpt lat="47.17514" lon="-1.61422">
        <ele>67</ele>
        <time>2021-06-06T12:28:24.000Z</time>
      </trkpt>
      <trkpt lat="47.17517" lon="-1.61403">
        <ele>66</ele>
        <time>2021-06-06T12:28:26.000Z</time>
      </trkpt>
      <trkpt lat="47.17522" lon="-1.61383">
        <ele>64</ele>
        <time>2021-06-06T12:28:28.000Z</time>
      </trkpt>
      <trkpt lat="47.17526" lon="-1.61366">
        <ele>64</ele>
        <time>2021-06-06T12:28:30.000Z</time>
      </trkpt>
      <trkpt lat="47.17526" lon="-1.61349">
        <ele>64</ele>
        <time>2021-06-06T12:28:33.000Z</time>
      </trkpt>
      <trkpt lat="47.17521" lon="-1.61337">
        <ele>64</ele>
        <time>2021-06-06T12:28:35.000Z</time>
      </trkpt>
      <trkpt lat="47.17519" lon="-1.6132">
        <ele>64</ele>
        <time>2021-06-06T12:28:37.000Z</time>
      </trkpt>
      <trkpt lat="47.1752" lon="-1.61302">
        <ele>63</ele>
        <time>2021-06-06T12:28:39.000Z</time>
      </trkpt>
      <trkpt lat="47.17514" lon="-1.61285">
        <ele>63</ele>
        <time>2021-06-06T12:28:41.000Z</time>
      </trkpt>
      <trkpt lat="47.17506" lon="-1.61271">
        <ele>63</ele>
        <time>2021-06-06T12:28:43.000Z</time>
      </trkpt>
      <trkpt lat="47.17498" lon="-1.61255">
        <ele>63</ele>
        <time>2021-06-06T12:28:45.000Z</time>
      </trkpt>
      <trkpt lat="47.17492" lon="-1.61239">
        <ele>63</ele>
        <time>2021-06-06T12:28:47.000Z</time>
      </trkpt>
      <trkpt lat="47.17485" lon="-1.61224">
        <ele>63</ele>
        <time>2021-06-06T12:28:49.000Z</time>
      </trkpt>
      <trkpt lat="47.17479" lon="-1.61208">
        <ele>62</ele>
        <time>2021-06-06T12:28:51.000Z</time>
      </trkpt>
      <trkpt lat="47.17472" lon="-1.61191">
        <ele>62</ele>
        <time>2021-06-06T12:28:53.000Z</time>
      </trkpt>
      <trkpt lat="47.17465" lon="-1.61174">
        <ele>61</ele>
        <time>2021-06-06T12:28:55.000Z</time>
      </trkpt>
      <trkpt lat="47.17459" lon="-1.61157">
        <ele>60</ele>
        <time>2021-06-06T12:28:57.000Z</time>
      </trkpt>
      <trkpt lat="47.17453" lon="-1.61141">
        <ele>60</ele>
        <time>2021-06-06T12:28:59.000Z</time>
      </trkpt>
      <trkpt lat="47.17446" lon="-1.61124">
        <ele>60</ele>
        <time>2021-06-06T12:29:01.000Z</time>
      </trkpt>
      <trkpt lat="47.17441" lon="-1.61105">
        <ele>60</ele>
        <time>2021-06-06T12:29:03.000Z</time>
      </trkpt>
      <trkpt lat="47.17436" lon="-1.61087">
        <ele>60</ele>
        <time>2021-06-06T12:29:05.000Z</time>
      </trkpt>
      <trkpt lat="47.17429" lon="-1.61068">
        <ele>59</ele>
        <time>2021-06-06T12:29:07.000Z</time>
      </trkpt>
      <trkpt lat="47.17423" lon="-1.6105">
        <ele>59</ele>
        <time>2021-06-06T12:29:09.000Z</time>
      </trkpt>
      <trkpt lat="47.1742" lon="-1.61034">
        <ele>58</ele>
        <time>2021-06-06T12:29:11.000Z</time>
      </trkpt>
      <trkpt lat="47.17421" lon="-1.6102">
        <ele>57</ele>
        <time>2021-06-06T12:29:13.000Z</time>
      </trkpt>
      <trkpt lat="47.1743" lon="-1.61026">
        <ele>58</ele>
        <time>2021-06-06T12:29:16.000Z</time>
      </trkpt>
      <trkpt lat="47.17434" lon="-1.61042">
        <ele>57</ele>
        <time>2021-06-06T12:29:18.000Z</time>
      </trkpt>
      <trkpt lat="47.17441" lon="-1.61057">
        <ele>57</ele>
        <time>2021-06-06T12:29:20.000Z</time>
      </trkpt>
      <trkpt lat="47.17448" lon="-1.61072">
        <ele>56</ele>
        <time>2021-06-06T12:29:22.000Z</time>
      </trkpt>
      <trkpt lat="47.17457" lon="-1.61085">
        <ele>55</ele>
        <time>2021-06-06T12:29:24.000Z</time>
      </trkpt>
      <trkpt lat="47.17468" lon="-1.61095">
        <ele>55</ele>
        <time>2021-06-06T12:29:26.000Z</time>
      </trkpt>
      <trkpt lat="47.1748" lon="-1.61104">
        <ele>55</ele>
        <time>2021-06-06T12:29:28.000Z</time>
      </trkpt>
      <trkpt lat="47.17493" lon="-1.61106">
        <ele>55</ele>
        <time>2021-06-06T12:29:30.000Z</time>
      </trkpt>
      <trkpt lat="47.17507" lon="-1.61102">
        <ele>55</ele>
        <time>2021-06-06T12:29:32.000Z</time>
      </trkpt>
      <trkpt lat="47.17519" lon="-1.61095">
        <ele>54</ele>
        <time>2021-06-06T12:29:34.000Z</time>
      </trkpt>
      <trkpt lat="47.1753" lon="-1.61084">
        <ele>54</ele>
        <time>2021-06-06T12:29:36.000Z</time>
      </trkpt>
      <trkpt lat="47.17542" lon="-1.61073">
        <ele>54</ele>
        <time>2021-06-06T12:29:38.000Z</time>
      </trkpt>
      <trkpt lat="47.17553" lon="-1.61063">
        <ele>54</ele>
        <time>2021-06-06T12:29:40.000Z</time>
      </trkpt>
      <trkpt lat="47.17565" lon="-1.61053">
        <ele>54</ele>
        <time>2021-06-06T12:29:42.000Z</time>
      </trkpt>
      <trkpt lat="47.17576" lon="-1.61044">
        <ele>54</ele>
        <time>2021-06-06T12:29:44.000Z</time>
      </trkpt>
      <trkpt lat="47.17587" lon="-1.61034">
        <ele>54</ele>
        <time>2021-06-06T12:29:46.000Z</time>
      </trkpt>
      <trkpt lat="47.17598" lon="-1.61025">
        <ele>56</ele>
        <time>2021-06-06T12:29:48.000Z</time>
      </trkpt>
      <trkpt lat="47.17609" lon="-1.61015">
        <ele>56</ele>
        <time>2021-06-06T12:29:50.000Z</time>
      </trkpt>
      <trkpt lat="47.1762" lon="-1.61005">
        <ele>56</ele>
        <time>2021-06-06T12:29:52.000Z</time>
      </trkpt>
      <trkpt lat="47.17632" lon="-1.60993">
        <ele>56</ele>
        <time>2021-06-06T12:29:54.000Z</time>
      </trkpt>
      <trkpt lat="47.17644" lon="-1.60983">
        <ele>56</ele>
        <time>2021-06-06T12:29:56.000Z</time>
      </trkpt>
      <trkpt lat="47.17656" lon="-1.60974">
        <ele>56</ele>
        <time>2021-06-06T12:29:58.000Z</time>
      </trkpt>
      <trkpt lat="47.17668" lon="-1.60968">
        <ele>56</ele>
        <time>2021-06-06T12:30:00.000Z</time>
      </trkpt>
      <trkpt lat="47.17681" lon="-1.6097">
        <ele>57</ele>
        <time>2021-06-06T12:30:02.000Z</time>
      </trkpt>
      <trkpt lat="47.17693" lon="-1.60971">
        <ele>57</ele>
        <time>2021-06-06T12:30:04.000Z</time>
      </trkpt>
      <trkpt lat="47.17705" lon="-1.60966">
        <ele>57</ele>
        <time>2021-06-06T12:30:06.000Z</time>
      </trkpt>
      <trkpt lat="47.17717" lon="-1.60959">
        <ele>57</ele>
        <time>2021-06-06T12:30:08.000Z</time>
      </trkpt>
      <trkpt lat="47.17729" lon="-1.60951">
        <ele>57</ele>
        <time>2021-06-06T12:30:10.000Z</time>
      </trkpt>
      <trkpt lat="47.1774" lon="-1.60942">
        <ele>58</ele>
        <time>2021-06-06T12:30:12.000Z</time>
      </trkpt>
      <trkpt lat="47.17752" lon="-1.60933">
        <ele>58</ele>
        <time>2021-06-06T12:30:14.000Z</time>
      </trkpt>
      <trkpt lat="47.17763" lon="-1.60924">
        <ele>59</ele>
        <time>2021-06-06T12:30:16.000Z</time>
      </trkpt>
      <trkpt lat="47.17775" lon="-1.60914">
        <ele>59</ele>
        <time>2021-06-06T12:30:18.000Z</time>
      </trkpt>
      <trkpt lat="47.17787" lon="-1.60905">
        <ele>58</ele>
        <time>2021-06-06T12:30:20.000Z</time>
      </trkpt>
      <trkpt lat="47.17799" lon="-1.60897">
        <ele>58</ele>
        <time>2021-06-06T12:30:22.000Z</time>
      </trkpt>
      <trkpt lat="47.1781" lon="-1.60886">
        <ele>58</ele>
        <time>2021-06-06T12:30:24.000Z</time>
      </trkpt>
      <trkpt lat="47.1782" lon="-1.60874">
        <ele>58</ele>
        <time>2021-06-06T12:30:26.000Z</time>
      </trkpt>
      <trkpt lat="47.17829" lon="-1.60859">
        <ele>58</ele>
        <time>2021-06-06T12:30:28.000Z</time>
      </trkpt>
      <trkpt lat="47.17836" lon="-1.60844">
        <ele>57</ele>
        <time>2021-06-06T12:30:30.000Z</time>
      </trkpt>
      <trkpt lat="47.17843" lon="-1.60827">
        <ele>57</ele>
        <time>2021-06-06T12:30:32.000Z</time>
      </trkpt>
      <trkpt lat="47.17848" lon="-1.60809">
        <ele>56</ele>
        <time>2021-06-06T12:30:34.000Z</time>
      </trkpt>
      <trkpt lat="47.17852" lon="-1.60791">
        <ele>56</ele>
        <time>2021-06-06T12:30:36.000Z</time>
      </trkpt>
      <trkpt lat="47.17855" lon="-1.60772">
        <ele>56</ele>
        <time>2021-06-06T12:30:38.000Z</time>
      </trkpt>
      <trkpt lat="47.1786" lon="-1.60754">
        <ele>56</ele>
        <time>2021-06-06T12:30:40.000Z</time>
      </trkpt>
      <trkpt lat="47.17864" lon="-1.60736">
        <ele>57</ele>
        <time>2021-06-06T12:30:42.000Z</time>
      </trkpt>
      <trkpt lat="47.17868" lon="-1.60718">
        <ele>56</ele>
        <time>2021-06-06T12:30:44.000Z</time>
      </trkpt>
      <trkpt lat="47.17873" lon="-1.607">
        <ele>56</ele>
        <time>2021-06-06T12:30:46.000Z</time>
      </trkpt>
      <trkpt lat="47.17878" lon="-1.60682">
        <ele>56</ele>
        <time>2021-06-06T12:30:48.000Z</time>
      </trkpt>
      <trkpt lat="47.17883" lon="-1.60665">
        <ele>56</ele>
        <time>2021-06-06T12:30:50.000Z</time>
      </trkpt>
      <trkpt lat="47.17889" lon="-1.60648">
        <ele>56</ele>
        <time>2021-06-06T12:30:52.000Z</time>
      </trkpt>
      <trkpt lat="47.17894" lon="-1.60631">
        <ele>57</ele>
        <time>2021-06-06T12:30:54.000Z</time>
      </trkpt>
      <trkpt lat="47.17899" lon="-1.60614">
        <ele>57</ele>
        <time>2021-06-06T12:30:56.000Z</time>
      </trkpt>
      <trkpt lat="47.17902" lon="-1.60598">
        <ele>56</ele>
        <time>2021-06-06T12:30:58.000Z</time>
      </trkpt>
      <trkpt lat="47.17905" lon="-1.60585">
        <ele>57</ele>
        <time>2021-06-06T12:31:01.000Z</time>
      </trkpt>
      <trkpt lat="47.17917" lon="-1.60582">
        <ele>59</ele>
        <time>2021-06-06T12:31:10.000Z</time>
      </trkpt>
      <trkpt lat="47.17929" lon="-1.60582">
        <ele>60</ele>
        <time>2021-06-06T12:31:12.000Z</time>
      </trkpt>
      <trkpt lat="47.17941" lon="-1.60578">
        <ele>60</ele>
        <time>2021-06-06T12:31:14.000Z</time>
      </trkpt>
      <trkpt lat="47.17953" lon="-1.60572">
        <ele>60</ele>
        <time>2021-06-06T12:31:16.000Z</time>
      </trkpt>
      <trkpt lat="47.17965" lon="-1.6057">
        <ele>60</ele>
        <time>2021-06-06T12:31:18.000Z</time>
      </trkpt>
      <trkpt lat="47.17978" lon="-1.60566">
        <ele>61</ele>
        <time>2021-06-06T12:31:20.000Z</time>
      </trkpt>
      <trkpt lat="47.17992" lon="-1.60557">
        <ele>60</ele>
        <time>2021-06-06T12:31:22.000Z</time>
      </trkpt>
      <trkpt lat="47.18005" lon="-1.60553">
        <ele>59</ele>
        <time>2021-06-06T12:31:24.000Z</time>
      </trkpt>
      <trkpt lat="47.18019" lon="-1.60551">
        <ele>58</ele>
        <time>2021-06-06T12:31:26.000Z</time>
      </trkpt>
      <trkpt lat="47.18032" lon="-1.60552">
        <ele>58</ele>
        <time>2021-06-06T12:31:28.000Z</time>
      </trkpt>
      <trkpt lat="47.18044" lon="-1.60557">
        <ele>57</ele>
        <time>2021-06-06T12:31:30.000Z</time>
      </trkpt>
      <trkpt lat="47.18056" lon="-1.60565">
        <ele>56</ele>
        <time>2021-06-06T12:31:32.000Z</time>
      </trkpt>
      <trkpt lat="47.18067" lon="-1.60571">
        <ele>56</ele>
        <time>2021-06-06T12:31:34.000Z</time>
      </trkpt>
      <trkpt lat="47.18079" lon="-1.60578">
        <ele>56</ele>
        <time>2021-06-06T12:31:36.000Z</time>
      </trkpt>
      <trkpt lat="47.18091" lon="-1.60584">
        <ele>55</ele>
        <time>2021-06-06T12:31:38.000Z</time>
      </trkpt>
      <trkpt lat="47.18103" lon="-1.6059">
        <ele>55</ele>
        <time>2021-06-06T12:31:40.000Z</time>
      </trkpt>
      <trkpt lat="47.18115" lon="-1.60595">
        <ele>55</ele>
        <time>2021-06-06T12:31:42.000Z</time>
      </trkpt>
      <trkpt lat="47.18127" lon="-1.60598">
        <ele>55</ele>
        <time>2021-06-06T12:31:44.000Z</time>
      </trkpt>
      <trkpt lat="47.18139" lon="-1.60601">
        <ele>55</ele>
        <time>2021-06-06T12:31:46.000Z</time>
      </trkpt>
      <trkpt lat="47.18151" lon="-1.60603">
        <ele>54</ele>
        <time>2021-06-06T12:31:48.000Z</time>
      </trkpt>
      <trkpt lat="47.18163" lon="-1.60603">
        <ele>54</ele>
        <time>2021-06-06T12:31:50.000Z</time>
      </trkpt>
      <trkpt lat="47.18174" lon="-1.60602">
        <ele>55</ele>
        <time>2021-06-06T12:31:52.000Z</time>
      </trkpt>
      <trkpt lat="47.18185" lon="-1.606">
        <ele>55</ele>
        <time>2021-06-06T12:31:55.000Z</time>
      </trkpt>
      <trkpt lat="47.1819" lon="-1.60585">
        <ele>56</ele>
        <time>2021-06-06T12:32:00.000Z</time>
      </trkpt>
      <trkpt lat="47.18197" lon="-1.60575">
        <ele>56</ele>
        <time>2021-06-06T12:32:02.000Z</time>
      </trkpt>
      <trkpt lat="47.18209" lon="-1.60571">
        <ele>57</ele>
        <time>2021-06-06T12:32:04.000Z</time>
      </trkpt>
      <trkpt lat="47.1822" lon="-1.60565">
        <ele>57</ele>
        <time>2021-06-06T12:32:06.000Z</time>
      </trkpt>
      <trkpt lat="47.18232" lon="-1.60557">
        <ele>58</ele>
        <time>2021-06-06T12:32:08.000Z</time>
      </trkpt>
      <trkpt lat="47.18245" lon="-1.60549">
        <ele>58</ele>
        <time>2021-06-06T12:32:10.000Z</time>
      </trkpt>
      <trkpt lat="47.18256" lon="-1.60541">
        <ele>59</ele>
        <time>2021-06-06T12:32:12.000Z</time>
      </trkpt>
      <trkpt lat="47.18268" lon="-1.60529">
        <ele>59</ele>
        <time>2021-06-06T12:32:14.000Z</time>
      </trkpt>
      <trkpt lat="47.18279" lon="-1.60517">
        <ele>58</ele>
        <time>2021-06-06T12:32:16.000Z</time>
      </trkpt>
      <trkpt lat="47.18289" lon="-1.60505">
        <ele>58</ele>
        <time>2021-06-06T12:32:18.000Z</time>
      </trkpt>
      <trkpt lat="47.183" lon="-1.60492">
        <ele>58</ele>
        <time>2021-06-06T12:32:20.000Z</time>
      </trkpt>
      <trkpt lat="47.18311" lon="-1.60481">
        <ele>58</ele>
        <time>2021-06-06T12:32:22.000Z</time>
      </trkpt>
      <trkpt lat="47.18322" lon="-1.60469">
        <ele>57</ele>
        <time>2021-06-06T12:32:24.000Z</time>
      </trkpt>
      <trkpt lat="47.18332" lon="-1.60457">
        <ele>57</ele>
        <time>2021-06-06T12:32:26.000Z</time>
      </trkpt>
      <trkpt lat="47.18343" lon="-1.60443">
        <ele>56</ele>
        <time>2021-06-06T12:32:28.000Z</time>
      </trkpt>
      <trkpt lat="47.18353" lon="-1.6043">
        <ele>56</ele>
        <time>2021-06-06T12:32:30.000Z</time>
      </trkpt>
      <trkpt lat="47.18363" lon="-1.60418">
        <ele>56</ele>
        <time>2021-06-06T12:32:32.000Z</time>
      </trkpt>
      <trkpt lat="47.18373" lon="-1.60405">
        <ele>56</ele>
        <time>2021-06-06T12:32:34.000Z</time>
      </trkpt>
      <trkpt lat="47.18383" lon="-1.60392">
        <ele>56</ele>
        <time>2021-06-06T12:32:36.000Z</time>
      </trkpt>
      <trkpt lat="47.18392" lon="-1.60379">
        <ele>56</ele>
        <time>2021-06-06T12:32:38.000Z</time>
      </trkpt>
      <trkpt lat="47.18402" lon="-1.60366">
        <ele>56</ele>
        <time>2021-06-06T12:32:40.000Z</time>
      </trkpt>
      <trkpt lat="47.18411" lon="-1.60354">
        <ele>56</ele>
        <time>2021-06-06T12:32:42.000Z</time>
      </trkpt>
      <trkpt lat="47.18421" lon="-1.60341">
        <ele>56</ele>
        <time>2021-06-06T12:32:44.000Z</time>
      </trkpt>
      <trkpt lat="47.1843" lon="-1.60327">
        <ele>56</ele>
        <time>2021-06-06T12:32:46.000Z</time>
      </trkpt>
      <trkpt lat="47.18438" lon="-1.60313">
        <ele>56</ele>
        <time>2021-06-06T12:32:48.000Z</time>
      </trkpt>
      <trkpt lat="47.18447" lon="-1.60298">
        <ele>56</ele>
        <time>2021-06-06T12:32:50.000Z</time>
      </trkpt>
      <trkpt lat="47.18456" lon="-1.60284">
        <ele>56</ele>
        <time>2021-06-06T12:32:52.000Z</time>
      </trkpt>
      <trkpt lat="47.18464" lon="-1.60269">
        <ele>56</ele>
        <time>2021-06-06T12:32:54.000Z</time>
      </trkpt>
      <trkpt lat="47.18473" lon="-1.60254">
        <ele>56</ele>
        <time>2021-06-06T12:32:56.000Z</time>
      </trkpt>
      <trkpt lat="47.1848" lon="-1.60239">
        <ele>56</ele>
        <time>2021-06-06T12:32:58.000Z</time>
      </trkpt>
      <trkpt lat="47.18488" lon="-1.60223">
        <ele>56</ele>
        <time>2021-06-06T12:33:00.000Z</time>
      </trkpt>
      <trkpt lat="47.18497" lon="-1.60209">
        <ele>56</ele>
        <time>2021-06-06T12:33:02.000Z</time>
      </trkpt>
      <trkpt lat="47.18504" lon="-1.60193">
        <ele>55</ele>
        <time>2021-06-06T12:33:04.000Z</time>
      </trkpt>
      <trkpt lat="47.18512" lon="-1.60178">
        <ele>56</ele>
        <time>2021-06-06T12:33:06.000Z</time>
      </trkpt>
      <trkpt lat="47.1852" lon="-1.60163">
        <ele>56</ele>
        <time>2021-06-06T12:33:08.000Z</time>
      </trkpt>
      <trkpt lat="47.18527" lon="-1.60147">
        <ele>56</ele>
        <time>2021-06-06T12:33:10.000Z</time>
      </trkpt>
      <trkpt lat="47.18534" lon="-1.60131">
        <ele>56</ele>
        <time>2021-06-06T12:33:12.000Z</time>
      </trkpt>
      <trkpt lat="47.18541" lon="-1.60115">
        <ele>56</ele>
        <time>2021-06-06T12:33:14.000Z</time>
      </trkpt>
      <trkpt lat="47.18548" lon="-1.601">
        <ele>56</ele>
        <time>2021-06-06T12:33:16.000Z</time>
      </trkpt>
      <trkpt lat="47.18555" lon="-1.60083">
        <ele>55</ele>
        <time>2021-06-06T12:33:18.000Z</time>
      </trkpt>
      <trkpt lat="47.18561" lon="-1.60067">
        <ele>55</ele>
        <time>2021-06-06T12:33:20.000Z</time>
      </trkpt>
      <trkpt lat="47.18567" lon="-1.60051">
        <ele>55</ele>
        <time>2021-06-06T12:33:22.000Z</time>
      </trkpt>
      <trkpt lat="47.18573" lon="-1.60034">
        <ele>55</ele>
        <time>2021-06-06T12:33:24.000Z</time>
      </trkpt>
      <trkpt lat="47.18579" lon="-1.60017">
        <ele>55</ele>
        <time>2021-06-06T12:33:26.000Z</time>
      </trkpt>
      <trkpt lat="47.18585" lon="-1.6">
        <ele>55</ele>
        <time>2021-06-06T12:33:28.000Z</time>
      </trkpt>
      <trkpt lat="47.1859" lon="-1.59983">
        <ele>55</ele>
        <time>2021-06-06T12:33:30.000Z</time>
      </trkpt>
      <trkpt lat="47.18595" lon="-1.59966">
        <ele>55</ele>
        <time>2021-06-06T12:33:32.000Z</time>
      </trkpt>
      <trkpt lat="47.186" lon="-1.59948">
        <ele>55</ele>
        <time>2021-06-06T12:33:34.000Z</time>
      </trkpt>
      <trkpt lat="47.18606" lon="-1.59931">
        <ele>55</ele>
        <time>2021-06-06T12:33:36.000Z</time>
      </trkpt>
      <trkpt lat="47.1861" lon="-1.59915">
        <ele>55</ele>
        <time>2021-06-06T12:33:38.000Z</time>
      </trkpt>
      <trkpt lat="47.18615" lon="-1.59899">
        <ele>55</ele>
        <time>2021-06-06T12:33:40.000Z</time>
      </trkpt>
      <trkpt lat="47.18619" lon="-1.59882">
        <ele>55</ele>
        <time>2021-06-06T12:33:42.000Z</time>
      </trkpt>
      <trkpt lat="47.18621" lon="-1.59866">
        <ele>55</ele>
        <time>2021-06-06T12:33:44.000Z</time>
      </trkpt>
      <trkpt lat="47.18618" lon="-1.5985">
        <ele>54</ele>
        <time>2021-06-06T12:33:46.000Z</time>
      </trkpt>
      <trkpt lat="47.18614" lon="-1.59835">
        <ele>54</ele>
        <time>2021-06-06T12:33:48.000Z</time>
      </trkpt>
      <trkpt lat="47.1862" lon="-1.59822">
        <ele>54</ele>
        <time>2021-06-06T12:33:50.000Z</time>
      </trkpt>
      <trkpt lat="47.18626" lon="-1.59809">
        <ele>55</ele>
        <time>2021-06-06T12:33:52.000Z</time>
      </trkpt>
      <trkpt lat="47.18629" lon="-1.59792">
        <ele>55</ele>
        <time>2021-06-06T12:33:54.000Z</time>
      </trkpt>
      <trkpt lat="47.18635" lon="-1.59775">
        <ele>55</ele>
        <time>2021-06-06T12:33:56.000Z</time>
      </trkpt>
      <trkpt lat="47.18643" lon="-1.59762">
        <ele>55</ele>
        <time>2021-06-06T12:33:58.000Z</time>
      </trkpt>
      <trkpt lat="47.1865" lon="-1.59748">
        <ele>55</ele>
        <time>2021-06-06T12:34:00.000Z</time>
      </trkpt>
      <trkpt lat="47.18654" lon="-1.59731">
        <ele>55</ele>
        <time>2021-06-06T12:34:02.000Z</time>
      </trkpt>
      <trkpt lat="47.18657" lon="-1.59714">
        <ele>56</ele>
        <time>2021-06-06T12:34:04.000Z</time>
      </trkpt>
      <trkpt lat="47.18659" lon="-1.59696">
        <ele>55</ele>
        <time>2021-06-06T12:34:06.000Z</time>
      </trkpt>
      <trkpt lat="47.18663" lon="-1.59677">
        <ele>55</ele>
        <time>2021-06-06T12:34:08.000Z</time>
      </trkpt>
      <trkpt lat="47.18669" lon="-1.5966">
        <ele>54</ele>
        <time>2021-06-06T12:34:10.000Z</time>
      </trkpt>
      <trkpt lat="47.18673" lon="-1.59642">
        <ele>55</ele>
        <time>2021-06-06T12:34:12.000Z</time>
      </trkpt>
      <trkpt lat="47.18675" lon="-1.59623">
        <ele>55</ele>
        <time>2021-06-06T12:34:14.000Z</time>
      </trkpt>
      <trkpt lat="47.18678" lon="-1.59605">
        <ele>55</ele>
        <time>2021-06-06T12:34:16.000Z</time>
      </trkpt>
      <trkpt lat="47.1868" lon="-1.59587">
        <ele>55</ele>
        <time>2021-06-06T12:34:18.000Z</time>
      </trkpt>
      <trkpt lat="47.18682" lon="-1.59569">
        <ele>55</ele>
        <time>2021-06-06T12:34:20.000Z</time>
      </trkpt>
      <trkpt lat="47.18684" lon="-1.59551">
        <ele>55</ele>
        <time>2021-06-06T12:34:22.000Z</time>
      </trkpt>
      <trkpt lat="47.18687" lon="-1.59533">
        <ele>55</ele>
        <time>2021-06-06T12:34:24.000Z</time>
      </trkpt>
      <trkpt lat="47.18689" lon="-1.59515">
        <ele>55</ele>
        <time>2021-06-06T12:34:26.000Z</time>
      </trkpt>
      <trkpt lat="47.18691" lon="-1.59497">
        <ele>55</ele>
        <time>2021-06-06T12:34:28.000Z</time>
      </trkpt>
      <trkpt lat="47.18693" lon="-1.5948">
        <ele>55</ele>
        <time>2021-06-06T12:34:30.000Z</time>
      </trkpt>
      <trkpt lat="47.18695" lon="-1.59462">
        <ele>55</ele>
        <time>2021-06-06T12:34:32.000Z</time>
      </trkpt>
      <trkpt lat="47.18696" lon="-1.59444">
        <ele>55</ele>
        <time>2021-06-06T12:34:34.000Z</time>
      </trkpt>
      <trkpt lat="47.18698" lon="-1.59426">
        <ele>55</ele>
        <time>2021-06-06T12:34:36.000Z</time>
      </trkpt>
      <trkpt lat="47.187" lon="-1.59408">
        <ele>55</ele>
        <time>2021-06-06T12:34:38.000Z</time>
      </trkpt>
      <trkpt lat="47.18702" lon="-1.59391">
        <ele>55</ele>
        <time>2021-06-06T12:34:40.000Z</time>
      </trkpt>
      <trkpt lat="47.18704" lon="-1.59372">
        <ele>55</ele>
        <time>2021-06-06T12:34:42.000Z</time>
      </trkpt>
      <trkpt lat="47.18706" lon="-1.59354">
        <ele>55</ele>
        <time>2021-06-06T12:34:44.000Z</time>
      </trkpt>
      <trkpt lat="47.18707" lon="-1.59336">
        <ele>55</ele>
        <time>2021-06-06T12:34:46.000Z</time>
      </trkpt>
      <trkpt lat="47.18709" lon="-1.59318">
        <ele>55</ele>
        <time>2021-06-06T12:34:48.000Z</time>
      </trkpt>
      <trkpt lat="47.18712" lon="-1.593">
        <ele>55</ele>
        <time>2021-06-06T12:34:50.000Z</time>
      </trkpt>
      <trkpt lat="47.18714" lon="-1.59282">
        <ele>54</ele>
        <time>2021-06-06T12:34:52.000Z</time>
      </trkpt>
      <trkpt lat="47.18716" lon="-1.59264">
        <ele>54</ele>
        <time>2021-06-06T12:34:54.000Z</time>
      </trkpt>
      <trkpt lat="47.18718" lon="-1.59246">
        <ele>54</ele>
        <time>2021-06-06T12:34:56.000Z</time>
      </trkpt>
      <trkpt lat="47.1872" lon="-1.59227">
        <ele>54</ele>
        <time>2021-06-06T12:34:58.000Z</time>
      </trkpt>
      <trkpt lat="47.18722" lon="-1.5921">
        <ele>54</ele>
        <time>2021-06-06T12:35:00.000Z</time>
      </trkpt>
      <trkpt lat="47.18724" lon="-1.59191">
        <ele>54</ele>
        <time>2021-06-06T12:35:02.000Z</time>
      </trkpt>
      <trkpt lat="47.18726" lon="-1.59173">
        <ele>54</ele>
        <time>2021-06-06T12:35:04.000Z</time>
      </trkpt>
      <trkpt lat="47.18728" lon="-1.59154">
        <ele>54</ele>
        <time>2021-06-06T12:35:06.000Z</time>
      </trkpt>
      <trkpt lat="47.1873" lon="-1.59135">
        <ele>54</ele>
        <time>2021-06-06T12:35:08.000Z</time>
      </trkpt>
      <trkpt lat="47.18732" lon="-1.59117">
        <ele>54</ele>
        <time>2021-06-06T12:35:10.000Z</time>
      </trkpt>
      <trkpt lat="47.18734" lon="-1.59098">
        <ele>54</ele>
        <time>2021-06-06T12:35:12.000Z</time>
      </trkpt>
      <trkpt lat="47.18736" lon="-1.59079">
        <ele>54</ele>
        <time>2021-06-06T12:35:14.000Z</time>
      </trkpt>
      <trkpt lat="47.18738" lon="-1.59061">
        <ele>54</ele>
        <time>2021-06-06T12:35:16.000Z</time>
      </trkpt>
      <trkpt lat="47.1874" lon="-1.59042">
        <ele>54</ele>
        <time>2021-06-06T12:35:18.000Z</time>
      </trkpt>
      <trkpt lat="47.18742" lon="-1.59025">
        <ele>55</ele>
        <time>2021-06-06T12:35:20.000Z</time>
      </trkpt>
      <trkpt lat="47.18744" lon="-1.59006">
        <ele>55</ele>
        <time>2021-06-06T12:35:22.000Z</time>
      </trkpt>
      <trkpt lat="47.18746" lon="-1.58988">
        <ele>55</ele>
        <time>2021-06-06T12:35:24.000Z</time>
      </trkpt>
      <trkpt lat="47.18748" lon="-1.5897">
        <ele>55</ele>
        <time>2021-06-06T12:35:26.000Z</time>
      </trkpt>
      <trkpt lat="47.1875" lon="-1.58952">
        <ele>56</ele>
        <time>2021-06-06T12:35:28.000Z</time>
      </trkpt>
      <trkpt lat="47.18751" lon="-1.58934">
        <ele>57</ele>
        <time>2021-06-06T12:35:30.000Z</time>
      </trkpt>
      <trkpt lat="47.18753" lon="-1.58916">
        <ele>56</ele>
        <time>2021-06-06T12:35:32.000Z</time>
      </trkpt>
      <trkpt lat="47.18755" lon="-1.58897">
        <ele>57</ele>
        <time>2021-06-06T12:35:34.000Z</time>
      </trkpt>
      <trkpt lat="47.18757" lon="-1.5888">
        <ele>57</ele>
        <time>2021-06-06T12:35:36.000Z</time>
      </trkpt>
      <trkpt lat="47.18759" lon="-1.58861">
        <ele>57</ele>
        <time>2021-06-06T12:35:38.000Z</time>
      </trkpt>
      <trkpt lat="47.18762" lon="-1.58841">
        <ele>57</ele>
        <time>2021-06-06T12:35:40.000Z</time>
      </trkpt>
      <trkpt lat="47.18764" lon="-1.58823">
        <ele>56</ele>
        <time>2021-06-06T12:35:42.000Z</time>
      </trkpt>
      <trkpt lat="47.18764" lon="-1.58804">
        <ele>56</ele>
        <time>2021-06-06T12:35:44.000Z</time>
      </trkpt>
      <trkpt lat="47.18763" lon="-1.58785">
        <ele>55</ele>
        <time>2021-06-06T12:35:46.000Z</time>
      </trkpt>
      <trkpt lat="47.18759" lon="-1.58768">
        <ele>55</ele>
        <time>2021-06-06T12:35:48.000Z</time>
      </trkpt>
      <trkpt lat="47.18757" lon="-1.5875">
        <ele>55</ele>
        <time>2021-06-06T12:35:50.000Z</time>
      </trkpt>
      <trkpt lat="47.1876" lon="-1.58731">
        <ele>55</ele>
        <time>2021-06-06T12:35:52.000Z</time>
      </trkpt>
      <trkpt lat="47.18768" lon="-1.58715">
        <ele>55</ele>
        <time>2021-06-06T12:35:54.000Z</time>
      </trkpt>
      <trkpt lat="47.18777" lon="-1.58702">
        <ele>56</ele>
        <time>2021-06-06T12:35:56.000Z</time>
      </trkpt>
      <trkpt lat="47.18785" lon="-1.58685">
        <ele>56</ele>
        <time>2021-06-06T12:35:58.000Z</time>
      </trkpt>
      <trkpt lat="47.18789" lon="-1.58667">
        <ele>56</ele>
        <time>2021-06-06T12:36:00.000Z</time>
      </trkpt>
      <trkpt lat="47.18793" lon="-1.58648">
        <ele>56</ele>
        <time>2021-06-06T12:36:02.000Z</time>
      </trkpt>
      <trkpt lat="47.18797" lon="-1.58629">
        <ele>56</ele>
        <time>2021-06-06T12:36:04.000Z</time>
      </trkpt>
      <trkpt lat="47.18802" lon="-1.58611">
        <ele>56</ele>
        <time>2021-06-06T12:36:06.000Z</time>
      </trkpt>
      <trkpt lat="47.18807" lon="-1.58592">
        <ele>56</ele>
        <time>2021-06-06T12:36:08.000Z</time>
      </trkpt>
      <trkpt lat="47.18813" lon="-1.58574">
        <ele>56</ele>
        <time>2021-06-06T12:36:10.000Z</time>
      </trkpt>
      <trkpt lat="47.18817" lon="-1.58556">
        <ele>56</ele>
        <time>2021-06-06T12:36:12.000Z</time>
      </trkpt>
      <trkpt lat="47.18822" lon="-1.58538">
        <ele>56</ele>
        <time>2021-06-06T12:36:14.000Z</time>
      </trkpt>
      <trkpt lat="47.18827" lon="-1.58521">
        <ele>56</ele>
        <time>2021-06-06T12:36:16.000Z</time>
      </trkpt>
      <trkpt lat="47.18832" lon="-1.58504">
        <ele>56</ele>
        <time>2021-06-06T12:36:18.000Z</time>
      </trkpt>
      <trkpt lat="47.18837" lon="-1.58487">
        <ele>56</ele>
        <time>2021-06-06T12:36:20.000Z</time>
      </trkpt>
      <trkpt lat="47.18843" lon="-1.58469">
        <ele>56</ele>
        <time>2021-06-06T12:36:22.000Z</time>
      </trkpt>
      <trkpt lat="47.18848" lon="-1.58451">
        <ele>57</ele>
        <time>2021-06-06T12:36:24.000Z</time>
      </trkpt>
      <trkpt lat="47.18853" lon="-1.58434">
        <ele>57</ele>
        <time>2021-06-06T12:36:26.000Z</time>
      </trkpt>
      <trkpt lat="47.18858" lon="-1.58417">
        <ele>56</ele>
        <time>2021-06-06T12:36:28.000Z</time>
      </trkpt>
      <trkpt lat="47.18863" lon="-1.584">
        <ele>56</ele>
        <time>2021-06-06T12:36:30.000Z</time>
      </trkpt>
      <trkpt lat="47.18869" lon="-1.58383">
        <ele>56</ele>
        <time>2021-06-06T12:36:32.000Z</time>
      </trkpt>
      <trkpt lat="47.18875" lon="-1.58366">
        <ele>56</ele>
        <time>2021-06-06T12:36:34.000Z</time>
      </trkpt>
      <trkpt lat="47.18881" lon="-1.58348">
        <ele>56</ele>
        <time>2021-06-06T12:36:36.000Z</time>
      </trkpt>
      <trkpt lat="47.18886" lon="-1.58331">
        <ele>56</ele>
        <time>2021-06-06T12:36:38.000Z</time>
      </trkpt>
      <trkpt lat="47.18892" lon="-1.58315">
        <ele>56</ele>
        <time>2021-06-06T12:36:40.000Z</time>
      </trkpt>
      <trkpt lat="47.18898" lon="-1.58298">
        <ele>57</ele>
        <time>2021-06-06T12:36:42.000Z</time>
      </trkpt>
      <trkpt lat="47.18903" lon="-1.58281">
        <ele>57</ele>
        <time>2021-06-06T12:36:44.000Z</time>
      </trkpt>
      <trkpt lat="47.1891" lon="-1.58264">
        <ele>56</ele>
        <time>2021-06-06T12:36:46.000Z</time>
      </trkpt>
      <trkpt lat="47.18917" lon="-1.58246">
        <ele>56</ele>
        <time>2021-06-06T12:36:48.000Z</time>
      </trkpt>
      <trkpt lat="47.18923" lon="-1.58229">
        <ele>56</ele>
        <time>2021-06-06T12:36:50.000Z</time>
      </trkpt>
      <trkpt lat="47.18929" lon="-1.58212">
        <ele>56</ele>
        <time>2021-06-06T12:36:52.000Z</time>
      </trkpt>
      <trkpt lat="47.18935" lon="-1.58196">
        <ele>55</ele>
        <time>2021-06-06T12:36:54.000Z</time>
      </trkpt>
      <trkpt lat="47.18941" lon="-1.58179">
        <ele>55</ele>
        <time>2021-06-06T12:36:56.000Z</time>
      </trkpt>
      <trkpt lat="47.18947" lon="-1.58162">
        <ele>55</ele>
        <time>2021-06-06T12:36:58.000Z</time>
      </trkpt>
      <trkpt lat="47.18953" lon="-1.58145">
        <ele>55</ele>
        <time>2021-06-06T12:37:00.000Z</time>
      </trkpt>
      <trkpt lat="47.18959" lon="-1.58128">
        <ele>55</ele>
        <time>2021-06-06T12:37:02.000Z</time>
      </trkpt>
      <trkpt lat="47.18965" lon="-1.58111">
        <ele>55</ele>
        <time>2021-06-06T12:37:04.000Z</time>
      </trkpt>
      <trkpt lat="47.18971" lon="-1.58094">
        <ele>55</ele>
        <time>2021-06-06T12:37:06.000Z</time>
      </trkpt>
      <trkpt lat="47.18977" lon="-1.58076">
        <ele>54</ele>
        <time>2021-06-06T12:37:08.000Z</time>
      </trkpt>
      <trkpt lat="47.18984" lon="-1.58059">
        <ele>54</ele>
        <time>2021-06-06T12:37:10.000Z</time>
      </trkpt>
      <trkpt lat="47.1899" lon="-1.58042">
        <ele>55</ele>
        <time>2021-06-06T12:37:12.000Z</time>
      </trkpt>
      <trkpt lat="47.18997" lon="-1.58024">
        <ele>55</ele>
        <time>2021-06-06T12:37:14.000Z</time>
      </trkpt>
      <trkpt lat="47.19002" lon="-1.58007">
        <ele>55</ele>
        <time>2021-06-06T12:37:16.000Z</time>
      </trkpt>
      <trkpt lat="47.19008" lon="-1.57989">
        <ele>55</ele>
        <time>2021-06-06T12:37:18.000Z</time>
      </trkpt>
      <trkpt lat="47.19014" lon="-1.57972">
        <ele>54</ele>
        <time>2021-06-06T12:37:20.000Z</time>
      </trkpt>
      <trkpt lat="47.1902" lon="-1.57956">
        <ele>54</ele>
        <time>2021-06-06T12:37:22.000Z</time>
      </trkpt>
      <trkpt lat="47.19026" lon="-1.57939">
        <ele>54</ele>
        <time>2021-06-06T12:37:24.000Z</time>
      </trkpt>
      <trkpt lat="47.19032" lon="-1.57922">
        <ele>55</ele>
        <time>2021-06-06T12:37:26.000Z</time>
      </trkpt>
      <trkpt lat="47.19037" lon="-1.57906">
        <ele>55</ele>
        <time>2021-06-06T12:37:28.000Z</time>
      </trkpt>
      <trkpt lat="47.19043" lon="-1.57889">
        <ele>55</ele>
        <time>2021-06-06T12:37:30.000Z</time>
      </trkpt>
      <trkpt lat="47.1905" lon="-1.57872">
        <ele>55</ele>
        <time>2021-06-06T12:37:32.000Z</time>
      </trkpt>
      <trkpt lat="47.19056" lon="-1.57853">
        <ele>55</ele>
        <time>2021-06-06T12:37:34.000Z</time>
      </trkpt>
      <trkpt lat="47.19062" lon="-1.57835">
        <ele>55</ele>
        <time>2021-06-06T12:37:36.000Z</time>
      </trkpt>
      <trkpt lat="47.19068" lon="-1.57818">
        <ele>55</ele>
        <time>2021-06-06T12:37:38.000Z</time>
      </trkpt>
      <trkpt lat="47.19074" lon="-1.57801">
        <ele>55</ele>
        <time>2021-06-06T12:37:40.000Z</time>
      </trkpt>
      <trkpt lat="47.19081" lon="-1.57783">
        <ele>55</ele>
        <time>2021-06-06T12:37:42.000Z</time>
      </trkpt>
      <trkpt lat="47.19087" lon="-1.57766">
        <ele>55</ele>
        <time>2021-06-06T12:37:44.000Z</time>
      </trkpt>
      <trkpt lat="47.19094" lon="-1.57749">
        <ele>55</ele>
        <time>2021-06-06T12:37:46.000Z</time>
      </trkpt>
      <trkpt lat="47.191" lon="-1.57732">
        <ele>55</ele>
        <time>2021-06-06T12:37:48.000Z</time>
      </trkpt>
      <trkpt lat="47.19105" lon="-1.57714">
        <ele>55</ele>
        <time>2021-06-06T12:37:50.000Z</time>
      </trkpt>
      <trkpt lat="47.19111" lon="-1.57697">
        <ele>55</ele>
        <time>2021-06-06T12:37:52.000Z</time>
      </trkpt>
      <trkpt lat="47.19118" lon="-1.57679">
        <ele>54</ele>
        <time>2021-06-06T12:37:54.000Z</time>
      </trkpt>
      <trkpt lat="47.19124" lon="-1.57661">
        <ele>54</ele>
        <time>2021-06-06T12:37:56.000Z</time>
      </trkpt>
      <trkpt lat="47.1913" lon="-1.57643">
        <ele>54</ele>
        <time>2021-06-06T12:37:58.000Z</time>
      </trkpt>
      <trkpt lat="47.19137" lon="-1.57626">
        <ele>54</ele>
        <time>2021-06-06T12:38:00.000Z</time>
      </trkpt>
      <trkpt lat="47.19144" lon="-1.57609">
        <ele>54</ele>
        <time>2021-06-06T12:38:02.000Z</time>
      </trkpt>
      <trkpt lat="47.1915" lon="-1.57592">
        <ele>54</ele>
        <time>2021-06-06T12:38:04.000Z</time>
      </trkpt>
      <trkpt lat="47.19156" lon="-1.57576">
        <ele>54</ele>
        <time>2021-06-06T12:38:06.000Z</time>
      </trkpt>
      <trkpt lat="47.19162" lon="-1.57559">
        <ele>55</ele>
        <time>2021-06-06T12:38:08.000Z</time>
      </trkpt>
      <trkpt lat="47.19168" lon="-1.57542">
        <ele>55</ele>
        <time>2021-06-06T12:38:10.000Z</time>
      </trkpt>
      <trkpt lat="47.19174" lon="-1.57523">
        <ele>55</ele>
        <time>2021-06-06T12:38:12.000Z</time>
      </trkpt>
      <trkpt lat="47.19179" lon="-1.57506">
        <ele>55</ele>
        <time>2021-06-06T12:38:14.000Z</time>
      </trkpt>
      <trkpt lat="47.19185" lon="-1.57487">
        <ele>55</ele>
        <time>2021-06-06T12:38:16.000Z</time>
      </trkpt>
      <trkpt lat="47.1919" lon="-1.5747">
        <ele>55</ele>
        <time>2021-06-06T12:38:18.000Z</time>
      </trkpt>
      <trkpt lat="47.19194" lon="-1.57453">
        <ele>55</ele>
        <time>2021-06-06T12:38:20.000Z</time>
      </trkpt>
      <trkpt lat="47.19199" lon="-1.57435">
        <ele>55</ele>
        <time>2021-06-06T12:38:22.000Z</time>
      </trkpt>
      <trkpt lat="47.19204" lon="-1.57418">
        <ele>55</ele>
        <time>2021-06-06T12:38:24.000Z</time>
      </trkpt>
      <trkpt lat="47.1921" lon="-1.574">
        <ele>55</ele>
        <time>2021-06-06T12:38:26.000Z</time>
      </trkpt>
      <trkpt lat="47.19216" lon="-1.57382">
        <ele>56</ele>
        <time>2021-06-06T12:38:28.000Z</time>
      </trkpt>
      <trkpt lat="47.1922" lon="-1.57364">
        <ele>57</ele>
        <time>2021-06-06T12:38:30.000Z</time>
      </trkpt>
      <trkpt lat="47.19225" lon="-1.57346">
        <ele>58</ele>
        <time>2021-06-06T12:38:32.000Z</time>
      </trkpt>
      <trkpt lat="47.19229" lon="-1.57328">
        <ele>59</ele>
        <time>2021-06-06T12:38:34.000Z</time>
      </trkpt>
      <trkpt lat="47.19233" lon="-1.5731">
        <ele>58</ele>
        <time>2021-06-06T12:38:36.000Z</time>
      </trkpt>
      <trkpt lat="47.19236" lon="-1.57292">
        <ele>58</ele>
        <time>2021-06-06T12:38:38.000Z</time>
      </trkpt>
      <trkpt lat="47.19238" lon="-1.57273">
        <ele>58</ele>
        <time>2021-06-06T12:38:40.000Z</time>
      </trkpt>
      <trkpt lat="47.1924" lon="-1.57254">
        <ele>58</ele>
        <time>2021-06-06T12:38:42.000Z</time>
      </trkpt>
      <trkpt lat="47.19242" lon="-1.57235">
        <ele>58</ele>
        <time>2021-06-06T12:38:44.000Z</time>
      </trkpt>
      <trkpt lat="47.19245" lon="-1.57217">
        <ele>58</ele>
        <time>2021-06-06T12:38:46.000Z</time>
      </trkpt>
      <trkpt lat="47.19247" lon="-1.57199">
        <ele>58</ele>
        <time>2021-06-06T12:38:48.000Z</time>
      </trkpt>
      <trkpt lat="47.19249" lon="-1.57181">
        <ele>57</ele>
        <time>2021-06-06T12:38:50.000Z</time>
      </trkpt>
      <trkpt lat="47.19251" lon="-1.57162">
        <ele>57</ele>
        <time>2021-06-06T12:38:52.000Z</time>
      </trkpt>
      <trkpt lat="47.19254" lon="-1.57142">
        <ele>57</ele>
        <time>2021-06-06T12:38:54.000Z</time>
      </trkpt>
      <trkpt lat="47.19256" lon="-1.57123">
        <ele>56</ele>
        <time>2021-06-06T12:38:56.000Z</time>
      </trkpt>
      <trkpt lat="47.19259" lon="-1.57103">
        <ele>56</ele>
        <time>2021-06-06T12:38:58.000Z</time>
      </trkpt>
      <trkpt lat="47.19261" lon="-1.57085">
        <ele>56</ele>
        <time>2021-06-06T12:39:00.000Z</time>
      </trkpt>
      <trkpt lat="47.19258" lon="-1.57067">
        <ele>55</ele>
        <time>2021-06-06T12:39:02.000Z</time>
      </trkpt>
      <trkpt lat="47.19255" lon="-1.57049">
        <ele>55</ele>
        <time>2021-06-06T12:39:04.000Z</time>
      </trkpt>
      <trkpt lat="47.19262" lon="-1.57032">
        <ele>55</ele>
        <time>2021-06-06T12:39:06.000Z</time>
      </trkpt>
      <trkpt lat="47.19269" lon="-1.57014">
        <ele>54</ele>
        <time>2021-06-06T12:39:08.000Z</time>
      </trkpt>
      <trkpt lat="47.19272" lon="-1.56993">
        <ele>55</ele>
        <time>2021-06-06T12:39:10.000Z</time>
      </trkpt>
      <trkpt lat="47.19274" lon="-1.56971">
        <ele>55</ele>
        <time>2021-06-06T12:39:12.000Z</time>
      </trkpt>
      <trkpt lat="47.19276" lon="-1.5695">
        <ele>55</ele>
        <time>2021-06-06T12:39:14.000Z</time>
      </trkpt>
      <trkpt lat="47.19277" lon="-1.5693">
        <ele>56</ele>
        <time>2021-06-06T12:39:16.000Z</time>
      </trkpt>
      <trkpt lat="47.19278" lon="-1.5691">
        <ele>56</ele>
        <time>2021-06-06T12:39:18.000Z</time>
      </trkpt>
      <trkpt lat="47.19281" lon="-1.56892">
        <ele>56</ele>
        <time>2021-06-06T12:39:20.000Z</time>
      </trkpt>
      <trkpt lat="47.19283" lon="-1.56872">
        <ele>56</ele>
        <time>2021-06-06T12:39:22.000Z</time>
      </trkpt>
      <trkpt lat="47.19285" lon="-1.56854">
        <ele>56</ele>
        <time>2021-06-06T12:39:24.000Z</time>
      </trkpt>
      <trkpt lat="47.19287" lon="-1.56834">
        <ele>56</ele>
        <time>2021-06-06T12:39:26.000Z</time>
      </trkpt>
      <trkpt lat="47.19287" lon="-1.56815">
        <ele>56</ele>
        <time>2021-06-06T12:39:28.000Z</time>
      </trkpt>
      <trkpt lat="47.19288" lon="-1.56796">
        <ele>56</ele>
        <time>2021-06-06T12:39:30.000Z</time>
      </trkpt>
      <trkpt lat="47.19289" lon="-1.56776">
        <ele>56</ele>
        <time>2021-06-06T12:39:32.000Z</time>
      </trkpt>
      <trkpt lat="47.19289" lon="-1.56758">
        <ele>57</ele>
        <time>2021-06-06T12:39:34.000Z</time>
      </trkpt>
      <trkpt lat="47.19288" lon="-1.56739">
        <ele>57</ele>
        <time>2021-06-06T12:39:36.000Z</time>
      </trkpt>
      <trkpt lat="47.19288" lon="-1.56721">
        <ele>57</ele>
        <time>2021-06-06T12:39:38.000Z</time>
      </trkpt>
      <trkpt lat="47.19288" lon="-1.56701">
        <ele>56</ele>
        <time>2021-06-06T12:39:40.000Z</time>
      </trkpt>
      <trkpt lat="47.19287" lon="-1.56682">
        <ele>56</ele>
        <time>2021-06-06T12:39:42.000Z</time>
      </trkpt>
      <trkpt lat="47.19286" lon="-1.56664">
        <ele>56</ele>
        <time>2021-06-06T12:39:44.000Z</time>
      </trkpt>
      <trkpt lat="47.19285" lon="-1.56646">
        <ele>55</ele>
        <time>2021-06-06T12:39:46.000Z</time>
      </trkpt>
      <trkpt lat="47.19284" lon="-1.56628">
        <ele>55</ele>
        <time>2021-06-06T12:39:48.000Z</time>
      </trkpt>
      <trkpt lat="47.19282" lon="-1.5661">
        <ele>55</ele>
        <time>2021-06-06T12:39:50.000Z</time>
      </trkpt>
      <trkpt lat="47.1928" lon="-1.56592">
        <ele>56</ele>
        <time>2021-06-06T12:39:52.000Z</time>
      </trkpt>
      <trkpt lat="47.19278" lon="-1.56574">
        <ele>56</ele>
        <time>2021-06-06T12:39:54.000Z</time>
      </trkpt>
      <trkpt lat="47.19277" lon="-1.56555">
        <ele>56</ele>
        <time>2021-06-06T12:39:56.000Z</time>
      </trkpt>
      <trkpt lat="47.19275" lon="-1.56537">
        <ele>56</ele>
        <time>2021-06-06T12:39:58.000Z</time>
      </trkpt>
      <trkpt lat="47.19273" lon="-1.56519">
        <ele>56</ele>
        <time>2021-06-06T12:40:00.000Z</time>
      </trkpt>
      <trkpt lat="47.19271" lon="-1.56501">
        <ele>56</ele>
        <time>2021-06-06T12:40:02.000Z</time>
      </trkpt>
      <trkpt lat="47.19269" lon="-1.56482">
        <ele>56</ele>
        <time>2021-06-06T12:40:04.000Z</time>
      </trkpt>
      <trkpt lat="47.19267" lon="-1.56464">
        <ele>56</ele>
        <time>2021-06-06T12:40:06.000Z</time>
      </trkpt>
      <trkpt lat="47.19265" lon="-1.56446">
        <ele>56</ele>
        <time>2021-06-06T12:40:08.000Z</time>
      </trkpt>
      <trkpt lat="47.19264" lon="-1.56427">
        <ele>56</ele>
        <time>2021-06-06T12:40:10.000Z</time>
      </trkpt>
      <trkpt lat="47.19263" lon="-1.56409">
        <ele>56</ele>
        <time>2021-06-06T12:40:12.000Z</time>
      </trkpt>
      <trkpt lat="47.19262" lon="-1.56391">
        <ele>56</ele>
        <time>2021-06-06T12:40:14.000Z</time>
      </trkpt>
      <trkpt lat="47.1926" lon="-1.56372">
        <ele>56</ele>
        <time>2021-06-06T12:40:16.000Z</time>
      </trkpt>
      <trkpt lat="47.19256" lon="-1.56355">
        <ele>56</ele>
        <time>2021-06-06T12:40:18.000Z</time>
      </trkpt>
      <trkpt lat="47.19252" lon="-1.56338">
        <ele>57</ele>
        <time>2021-06-06T12:40:20.000Z</time>
      </trkpt>
      <trkpt lat="47.19244" lon="-1.56325">
        <ele>57</ele>
        <time>2021-06-06T12:40:22.000Z</time>
      </trkpt>
      <trkpt lat="47.19236" lon="-1.56311">
        <ele>57</ele>
        <time>2021-06-06T12:40:24.000Z</time>
      </trkpt>
      <trkpt lat="47.19232" lon="-1.56293">
        <ele>57</ele>
        <time>2021-06-06T12:40:26.000Z</time>
      </trkpt>
      <trkpt lat="47.19235" lon="-1.56274">
        <ele>57</ele>
        <time>2021-06-06T12:40:28.000Z</time>
      </trkpt>
      <trkpt lat="47.19241" lon="-1.56257">
        <ele>57</ele>
        <time>2021-06-06T12:40:30.000Z</time>
      </trkpt>
      <trkpt lat="47.19245" lon="-1.56239">
        <ele>56</ele>
        <time>2021-06-06T12:40:32.000Z</time>
      </trkpt>
      <trkpt lat="47.19243" lon="-1.56219">
        <ele>56</ele>
        <time>2021-06-06T12:40:34.000Z</time>
      </trkpt>
      <trkpt lat="47.19242" lon="-1.56199">
        <ele>56</ele>
        <time>2021-06-06T12:40:36.000Z</time>
      </trkpt>
      <trkpt lat="47.19243" lon="-1.56179">
        <ele>56</ele>
        <time>2021-06-06T12:40:38.000Z</time>
      </trkpt>
      <trkpt lat="47.19243" lon="-1.5616">
        <ele>57</ele>
        <time>2021-06-06T12:40:40.000Z</time>
      </trkpt>
      <trkpt lat="47.19243" lon="-1.56141">
        <ele>57</ele>
        <time>2021-06-06T12:40:42.000Z</time>
      </trkpt>
      <trkpt lat="47.19242" lon="-1.56122">
        <ele>57</ele>
        <time>2021-06-06T12:40:44.000Z</time>
      </trkpt>
      <trkpt lat="47.19242" lon="-1.56102">
        <ele>57</ele>
        <time>2021-06-06T12:40:46.000Z</time>
      </trkpt>
      <trkpt lat="47.19241" lon="-1.56083">
        <ele>57</ele>
        <time>2021-06-06T12:40:48.000Z</time>
      </trkpt>
      <trkpt lat="47.19239" lon="-1.56064">
        <ele>57</ele>
        <time>2021-06-06T12:40:50.000Z</time>
      </trkpt>
      <trkpt lat="47.19238" lon="-1.56044">
        <ele>57</ele>
        <time>2021-06-06T12:40:52.000Z</time>
      </trkpt>
      <trkpt lat="47.19236" lon="-1.56024">
        <ele>57</ele>
        <time>2021-06-06T12:40:54.000Z</time>
      </trkpt>
      <trkpt lat="47.19234" lon="-1.56005">
        <ele>57</ele>
        <time>2021-06-06T12:40:56.000Z</time>
      </trkpt>
      <trkpt lat="47.19232" lon="-1.55986">
        <ele>57</ele>
        <time>2021-06-06T12:40:58.000Z</time>
      </trkpt>
      <trkpt lat="47.1923" lon="-1.55967">
        <ele>57</ele>
        <time>2021-06-06T12:41:00.000Z</time>
      </trkpt>
      <trkpt lat="47.19228" lon="-1.55949">
        <ele>57</ele>
        <time>2021-06-06T12:41:02.000Z</time>
      </trkpt>
      <trkpt lat="47.19226" lon="-1.5593">
        <ele>58</ele>
        <time>2021-06-06T12:41:04.000Z</time>
      </trkpt>
      <trkpt lat="47.19225" lon="-1.55912">
        <ele>57</ele>
        <time>2021-06-06T12:41:06.000Z</time>
      </trkpt>
      <trkpt lat="47.19223" lon="-1.55893">
        <ele>57</ele>
        <time>2021-06-06T12:41:08.000Z</time>
      </trkpt>
      <trkpt lat="47.19222" lon="-1.55875">
        <ele>57</ele>
        <time>2021-06-06T12:41:10.000Z</time>
      </trkpt>
      <trkpt lat="47.19221" lon="-1.55856">
        <ele>57</ele>
        <time>2021-06-06T12:41:12.000Z</time>
      </trkpt>
      <trkpt lat="47.1922" lon="-1.55838">
        <ele>56</ele>
        <time>2021-06-06T12:41:14.000Z</time>
      </trkpt>
      <trkpt lat="47.19219" lon="-1.55819">
        <ele>57</ele>
        <time>2021-06-06T12:41:16.000Z</time>
      </trkpt>
      <trkpt lat="47.19219" lon="-1.55801">
        <ele>57</ele>
        <time>2021-06-06T12:41:18.000Z</time>
      </trkpt>
      <trkpt lat="47.19219" lon="-1.55782">
        <ele>57</ele>
        <time>2021-06-06T12:41:20.000Z</time>
      </trkpt>
      <trkpt lat="47.19218" lon="-1.55764">
        <ele>57</ele>
        <time>2021-06-06T12:41:22.000Z</time>
      </trkpt>
      <trkpt lat="47.19218" lon="-1.55745">
        <ele>57</ele>
        <time>2021-06-06T12:41:24.000Z</time>
      </trkpt>
      <trkpt lat="47.19218" lon="-1.55726">
        <ele>57</ele>
        <time>2021-06-06T12:41:26.000Z</time>
      </trkpt>
      <trkpt lat="47.19218" lon="-1.55707">
        <ele>57</ele>
        <time>2021-06-06T12:41:28.000Z</time>
      </trkpt>
      <trkpt lat="47.19219" lon="-1.55688">
        <ele>57</ele>
        <time>2021-06-06T12:41:30.000Z</time>
      </trkpt>
      <trkpt lat="47.19219" lon="-1.55669">
        <ele>57</ele>
        <time>2021-06-06T12:41:32.000Z</time>
      </trkpt>
      <trkpt lat="47.1922" lon="-1.5565">
        <ele>57</ele>
        <time>2021-06-06T12:41:34.000Z</time>
      </trkpt>
      <trkpt lat="47.19221" lon="-1.55631">
        <ele>57</ele>
        <time>2021-06-06T12:41:36.000Z</time>
      </trkpt>
      <trkpt lat="47.19222" lon="-1.55611">
        <ele>57</ele>
        <time>2021-06-06T12:41:38.000Z</time>
      </trkpt>
      <trkpt lat="47.19223" lon="-1.55592">
        <ele>57</ele>
        <time>2021-06-06T12:41:40.000Z</time>
      </trkpt>
      <trkpt lat="47.19225" lon="-1.55573">
        <ele>57</ele>
        <time>2021-06-06T12:41:42.000Z</time>
      </trkpt>
      <trkpt lat="47.19227" lon="-1.55555">
        <ele>57</ele>
        <time>2021-06-06T12:41:44.000Z</time>
      </trkpt>
      <trkpt lat="47.19229" lon="-1.55536">
        <ele>57</ele>
        <time>2021-06-06T12:41:46.000Z</time>
      </trkpt>
      <trkpt lat="47.1923" lon="-1.55518">
        <ele>57</ele>
        <time>2021-06-06T12:41:48.000Z</time>
      </trkpt>
      <trkpt lat="47.19231" lon="-1.555">
        <ele>57</ele>
        <time>2021-06-06T12:41:50.000Z</time>
      </trkpt>
      <trkpt lat="47.19231" lon="-1.55481">
        <ele>57</ele>
        <time>2021-06-06T12:41:52.000Z</time>
      </trkpt>
      <trkpt lat="47.19226" lon="-1.55464">
        <ele>56</ele>
        <time>2021-06-06T12:41:54.000Z</time>
      </trkpt>
      <trkpt lat="47.19217" lon="-1.55452">
        <ele>57</ele>
        <time>2021-06-06T12:41:56.000Z</time>
      </trkpt>
      <trkpt lat="47.19213" lon="-1.55435">
        <ele>56</ele>
        <time>2021-06-06T12:41:58.000Z</time>
      </trkpt>
      <trkpt lat="47.19218" lon="-1.55416">
        <ele>56</ele>
        <time>2021-06-06T12:42:00.000Z</time>
      </trkpt>
      <trkpt lat="47.19228" lon="-1.55403">
        <ele>56</ele>
        <time>2021-06-06T12:42:02.000Z</time>
      </trkpt>
      <trkpt lat="47.19236" lon="-1.5539">
        <ele>57</ele>
        <time>2021-06-06T12:42:04.000Z</time>
      </trkpt>
      <trkpt lat="47.19242" lon="-1.55375">
        <ele>57</ele>
        <time>2021-06-06T12:42:06.000Z</time>
      </trkpt>
      <trkpt lat="47.19248" lon="-1.55358">
        <ele>57</ele>
        <time>2021-06-06T12:42:08.000Z</time>
      </trkpt>
      <trkpt lat="47.19254" lon="-1.5534">
        <ele>57</ele>
        <time>2021-06-06T12:42:10.000Z</time>
      </trkpt>
      <trkpt lat="47.19259" lon="-1.55322">
        <ele>57</ele>
        <time>2021-06-06T12:42:12.000Z</time>
      </trkpt>
      <trkpt lat="47.19263" lon="-1.55305">
        <ele>57</ele>
        <time>2021-06-06T12:42:14.000Z</time>
      </trkpt>
      <trkpt lat="47.19266" lon="-1.55287">
        <ele>57</ele>
        <time>2021-06-06T12:42:16.000Z</time>
      </trkpt>
      <trkpt lat="47.1927" lon="-1.5527">
        <ele>57</ele>
        <time>2021-06-06T12:42:18.000Z</time>
      </trkpt>
      <trkpt lat="47.19273" lon="-1.55253">
        <ele>57</ele>
        <time>2021-06-06T12:42:20.000Z</time>
      </trkpt>
      <trkpt lat="47.19277" lon="-1.55236">
        <ele>57</ele>
        <time>2021-06-06T12:42:22.000Z</time>
      </trkpt>
      <trkpt lat="47.19281" lon="-1.55218">
        <ele>57</ele>
        <time>2021-06-06T12:42:24.000Z</time>
      </trkpt>
      <trkpt lat="47.19285" lon="-1.55201">
        <ele>57</ele>
        <time>2021-06-06T12:42:26.000Z</time>
      </trkpt>
      <trkpt lat="47.1929" lon="-1.55183">
        <ele>58</ele>
        <time>2021-06-06T12:42:28.000Z</time>
      </trkpt>
      <trkpt lat="47.19294" lon="-1.55165">
        <ele>58</ele>
        <time>2021-06-06T12:42:30.000Z</time>
      </trkpt>
      <trkpt lat="47.19299" lon="-1.55148">
        <ele>58</ele>
        <time>2021-06-06T12:42:32.000Z</time>
      </trkpt>
      <trkpt lat="47.19303" lon="-1.55132">
        <ele>59</ele>
        <time>2021-06-06T12:42:34.000Z</time>
      </trkpt>
      <trkpt lat="47.19307" lon="-1.55115">
        <ele>60</ele>
        <time>2021-06-06T12:42:36.000Z</time>
      </trkpt>
      <trkpt lat="47.19311" lon="-1.55099">
        <ele>60</ele>
        <time>2021-06-06T12:42:38.000Z</time>
      </trkpt>
      <trkpt lat="47.19315" lon="-1.55083">
        <ele>60</ele>
        <time>2021-06-06T12:42:40.000Z</time>
      </trkpt>
      <trkpt lat="47.19319" lon="-1.55068">
        <ele>61</ele>
        <time>2021-06-06T12:42:42.000Z</time>
      </trkpt>
      <trkpt lat="47.19324" lon="-1.55051">
        <ele>61</ele>
        <time>2021-06-06T12:42:44.000Z</time>
      </trkpt>
      <trkpt lat="47.19328" lon="-1.55035">
        <ele>62</ele>
        <time>2021-06-06T12:42:46.000Z</time>
      </trkpt>
      <trkpt lat="47.19332" lon="-1.55018">
        <ele>62</ele>
        <time>2021-06-06T12:42:48.000Z</time>
      </trkpt>
      <trkpt lat="47.19337" lon="-1.55002">
        <ele>63</ele>
        <time>2021-06-06T12:42:50.000Z</time>
      </trkpt>
      <trkpt lat="47.19341" lon="-1.54985">
        <ele>63</ele>
        <time>2021-06-06T12:42:52.000Z</time>
      </trkpt>
      <trkpt lat="47.19345" lon="-1.54969">
        <ele>64</ele>
        <time>2021-06-06T12:42:54.000Z</time>
      </trkpt>
      <trkpt lat="47.19349" lon="-1.54953">
        <ele>64</ele>
        <time>2021-06-06T12:42:56.000Z</time>
      </trkpt>
      <trkpt lat="47.19353" lon="-1.54937">
        <ele>64</ele>
        <time>2021-06-06T12:42:58.000Z</time>
      </trkpt>
      <trkpt lat="47.19357" lon="-1.54922">
        <ele>64</ele>
        <time>2021-06-06T12:43:00.000Z</time>
      </trkpt>
      <trkpt lat="47.1936" lon="-1.54906">
        <ele>64</ele>
        <time>2021-06-06T12:43:02.000Z</time>
      </trkpt>
      <trkpt lat="47.19364" lon="-1.5489">
        <ele>63</ele>
        <time>2021-06-06T12:43:04.000Z</time>
      </trkpt>
      <trkpt lat="47.19367" lon="-1.54873">
        <ele>63</ele>
        <time>2021-06-06T12:43:06.000Z</time>
      </trkpt>
      <trkpt lat="47.19372" lon="-1.54858">
        <ele>64</ele>
        <time>2021-06-06T12:43:08.000Z</time>
      </trkpt>
      <trkpt lat="47.19376" lon="-1.54841">
        <ele>64</ele>
        <time>2021-06-06T12:43:10.000Z</time>
      </trkpt>
      <trkpt lat="47.1938" lon="-1.54821">
        <ele>64</ele>
        <time>2021-06-06T12:43:12.000Z</time>
      </trkpt>
      <trkpt lat="47.19386" lon="-1.54801">
        <ele>62</ele>
        <time>2021-06-06T12:43:14.000Z</time>
      </trkpt>
      <trkpt lat="47.1939" lon="-1.54778">
        <ele>62</ele>
        <time>2021-06-06T12:43:16.000Z</time>
      </trkpt>
      <trkpt lat="47.19395" lon="-1.54756">
        <ele>60</ele>
        <time>2021-06-06T12:43:18.000Z</time>
      </trkpt>
      <trkpt lat="47.19401" lon="-1.54733">
        <ele>60</ele>
        <time>2021-06-06T12:43:20.000Z</time>
      </trkpt>
      <trkpt lat="47.19405" lon="-1.5471">
        <ele>59</ele>
        <time>2021-06-06T12:43:22.000Z</time>
      </trkpt>
      <trkpt lat="47.1941" lon="-1.54687">
        <ele>58</ele>
        <time>2021-06-06T12:43:24.000Z</time>
      </trkpt>
      <trkpt lat="47.19418" lon="-1.54666">
        <ele>59</ele>
        <time>2021-06-06T12:43:26.000Z</time>
      </trkpt>
      <trkpt lat="47.19423" lon="-1.54647">
        <ele>60</ele>
        <time>2021-06-06T12:43:28.000Z</time>
      </trkpt>
      <trkpt lat="47.19428" lon="-1.54633">
        <ele>60</ele>
        <time>2021-06-06T12:43:30.000Z</time>
      </trkpt>
      <trkpt lat="47.19429" lon="-1.54619">
        <ele>59</ele>
        <time>2021-06-06T12:43:33.000Z</time>
      </trkpt>
      <trkpt lat="47.19421" lon="-1.54609">
        <ele>60</ele>
        <time>2021-06-06T12:43:35.000Z</time>
      </trkpt>
      <trkpt lat="47.19419" lon="-1.54592">
        <ele>60</ele>
        <time>2021-06-06T12:43:37.000Z</time>
      </trkpt>
      <trkpt lat="47.19424" lon="-1.54575">
        <ele>60</ele>
        <time>2021-06-06T12:43:39.000Z</time>
      </trkpt>
      <trkpt lat="47.19432" lon="-1.5456">
        <ele>59</ele>
        <time>2021-06-06T12:43:41.000Z</time>
      </trkpt>
      <trkpt lat="47.19443" lon="-1.54551">
        <ele>59</ele>
        <time>2021-06-06T12:43:43.000Z</time>
      </trkpt>
      <trkpt lat="47.1945" lon="-1.54537">
        <ele>59</ele>
        <time>2021-06-06T12:43:45.000Z</time>
      </trkpt>
      <trkpt lat="47.19456" lon="-1.5452">
        <ele>58</ele>
        <time>2021-06-06T12:43:47.000Z</time>
      </trkpt>
      <trkpt lat="47.19462" lon="-1.54504">
        <ele>58</ele>
        <time>2021-06-06T12:43:49.000Z</time>
      </trkpt>
      <trkpt lat="47.19467" lon="-1.54489">
        <ele>58</ele>
        <time>2021-06-06T12:43:51.000Z</time>
      </trkpt>
      <trkpt lat="47.19471" lon="-1.54476">
        <ele>58</ele>
        <time>2021-06-06T12:43:53.000Z</time>
      </trkpt>
      <trkpt lat="47.19477" lon="-1.54465">
        <ele>58</ele>
        <time>2021-06-06T12:43:55.000Z</time>
      </trkpt>
      <trkpt lat="47.19488" lon="-1.54457">
        <ele>58</ele>
        <time>2021-06-06T12:43:57.000Z</time>
      </trkpt>
      <trkpt lat="47.19499" lon="-1.54446">
        <ele>59</ele>
        <time>2021-06-06T12:43:59.000Z</time>
      </trkpt>
      <trkpt lat="47.1951" lon="-1.54438">
        <ele>58</ele>
        <time>2021-06-06T12:44:01.000Z</time>
      </trkpt>
      <trkpt lat="47.19522" lon="-1.54428">
        <ele>59</ele>
        <time>2021-06-06T12:44:03.000Z</time>
      </trkpt>
      <trkpt lat="47.19533" lon="-1.5442">
        <ele>58</ele>
        <time>2021-06-06T12:44:05.000Z</time>
      </trkpt>
      <trkpt lat="47.19545" lon="-1.5441">
        <ele>58</ele>
        <time>2021-06-06T12:44:07.000Z</time>
      </trkpt>
      <trkpt lat="47.19557" lon="-1.54401">
        <ele>58</ele>
        <time>2021-06-06T12:44:09.000Z</time>
      </trkpt>
      <trkpt lat="47.19569" lon="-1.54392">
        <ele>58</ele>
        <time>2021-06-06T12:44:11.000Z</time>
      </trkpt>
      <trkpt lat="47.19581" lon="-1.54382">
        <ele>58</ele>
        <time>2021-06-06T12:44:13.000Z</time>
      </trkpt>
      <trkpt lat="47.19593" lon="-1.54372">
        <ele>58</ele>
        <time>2021-06-06T12:44:15.000Z</time>
      </trkpt>
      <trkpt lat="47.19605" lon="-1.54362">
        <ele>57</ele>
        <time>2021-06-06T12:44:17.000Z</time>
      </trkpt>
      <trkpt lat="47.19616" lon="-1.5435">
        <ele>57</ele>
        <time>2021-06-06T12:44:19.000Z</time>
      </trkpt>
      <trkpt lat="47.19625" lon="-1.54335">
        <ele>57</ele>
        <time>2021-06-06T12:44:21.000Z</time>
      </trkpt>
      <trkpt lat="47.19635" lon="-1.5432">
        <ele>57</ele>
        <time>2021-06-06T12:44:23.000Z</time>
      </trkpt>
      <trkpt lat="47.19646" lon="-1.54308">
        <ele>57</ele>
        <time>2021-06-06T12:44:25.000Z</time>
      </trkpt>
      <trkpt lat="47.19657" lon="-1.54298">
        <ele>57</ele>
        <time>2021-06-06T12:44:27.000Z</time>
      </trkpt>
      <trkpt lat="47.19668" lon="-1.5429">
        <ele>57</ele>
        <time>2021-06-06T12:44:29.000Z</time>
      </trkpt>
      <trkpt lat="47.19678" lon="-1.54282">
        <ele>57</ele>
        <time>2021-06-06T12:44:31.000Z</time>
      </trkpt>
      <trkpt lat="47.19688" lon="-1.54275">
        <ele>58</ele>
        <time>2021-06-06T12:44:33.000Z</time>
      </trkpt>
      <trkpt lat="47.19697" lon="-1.54269">
        <ele>59</ele>
        <time>2021-06-06T12:44:35.000Z</time>
      </trkpt>
      <trkpt lat="47.19707" lon="-1.54264">
        <ele>59</ele>
        <time>2021-06-06T12:44:37.000Z</time>
      </trkpt>
      <trkpt lat="47.19719" lon="-1.54255">
        <ele>59</ele>
        <time>2021-06-06T12:44:39.000Z</time>
      </trkpt>
      <trkpt lat="47.19731" lon="-1.54245">
        <ele>58</ele>
        <time>2021-06-06T12:44:41.000Z</time>
      </trkpt>
      <trkpt lat="47.19741" lon="-1.54235">
        <ele>58</ele>
        <time>2021-06-06T12:44:43.000Z</time>
      </trkpt>
      <trkpt lat="47.19749" lon="-1.54226">
        <ele>59</ele>
        <time>2021-06-06T12:44:45.000Z</time>
      </trkpt>
      <trkpt lat="47.19757" lon="-1.54217">
        <ele>58</ele>
        <time>2021-06-06T12:44:47.000Z</time>
      </trkpt>
      <trkpt lat="47.19767" lon="-1.54205">
        <ele>58</ele>
        <time>2021-06-06T12:44:50.000Z</time>
      </trkpt>
      <trkpt lat="47.19777" lon="-1.54201">
        <ele>58</ele>
        <time>2021-06-06T12:44:54.000Z</time>
      </trkpt>
      <trkpt lat="47.19789" lon="-1.54208">
        <ele>59</ele>
        <time>2021-06-06T12:44:58.000Z</time>
      </trkpt>
      <trkpt lat="47.19798" lon="-1.54215">
        <ele>59</ele>
        <time>2021-06-06T12:45:00.000Z</time>
      </trkpt>
      <trkpt lat="47.19809" lon="-1.54225">
        <ele>59</ele>
        <time>2021-06-06T12:45:02.000Z</time>
      </trkpt>
      <trkpt lat="47.19821" lon="-1.54234">
        <ele>59</ele>
        <time>2021-06-06T12:45:04.000Z</time>
      </trkpt>
      <trkpt lat="47.19835" lon="-1.54243">
        <ele>59</ele>
        <time>2021-06-06T12:45:06.000Z</time>
      </trkpt>
      <trkpt lat="47.19848" lon="-1.54251">
        <ele>60</ele>
        <time>2021-06-06T12:45:08.000Z</time>
      </trkpt>
      <trkpt lat="47.1986" lon="-1.54259">
        <ele>60</ele>
        <time>2021-06-06T12:45:10.000Z</time>
      </trkpt>
      <trkpt lat="47.19872" lon="-1.54268">
        <ele>60</ele>
        <time>2021-06-06T12:45:12.000Z</time>
      </trkpt>
      <trkpt lat="47.19884" lon="-1.54276">
        <ele>60</ele>
        <time>2021-06-06T12:45:14.000Z</time>
      </trkpt>
      <trkpt lat="47.19896" lon="-1.54284">
        <ele>61</ele>
        <time>2021-06-06T12:45:16.000Z</time>
      </trkpt>
      <trkpt lat="47.19907" lon="-1.54292">
        <ele>61</ele>
        <time>2021-06-06T12:45:18.000Z</time>
      </trkpt>
      <trkpt lat="47.19919" lon="-1.543">
        <ele>62</ele>
        <time>2021-06-06T12:45:20.000Z</time>
      </trkpt>
      <trkpt lat="47.19929" lon="-1.54307">
        <ele>61</ele>
        <time>2021-06-06T12:45:22.000Z</time>
      </trkpt>
      <trkpt lat="47.1994" lon="-1.54314">
        <ele>61</ele>
        <time>2021-06-06T12:45:24.000Z</time>
      </trkpt>
      <trkpt lat="47.19951" lon="-1.54323">
        <ele>61</ele>
        <time>2021-06-06T12:45:26.000Z</time>
      </trkpt>
      <trkpt lat="47.19962" lon="-1.54331">
        <ele>61</ele>
        <time>2021-06-06T12:45:28.000Z</time>
      </trkpt>
      <trkpt lat="47.19973" lon="-1.54339">
        <ele>61</ele>
        <time>2021-06-06T12:45:30.000Z</time>
      </trkpt>
      <trkpt lat="47.19985" lon="-1.54347">
        <ele>60</ele>
        <time>2021-06-06T12:45:32.000Z</time>
      </trkpt>
      <trkpt lat="47.19996" lon="-1.54354">
        <ele>59</ele>
        <time>2021-06-06T12:45:34.000Z</time>
      </trkpt>
      <trkpt lat="47.20008" lon="-1.54362">
        <ele>59</ele>
        <time>2021-06-06T12:45:36.000Z</time>
      </trkpt>
      <trkpt lat="47.2002" lon="-1.5437">
        <ele>59</ele>
        <time>2021-06-06T12:45:38.000Z</time>
      </trkpt>
      <trkpt lat="47.20033" lon="-1.54376">
        <ele>59</ele>
        <time>2021-06-06T12:45:40.000Z</time>
      </trkpt>
      <trkpt lat="47.20043" lon="-1.54383">
        <ele>59</ele>
        <time>2021-06-06T12:45:42.000Z</time>
      </trkpt>
      <trkpt lat="47.20054" lon="-1.54372">
        <ele>60</ele>
        <time>2021-06-06T12:45:46.000Z</time>
      </trkpt>
      <trkpt lat="47.20061" lon="-1.54362">
        <ele>61</ele>
        <time>2021-06-06T12:45:48.000Z</time>
      </trkpt>
      <trkpt lat="47.20061" lon="-1.54348">
        <ele>60</ele>
        <time>2021-06-06T12:45:52.000Z</time>
      </trkpt>
      <trkpt lat="47.20053" lon="-1.54337">
        <ele>59</ele>
        <time>2021-06-06T12:45:54.000Z</time>
      </trkpt>
      <trkpt lat="47.20047" lon="-1.54318">
        <ele>59</ele>
        <time>2021-06-06T12:45:56.000Z</time>
      </trkpt>
      <trkpt lat="47.2005" lon="-1.5429">
        <ele>58</ele>
        <time>2021-06-06T12:45:59.000Z</time>
      </trkpt>
      <trkpt lat="47.20058" lon="-1.54262">
        <ele>58</ele>
        <time>2021-06-06T12:46:02.000Z</time>
      </trkpt>
      <trkpt lat="47.20064" lon="-1.54243">
        <ele>58</ele>
        <time>2021-06-06T12:46:04.000Z</time>
      </trkpt>
      <trkpt lat="47.2007" lon="-1.54226">
        <ele>58</ele>
        <time>2021-06-06T12:46:06.000Z</time>
      </trkpt>
      <trkpt lat="47.20075" lon="-1.54209">
        <ele>59</ele>
        <time>2021-06-06T12:46:08.000Z</time>
      </trkpt>
      <trkpt lat="47.20081" lon="-1.54192">
        <ele>59</ele>
        <time>2021-06-06T12:46:10.000Z</time>
      </trkpt>
      <trkpt lat="47.20087" lon="-1.54175">
        <ele>59</ele>
        <time>2021-06-06T12:46:12.000Z</time>
      </trkpt>
      <trkpt lat="47.20092" lon="-1.54159">
        <ele>59</ele>
        <time>2021-06-06T12:46:14.000Z</time>
      </trkpt>
      <trkpt lat="47.20097" lon="-1.54139">
        <ele>59</ele>
        <time>2021-06-06T12:46:16.000Z</time>
      </trkpt>
      <trkpt lat="47.20103" lon="-1.54121">
        <ele>59</ele>
        <time>2021-06-06T12:46:18.000Z</time>
      </trkpt>
      <trkpt lat="47.20108" lon="-1.54103">
        <ele>59</ele>
        <time>2021-06-06T12:46:20.000Z</time>
      </trkpt>
      <trkpt lat="47.20114" lon="-1.54086">
        <ele>59</ele>
        <time>2021-06-06T12:46:22.000Z</time>
      </trkpt>
      <trkpt lat="47.20123" lon="-1.54058">
        <ele>59</ele>
        <time>2021-06-06T12:46:25.000Z</time>
      </trkpt>
      <trkpt lat="47.20131" lon="-1.54033">
        <ele>59</ele>
        <time>2021-06-06T12:46:28.000Z</time>
      </trkpt>
      <trkpt lat="47.20137" lon="-1.54015">
        <ele>59</ele>
        <time>2021-06-06T12:46:30.000Z</time>
      </trkpt>
      <trkpt lat="47.20147" lon="-1.53987">
        <ele>59</ele>
        <time>2021-06-06T12:46:33.000Z</time>
      </trkpt>
      <trkpt lat="47.20153" lon="-1.5397">
        <ele>59</ele>
        <time>2021-06-06T12:46:35.000Z</time>
      </trkpt>
      <trkpt lat="47.20159" lon="-1.53952">
        <ele>59</ele>
        <time>2021-06-06T12:46:37.000Z</time>
      </trkpt>
      <trkpt lat="47.20165" lon="-1.53935">
        <ele>59</ele>
        <time>2021-06-06T12:46:39.000Z</time>
      </trkpt>
      <trkpt lat="47.20174" lon="-1.53911">
        <ele>59</ele>
        <time>2021-06-06T12:46:42.000Z</time>
      </trkpt>
      <trkpt lat="47.2018" lon="-1.53894">
        <ele>59</ele>
        <time>2021-06-06T12:46:44.000Z</time>
      </trkpt>
      <trkpt lat="47.20186" lon="-1.53877">
        <ele>59</ele>
        <time>2021-06-06T12:46:46.000Z</time>
      </trkpt>
      <trkpt lat="47.20192" lon="-1.5386">
        <ele>59</ele>
        <time>2021-06-06T12:46:48.000Z</time>
      </trkpt>
      <trkpt lat="47.20199" lon="-1.53844">
        <ele>60</ele>
        <time>2021-06-06T12:46:50.000Z</time>
      </trkpt>
      <trkpt lat="47.20205" lon="-1.53827">
        <ele>59</ele>
        <time>2021-06-06T12:46:52.000Z</time>
      </trkpt>
      <trkpt lat="47.20211" lon="-1.5381">
        <ele>59</ele>
        <time>2021-06-06T12:46:54.000Z</time>
      </trkpt>
      <trkpt lat="47.20217" lon="-1.53793">
        <ele>60</ele>
        <time>2021-06-06T12:46:56.000Z</time>
      </trkpt>
      <trkpt lat="47.20223" lon="-1.53776">
        <ele>61</ele>
        <time>2021-06-06T12:46:58.000Z</time>
      </trkpt>
      <trkpt lat="47.2023" lon="-1.53758">
        <ele>60</ele>
        <time>2021-06-06T12:47:00.000Z</time>
      </trkpt>
      <trkpt lat="47.20236" lon="-1.53741">
        <ele>60</ele>
        <time>2021-06-06T12:47:02.000Z</time>
      </trkpt>
      <trkpt lat="47.20244" lon="-1.53724">
        <ele>60</ele>
        <time>2021-06-06T12:47:04.000Z</time>
      </trkpt>
      <trkpt lat="47.20251" lon="-1.53705">
        <ele>60</ele>
        <time>2021-06-06T12:47:06.000Z</time>
      </trkpt>
      <trkpt lat="47.20258" lon="-1.53686">
        <ele>59</ele>
        <time>2021-06-06T12:47:08.000Z</time>
      </trkpt>
      <trkpt lat="47.20264" lon="-1.53667">
        <ele>59</ele>
        <time>2021-06-06T12:47:10.000Z</time>
      </trkpt>
      <trkpt lat="47.2027" lon="-1.53649">
        <ele>59</ele>
        <time>2021-06-06T12:47:12.000Z</time>
      </trkpt>
      <trkpt lat="47.20276" lon="-1.53634">
        <ele>59</ele>
        <time>2021-06-06T12:47:14.000Z</time>
      </trkpt>
      <trkpt lat="47.20279" lon="-1.5362">
        <ele>59</ele>
        <time>2021-06-06T12:47:16.000Z</time>
      </trkpt>
      <trkpt lat="47.20283" lon="-1.53603">
        <ele>59</ele>
        <time>2021-06-06T12:47:18.000Z</time>
      </trkpt>
      <trkpt lat="47.20292" lon="-1.53584">
        <ele>60</ele>
        <time>2021-06-06T12:47:20.000Z</time>
      </trkpt>
      <trkpt lat="47.20302" lon="-1.53558">
        <ele>61</ele>
        <time>2021-06-06T12:47:23.000Z</time>
      </trkpt>
      <trkpt lat="47.20309" lon="-1.53541">
        <ele>61</ele>
        <time>2021-06-06T12:47:25.000Z</time>
      </trkpt>
      <trkpt lat="47.20316" lon="-1.53525">
        <ele>61</ele>
        <time>2021-06-06T12:47:27.000Z</time>
      </trkpt>
      <trkpt lat="47.20322" lon="-1.53508">
        <ele>62</ele>
        <time>2021-06-06T12:47:29.000Z</time>
      </trkpt>
      <trkpt lat="47.20329" lon="-1.5349">
        <ele>62</ele>
        <time>2021-06-06T12:47:31.000Z</time>
      </trkpt>
      <trkpt lat="47.20335" lon="-1.53473">
        <ele>62</ele>
        <time>2021-06-06T12:47:33.000Z</time>
      </trkpt>
      <trkpt lat="47.20343" lon="-1.53455">
        <ele>63</ele>
        <time>2021-06-06T12:47:35.000Z</time>
      </trkpt>
      <trkpt lat="47.2035" lon="-1.53437">
        <ele>62</ele>
        <time>2021-06-06T12:47:37.000Z</time>
      </trkpt>
      <trkpt lat="47.20357" lon="-1.53421">
        <ele>61</ele>
        <time>2021-06-06T12:47:39.000Z</time>
      </trkpt>
      <trkpt lat="47.20363" lon="-1.53404">
        <ele>61</ele>
        <time>2021-06-06T12:47:41.000Z</time>
      </trkpt>
      <trkpt lat="47.2037" lon="-1.53387">
        <ele>60</ele>
        <time>2021-06-06T12:47:43.000Z</time>
      </trkpt>
      <trkpt lat="47.20377" lon="-1.5337">
        <ele>59</ele>
        <time>2021-06-06T12:47:45.000Z</time>
      </trkpt>
      <trkpt lat="47.20384" lon="-1.53353">
        <ele>58</ele>
        <time>2021-06-06T12:47:47.000Z</time>
      </trkpt>
      <trkpt lat="47.2039" lon="-1.53336">
        <ele>58</ele>
        <time>2021-06-06T12:47:49.000Z</time>
      </trkpt>
      <trkpt lat="47.20396" lon="-1.53319">
        <ele>58</ele>
        <time>2021-06-06T12:47:51.000Z</time>
      </trkpt>
      <trkpt lat="47.20403" lon="-1.53304">
        <ele>59</ele>
        <time>2021-06-06T12:47:53.000Z</time>
      </trkpt>
      <trkpt lat="47.20409" lon="-1.53287">
        <ele>59</ele>
        <time>2021-06-06T12:47:55.000Z</time>
      </trkpt>
      <trkpt lat="47.20415" lon="-1.5327">
        <ele>60</ele>
        <time>2021-06-06T12:47:57.000Z</time>
      </trkpt>
      <trkpt lat="47.20422" lon="-1.53253">
        <ele>60</ele>
        <time>2021-06-06T12:47:59.000Z</time>
      </trkpt>
      <trkpt lat="47.20428" lon="-1.53236">
        <ele>60</ele>
        <time>2021-06-06T12:48:01.000Z</time>
      </trkpt>
      <trkpt lat="47.20435" lon="-1.53219">
        <ele>60</ele>
        <time>2021-06-06T12:48:03.000Z</time>
      </trkpt>
      <trkpt lat="47.20442" lon="-1.53202">
        <ele>59</ele>
        <time>2021-06-06T12:48:05.000Z</time>
      </trkpt>
      <trkpt lat="47.20449" lon="-1.53185">
        <ele>59</ele>
        <time>2021-06-06T12:48:07.000Z</time>
      </trkpt>
      <trkpt lat="47.20456" lon="-1.53168">
        <ele>59</ele>
        <time>2021-06-06T12:48:09.000Z</time>
      </trkpt>
      <trkpt lat="47.20462" lon="-1.5315">
        <ele>59</ele>
        <time>2021-06-06T12:48:11.000Z</time>
      </trkpt>
      <trkpt lat="47.20469" lon="-1.53133">
        <ele>59</ele>
        <time>2021-06-06T12:48:13.000Z</time>
      </trkpt>
      <trkpt lat="47.20476" lon="-1.53117">
        <ele>59</ele>
        <time>2021-06-06T12:48:15.000Z</time>
      </trkpt>
      <trkpt lat="47.20483" lon="-1.53099">
        <ele>59</ele>
        <time>2021-06-06T12:48:17.000Z</time>
      </trkpt>
      <trkpt lat="47.20489" lon="-1.53081">
        <ele>60</ele>
        <time>2021-06-06T12:48:19.000Z</time>
      </trkpt>
      <trkpt lat="47.20497" lon="-1.53063">
        <ele>60</ele>
        <time>2021-06-06T12:48:21.000Z</time>
      </trkpt>
      <trkpt lat="47.20504" lon="-1.53046">
        <ele>60</ele>
        <time>2021-06-06T12:48:23.000Z</time>
      </trkpt>
      <trkpt lat="47.20511" lon="-1.53028">
        <ele>60</ele>
        <time>2021-06-06T12:48:25.000Z</time>
      </trkpt>
      <trkpt lat="47.20518" lon="-1.53012">
        <ele>59</ele>
        <time>2021-06-06T12:48:27.000Z</time>
      </trkpt>
      <trkpt lat="47.20525" lon="-1.52996">
        <ele>60</ele>
        <time>2021-06-06T12:48:29.000Z</time>
      </trkpt>
      <trkpt lat="47.20533" lon="-1.52981">
        <ele>60</ele>
        <time>2021-06-06T12:48:31.000Z</time>
      </trkpt>
      <trkpt lat="47.2054" lon="-1.52966">
        <ele>60</ele>
        <time>2021-06-06T12:48:33.000Z</time>
      </trkpt>
      <trkpt lat="47.20548" lon="-1.5295">
        <ele>60</ele>
        <time>2021-06-06T12:48:35.000Z</time>
      </trkpt>
      <trkpt lat="47.20555" lon="-1.52933">
        <ele>60</ele>
        <time>2021-06-06T12:48:37.000Z</time>
      </trkpt>
      <trkpt lat="47.20562" lon="-1.52917">
        <ele>60</ele>
        <time>2021-06-06T12:48:39.000Z</time>
      </trkpt>
      <trkpt lat="47.20569" lon="-1.529">
        <ele>60</ele>
        <time>2021-06-06T12:48:41.000Z</time>
      </trkpt>
      <trkpt lat="47.20576" lon="-1.52884">
        <ele>59</ele>
        <time>2021-06-06T12:48:43.000Z</time>
      </trkpt>
      <trkpt lat="47.20584" lon="-1.52868">
        <ele>59</ele>
        <time>2021-06-06T12:48:45.000Z</time>
      </trkpt>
      <trkpt lat="47.20591" lon="-1.52853">
        <ele>59</ele>
        <time>2021-06-06T12:48:47.000Z</time>
      </trkpt>
      <trkpt lat="47.20598" lon="-1.52836">
        <ele>58</ele>
        <time>2021-06-06T12:48:49.000Z</time>
      </trkpt>
      <trkpt lat="47.20606" lon="-1.5282">
        <ele>59</ele>
        <time>2021-06-06T12:48:51.000Z</time>
      </trkpt>
      <trkpt lat="47.20614" lon="-1.52806">
        <ele>59</ele>
        <time>2021-06-06T12:48:53.000Z</time>
      </trkpt>
      <trkpt lat="47.20622" lon="-1.5279">
        <ele>59</ele>
        <time>2021-06-06T12:48:55.000Z</time>
      </trkpt>
      <trkpt lat="47.2063" lon="-1.52774">
        <ele>59</ele>
        <time>2021-06-06T12:48:57.000Z</time>
      </trkpt>
      <trkpt lat="47.20638" lon="-1.52759">
        <ele>59</ele>
        <time>2021-06-06T12:48:59.000Z</time>
      </trkpt>
      <trkpt lat="47.20646" lon="-1.52743">
        <ele>60</ele>
        <time>2021-06-06T12:49:01.000Z</time>
      </trkpt>
      <trkpt lat="47.20653" lon="-1.52727">
        <ele>60</ele>
        <time>2021-06-06T12:49:03.000Z</time>
      </trkpt>
      <trkpt lat="47.20661" lon="-1.52713">
        <ele>60</ele>
        <time>2021-06-06T12:49:05.000Z</time>
      </trkpt>
      <trkpt lat="47.20668" lon="-1.52698">
        <ele>59</ele>
        <time>2021-06-06T12:49:07.000Z</time>
      </trkpt>
      <trkpt lat="47.20674" lon="-1.52683">
        <ele>59</ele>
        <time>2021-06-06T12:49:09.000Z</time>
      </trkpt>
      <trkpt lat="47.20682" lon="-1.52669">
        <ele>59</ele>
        <time>2021-06-06T12:49:11.000Z</time>
      </trkpt>
      <trkpt lat="47.20691" lon="-1.52657">
        <ele>58</ele>
        <time>2021-06-06T12:49:13.000Z</time>
      </trkpt>
      <trkpt lat="47.20702" lon="-1.5265">
        <ele>58</ele>
        <time>2021-06-06T12:49:15.000Z</time>
      </trkpt>
      <trkpt lat="47.20714" lon="-1.52655">
        <ele>59</ele>
        <time>2021-06-06T12:49:17.000Z</time>
      </trkpt>
      <trkpt lat="47.20726" lon="-1.52662">
        <ele>59</ele>
        <time>2021-06-06T12:49:19.000Z</time>
      </trkpt>
      <trkpt lat="47.20738" lon="-1.52669">
        <ele>60</ele>
        <time>2021-06-06T12:49:21.000Z</time>
      </trkpt>
      <trkpt lat="47.2075" lon="-1.52676">
        <ele>61</ele>
        <time>2021-06-06T12:49:23.000Z</time>
      </trkpt>
      <trkpt lat="47.20762" lon="-1.52681">
        <ele>61</ele>
        <time>2021-06-06T12:49:25.000Z</time>
      </trkpt>
      <trkpt lat="47.20774" lon="-1.52688">
        <ele>61</ele>
        <time>2021-06-06T12:49:27.000Z</time>
      </trkpt>
      <trkpt lat="47.20786" lon="-1.52693">
        <ele>61</ele>
        <time>2021-06-06T12:49:29.000Z</time>
      </trkpt>
      <trkpt lat="47.20798" lon="-1.527">
        <ele>62</ele>
        <time>2021-06-06T12:49:31.000Z</time>
      </trkpt>
      <trkpt lat="47.20812" lon="-1.52702">
        <ele>60</ele>
        <time>2021-06-06T12:49:33.000Z</time>
      </trkpt>
      <trkpt lat="47.20824" lon="-1.52708">
        <ele>61</ele>
        <time>2021-06-06T12:49:35.000Z</time>
      </trkpt>
      <trkpt lat="47.20835" lon="-1.52713">
        <ele>61</ele>
        <time>2021-06-06T12:49:37.000Z</time>
      </trkpt>
      <trkpt lat="47.20847" lon="-1.5272">
        <ele>60</ele>
        <time>2021-06-06T12:49:39.000Z</time>
      </trkpt>
      <trkpt lat="47.20856" lon="-1.52732">
        <ele>61</ele>
        <time>2021-06-06T12:49:41.000Z</time>
      </trkpt>
      <trkpt lat="47.20866" lon="-1.52743">
        <ele>61</ele>
        <time>2021-06-06T12:49:43.000Z</time>
      </trkpt>
      <trkpt lat="47.20877" lon="-1.5275">
        <ele>62</ele>
        <time>2021-06-06T12:49:45.000Z</time>
      </trkpt>
      <trkpt lat="47.20888" lon="-1.52758">
        <ele>62</ele>
        <time>2021-06-06T12:49:47.000Z</time>
      </trkpt>
      <trkpt lat="47.20899" lon="-1.52763">
        <ele>63</ele>
        <time>2021-06-06T12:49:49.000Z</time>
      </trkpt>
      <trkpt lat="47.20911" lon="-1.52768">
        <ele>62</ele>
        <time>2021-06-06T12:49:51.000Z</time>
      </trkpt>
      <trkpt lat="47.20922" lon="-1.5277">
        <ele>61</ele>
        <time>2021-06-06T12:49:53.000Z</time>
      </trkpt>
      <trkpt lat="47.20931" lon="-1.52763">
        <ele>59</ele>
        <time>2021-06-06T12:49:55.000Z</time>
      </trkpt>
      <trkpt lat="47.20939" lon="-1.52749">
        <ele>59</ele>
        <time>2021-06-06T12:49:57.000Z</time>
      </trkpt>
      <trkpt lat="47.20948" lon="-1.52735">
        <ele>58</ele>
        <time>2021-06-06T12:49:59.000Z</time>
      </trkpt>
      <trkpt lat="47.20957" lon="-1.5272">
        <ele>57</ele>
        <time>2021-06-06T12:50:01.000Z</time>
      </trkpt>
      <trkpt lat="47.20966" lon="-1.52706">
        <ele>58</ele>
        <time>2021-06-06T12:50:03.000Z</time>
      </trkpt>
      <trkpt lat="47.20977" lon="-1.527">
        <ele>58</ele>
        <time>2021-06-06T12:50:05.000Z</time>
      </trkpt>
      <trkpt lat="47.20987" lon="-1.52704">
        <ele>59</ele>
        <time>2021-06-06T12:50:07.000Z</time>
      </trkpt>
      <trkpt lat="47.20999" lon="-1.5271">
        <ele>58</ele>
        <time>2021-06-06T12:50:09.000Z</time>
      </trkpt>
      <trkpt lat="47.21009" lon="-1.52722">
        <ele>59</ele>
        <time>2021-06-06T12:50:11.000Z</time>
      </trkpt>
      <trkpt lat="47.21019" lon="-1.52734">
        <ele>59</ele>
        <time>2021-06-06T12:50:13.000Z</time>
      </trkpt>
      <trkpt lat="47.21028" lon="-1.52745">
        <ele>58</ele>
        <time>2021-06-06T12:50:15.000Z</time>
      </trkpt>
      <trkpt lat="47.21037" lon="-1.52757">
        <ele>59</ele>
        <time>2021-06-06T12:50:17.000Z</time>
      </trkpt>
      <trkpt lat="47.21047" lon="-1.5277">
        <ele>59</ele>
        <time>2021-06-06T12:50:19.000Z</time>
      </trkpt>
      <trkpt lat="47.21056" lon="-1.52782">
        <ele>60</ele>
        <time>2021-06-06T12:50:21.000Z</time>
      </trkpt>
      <trkpt lat="47.21065" lon="-1.52792">
        <ele>62</ele>
        <time>2021-06-06T12:50:23.000Z</time>
      </trkpt>
      <trkpt lat="47.21072" lon="-1.52801">
        <ele>64</ele>
        <time>2021-06-06T12:50:25.000Z</time>
      </trkpt>
      <trkpt lat="47.21083" lon="-1.52811">
        <ele>64</ele>
        <time>2021-06-06T12:50:27.000Z</time>
      </trkpt>
      <trkpt lat="47.21093" lon="-1.52823">
        <ele>64</ele>
        <time>2021-06-06T12:50:29.000Z</time>
      </trkpt>
      <trkpt lat="47.21102" lon="-1.52833">
        <ele>64</ele>
        <time>2021-06-06T12:50:31.000Z</time>
      </trkpt>
      <trkpt lat="47.21112" lon="-1.52845">
        <ele>65</ele>
        <time>2021-06-06T12:50:33.000Z</time>
      </trkpt>
      <trkpt lat="47.21122" lon="-1.52857">
        <ele>64</ele>
        <time>2021-06-06T12:50:35.000Z</time>
      </trkpt>
      <trkpt lat="47.21132" lon="-1.52867">
        <ele>64</ele>
        <time>2021-06-06T12:50:37.000Z</time>
      </trkpt>
      <trkpt lat="47.21144" lon="-1.52874">
        <ele>63</ele>
        <time>2021-06-06T12:50:39.000Z</time>
      </trkpt>
      <trkpt lat="47.21156" lon="-1.52878">
        <ele>62</ele>
        <time>2021-06-06T12:50:41.000Z</time>
      </trkpt>
      <trkpt lat="47.21167" lon="-1.52881">
        <ele>61</ele>
        <time>2021-06-06T12:50:43.000Z</time>
      </trkpt>
      <trkpt lat="47.21179" lon="-1.52884">
        <ele>62</ele>
        <time>2021-06-06T12:50:45.000Z</time>
      </trkpt>
      <trkpt lat="47.2119" lon="-1.52888">
        <ele>62</ele>
        <time>2021-06-06T12:50:47.000Z</time>
      </trkpt>
      <trkpt lat="47.21201" lon="-1.52891">
        <ele>62</ele>
        <time>2021-06-06T12:50:49.000Z</time>
      </trkpt>
      <trkpt lat="47.21212" lon="-1.52894">
        <ele>61</ele>
        <time>2021-06-06T12:50:51.000Z</time>
      </trkpt>
      <trkpt lat="47.21224" lon="-1.52897">
        <ele>62</ele>
        <time>2021-06-06T12:50:53.000Z</time>
      </trkpt>
      <trkpt lat="47.21234" lon="-1.52898">
        <ele>63</ele>
        <time>2021-06-06T12:50:55.000Z</time>
      </trkpt>
      <trkpt lat="47.21243" lon="-1.529">
        <ele>64</ele>
        <time>2021-06-06T12:50:57.000Z</time>
      </trkpt>
      <trkpt lat="47.21254" lon="-1.52904">
        <ele>64</ele>
        <time>2021-06-06T12:50:59.000Z</time>
      </trkpt>
      <trkpt lat="47.21265" lon="-1.52909">
        <ele>64</ele>
        <time>2021-06-06T12:51:01.000Z</time>
      </trkpt>
      <trkpt lat="47.21277" lon="-1.52912">
        <ele>63</ele>
        <time>2021-06-06T12:51:03.000Z</time>
      </trkpt>
      <trkpt lat="47.21289" lon="-1.52916">
        <ele>63</ele>
        <time>2021-06-06T12:51:05.000Z</time>
      </trkpt>
      <trkpt lat="47.213" lon="-1.52921">
        <ele>62</ele>
        <time>2021-06-06T12:51:07.000Z</time>
      </trkpt>
      <trkpt lat="47.21312" lon="-1.52923">
        <ele>62</ele>
        <time>2021-06-06T12:51:09.000Z</time>
      </trkpt>
      <trkpt lat="47.21324" lon="-1.52926">
        <ele>62</ele>
        <time>2021-06-06T12:51:11.000Z</time>
      </trkpt>
      <trkpt lat="47.21335" lon="-1.5293">
        <ele>61</ele>
        <time>2021-06-06T12:51:13.000Z</time>
      </trkpt>
      <trkpt lat="47.21347" lon="-1.52932">
        <ele>61</ele>
        <time>2021-06-06T12:51:15.000Z</time>
      </trkpt>
      <trkpt lat="47.21357" lon="-1.52929">
        <ele>61</ele>
        <time>2021-06-06T12:51:18.000Z</time>
      </trkpt>
      <trkpt lat="47.21366" lon="-1.52926">
        <ele>61</ele>
        <time>2021-06-06T12:51:20.000Z</time>
      </trkpt>
      <trkpt lat="47.21378" lon="-1.52929">
        <ele>60</ele>
        <time>2021-06-06T12:51:22.000Z</time>
      </trkpt>
      <trkpt lat="47.21389" lon="-1.52936">
        <ele>60</ele>
        <time>2021-06-06T12:51:24.000Z</time>
      </trkpt>
      <trkpt lat="47.21399" lon="-1.52942">
        <ele>61</ele>
        <time>2021-06-06T12:51:26.000Z</time>
      </trkpt>
      <trkpt lat="47.2141" lon="-1.52947">
        <ele>62</ele>
        <time>2021-06-06T12:51:28.000Z</time>
      </trkpt>
      <trkpt lat="47.21421" lon="-1.52949">
        <ele>64</ele>
        <time>2021-06-06T12:51:30.000Z</time>
      </trkpt>
      <trkpt lat="47.21433" lon="-1.52958">
        <ele>66</ele>
        <time>2021-06-06T12:51:32.000Z</time>
      </trkpt>
      <trkpt lat="47.21445" lon="-1.52966">
        <ele>67</ele>
        <time>2021-06-06T12:51:34.000Z</time>
      </trkpt>
      <trkpt lat="47.21457" lon="-1.52975">
        <ele>68</ele>
        <time>2021-06-06T12:51:36.000Z</time>
      </trkpt>
      <trkpt lat="47.2147" lon="-1.52981">
        <ele>67</ele>
        <time>2021-06-06T12:51:38.000Z</time>
      </trkpt>
      <trkpt lat="47.21481" lon="-1.52989">
        <ele>67</ele>
        <time>2021-06-06T12:51:40.000Z</time>
      </trkpt>
      <trkpt lat="47.21491" lon="-1.52997">
        <ele>68</ele>
        <time>2021-06-06T12:51:42.000Z</time>
      </trkpt>
      <trkpt lat="47.21501" lon="-1.53007">
        <ele>68</ele>
        <time>2021-06-06T12:51:44.000Z</time>
      </trkpt>
      <trkpt lat="47.21512" lon="-1.53016">
        <ele>68</ele>
        <time>2021-06-06T12:51:46.000Z</time>
      </trkpt>
      <trkpt lat="47.21524" lon="-1.53029">
        <ele>66</ele>
        <time>2021-06-06T12:51:48.000Z</time>
      </trkpt>
      <trkpt lat="47.21535" lon="-1.53043">
        <ele>65</ele>
        <time>2021-06-06T12:51:50.000Z</time>
      </trkpt>
      <trkpt lat="47.21544" lon="-1.53057">
        <ele>65</ele>
        <time>2021-06-06T12:51:52.000Z</time>
      </trkpt>
      <trkpt lat="47.21553" lon="-1.53067">
        <ele>65</ele>
        <time>2021-06-06T12:51:54.000Z</time>
      </trkpt>
      <trkpt lat="47.21563" lon="-1.5308">
        <ele>63</ele>
        <time>2021-06-06T12:51:56.000Z</time>
      </trkpt>
      <trkpt lat="47.21572" lon="-1.53097">
        <ele>62</ele>
        <time>2021-06-06T12:51:58.000Z</time>
      </trkpt>
      <trkpt lat="47.21581" lon="-1.53112">
        <ele>59</ele>
        <time>2021-06-06T12:52:00.000Z</time>
      </trkpt>
      <trkpt lat="47.2159" lon="-1.53121">
        <ele>60</ele>
        <time>2021-06-06T12:52:02.000Z</time>
      </trkpt>
      <trkpt lat="47.21599" lon="-1.53113">
        <ele>58</ele>
        <time>2021-06-06T12:52:04.000Z</time>
      </trkpt>
      <trkpt lat="47.21609" lon="-1.53102">
        <ele>57</ele>
        <time>2021-06-06T12:52:06.000Z</time>
      </trkpt>
      <trkpt lat="47.21623" lon="-1.53103">
        <ele>57</ele>
        <time>2021-06-06T12:52:08.000Z</time>
      </trkpt>
      <trkpt lat="47.21636" lon="-1.53109">
        <ele>57</ele>
        <time>2021-06-06T12:52:10.000Z</time>
      </trkpt>
      <trkpt lat="47.21649" lon="-1.53114">
        <ele>58</ele>
        <time>2021-06-06T12:52:12.000Z</time>
      </trkpt>
      <trkpt lat="47.21662" lon="-1.53119">
        <ele>58</ele>
        <time>2021-06-06T12:52:14.000Z</time>
      </trkpt>
      <trkpt lat="47.21675" lon="-1.53124">
        <ele>58</ele>
        <time>2021-06-06T12:52:16.000Z</time>
      </trkpt>
      <trkpt lat="47.21688" lon="-1.53128">
        <ele>58</ele>
        <time>2021-06-06T12:52:18.000Z</time>
      </trkpt>
      <trkpt lat="47.217" lon="-1.53133">
        <ele>58</ele>
        <time>2021-06-06T12:52:20.000Z</time>
      </trkpt>
      <trkpt lat="47.21712" lon="-1.53138">
        <ele>59</ele>
        <time>2021-06-06T12:52:22.000Z</time>
      </trkpt>
      <trkpt lat="47.21722" lon="-1.53142">
        <ele>59</ele>
        <time>2021-06-06T12:52:24.000Z</time>
      </trkpt>
      <trkpt lat="47.21735" lon="-1.53149">
        <ele>61</ele>
        <time>2021-06-06T12:52:27.000Z</time>
      </trkpt>
      <trkpt lat="47.21746" lon="-1.53151">
        <ele>59</ele>
        <time>2021-06-06T12:52:29.000Z</time>
      </trkpt>
      <trkpt lat="47.21757" lon="-1.53145">
        <ele>58</ele>
        <time>2021-06-06T12:52:31.000Z</time>
      </trkpt>
      <trkpt lat="47.2177" lon="-1.53146">
        <ele>58</ele>
        <time>2021-06-06T12:52:33.000Z</time>
      </trkpt>
      <trkpt lat="47.21783" lon="-1.53151">
        <ele>58</ele>
        <time>2021-06-06T12:52:35.000Z</time>
      </trkpt>
      <trkpt lat="47.21796" lon="-1.53154">
        <ele>57</ele>
        <time>2021-06-06T12:52:37.000Z</time>
      </trkpt>
      <trkpt lat="47.21808" lon="-1.53158">
        <ele>57</ele>
        <time>2021-06-06T12:52:39.000Z</time>
      </trkpt>
      <trkpt lat="47.2182" lon="-1.53162">
        <ele>57</ele>
        <time>2021-06-06T12:52:41.000Z</time>
      </trkpt>
      <trkpt lat="47.21831" lon="-1.53166">
        <ele>57</ele>
        <time>2021-06-06T12:52:43.000Z</time>
      </trkpt>
      <trkpt lat="47.21843" lon="-1.53168">
        <ele>57</ele>
        <time>2021-06-06T12:52:45.000Z</time>
      </trkpt>
      <trkpt lat="47.21857" lon="-1.53168">
        <ele>57</ele>
        <time>2021-06-06T12:52:47.000Z</time>
      </trkpt>
      <trkpt lat="47.21869" lon="-1.53168">
        <ele>56</ele>
        <time>2021-06-06T12:52:49.000Z</time>
      </trkpt>
      <trkpt lat="47.21882" lon="-1.53171">
        <ele>56</ele>
        <time>2021-06-06T12:52:51.000Z</time>
      </trkpt>
      <trkpt lat="47.21895" lon="-1.53176">
        <ele>56</ele>
        <time>2021-06-06T12:52:53.000Z</time>
      </trkpt>
      <trkpt lat="47.21908" lon="-1.53183">
        <ele>56</ele>
        <time>2021-06-06T12:52:55.000Z</time>
      </trkpt>
      <trkpt lat="47.21937" lon="-1.53179">
        <ele>55</ele>
        <time>2021-06-06T12:52:59.000Z</time>
      </trkpt>
      <trkpt lat="47.21951" lon="-1.53178">
        <ele>55</ele>
        <time>2021-06-06T12:53:01.000Z</time>
      </trkpt>
      <trkpt lat="47.21958" lon="-1.53191">
        <ele>56</ele>
        <time>2021-06-06T12:53:03.000Z</time>
      </trkpt>
      <trkpt lat="47.21967" lon="-1.53194">
        <ele>57</ele>
        <time>2021-06-06T12:53:06.000Z</time>
      </trkpt>
      <trkpt lat="47.21977" lon="-1.5319">
        <ele>58</ele>
        <time>2021-06-06T12:53:12.000Z</time>
      </trkpt>
      <trkpt lat="47.21988" lon="-1.53186">
        <ele>57</ele>
        <time>2021-06-06T12:53:15.000Z</time>
      </trkpt>
      <trkpt lat="47.21998" lon="-1.53181">
        <ele>58</ele>
        <time>2021-06-06T12:53:17.000Z</time>
      </trkpt>
      <trkpt lat="47.2201" lon="-1.53177">
        <ele>58</ele>
        <time>2021-06-06T12:53:19.000Z</time>
      </trkpt>
      <trkpt lat="47.22022" lon="-1.53172">
        <ele>58</ele>
        <time>2021-06-06T12:53:21.000Z</time>
      </trkpt>
      <trkpt lat="47.22035" lon="-1.53167">
        <ele>59</ele>
        <time>2021-06-06T12:53:23.000Z</time>
      </trkpt>
      <trkpt lat="47.22047" lon="-1.53162">
        <ele>60</ele>
        <time>2021-06-06T12:53:25.000Z</time>
      </trkpt>
      <trkpt lat="47.2206" lon="-1.53157">
        <ele>61</ele>
        <time>2021-06-06T12:53:27.000Z</time>
      </trkpt>
      <trkpt lat="47.22072" lon="-1.53152">
        <ele>62</ele>
        <time>2021-06-06T12:53:29.000Z</time>
      </trkpt>
      <trkpt lat="47.22084" lon="-1.53147">
        <ele>62</ele>
        <time>2021-06-06T12:53:31.000Z</time>
      </trkpt>
      <trkpt lat="47.22096" lon="-1.53144">
        <ele>63</ele>
        <time>2021-06-06T12:53:33.000Z</time>
      </trkpt>
      <trkpt lat="47.22108" lon="-1.53139">
        <ele>64</ele>
        <time>2021-06-06T12:53:35.000Z</time>
      </trkpt>
      <trkpt lat="47.22119" lon="-1.53132">
        <ele>64</ele>
        <time>2021-06-06T12:53:37.000Z</time>
      </trkpt>
      <trkpt lat="47.22129" lon="-1.53127">
        <ele>64</ele>
        <time>2021-06-06T12:53:39.000Z</time>
      </trkpt>
      <trkpt lat="47.22138" lon="-1.53122">
        <ele>65</ele>
        <time>2021-06-06T12:53:41.000Z</time>
      </trkpt>
      <trkpt lat="47.2215" lon="-1.53119">
        <ele>67</ele>
        <time>2021-06-06T12:53:44.000Z</time>
      </trkpt>
      <trkpt lat="47.22162" lon="-1.53113">
        <ele>67</ele>
        <time>2021-06-06T12:53:47.000Z</time>
      </trkpt>
      <trkpt lat="47.22172" lon="-1.53106">
        <ele>67</ele>
        <time>2021-06-06T12:53:50.000Z</time>
      </trkpt>
      <trkpt lat="47.22183" lon="-1.53102">
        <ele>67</ele>
        <time>2021-06-06T12:53:54.000Z</time>
      </trkpt>
      <trkpt lat="47.22192" lon="-1.53098">
        <ele>68</ele>
        <time>2021-06-06T12:54:05.000Z</time>
      </trkpt>
      <trkpt lat="47.22202" lon="-1.53092">
        <ele>68</ele>
        <time>2021-06-06T12:54:07.000Z</time>
      </trkpt>
      <trkpt lat="47.22214" lon="-1.53084">
        <ele>68</ele>
        <time>2021-06-06T12:54:09.000Z</time>
      </trkpt>
      <trkpt lat="47.22225" lon="-1.53078">
        <ele>68</ele>
        <time>2021-06-06T12:54:11.000Z</time>
      </trkpt>
      <trkpt lat="47.22238" lon="-1.53073">
        <ele>69</ele>
        <time>2021-06-06T12:54:13.000Z</time>
      </trkpt>
      <trkpt lat="47.22253" lon="-1.53067">
        <ele>69</ele>
        <time>2021-06-06T12:54:15.000Z</time>
      </trkpt>
      <trkpt lat="47.22268" lon="-1.5306">
        <ele>69</ele>
        <time>2021-06-06T12:54:17.000Z</time>
      </trkpt>
      <trkpt lat="47.22282" lon="-1.53052">
        <ele>69</ele>
        <time>2021-06-06T12:54:19.000Z</time>
      </trkpt>
      <trkpt lat="47.22296" lon="-1.53045">
        <ele>69</ele>
        <time>2021-06-06T12:54:21.000Z</time>
      </trkpt>
      <trkpt lat="47.2231" lon="-1.53039">
        <ele>69</ele>
        <time>2021-06-06T12:54:23.000Z</time>
      </trkpt>
      <trkpt lat="47.22324" lon="-1.53033">
        <ele>69</ele>
        <time>2021-06-06T12:54:25.000Z</time>
      </trkpt>
      <trkpt lat="47.22337" lon="-1.53023">
        <ele>68</ele>
        <time>2021-06-06T12:54:27.000Z</time>
      </trkpt>
      <trkpt lat="47.22351" lon="-1.53015">
        <ele>67</ele>
        <time>2021-06-06T12:54:29.000Z</time>
      </trkpt>
      <trkpt lat="47.22365" lon="-1.53007">
        <ele>66</ele>
        <time>2021-06-06T12:54:31.000Z</time>
      </trkpt>
      <trkpt lat="47.22378" lon="-1.53001">
        <ele>65</ele>
        <time>2021-06-06T12:54:33.000Z</time>
      </trkpt>
      <trkpt lat="47.22392" lon="-1.52993">
        <ele>65</ele>
        <time>2021-06-06T12:54:35.000Z</time>
      </trkpt>
      <trkpt lat="47.22404" lon="-1.52986">
        <ele>65</ele>
        <time>2021-06-06T12:54:37.000Z</time>
      </trkpt>
      <trkpt lat="47.22417" lon="-1.52981">
        <ele>65</ele>
        <time>2021-06-06T12:54:39.000Z</time>
      </trkpt>
      <trkpt lat="47.22429" lon="-1.52977">
        <ele>67</ele>
        <time>2021-06-06T12:54:41.000Z</time>
      </trkpt>
      <trkpt lat="47.22442" lon="-1.52974">
        <ele>67</ele>
        <time>2021-06-06T12:54:43.000Z</time>
      </trkpt>
      <trkpt lat="47.22455" lon="-1.52968">
        <ele>67</ele>
        <time>2021-06-06T12:54:45.000Z</time>
      </trkpt>
      <trkpt lat="47.22469" lon="-1.52961">
        <ele>66</ele>
        <time>2021-06-06T12:54:47.000Z</time>
      </trkpt>
      <trkpt lat="47.22482" lon="-1.52952">
        <ele>65</ele>
        <time>2021-06-06T12:54:49.000Z</time>
      </trkpt>
      <trkpt lat="47.22495" lon="-1.52946">
        <ele>66</ele>
        <time>2021-06-06T12:54:51.000Z</time>
      </trkpt>
      <trkpt lat="47.22508" lon="-1.52938">
        <ele>65</ele>
        <time>2021-06-06T12:54:53.000Z</time>
      </trkpt>
      <trkpt lat="47.22521" lon="-1.52934">
        <ele>66</ele>
        <time>2021-06-06T12:54:55.000Z</time>
      </trkpt>
      <trkpt lat="47.22533" lon="-1.52931">
        <ele>67</ele>
        <time>2021-06-06T12:54:57.000Z</time>
      </trkpt>
      <trkpt lat="47.22546" lon="-1.52927">
        <ele>68</ele>
        <time>2021-06-06T12:54:59.000Z</time>
      </trkpt>
      <trkpt lat="47.22558" lon="-1.52923">
        <ele>68</ele>
        <time>2021-06-06T12:55:01.000Z</time>
      </trkpt>
      <trkpt lat="47.22571" lon="-1.52917">
        <ele>69</ele>
        <time>2021-06-06T12:55:03.000Z</time>
      </trkpt>
      <trkpt lat="47.22585" lon="-1.52908">
        <ele>68</ele>
        <time>2021-06-06T12:55:05.000Z</time>
      </trkpt>
      <trkpt lat="47.22597" lon="-1.52902">
        <ele>68</ele>
        <time>2021-06-06T12:55:07.000Z</time>
      </trkpt>
      <trkpt lat="47.2261" lon="-1.52896">
        <ele>68</ele>
        <time>2021-06-06T12:55:09.000Z</time>
      </trkpt>
      <trkpt lat="47.22623" lon="-1.5289">
        <ele>67</ele>
        <time>2021-06-06T12:55:11.000Z</time>
      </trkpt>
      <trkpt lat="47.22636" lon="-1.52881">
        <ele>66</ele>
        <time>2021-06-06T12:55:13.000Z</time>
      </trkpt>
      <trkpt lat="47.22647" lon="-1.52875">
        <ele>66</ele>
        <time>2021-06-06T12:55:15.000Z</time>
      </trkpt>
      <trkpt lat="47.22659" lon="-1.52867">
        <ele>65</ele>
        <time>2021-06-06T12:55:17.000Z</time>
      </trkpt>
      <trkpt lat="47.2267" lon="-1.52857">
        <ele>66</ele>
        <time>2021-06-06T12:55:19.000Z</time>
      </trkpt>
      <trkpt lat="47.2268" lon="-1.52847">
        <ele>66</ele>
        <time>2021-06-06T12:55:21.000Z</time>
      </trkpt>
      <trkpt lat="47.22692" lon="-1.52837">
        <ele>66</ele>
        <time>2021-06-06T12:55:23.000Z</time>
      </trkpt>
      <trkpt lat="47.22703" lon="-1.52824">
        <ele>65</ele>
        <time>2021-06-06T12:55:25.000Z</time>
      </trkpt>
      <trkpt lat="47.22713" lon="-1.52807">
        <ele>62</ele>
        <time>2021-06-06T12:55:27.000Z</time>
      </trkpt>
      <trkpt lat="47.22723" lon="-1.52793">
        <ele>62</ele>
        <time>2021-06-06T12:55:29.000Z</time>
      </trkpt>
      <trkpt lat="47.22733" lon="-1.5278">
        <ele>62</ele>
        <time>2021-06-06T12:55:31.000Z</time>
      </trkpt>
      <trkpt lat="47.22742" lon="-1.52769">
        <ele>62</ele>
        <time>2021-06-06T12:55:33.000Z</time>
      </trkpt>
      <trkpt lat="47.22752" lon="-1.52758">
        <ele>61</ele>
        <time>2021-06-06T12:55:35.000Z</time>
      </trkpt>
      <trkpt lat="47.2276" lon="-1.52746">
        <ele>61</ele>
        <time>2021-06-06T12:55:37.000Z</time>
      </trkpt>
      <trkpt lat="47.22769" lon="-1.52734">
        <ele>61</ele>
        <time>2021-06-06T12:55:39.000Z</time>
      </trkpt>
      <trkpt lat="47.22778" lon="-1.52721">
        <ele>60</ele>
        <time>2021-06-06T12:55:41.000Z</time>
      </trkpt>
      <trkpt lat="47.22786" lon="-1.52708">
        <ele>59</ele>
        <time>2021-06-06T12:55:43.000Z</time>
      </trkpt>
      <trkpt lat="47.22793" lon="-1.52697">
        <ele>59</ele>
        <time>2021-06-06T12:55:45.000Z</time>
      </trkpt>
      <trkpt lat="47.228" lon="-1.52688">
        <ele>60</ele>
        <time>2021-06-06T12:55:47.000Z</time>
      </trkpt>
      <trkpt lat="47.22807" lon="-1.52679">
        <ele>60</ele>
        <time>2021-06-06T12:55:49.000Z</time>
      </trkpt>
      <trkpt lat="47.22815" lon="-1.52668">
        <ele>60</ele>
        <time>2021-06-06T12:55:52.000Z</time>
      </trkpt>
      <trkpt lat="47.22824" lon="-1.52657">
        <ele>60</ele>
        <time>2021-06-06T12:55:55.000Z</time>
      </trkpt>
      <trkpt lat="47.22833" lon="-1.52646">
        <ele>59</ele>
        <time>2021-06-06T12:56:10.000Z</time>
      </trkpt>
      <trkpt lat="47.22839" lon="-1.52637">
        <ele>59</ele>
        <time>2021-06-06T12:56:13.000Z</time>
      </trkpt>
      <trkpt lat="47.22847" lon="-1.52626">
        <ele>59</ele>
        <time>2021-06-06T12:56:21.000Z</time>
      </trkpt>
      <trkpt lat="47.22856" lon="-1.52634">
        <ele>58</ele>
        <time>2021-06-06T12:56:23.000Z</time>
      </trkpt>
      <trkpt lat="47.22863" lon="-1.52647">
        <ele>59</ele>
        <time>2021-06-06T12:56:25.000Z</time>
      </trkpt>
      <trkpt lat="47.22871" lon="-1.52658">
        <ele>60</ele>
        <time>2021-06-06T12:56:27.000Z</time>
      </trkpt>
      <trkpt lat="47.2288" lon="-1.52668">
        <ele>62</ele>
        <time>2021-06-06T12:56:29.000Z</time>
      </trkpt>
      <trkpt lat="47.22888" lon="-1.5268">
        <ele>62</ele>
        <time>2021-06-06T12:56:31.000Z</time>
      </trkpt>
      <trkpt lat="47.22896" lon="-1.52692">
        <ele>62</ele>
        <time>2021-06-06T12:56:33.000Z</time>
      </trkpt>
      <trkpt lat="47.22905" lon="-1.52704">
        <ele>64</ele>
        <time>2021-06-06T12:56:35.000Z</time>
      </trkpt>
      <trkpt lat="47.22913" lon="-1.52716">
        <ele>64</ele>
        <time>2021-06-06T12:56:37.000Z</time>
      </trkpt>
      <trkpt lat="47.22922" lon="-1.52728">
        <ele>64</ele>
        <time>2021-06-06T12:56:39.000Z</time>
      </trkpt>
      <trkpt lat="47.2293" lon="-1.5274">
        <ele>65</ele>
        <time>2021-06-06T12:56:41.000Z</time>
      </trkpt>
      <trkpt lat="47.22938" lon="-1.52751">
        <ele>64</ele>
        <time>2021-06-06T12:56:43.000Z</time>
      </trkpt>
      <trkpt lat="47.22946" lon="-1.52763">
        <ele>65</ele>
        <time>2021-06-06T12:56:45.000Z</time>
      </trkpt>
      <trkpt lat="47.22955" lon="-1.52774">
        <ele>66</ele>
        <time>2021-06-06T12:56:47.000Z</time>
      </trkpt>
      <trkpt lat="47.22963" lon="-1.52785">
        <ele>67</ele>
        <time>2021-06-06T12:56:49.000Z</time>
      </trkpt>
      <trkpt lat="47.22971" lon="-1.52796">
        <ele>67</ele>
        <time>2021-06-06T12:56:51.000Z</time>
      </trkpt>
      <trkpt lat="47.22979" lon="-1.52807">
        <ele>68</ele>
        <time>2021-06-06T12:56:53.000Z</time>
      </trkpt>
      <trkpt lat="47.22987" lon="-1.52817">
        <ele>68</ele>
        <time>2021-06-06T12:56:55.000Z</time>
      </trkpt>
      <trkpt lat="47.22995" lon="-1.52828">
        <ele>69</ele>
        <time>2021-06-06T12:56:57.000Z</time>
      </trkpt>
      <trkpt lat="47.23003" lon="-1.52839">
        <ele>69</ele>
        <time>2021-06-06T12:56:59.000Z</time>
      </trkpt>
      <trkpt lat="47.23011" lon="-1.52851">
        <ele>69</ele>
        <time>2021-06-06T12:57:01.000Z</time>
      </trkpt>
      <trkpt lat="47.23019" lon="-1.52862">
        <ele>70</ele>
        <time>2021-06-06T12:57:03.000Z</time>
      </trkpt>
      <trkpt lat="47.23026" lon="-1.52872">
        <ele>71</ele>
        <time>2021-06-06T12:57:05.000Z</time>
      </trkpt>
      <trkpt lat="47.23033" lon="-1.52882">
        <ele>72</ele>
        <time>2021-06-06T12:57:07.000Z</time>
      </trkpt>
      <trkpt lat="47.23041" lon="-1.52893">
        <ele>73</ele>
        <time>2021-06-06T12:57:09.000Z</time>
      </trkpt>
      <trkpt lat="47.23048" lon="-1.52904">
        <ele>74</ele>
        <time>2021-06-06T12:57:11.000Z</time>
      </trkpt>
      <trkpt lat="47.23056" lon="-1.52914">
        <ele>75</ele>
        <time>2021-06-06T12:57:13.000Z</time>
      </trkpt>
      <trkpt lat="47.23064" lon="-1.52925">
        <ele>76</ele>
        <time>2021-06-06T12:57:15.000Z</time>
      </trkpt>
      <trkpt lat="47.23072" lon="-1.52937">
        <ele>77</ele>
        <time>2021-06-06T12:57:17.000Z</time>
      </trkpt>
      <trkpt lat="47.2308" lon="-1.52947">
        <ele>78</ele>
        <time>2021-06-06T12:57:19.000Z</time>
      </trkpt>
      <trkpt lat="47.23086" lon="-1.52956">
        <ele>79</ele>
        <time>2021-06-06T12:57:21.000Z</time>
      </trkpt>
      <trkpt lat="47.23094" lon="-1.52967">
        <ele>79</ele>
        <time>2021-06-06T12:57:23.000Z</time>
      </trkpt>
      <trkpt lat="47.23102" lon="-1.52977">
        <ele>79</ele>
        <time>2021-06-06T12:57:25.000Z</time>
      </trkpt>
      <trkpt lat="47.2311" lon="-1.52988">
        <ele>79</ele>
        <time>2021-06-06T12:57:27.000Z</time>
      </trkpt>
      <trkpt lat="47.23117" lon="-1.52999">
        <ele>79</ele>
        <time>2021-06-06T12:57:29.000Z</time>
      </trkpt>
      <trkpt lat="47.23124" lon="-1.53009">
        <ele>80</ele>
        <time>2021-06-06T12:57:31.000Z</time>
      </trkpt>
      <trkpt lat="47.23131" lon="-1.5302">
        <ele>81</ele>
        <time>2021-06-06T12:57:33.000Z</time>
      </trkpt>
      <trkpt lat="47.23138" lon="-1.53031">
        <ele>82</ele>
        <time>2021-06-06T12:57:35.000Z</time>
      </trkpt>
      <trkpt lat="47.23145" lon="-1.53043">
        <ele>83</ele>
        <time>2021-06-06T12:57:37.000Z</time>
      </trkpt>
      <trkpt lat="47.23153" lon="-1.53054">
        <ele>84</ele>
        <time>2021-06-06T12:57:39.000Z</time>
      </trkpt>
      <trkpt lat="47.2316" lon="-1.53065">
        <ele>83</ele>
        <time>2021-06-06T12:57:41.000Z</time>
      </trkpt>
      <trkpt lat="47.23169" lon="-1.53075">
        <ele>83</ele>
        <time>2021-06-06T12:57:43.000Z</time>
      </trkpt>
      <trkpt lat="47.23177" lon="-1.53082">
        <ele>81</ele>
        <time>2021-06-06T12:57:45.000Z</time>
      </trkpt>
      <trkpt lat="47.23184" lon="-1.53093">
        <ele>80</ele>
        <time>2021-06-06T12:57:47.000Z</time>
      </trkpt>
      <trkpt lat="47.23192" lon="-1.53104">
        <ele>80</ele>
        <time>2021-06-06T12:57:49.000Z</time>
      </trkpt>
      <trkpt lat="47.23201" lon="-1.53114">
        <ele>80</ele>
        <time>2021-06-06T12:57:51.000Z</time>
      </trkpt>
      <trkpt lat="47.23208" lon="-1.53124">
        <ele>80</ele>
        <time>2021-06-06T12:57:53.000Z</time>
      </trkpt>
      <trkpt lat="47.23216" lon="-1.53135">
        <ele>80</ele>
        <time>2021-06-06T12:57:55.000Z</time>
      </trkpt>
      <trkpt lat="47.23223" lon="-1.53147">
        <ele>80</ele>
        <time>2021-06-06T12:57:57.000Z</time>
      </trkpt>
      <trkpt lat="47.2323" lon="-1.53158">
        <ele>80</ele>
        <time>2021-06-06T12:57:59.000Z</time>
      </trkpt>
      <trkpt lat="47.23239" lon="-1.53168">
        <ele>80</ele>
        <time>2021-06-06T12:58:01.000Z</time>
      </trkpt>
      <trkpt lat="47.23246" lon="-1.53177">
        <ele>79</ele>
        <time>2021-06-06T12:58:03.000Z</time>
      </trkpt>
      <trkpt lat="47.23253" lon="-1.53188">
        <ele>80</ele>
        <time>2021-06-06T12:58:05.000Z</time>
      </trkpt>
      <trkpt lat="47.2326" lon="-1.53198">
        <ele>80</ele>
        <time>2021-06-06T12:58:07.000Z</time>
      </trkpt>
      <trkpt lat="47.23267" lon="-1.5321">
        <ele>80</ele>
        <time>2021-06-06T12:58:09.000Z</time>
      </trkpt>
      <trkpt lat="47.23275" lon="-1.5322">
        <ele>80</ele>
        <time>2021-06-06T12:58:11.000Z</time>
      </trkpt>
      <trkpt lat="47.23282" lon="-1.53229">
        <ele>80</ele>
        <time>2021-06-06T12:58:13.000Z</time>
      </trkpt>
      <trkpt lat="47.23289" lon="-1.53239">
        <ele>81</ele>
        <time>2021-06-06T12:58:15.000Z</time>
      </trkpt>
      <trkpt lat="47.23296" lon="-1.53249">
        <ele>81</ele>
        <time>2021-06-06T12:58:17.000Z</time>
      </trkpt>
      <trkpt lat="47.23303" lon="-1.5326">
        <ele>81</ele>
        <time>2021-06-06T12:58:19.000Z</time>
      </trkpt>
      <trkpt lat="47.2331" lon="-1.53271">
        <ele>81</ele>
        <time>2021-06-06T12:58:21.000Z</time>
      </trkpt>
      <trkpt lat="47.23317" lon="-1.53283">
        <ele>82</ele>
        <time>2021-06-06T12:58:23.000Z</time>
      </trkpt>
      <trkpt lat="47.23324" lon="-1.53295">
        <ele>82</ele>
        <time>2021-06-06T12:58:25.000Z</time>
      </trkpt>
      <trkpt lat="47.2333" lon="-1.53307">
        <ele>82</ele>
        <time>2021-06-06T12:58:27.000Z</time>
      </trkpt>
      <trkpt lat="47.23336" lon="-1.53319">
        <ele>82</ele>
        <time>2021-06-06T12:58:29.000Z</time>
      </trkpt>
      <trkpt lat="47.23344" lon="-1.53328">
        <ele>82</ele>
        <time>2021-06-06T12:58:31.000Z</time>
      </trkpt>
      <trkpt lat="47.23351" lon="-1.53339">
        <ele>82</ele>
        <time>2021-06-06T12:58:33.000Z</time>
      </trkpt>
      <trkpt lat="47.23352" lon="-1.53356">
        <ele>82</ele>
        <time>2021-06-06T12:58:35.000Z</time>
      </trkpt>
      <trkpt lat="47.23356" lon="-1.5337">
        <ele>82</ele>
        <time>2021-06-06T12:58:37.000Z</time>
      </trkpt>
      <trkpt lat="47.23359" lon="-1.53384">
        <ele>82</ele>
        <time>2021-06-06T12:58:39.000Z</time>
      </trkpt>
      <trkpt lat="47.23363" lon="-1.53399">
        <ele>82</ele>
        <time>2021-06-06T12:58:41.000Z</time>
      </trkpt>
      <trkpt lat="47.23366" lon="-1.53414">
        <ele>83</ele>
        <time>2021-06-06T12:58:43.000Z</time>
      </trkpt>
      <trkpt lat="47.23369" lon="-1.53429">
        <ele>83</ele>
        <time>2021-06-06T12:58:45.000Z</time>
      </trkpt>
      <trkpt lat="47.23372" lon="-1.53444">
        <ele>84</ele>
        <time>2021-06-06T12:58:47.000Z</time>
      </trkpt>
      <trkpt lat="47.23376" lon="-1.53459">
        <ele>85</ele>
        <time>2021-06-06T12:58:49.000Z</time>
      </trkpt>
      <trkpt lat="47.23379" lon="-1.53474">
        <ele>85</ele>
        <time>2021-06-06T12:58:51.000Z</time>
      </trkpt>
      <trkpt lat="47.23381" lon="-1.53491">
        <ele>84</ele>
        <time>2021-06-06T12:58:53.000Z</time>
      </trkpt>
      <trkpt lat="47.23383" lon="-1.53507">
        <ele>84</ele>
        <time>2021-06-06T12:58:55.000Z</time>
      </trkpt>
      <trkpt lat="47.23385" lon="-1.53523">
        <ele>84</ele>
        <time>2021-06-06T12:58:57.000Z</time>
      </trkpt>
      <trkpt lat="47.23388" lon="-1.53536">
        <ele>83</ele>
        <time>2021-06-06T12:58:59.000Z</time>
      </trkpt>
      <trkpt lat="47.23389" lon="-1.5355">
        <ele>83</ele>
        <time>2021-06-06T12:59:04.000Z</time>
      </trkpt>
      <trkpt lat="47.23394" lon="-1.53562">
        <ele>85</ele>
        <time>2021-06-06T12:59:34.000Z</time>
      </trkpt>
      <trkpt lat="47.23397" lon="-1.53579">
        <ele>89</ele>
        <time>2021-06-06T12:59:36.000Z</time>
      </trkpt>
      <trkpt lat="47.23399" lon="-1.536">
        <ele>90</ele>
        <time>2021-06-06T12:59:38.000Z</time>
      </trkpt>
      <trkpt lat="47.23401" lon="-1.53619">
        <ele>89</ele>
        <time>2021-06-06T12:59:40.000Z</time>
      </trkpt>
      <trkpt lat="47.23403" lon="-1.53638">
        <ele>88</ele>
        <time>2021-06-06T12:59:42.000Z</time>
      </trkpt>
      <trkpt lat="47.23405" lon="-1.53658">
        <ele>88</ele>
        <time>2021-06-06T12:59:44.000Z</time>
      </trkpt>
      <trkpt lat="47.23407" lon="-1.53678">
        <ele>87</ele>
        <time>2021-06-06T12:59:46.000Z</time>
      </trkpt>
      <trkpt lat="47.23409" lon="-1.53697">
        <ele>86</ele>
        <time>2021-06-06T12:59:48.000Z</time>
      </trkpt>
      <trkpt lat="47.23411" lon="-1.53716">
        <ele>85</ele>
        <time>2021-06-06T12:59:50.000Z</time>
      </trkpt>
      <trkpt lat="47.23414" lon="-1.53734">
        <ele>85</ele>
        <time>2021-06-06T12:59:52.000Z</time>
      </trkpt>
      <trkpt lat="47.23416" lon="-1.53753">
        <ele>85</ele>
        <time>2021-06-06T12:59:54.000Z</time>
      </trkpt>
      <trkpt lat="47.23418" lon="-1.53771">
        <ele>86</ele>
        <time>2021-06-06T12:59:56.000Z</time>
      </trkpt>
      <trkpt lat="47.2342" lon="-1.53789">
        <ele>86</ele>
        <time>2021-06-06T12:59:58.000Z</time>
      </trkpt>
      <trkpt lat="47.23422" lon="-1.53807">
        <ele>86</ele>
        <time>2021-06-06T13:00:00.000Z</time>
      </trkpt>
      <trkpt lat="47.23425" lon="-1.53825">
        <ele>86</ele>
        <time>2021-06-06T13:00:02.000Z</time>
      </trkpt>
      <trkpt lat="47.23427" lon="-1.53843">
        <ele>86</ele>
        <time>2021-06-06T13:00:04.000Z</time>
      </trkpt>
      <trkpt lat="47.2343" lon="-1.53861">
        <ele>87</ele>
        <time>2021-06-06T13:00:06.000Z</time>
      </trkpt>
      <trkpt lat="47.23432" lon="-1.53879">
        <ele>87</ele>
        <time>2021-06-06T13:00:08.000Z</time>
      </trkpt>
      <trkpt lat="47.23435" lon="-1.53898">
        <ele>86</ele>
        <time>2021-06-06T13:00:10.000Z</time>
      </trkpt>
      <trkpt lat="47.23438" lon="-1.53916">
        <ele>86</ele>
        <time>2021-06-06T13:00:12.000Z</time>
      </trkpt>
      <trkpt lat="47.2344" lon="-1.53934">
        <ele>87</ele>
        <time>2021-06-06T13:00:14.000Z</time>
      </trkpt>
      <trkpt lat="47.23442" lon="-1.53953">
        <ele>87</ele>
        <time>2021-06-06T13:00:16.000Z</time>
      </trkpt>
      <trkpt lat="47.23445" lon="-1.53971">
        <ele>87</ele>
        <time>2021-06-06T13:00:18.000Z</time>
      </trkpt>
      <trkpt lat="47.23448" lon="-1.53989">
        <ele>86</ele>
        <time>2021-06-06T13:00:20.000Z</time>
      </trkpt>
      <trkpt lat="47.23451" lon="-1.54007">
        <ele>87</ele>
        <time>2021-06-06T13:00:22.000Z</time>
      </trkpt>
      <trkpt lat="47.23455" lon="-1.54026">
        <ele>86</ele>
        <time>2021-06-06T13:00:24.000Z</time>
      </trkpt>
      <trkpt lat="47.23458" lon="-1.54044">
        <ele>86</ele>
        <time>2021-06-06T13:00:26.000Z</time>
      </trkpt>
      <trkpt lat="47.2346" lon="-1.54062">
        <ele>84</ele>
        <time>2021-06-06T13:00:28.000Z</time>
      </trkpt>
      <trkpt lat="47.23462" lon="-1.54078">
        <ele>83</ele>
        <time>2021-06-06T13:00:30.000Z</time>
      </trkpt>
      <trkpt lat="47.23464" lon="-1.54093">
        <ele>84</ele>
        <time>2021-06-06T13:00:33.000Z</time>
      </trkpt>
      <trkpt lat="47.23468" lon="-1.54106">
        <ele>83</ele>
        <time>2021-06-06T13:00:39.000Z</time>
      </trkpt>
      <trkpt lat="47.23473" lon="-1.54124">
        <ele>82</ele>
        <time>2021-06-06T13:00:46.000Z</time>
      </trkpt>
      <trkpt lat="47.23476" lon="-1.54146">
        <ele>83</ele>
        <time>2021-06-06T13:00:48.000Z</time>
      </trkpt>
      <trkpt lat="47.23477" lon="-1.5417">
        <ele>82</ele>
        <time>2021-06-06T13:00:50.000Z</time>
      </trkpt>
      <trkpt lat="47.2348" lon="-1.54192">
        <ele>81</ele>
        <time>2021-06-06T13:00:52.000Z</time>
      </trkpt>
      <trkpt lat="47.23483" lon="-1.54213">
        <ele>80</ele>
        <time>2021-06-06T13:00:54.000Z</time>
      </trkpt>
      <trkpt lat="47.23485" lon="-1.54236">
        <ele>78</ele>
        <time>2021-06-06T13:00:56.000Z</time>
      </trkpt>
      <trkpt lat="47.23488" lon="-1.54258">
        <ele>77</ele>
        <time>2021-06-06T13:00:58.000Z</time>
      </trkpt>
      <trkpt lat="47.2349" lon="-1.54282">
        <ele>76</ele>
        <time>2021-06-06T13:01:00.000Z</time>
      </trkpt>
      <trkpt lat="47.23493" lon="-1.54305">
        <ele>76</ele>
        <time>2021-06-06T13:01:02.000Z</time>
      </trkpt>
      <trkpt lat="47.23497" lon="-1.54329">
        <ele>76</ele>
        <time>2021-06-06T13:01:04.000Z</time>
      </trkpt>
      <trkpt lat="47.235" lon="-1.54353">
        <ele>76</ele>
        <time>2021-06-06T13:01:06.000Z</time>
      </trkpt>
      <trkpt lat="47.23504" lon="-1.54378">
        <ele>76</ele>
        <time>2021-06-06T13:01:08.000Z</time>
      </trkpt>
      <trkpt lat="47.23507" lon="-1.54403">
        <ele>76</ele>
        <time>2021-06-06T13:01:10.000Z</time>
      </trkpt>
      <trkpt lat="47.23508" lon="-1.54416">
        <ele>75</ele>
        <time>2021-06-06T13:01:11.000Z</time>
      </trkpt>
      <trkpt lat="47.23512" lon="-1.54441">
        <ele>75</ele>
        <time>2021-06-06T13:01:13.000Z</time>
      </trkpt>
      <trkpt lat="47.23515" lon="-1.54466">
        <ele>74</ele>
        <time>2021-06-06T13:01:15.000Z</time>
      </trkpt>
      <trkpt lat="47.23518" lon="-1.54491">
        <ele>74</ele>
        <time>2021-06-06T13:01:17.000Z</time>
      </trkpt>
      <trkpt lat="47.23521" lon="-1.54514">
        <ele>74</ele>
        <time>2021-06-06T13:01:19.000Z</time>
      </trkpt>
      <trkpt lat="47.23524" lon="-1.54537">
        <ele>74</ele>
        <time>2021-06-06T13:01:21.000Z</time>
      </trkpt>
      <trkpt lat="47.23528" lon="-1.54558">
        <ele>75</ele>
        <time>2021-06-06T13:01:23.000Z</time>
      </trkpt>
      <trkpt lat="47.23531" lon="-1.54578">
        <ele>75</ele>
        <time>2021-06-06T13:01:25.000Z</time>
      </trkpt>
      <trkpt lat="47.23533" lon="-1.54596">
        <ele>76</ele>
        <time>2021-06-06T13:01:27.000Z</time>
      </trkpt>
      <trkpt lat="47.23535" lon="-1.54614">
        <ele>75</ele>
        <time>2021-06-06T13:01:29.000Z</time>
      </trkpt>
      <trkpt lat="47.23537" lon="-1.5463">
        <ele>75</ele>
        <time>2021-06-06T13:01:31.000Z</time>
      </trkpt>
      <trkpt lat="47.2354" lon="-1.54643">
        <ele>74</ele>
        <time>2021-06-06T13:01:33.000Z</time>
      </trkpt>
      <trkpt lat="47.23542" lon="-1.54658">
        <ele>75</ele>
        <time>2021-06-06T13:01:38.000Z</time>
      </trkpt>
      <trkpt lat="47.23545" lon="-1.54677">
        <ele>76</ele>
        <time>2021-06-06T13:02:03.000Z</time>
      </trkpt>
      <trkpt lat="47.2355" lon="-1.54694">
        <ele>76</ele>
        <time>2021-06-06T13:02:05.000Z</time>
      </trkpt>
      <trkpt lat="47.23554" lon="-1.54714">
        <ele>74</ele>
        <time>2021-06-06T13:02:07.000Z</time>
      </trkpt>
      <trkpt lat="47.23556" lon="-1.54733">
        <ele>71</ele>
        <time>2021-06-06T13:02:09.000Z</time>
      </trkpt>
      <trkpt lat="47.23557" lon="-1.54752">
        <ele>69</ele>
        <time>2021-06-06T13:02:11.000Z</time>
      </trkpt>
      <trkpt lat="47.23555" lon="-1.54769">
        <ele>68</ele>
        <time>2021-06-06T13:02:13.000Z</time>
      </trkpt>
      <trkpt lat="47.23554" lon="-1.54786">
        <ele>69</ele>
        <time>2021-06-06T13:02:15.000Z</time>
      </trkpt>
      <trkpt lat="47.23553" lon="-1.54803">
        <ele>69</ele>
        <time>2021-06-06T13:02:17.000Z</time>
      </trkpt>
      <trkpt lat="47.23551" lon="-1.54821">
        <ele>69</ele>
        <time>2021-06-06T13:02:19.000Z</time>
      </trkpt>
      <trkpt lat="47.23549" lon="-1.54837">
        <ele>69</ele>
        <time>2021-06-06T13:02:21.000Z</time>
      </trkpt>
      <trkpt lat="47.23547" lon="-1.54854">
        <ele>69</ele>
        <time>2021-06-06T13:02:23.000Z</time>
      </trkpt>
      <trkpt lat="47.23544" lon="-1.5487">
        <ele>68</ele>
        <time>2021-06-06T13:02:25.000Z</time>
      </trkpt>
      <trkpt lat="47.23542" lon="-1.54887">
        <ele>67</ele>
        <time>2021-06-06T13:02:27.000Z</time>
      </trkpt>
      <trkpt lat="47.2354" lon="-1.54902">
        <ele>66</ele>
        <time>2021-06-06T13:02:29.000Z</time>
      </trkpt>
      <trkpt lat="47.23537" lon="-1.54918">
        <ele>65</ele>
        <time>2021-06-06T13:02:31.000Z</time>
      </trkpt>
      <trkpt lat="47.23535" lon="-1.54934">
        <ele>65</ele>
        <time>2021-06-06T13:02:34.000Z</time>
      </trkpt>
      <trkpt lat="47.23529" lon="-1.54945">
        <ele>63</ele>
        <time>2021-06-06T13:02:44.000Z</time>
      </trkpt>
      <trkpt lat="47.23519" lon="-1.54939">
        <ele>64</ele>
        <time>2021-06-06T13:02:47.000Z</time>
      </trkpt>
      <trkpt lat="47.23507" lon="-1.54929">
        <ele>64</ele>
        <time>2021-06-06T13:02:50.000Z</time>
      </trkpt>
      <trkpt lat="47.23494" lon="-1.54925">
        <ele>64</ele>
        <time>2021-06-06T13:02:52.000Z</time>
      </trkpt>
      <trkpt lat="47.23481" lon="-1.54921">
        <ele>63</ele>
        <time>2021-06-06T13:02:54.000Z</time>
      </trkpt>
      <trkpt lat="47.23468" lon="-1.54918">
        <ele>63</ele>
        <time>2021-06-06T13:02:56.000Z</time>
      </trkpt>
      <trkpt lat="47.23454" lon="-1.54914">
        <ele>62</ele>
        <time>2021-06-06T13:02:58.000Z</time>
      </trkpt>
      <trkpt lat="47.23439" lon="-1.54912">
        <ele>61</ele>
        <time>2021-06-06T13:03:00.000Z</time>
      </trkpt>
      <trkpt lat="47.23423" lon="-1.54908">
        <ele>61</ele>
        <time>2021-06-06T13:03:02.000Z</time>
      </trkpt>
      <trkpt lat="47.23407" lon="-1.54906">
        <ele>59</ele>
        <time>2021-06-06T13:03:04.000Z</time>
      </trkpt>
      <trkpt lat="47.23391" lon="-1.54903">
        <ele>59</ele>
        <time>2021-06-06T13:03:06.000Z</time>
      </trkpt>
      <trkpt lat="47.23377" lon="-1.54902">
        <ele>58</ele>
        <time>2021-06-06T13:03:08.000Z</time>
      </trkpt>
      <trkpt lat="47.23364" lon="-1.549">
        <ele>59</ele>
        <time>2021-06-06T13:03:10.000Z</time>
      </trkpt>
      <trkpt lat="47.2337" lon="-1.54888">
        <ele>62</ele>
        <time>2021-06-06T13:03:14.000Z</time>
      </trkpt>
      <trkpt lat="47.23386" lon="-1.54888">
        <ele>61</ele>
        <time>2021-06-06T13:03:16.000Z</time>
      </trkpt>
      <trkpt lat="47.23401" lon="-1.54889">
        <ele>59</ele>
        <time>2021-06-06T13:03:18.000Z</time>
      </trkpt>
      <trkpt lat="47.23414" lon="-1.54888">
        <ele>58</ele>
        <time>2021-06-06T13:03:20.000Z</time>
      </trkpt>
      <trkpt lat="47.23428" lon="-1.54889">
        <ele>58</ele>
        <time>2021-06-06T13:03:22.000Z</time>
      </trkpt>
      <trkpt lat="47.23441" lon="-1.54891">
        <ele>57</ele>
        <time>2021-06-06T13:03:24.000Z</time>
      </trkpt>
      <trkpt lat="47.23454" lon="-1.54894">
        <ele>57</ele>
        <time>2021-06-06T13:03:26.000Z</time>
      </trkpt>
      <trkpt lat="47.23467" lon="-1.54897">
        <ele>56</ele>
        <time>2021-06-06T13:03:28.000Z</time>
      </trkpt>
      <trkpt lat="47.23479" lon="-1.54901">
        <ele>56</ele>
        <time>2021-06-06T13:03:30.000Z</time>
      </trkpt>
      <trkpt lat="47.23492" lon="-1.54905">
        <ele>56</ele>
        <time>2021-06-06T13:03:32.000Z</time>
      </trkpt>
      <trkpt lat="47.23504" lon="-1.54909">
        <ele>56</ele>
        <time>2021-06-06T13:03:34.000Z</time>
      </trkpt>
      <trkpt lat="47.23517" lon="-1.54912">
        <ele>56</ele>
        <time>2021-06-06T13:03:36.000Z</time>
      </trkpt>
      <trkpt lat="47.23529" lon="-1.54914">
        <ele>56</ele>
        <time>2021-06-06T13:03:38.000Z</time>
      </trkpt>
      <trkpt lat="47.2354" lon="-1.54918">
        <ele>56</ele>
        <time>2021-06-06T13:03:40.000Z</time>
      </trkpt>
      <trkpt lat="47.23551" lon="-1.5493">
        <ele>56</ele>
        <time>2021-06-06T13:03:42.000Z</time>
      </trkpt>
      <trkpt lat="47.23559" lon="-1.54944">
        <ele>56</ele>
        <time>2021-06-06T13:03:44.000Z</time>
      </trkpt>
      <trkpt lat="47.23568" lon="-1.54956">
        <ele>56</ele>
        <time>2021-06-06T13:03:46.000Z</time>
      </trkpt>
      <trkpt lat="47.23576" lon="-1.5497">
        <ele>56</ele>
        <time>2021-06-06T13:03:48.000Z</time>
      </trkpt>
      <trkpt lat="47.23582" lon="-1.54985">
        <ele>57</ele>
        <time>2021-06-06T13:03:50.000Z</time>
      </trkpt>
      <trkpt lat="47.23588" lon="-1.54997">
        <ele>57</ele>
        <time>2021-06-06T13:03:52.000Z</time>
      </trkpt>
      <trkpt lat="47.23595" lon="-1.55007">
        <ele>57</ele>
        <time>2021-06-06T13:03:54.000Z</time>
      </trkpt>
      <trkpt lat="47.23601" lon="-1.55018">
        <ele>58</ele>
        <time>2021-06-06T13:03:56.000Z</time>
      </trkpt>
      <trkpt lat="47.23608" lon="-1.55029">
        <ele>58</ele>
        <time>2021-06-06T13:03:58.000Z</time>
      </trkpt>
      <trkpt lat="47.23616" lon="-1.55037">
        <ele>58</ele>
        <time>2021-06-06T13:04:00.000Z</time>
      </trkpt>
      <trkpt lat="47.23627" lon="-1.55044">
        <ele>58</ele>
        <time>2021-06-06T13:04:03.000Z</time>
      </trkpt>
      <trkpt lat="47.23638" lon="-1.55047">
        <ele>58</ele>
        <time>2021-06-06T13:04:06.000Z</time>
      </trkpt>
      <trkpt lat="47.23651" lon="-1.55049">
        <ele>58</ele>
        <time>2021-06-06T13:04:09.000Z</time>
      </trkpt>
      <trkpt lat="47.2366" lon="-1.55054">
        <ele>59</ele>
        <time>2021-06-06T13:04:11.000Z</time>
      </trkpt>
      <trkpt lat="47.23669" lon="-1.55062">
        <ele>59</ele>
        <time>2021-06-06T13:04:13.000Z</time>
      </trkpt>
      <trkpt lat="47.23679" lon="-1.55071">
        <ele>59</ele>
        <time>2021-06-06T13:04:15.000Z</time>
      </trkpt>
      <trkpt lat="47.23689" lon="-1.55073">
        <ele>59</ele>
        <time>2021-06-06T13:04:17.000Z</time>
      </trkpt>
      <trkpt lat="47.23701" lon="-1.55078">
        <ele>59</ele>
        <time>2021-06-06T13:04:19.000Z</time>
      </trkpt>
      <trkpt lat="47.2371" lon="-1.55089">
        <ele>60</ele>
        <time>2021-06-06T13:04:21.000Z</time>
      </trkpt>
      <trkpt lat="47.23715" lon="-1.55106">
        <ele>61</ele>
        <time>2021-06-06T13:04:23.000Z</time>
      </trkpt>
      <trkpt lat="47.2372" lon="-1.55121">
        <ele>60</ele>
        <time>2021-06-06T13:04:25.000Z</time>
      </trkpt>
      <trkpt lat="47.23724" lon="-1.55137">
        <ele>60</ele>
        <time>2021-06-06T13:04:27.000Z</time>
      </trkpt>
      <trkpt lat="47.23728" lon="-1.5515">
        <ele>61</ele>
        <time>2021-06-06T13:04:29.000Z</time>
      </trkpt>
      <trkpt lat="47.23738" lon="-1.55159">
        <ele>62</ele>
        <time>2021-06-06T13:04:32.000Z</time>
      </trkpt>
      <trkpt lat="47.2375" lon="-1.55162">
        <ele>61</ele>
        <time>2021-06-06T13:04:34.000Z</time>
      </trkpt>
      <trkpt lat="47.23762" lon="-1.55165">
        <ele>62</ele>
        <time>2021-06-06T13:04:36.000Z</time>
      </trkpt>
      <trkpt lat="47.23773" lon="-1.55169">
        <ele>62</ele>
        <time>2021-06-06T13:04:38.000Z</time>
      </trkpt>
      <trkpt lat="47.23784" lon="-1.55173">
        <ele>62</ele>
        <time>2021-06-06T13:04:40.000Z</time>
      </trkpt>
      <trkpt lat="47.23794" lon="-1.55179">
        <ele>62</ele>
        <time>2021-06-06T13:04:42.000Z</time>
      </trkpt>
      <trkpt lat="47.23804" lon="-1.55187">
        <ele>62</ele>
        <time>2021-06-06T13:04:44.000Z</time>
      </trkpt>
      <trkpt lat="47.23813" lon="-1.55197">
        <ele>62</ele>
        <time>2021-06-06T13:04:46.000Z</time>
      </trkpt>
      <trkpt lat="47.23822" lon="-1.55209">
        <ele>62</ele>
        <time>2021-06-06T13:04:48.000Z</time>
      </trkpt>
      <trkpt lat="47.2383" lon="-1.55223">
        <ele>62</ele>
        <time>2021-06-06T13:04:50.000Z</time>
      </trkpt>
      <trkpt lat="47.23836" lon="-1.55238">
        <ele>62</ele>
        <time>2021-06-06T13:04:52.000Z</time>
      </trkpt>
      <trkpt lat="47.23843" lon="-1.55254">
        <ele>62</ele>
        <time>2021-06-06T13:04:54.000Z</time>
      </trkpt>
      <trkpt lat="47.2385" lon="-1.55269">
        <ele>61</ele>
        <time>2021-06-06T13:04:56.000Z</time>
      </trkpt>
      <trkpt lat="47.23857" lon="-1.55284">
        <ele>61</ele>
        <time>2021-06-06T13:04:58.000Z</time>
      </trkpt>
      <trkpt lat="47.23864" lon="-1.55299">
        <ele>61</ele>
        <time>2021-06-06T13:05:00.000Z</time>
      </trkpt>
      <trkpt lat="47.23872" lon="-1.55311">
        <ele>62</ele>
        <time>2021-06-06T13:05:02.000Z</time>
      </trkpt>
      <trkpt lat="47.23881" lon="-1.55322">
        <ele>62</ele>
        <time>2021-06-06T13:05:04.000Z</time>
      </trkpt>
      <trkpt lat="47.23889" lon="-1.55333">
        <ele>63</ele>
        <time>2021-06-06T13:05:06.000Z</time>
      </trkpt>
      <trkpt lat="47.23898" lon="-1.55345">
        <ele>64</ele>
        <time>2021-06-06T13:05:08.000Z</time>
      </trkpt>
      <trkpt lat="47.23906" lon="-1.55356">
        <ele>64</ele>
        <time>2021-06-06T13:05:10.000Z</time>
      </trkpt>
      <trkpt lat="47.23915" lon="-1.55367">
        <ele>63</ele>
        <time>2021-06-06T13:05:12.000Z</time>
      </trkpt>
      <trkpt lat="47.23923" lon="-1.55378">
        <ele>64</ele>
        <time>2021-06-06T13:05:14.000Z</time>
      </trkpt>
      <trkpt lat="47.23931" lon="-1.5539">
        <ele>64</ele>
        <time>2021-06-06T13:05:16.000Z</time>
      </trkpt>
      <trkpt lat="47.23938" lon="-1.55404">
        <ele>64</ele>
        <time>2021-06-06T13:05:18.000Z</time>
      </trkpt>
      <trkpt lat="47.23944" lon="-1.55418">
        <ele>65</ele>
        <time>2021-06-06T13:05:20.000Z</time>
      </trkpt>
      <trkpt lat="47.2395" lon="-1.55431">
        <ele>65</ele>
        <time>2021-06-06T13:05:22.000Z</time>
      </trkpt>
      <trkpt lat="47.23951" lon="-1.55446">
        <ele>66</ele>
        <time>2021-06-06T13:05:24.000Z</time>
      </trkpt>
      <trkpt lat="47.23949" lon="-1.55463">
        <ele>66</ele>
        <time>2021-06-06T13:05:26.000Z</time>
      </trkpt>
      <trkpt lat="47.23951" lon="-1.55478">
        <ele>68</ele>
        <time>2021-06-06T13:05:28.000Z</time>
      </trkpt>
      <trkpt lat="47.23954" lon="-1.55492">
        <ele>68</ele>
        <time>2021-06-06T13:05:30.000Z</time>
      </trkpt>
      <trkpt lat="47.23961" lon="-1.55504">
        <ele>69</ele>
        <time>2021-06-06T13:05:32.000Z</time>
      </trkpt>
      <trkpt lat="47.23968" lon="-1.55515">
        <ele>69</ele>
        <time>2021-06-06T13:05:34.000Z</time>
      </trkpt>
      <trkpt lat="47.23976" lon="-1.55525">
        <ele>69</ele>
        <time>2021-06-06T13:05:36.000Z</time>
      </trkpt>
      <trkpt lat="47.23986" lon="-1.55535">
        <ele>70</ele>
        <time>2021-06-06T13:05:38.000Z</time>
      </trkpt>
      <trkpt lat="47.23996" lon="-1.55544">
        <ele>71</ele>
        <time>2021-06-06T13:05:40.000Z</time>
      </trkpt>
      <trkpt lat="47.24007" lon="-1.55554">
        <ele>71</ele>
        <time>2021-06-06T13:05:42.000Z</time>
      </trkpt>
      <trkpt lat="47.24017" lon="-1.55565">
        <ele>71</ele>
        <time>2021-06-06T13:05:44.000Z</time>
      </trkpt>
      <trkpt lat="47.24027" lon="-1.55577">
        <ele>71</ele>
        <time>2021-06-06T13:05:46.000Z</time>
      </trkpt>
      <trkpt lat="47.24036" lon="-1.55587">
        <ele>71</ele>
        <time>2021-06-06T13:05:48.000Z</time>
      </trkpt>
      <trkpt lat="47.24045" lon="-1.55597">
        <ele>70</ele>
        <time>2021-06-06T13:05:50.000Z</time>
      </trkpt>
      <trkpt lat="47.24053" lon="-1.55607">
        <ele>70</ele>
        <time>2021-06-06T13:05:52.000Z</time>
      </trkpt>
      <trkpt lat="47.24062" lon="-1.55617">
        <ele>70</ele>
        <time>2021-06-06T13:05:54.000Z</time>
      </trkpt>
      <trkpt lat="47.24071" lon="-1.55627">
        <ele>70</ele>
        <time>2021-06-06T13:05:56.000Z</time>
      </trkpt>
      <trkpt lat="47.24079" lon="-1.55636">
        <ele>71</ele>
        <time>2021-06-06T13:05:58.000Z</time>
      </trkpt>
      <trkpt lat="47.24089" lon="-1.55644">
        <ele>71</ele>
        <time>2021-06-06T13:06:00.000Z</time>
      </trkpt>
      <trkpt lat="47.24097" lon="-1.55649">
        <ele>70</ele>
        <time>2021-06-06T13:06:02.000Z</time>
      </trkpt>
      <trkpt lat="47.24109" lon="-1.55657">
        <ele>71</ele>
        <time>2021-06-06T13:06:05.000Z</time>
      </trkpt>
      <trkpt lat="47.2412" lon="-1.5566">
        <ele>70</ele>
        <time>2021-06-06T13:06:07.000Z</time>
      </trkpt>
      <trkpt lat="47.24133" lon="-1.55657">
        <ele>69</ele>
        <time>2021-06-06T13:06:09.000Z</time>
      </trkpt>
      <trkpt lat="47.24146" lon="-1.55653">
        <ele>69</ele>
        <time>2021-06-06T13:06:11.000Z</time>
      </trkpt>
      <trkpt lat="47.2416" lon="-1.55651">
        <ele>69</ele>
        <time>2021-06-06T13:06:13.000Z</time>
      </trkpt>
      <trkpt lat="47.24177" lon="-1.55648">
        <ele>70</ele>
        <time>2021-06-06T13:06:15.000Z</time>
      </trkpt>
      <trkpt lat="47.24192" lon="-1.55647">
        <ele>69</ele>
        <time>2021-06-06T13:06:17.000Z</time>
      </trkpt>
      <trkpt lat="47.24205" lon="-1.55645">
        <ele>69</ele>
        <time>2021-06-06T13:06:19.000Z</time>
      </trkpt>
      <trkpt lat="47.24214" lon="-1.55643">
        <ele>69</ele>
        <time>2021-06-06T13:06:21.000Z</time>
      </trkpt>
      <trkpt lat="47.24228" lon="-1.55642">
        <ele>68</ele>
        <time>2021-06-06T13:06:24.000Z</time>
      </trkpt>
      <trkpt lat="47.24241" lon="-1.55642">
        <ele>67</ele>
        <time>2021-06-06T13:06:26.000Z</time>
      </trkpt>
      <trkpt lat="47.24254" lon="-1.55643">
        <ele>65</ele>
        <time>2021-06-06T13:06:28.000Z</time>
      </trkpt>
      <trkpt lat="47.24266" lon="-1.55641">
        <ele>65</ele>
        <time>2021-06-06T13:06:30.000Z</time>
      </trkpt>
      <trkpt lat="47.24279" lon="-1.55641">
        <ele>66</ele>
        <time>2021-06-06T13:06:32.000Z</time>
      </trkpt>
      <trkpt lat="47.24291" lon="-1.55639">
        <ele>67</ele>
        <time>2021-06-06T13:06:34.000Z</time>
      </trkpt>
      <trkpt lat="47.24304" lon="-1.55639">
        <ele>67</ele>
        <time>2021-06-06T13:06:36.000Z</time>
      </trkpt>
      <trkpt lat="47.24316" lon="-1.55638">
        <ele>68</ele>
        <time>2021-06-06T13:06:38.000Z</time>
      </trkpt>
      <trkpt lat="47.24329" lon="-1.55639">
        <ele>68</ele>
        <time>2021-06-06T13:06:40.000Z</time>
      </trkpt>
      <trkpt lat="47.24338" lon="-1.55636">
        <ele>68</ele>
        <time>2021-06-06T13:06:42.000Z</time>
      </trkpt>
      <trkpt lat="47.24347" lon="-1.55631">
        <ele>68</ele>
        <time>2021-06-06T13:06:44.000Z</time>
      </trkpt>
      <trkpt lat="47.24357" lon="-1.55633">
        <ele>68</ele>
        <time>2021-06-06T13:06:46.000Z</time>
      </trkpt>
      <trkpt lat="47.24368" lon="-1.55627">
        <ele>68</ele>
        <time>2021-06-06T13:06:48.000Z</time>
      </trkpt>
      <trkpt lat="47.24381" lon="-1.55621">
        <ele>69</ele>
        <time>2021-06-06T13:06:50.000Z</time>
      </trkpt>
      <trkpt lat="47.24395" lon="-1.55619">
        <ele>69</ele>
        <time>2021-06-06T13:06:52.000Z</time>
      </trkpt>
      <trkpt lat="47.24408" lon="-1.55619">
        <ele>70</ele>
        <time>2021-06-06T13:06:54.000Z</time>
      </trkpt>
      <trkpt lat="47.24422" lon="-1.55618">
        <ele>71</ele>
        <time>2021-06-06T13:06:56.000Z</time>
      </trkpt>
      <trkpt lat="47.24434" lon="-1.55617">
        <ele>71</ele>
        <time>2021-06-06T13:06:58.000Z</time>
      </trkpt>
      <trkpt lat="47.24447" lon="-1.55616">
        <ele>70</ele>
        <time>2021-06-06T13:07:00.000Z</time>
      </trkpt>
      <trkpt lat="47.24461" lon="-1.55613">
        <ele>70</ele>
        <time>2021-06-06T13:07:02.000Z</time>
      </trkpt>
      <trkpt lat="47.24473" lon="-1.5561">
        <ele>70</ele>
        <time>2021-06-06T13:07:04.000Z</time>
      </trkpt>
      <trkpt lat="47.24485" lon="-1.55606">
        <ele>71</ele>
        <time>2021-06-06T13:07:06.000Z</time>
      </trkpt>
      <trkpt lat="47.24497" lon="-1.55602">
        <ele>71</ele>
        <time>2021-06-06T13:07:08.000Z</time>
      </trkpt>
      <trkpt lat="47.24508" lon="-1.55598">
        <ele>71</ele>
        <time>2021-06-06T13:07:10.000Z</time>
      </trkpt>
      <trkpt lat="47.24519" lon="-1.55593">
        <ele>71</ele>
        <time>2021-06-06T13:07:12.000Z</time>
      </trkpt>
      <trkpt lat="47.2453" lon="-1.55586">
        <ele>71</ele>
        <time>2021-06-06T13:07:14.000Z</time>
      </trkpt>
      <trkpt lat="47.24541" lon="-1.55578">
        <ele>70</ele>
        <time>2021-06-06T13:07:16.000Z</time>
      </trkpt>
      <trkpt lat="47.24551" lon="-1.55569">
        <ele>70</ele>
        <time>2021-06-06T13:07:18.000Z</time>
      </trkpt>
      <trkpt lat="47.24561" lon="-1.55561">
        <ele>70</ele>
        <time>2021-06-06T13:07:20.000Z</time>
      </trkpt>
      <trkpt lat="47.24572" lon="-1.55555">
        <ele>70</ele>
        <time>2021-06-06T13:07:22.000Z</time>
      </trkpt>
      <trkpt lat="47.24584" lon="-1.5555">
        <ele>69</ele>
        <time>2021-06-06T13:07:24.000Z</time>
      </trkpt>
      <trkpt lat="47.24592" lon="-1.55543">
        <ele>70</ele>
        <time>2021-06-06T13:07:27.000Z</time>
      </trkpt>
      <trkpt lat="47.24603" lon="-1.55533">
        <ele>70</ele>
        <time>2021-06-06T13:07:30.000Z</time>
      </trkpt>
      <trkpt lat="47.24612" lon="-1.55529">
        <ele>71</ele>
        <time>2021-06-06T13:07:32.000Z</time>
      </trkpt>
      <trkpt lat="47.24623" lon="-1.55526">
        <ele>71</ele>
        <time>2021-06-06T13:07:34.000Z</time>
      </trkpt>
      <trkpt lat="47.24633" lon="-1.55525">
        <ele>70</ele>
        <time>2021-06-06T13:07:36.000Z</time>
      </trkpt>
      <trkpt lat="47.24641" lon="-1.55515">
        <ele>69</ele>
        <time>2021-06-06T13:07:39.000Z</time>
      </trkpt>
      <trkpt lat="47.24636" lon="-1.55501">
        <ele>67</ele>
        <time>2021-06-06T13:07:41.000Z</time>
      </trkpt>
      <trkpt lat="47.24632" lon="-1.55485">
        <ele>67</ele>
        <time>2021-06-06T13:07:43.000Z</time>
      </trkpt>
      <trkpt lat="47.24629" lon="-1.55469">
        <ele>66</ele>
        <time>2021-06-06T13:07:45.000Z</time>
      </trkpt>
      <trkpt lat="47.24631" lon="-1.5545">
        <ele>67</ele>
        <time>2021-06-06T13:07:47.000Z</time>
      </trkpt>
      <trkpt lat="47.24638" lon="-1.5543">
        <ele>66</ele>
        <time>2021-06-06T13:07:49.000Z</time>
      </trkpt>
      <trkpt lat="47.24647" lon="-1.55413">
        <ele>66</ele>
        <time>2021-06-06T13:07:51.000Z</time>
      </trkpt>
      <trkpt lat="47.24658" lon="-1.55399">
        <ele>65</ele>
        <time>2021-06-06T13:07:53.000Z</time>
      </trkpt>
      <trkpt lat="47.24668" lon="-1.55386">
        <ele>65</ele>
        <time>2021-06-06T13:07:55.000Z</time>
      </trkpt>
      <trkpt lat="47.24678" lon="-1.55374">
        <ele>66</ele>
        <time>2021-06-06T13:07:57.000Z</time>
      </trkpt>
      <trkpt lat="47.24688" lon="-1.55362">
        <ele>67</ele>
        <time>2021-06-06T13:07:59.000Z</time>
      </trkpt>
      <trkpt lat="47.24698" lon="-1.55349">
        <ele>67</ele>
        <time>2021-06-06T13:08:01.000Z</time>
      </trkpt>
      <trkpt lat="47.24707" lon="-1.55335">
        <ele>67</ele>
        <time>2021-06-06T13:08:03.000Z</time>
      </trkpt>
      <trkpt lat="47.24715" lon="-1.55322">
        <ele>68</ele>
        <time>2021-06-06T13:08:05.000Z</time>
      </trkpt>
      <trkpt lat="47.24725" lon="-1.55309">
        <ele>68</ele>
        <time>2021-06-06T13:08:07.000Z</time>
      </trkpt>
      <trkpt lat="47.24734" lon="-1.55297">
        <ele>68</ele>
        <time>2021-06-06T13:08:09.000Z</time>
      </trkpt>
      <trkpt lat="47.24743" lon="-1.55285">
        <ele>69</ele>
        <time>2021-06-06T13:08:11.000Z</time>
      </trkpt>
      <trkpt lat="47.24751" lon="-1.55272">
        <ele>70</ele>
        <time>2021-06-06T13:08:13.000Z</time>
      </trkpt>
      <trkpt lat="47.2476" lon="-1.5526">
        <ele>71</ele>
        <time>2021-06-06T13:08:15.000Z</time>
      </trkpt>
      <trkpt lat="47.24769" lon="-1.55248">
        <ele>70</ele>
        <time>2021-06-06T13:08:17.000Z</time>
      </trkpt>
      <trkpt lat="47.24778" lon="-1.55239">
        <ele>71</ele>
        <time>2021-06-06T13:08:19.000Z</time>
      </trkpt>
      <trkpt lat="47.24787" lon="-1.55229">
        <ele>71</ele>
        <time>2021-06-06T13:08:21.000Z</time>
      </trkpt>
      <trkpt lat="47.24795" lon="-1.5522">
        <ele>71</ele>
        <time>2021-06-06T13:08:23.000Z</time>
      </trkpt>
      <trkpt lat="47.24801" lon="-1.55211">
        <ele>72</ele>
        <time>2021-06-06T13:08:25.000Z</time>
      </trkpt>
      <trkpt lat="47.24808" lon="-1.55197">
        <ele>72</ele>
        <time>2021-06-06T13:08:28.000Z</time>
      </trkpt>
      <trkpt lat="47.24806" lon="-1.55179">
        <ele>72</ele>
        <time>2021-06-06T13:08:31.000Z</time>
      </trkpt>
      <trkpt lat="47.24811" lon="-1.55165">
        <ele>72</ele>
        <time>2021-06-06T13:08:33.000Z</time>
      </trkpt>
      <trkpt lat="47.24818" lon="-1.55155">
        <ele>72</ele>
        <time>2021-06-06T13:08:35.000Z</time>
      </trkpt>
      <trkpt lat="47.2483" lon="-1.55155">
        <ele>74</ele>
        <time>2021-06-06T13:08:38.000Z</time>
      </trkpt>
      <trkpt lat="47.24841" lon="-1.55152">
        <ele>74</ele>
        <time>2021-06-06T13:08:40.000Z</time>
      </trkpt>
      <trkpt lat="47.2485" lon="-1.55144">
        <ele>75</ele>
        <time>2021-06-06T13:08:42.000Z</time>
      </trkpt>
      <trkpt lat="47.24859" lon="-1.55136">
        <ele>76</ele>
        <time>2021-06-06T13:08:44.000Z</time>
      </trkpt>
      <trkpt lat="47.24868" lon="-1.55128">
        <ele>77</ele>
        <time>2021-06-06T13:08:46.000Z</time>
      </trkpt>
      <trkpt lat="47.24878" lon="-1.55119">
        <ele>78</ele>
        <time>2021-06-06T13:08:48.000Z</time>
      </trkpt>
      <trkpt lat="47.24887" lon="-1.55111">
        <ele>78</ele>
        <time>2021-06-06T13:08:50.000Z</time>
      </trkpt>
      <trkpt lat="47.24896" lon="-1.55103">
        <ele>79</ele>
        <time>2021-06-06T13:08:52.000Z</time>
      </trkpt>
      <trkpt lat="47.24904" lon="-1.55095">
        <ele>79</ele>
        <time>2021-06-06T13:08:54.000Z</time>
      </trkpt>
      <trkpt lat="47.24913" lon="-1.55087">
        <ele>78</ele>
        <time>2021-06-06T13:08:56.000Z</time>
      </trkpt>
      <trkpt lat="47.24922" lon="-1.55078">
        <ele>79</ele>
        <time>2021-06-06T13:08:58.000Z</time>
      </trkpt>
      <trkpt lat="47.24931" lon="-1.55071">
        <ele>79</ele>
        <time>2021-06-06T13:09:00.000Z</time>
      </trkpt>
      <trkpt lat="47.24941" lon="-1.55064">
        <ele>79</ele>
        <time>2021-06-06T13:09:02.000Z</time>
      </trkpt>
      <trkpt lat="47.24951" lon="-1.55058">
        <ele>79</ele>
        <time>2021-06-06T13:09:04.000Z</time>
      </trkpt>
      <trkpt lat="47.24961" lon="-1.55053">
        <ele>79</ele>
        <time>2021-06-06T13:09:06.000Z</time>
      </trkpt>
      <trkpt lat="47.24972" lon="-1.55047">
        <ele>79</ele>
        <time>2021-06-06T13:09:08.000Z</time>
      </trkpt>
      <trkpt lat="47.24982" lon="-1.55041">
        <ele>79</ele>
        <time>2021-06-06T13:09:10.000Z</time>
      </trkpt>
      <trkpt lat="47.24992" lon="-1.55036">
        <ele>79</ele>
        <time>2021-06-06T13:09:12.000Z</time>
      </trkpt>
      <trkpt lat="47.25003" lon="-1.55031">
        <ele>79</ele>
        <time>2021-06-06T13:09:14.000Z</time>
      </trkpt>
      <trkpt lat="47.25013" lon="-1.55027">
        <ele>78</ele>
        <time>2021-06-06T13:09:16.000Z</time>
      </trkpt>
      <trkpt lat="47.25023" lon="-1.55021">
        <ele>79</ele>
        <time>2021-06-06T13:09:18.000Z</time>
      </trkpt>
      <trkpt lat="47.25033" lon="-1.55015">
        <ele>80</ele>
        <time>2021-06-06T13:09:20.000Z</time>
      </trkpt>
      <trkpt lat="47.25043" lon="-1.55009">
        <ele>80</ele>
        <time>2021-06-06T13:09:22.000Z</time>
      </trkpt>
      <trkpt lat="47.25054" lon="-1.55003">
        <ele>80</ele>
        <time>2021-06-06T13:09:24.000Z</time>
      </trkpt>
      <trkpt lat="47.25063" lon="-1.54996">
        <ele>81</ele>
        <time>2021-06-06T13:09:26.000Z</time>
      </trkpt>
      <trkpt lat="47.25074" lon="-1.5499">
        <ele>81</ele>
        <time>2021-06-06T13:09:28.000Z</time>
      </trkpt>
      <trkpt lat="47.25084" lon="-1.54984">
        <ele>80</ele>
        <time>2021-06-06T13:09:30.000Z</time>
      </trkpt>
      <trkpt lat="47.25095" lon="-1.54978">
        <ele>79</ele>
        <time>2021-06-06T13:09:32.000Z</time>
      </trkpt>
      <trkpt lat="47.25107" lon="-1.54972">
        <ele>79</ele>
        <time>2021-06-06T13:09:34.000Z</time>
      </trkpt>
      <trkpt lat="47.25119" lon="-1.54965">
        <ele>77</ele>
        <time>2021-06-06T13:09:36.000Z</time>
      </trkpt>
      <trkpt lat="47.25132" lon="-1.54957">
        <ele>76</ele>
        <time>2021-06-06T13:09:38.000Z</time>
      </trkpt>
      <trkpt lat="47.25146" lon="-1.5495">
        <ele>74</ele>
        <time>2021-06-06T13:09:40.000Z</time>
      </trkpt>
      <trkpt lat="47.2516" lon="-1.54942">
        <ele>72</ele>
        <time>2021-06-06T13:09:42.000Z</time>
      </trkpt>
      <trkpt lat="47.25174" lon="-1.54934">
        <ele>71</ele>
        <time>2021-06-06T13:09:44.000Z</time>
      </trkpt>
      <trkpt lat="47.25189" lon="-1.54925">
        <ele>71</ele>
        <time>2021-06-06T13:09:46.000Z</time>
      </trkpt>
      <trkpt lat="47.25204" lon="-1.54919">
        <ele>71</ele>
        <time>2021-06-06T13:09:48.000Z</time>
      </trkpt>
      <trkpt lat="47.25219" lon="-1.5491">
        <ele>69</ele>
        <time>2021-06-06T13:09:50.000Z</time>
      </trkpt>
      <trkpt lat="47.2523" lon="-1.54894">
        <ele>68</ele>
        <time>2021-06-06T13:09:52.000Z</time>
      </trkpt>
      <trkpt lat="47.25238" lon="-1.54875">
        <ele>67</ele>
        <time>2021-06-06T13:09:54.000Z</time>
      </trkpt>
      <trkpt lat="47.25243" lon="-1.54856">
        <ele>67</ele>
        <time>2021-06-06T13:09:56.000Z</time>
      </trkpt>
      <trkpt lat="47.25248" lon="-1.54837">
        <ele>67</ele>
        <time>2021-06-06T13:09:58.000Z</time>
      </trkpt>
      <trkpt lat="47.25253" lon="-1.5482">
        <ele>67</ele>
        <time>2021-06-06T13:10:00.000Z</time>
      </trkpt>
      <trkpt lat="47.25257" lon="-1.54801">
        <ele>67</ele>
        <time>2021-06-06T13:10:02.000Z</time>
      </trkpt>
      <trkpt lat="47.25259" lon="-1.54782">
        <ele>66</ele>
        <time>2021-06-06T13:10:04.000Z</time>
      </trkpt>
      <trkpt lat="47.25257" lon="-1.54764">
        <ele>66</ele>
        <time>2021-06-06T13:10:06.000Z</time>
      </trkpt>
      <trkpt lat="47.25255" lon="-1.54746">
        <ele>66</ele>
        <time>2021-06-06T13:10:08.000Z</time>
      </trkpt>
      <trkpt lat="47.25252" lon="-1.54728">
        <ele>66</ele>
        <time>2021-06-06T13:10:10.000Z</time>
      </trkpt>
      <trkpt lat="47.25249" lon="-1.54711">
        <ele>66</ele>
        <time>2021-06-06T13:10:12.000Z</time>
      </trkpt>
      <trkpt lat="47.25247" lon="-1.54693">
        <ele>66</ele>
        <time>2021-06-06T13:10:14.000Z</time>
      </trkpt>
      <trkpt lat="47.25244" lon="-1.54676">
        <ele>66</ele>
        <time>2021-06-06T13:10:16.000Z</time>
      </trkpt>
      <trkpt lat="47.25241" lon="-1.54658">
        <ele>66</ele>
        <time>2021-06-06T13:10:18.000Z</time>
      </trkpt>
      <trkpt lat="47.25239" lon="-1.5464">
        <ele>66</ele>
        <time>2021-06-06T13:10:20.000Z</time>
      </trkpt>
      <trkpt lat="47.25236" lon="-1.54623">
        <ele>67</ele>
        <time>2021-06-06T13:10:22.000Z</time>
      </trkpt>
      <trkpt lat="47.25234" lon="-1.54605">
        <ele>67</ele>
        <time>2021-06-06T13:10:24.000Z</time>
      </trkpt>
      <trkpt lat="47.25231" lon="-1.54588">
        <ele>67</ele>
        <time>2021-06-06T13:10:26.000Z</time>
      </trkpt>
      <trkpt lat="47.25229" lon="-1.5457">
        <ele>68</ele>
        <time>2021-06-06T13:10:28.000Z</time>
      </trkpt>
      <trkpt lat="47.25226" lon="-1.54553">
        <ele>69</ele>
        <time>2021-06-06T13:10:30.000Z</time>
      </trkpt>
      <trkpt lat="47.25224" lon="-1.54535">
        <ele>69</ele>
        <time>2021-06-06T13:10:32.000Z</time>
      </trkpt>
      <trkpt lat="47.25221" lon="-1.54518">
        <ele>70</ele>
        <time>2021-06-06T13:10:34.000Z</time>
      </trkpt>
      <trkpt lat="47.25218" lon="-1.545">
        <ele>70</ele>
        <time>2021-06-06T13:10:36.000Z</time>
      </trkpt>
      <trkpt lat="47.25216" lon="-1.54483">
        <ele>71</ele>
        <time>2021-06-06T13:10:38.000Z</time>
      </trkpt>
      <trkpt lat="47.25214" lon="-1.54466">
        <ele>71</ele>
        <time>2021-06-06T13:10:40.000Z</time>
      </trkpt>
      <trkpt lat="47.25211" lon="-1.54449">
        <ele>72</ele>
        <time>2021-06-06T13:10:42.000Z</time>
      </trkpt>
      <trkpt lat="47.2521" lon="-1.54433">
        <ele>71</ele>
        <time>2021-06-06T13:10:44.000Z</time>
      </trkpt>
      <trkpt lat="47.25208" lon="-1.54416">
        <ele>71</ele>
        <time>2021-06-06T13:10:46.000Z</time>
      </trkpt>
      <trkpt lat="47.25206" lon="-1.54398">
        <ele>70</ele>
        <time>2021-06-06T13:10:48.000Z</time>
      </trkpt>
      <trkpt lat="47.25203" lon="-1.54379">
        <ele>70</ele>
        <time>2021-06-06T13:10:50.000Z</time>
      </trkpt>
      <trkpt lat="47.252" lon="-1.5436">
        <ele>69</ele>
        <time>2021-06-06T13:10:52.000Z</time>
      </trkpt>
      <trkpt lat="47.25197" lon="-1.5434">
        <ele>69</ele>
        <time>2021-06-06T13:10:54.000Z</time>
      </trkpt>
      <trkpt lat="47.25195" lon="-1.54319">
        <ele>68</ele>
        <time>2021-06-06T13:10:56.000Z</time>
      </trkpt>
      <trkpt lat="47.25192" lon="-1.54298">
        <ele>68</ele>
        <time>2021-06-06T13:10:58.000Z</time>
      </trkpt>
      <trkpt lat="47.25189" lon="-1.54276">
        <ele>68</ele>
        <time>2021-06-06T13:11:00.000Z</time>
      </trkpt>
      <trkpt lat="47.25186" lon="-1.54255">
        <ele>67</ele>
        <time>2021-06-06T13:11:02.000Z</time>
      </trkpt>
      <trkpt lat="47.25187" lon="-1.54231">
        <ele>66</ele>
        <time>2021-06-06T13:11:04.000Z</time>
      </trkpt>
      <trkpt lat="47.25188" lon="-1.54209">
        <ele>65</ele>
        <time>2021-06-06T13:11:06.000Z</time>
      </trkpt>
      <trkpt lat="47.25178" lon="-1.54192">
        <ele>64</ele>
        <time>2021-06-06T13:11:08.000Z</time>
      </trkpt>
      <trkpt lat="47.25162" lon="-1.54183">
        <ele>64</ele>
        <time>2021-06-06T13:11:10.000Z</time>
      </trkpt>
      <trkpt lat="47.25149" lon="-1.54168">
        <ele>63</ele>
        <time>2021-06-06T13:11:12.000Z</time>
      </trkpt>
      <trkpt lat="47.2515" lon="-1.54154">
        <ele>63</ele>
        <time>2021-06-06T13:11:13.000Z</time>
      </trkpt>
      <trkpt lat="47.25154" lon="-1.54139">
        <ele>62</ele>
        <time>2021-06-06T13:11:14.000Z</time>
      </trkpt>
      <trkpt lat="47.25158" lon="-1.54126">
        <ele>61</ele>
        <time>2021-06-06T13:11:15.000Z</time>
      </trkpt>
      <trkpt lat="47.25163" lon="-1.54114">
        <ele>60</ele>
        <time>2021-06-06T13:11:16.000Z</time>
      </trkpt>
      <trkpt lat="47.25167" lon="-1.54102">
        <ele>60</ele>
        <time>2021-06-06T13:11:17.000Z</time>
      </trkpt>
      <trkpt lat="47.2518" lon="-1.54085">
        <ele>60</ele>
        <time>2021-06-06T13:11:19.000Z</time>
      </trkpt>
      <trkpt lat="47.25196" lon="-1.54077">
        <ele>61</ele>
        <time>2021-06-06T13:11:21.000Z</time>
      </trkpt>
      <trkpt lat="47.25211" lon="-1.54074">
        <ele>61</ele>
        <time>2021-06-06T13:11:23.000Z</time>
      </trkpt>
      <trkpt lat="47.25226" lon="-1.54071">
        <ele>61</ele>
        <time>2021-06-06T13:11:25.000Z</time>
      </trkpt>
      <trkpt lat="47.2524" lon="-1.54069">
        <ele>61</ele>
        <time>2021-06-06T13:11:27.000Z</time>
      </trkpt>
      <trkpt lat="47.25253" lon="-1.54065">
        <ele>62</ele>
        <time>2021-06-06T13:11:29.000Z</time>
      </trkpt>
      <trkpt lat="47.25265" lon="-1.54061">
        <ele>62</ele>
        <time>2021-06-06T13:11:31.000Z</time>
      </trkpt>
      <trkpt lat="47.25278" lon="-1.54056">
        <ele>62</ele>
        <time>2021-06-06T13:11:33.000Z</time>
      </trkpt>
      <trkpt lat="47.2529" lon="-1.54052">
        <ele>62</ele>
        <time>2021-06-06T13:11:35.000Z</time>
      </trkpt>
      <trkpt lat="47.25303" lon="-1.54048">
        <ele>63</ele>
        <time>2021-06-06T13:11:37.000Z</time>
      </trkpt>
      <trkpt lat="47.25316" lon="-1.54045">
        <ele>63</ele>
        <time>2021-06-06T13:11:39.000Z</time>
      </trkpt>
      <trkpt lat="47.25328" lon="-1.5404">
        <ele>63</ele>
        <time>2021-06-06T13:11:41.000Z</time>
      </trkpt>
      <trkpt lat="47.25341" lon="-1.54037">
        <ele>64</ele>
        <time>2021-06-06T13:11:43.000Z</time>
      </trkpt>
      <trkpt lat="47.25353" lon="-1.54035">
        <ele>64</ele>
        <time>2021-06-06T13:11:45.000Z</time>
      </trkpt>
      <trkpt lat="47.25366" lon="-1.54031">
        <ele>64</ele>
        <time>2021-06-06T13:11:47.000Z</time>
      </trkpt>
      <trkpt lat="47.25379" lon="-1.54029">
        <ele>64</ele>
        <time>2021-06-06T13:11:49.000Z</time>
      </trkpt>
      <trkpt lat="47.25393" lon="-1.54026">
        <ele>64</ele>
        <time>2021-06-06T13:11:51.000Z</time>
      </trkpt>
      <trkpt lat="47.25408" lon="-1.54023">
        <ele>64</ele>
        <time>2021-06-06T13:11:53.000Z</time>
      </trkpt>
      <trkpt lat="47.25421" lon="-1.54019">
        <ele>64</ele>
        <time>2021-06-06T13:11:55.000Z</time>
      </trkpt>
      <trkpt lat="47.25436" lon="-1.54016">
        <ele>63</ele>
        <time>2021-06-06T13:11:57.000Z</time>
      </trkpt>
      <trkpt lat="47.25451" lon="-1.54013">
        <ele>63</ele>
        <time>2021-06-06T13:11:59.000Z</time>
      </trkpt>
      <trkpt lat="47.25465" lon="-1.54012">
        <ele>63</ele>
        <time>2021-06-06T13:12:01.000Z</time>
      </trkpt>
      <trkpt lat="47.25478" lon="-1.54013">
        <ele>63</ele>
        <time>2021-06-06T13:12:03.000Z</time>
      </trkpt>
      <trkpt lat="47.25491" lon="-1.54012">
        <ele>63</ele>
        <time>2021-06-06T13:12:05.000Z</time>
      </trkpt>
      <trkpt lat="47.25502" lon="-1.5401">
        <ele>63</ele>
        <time>2021-06-06T13:12:07.000Z</time>
      </trkpt>
      <trkpt lat="47.25514" lon="-1.54005">
        <ele>64</ele>
        <time>2021-06-06T13:12:09.000Z</time>
      </trkpt>
      <trkpt lat="47.25527" lon="-1.53999">
        <ele>65</ele>
        <time>2021-06-06T13:12:11.000Z</time>
      </trkpt>
      <trkpt lat="47.2554" lon="-1.53993">
        <ele>65</ele>
        <time>2021-06-06T13:12:13.000Z</time>
      </trkpt>
      <trkpt lat="47.25553" lon="-1.53988">
        <ele>65</ele>
        <time>2021-06-06T13:12:15.000Z</time>
      </trkpt>
      <trkpt lat="47.25565" lon="-1.53983">
        <ele>65</ele>
        <time>2021-06-06T13:12:17.000Z</time>
      </trkpt>
      <trkpt lat="47.25578" lon="-1.53979">
        <ele>66</ele>
        <time>2021-06-06T13:12:19.000Z</time>
      </trkpt>
      <trkpt lat="47.25589" lon="-1.53973">
        <ele>65</ele>
        <time>2021-06-06T13:12:21.000Z</time>
      </trkpt>
      <trkpt lat="47.25602" lon="-1.53965">
        <ele>66</ele>
        <time>2021-06-06T13:12:23.000Z</time>
      </trkpt>
      <trkpt lat="47.25614" lon="-1.5396">
        <ele>65</ele>
        <time>2021-06-06T13:12:25.000Z</time>
      </trkpt>
      <trkpt lat="47.25626" lon="-1.53953">
        <ele>65</ele>
        <time>2021-06-06T13:12:27.000Z</time>
      </trkpt>
      <trkpt lat="47.25638" lon="-1.53945">
        <ele>66</ele>
        <time>2021-06-06T13:12:29.000Z</time>
      </trkpt>
      <trkpt lat="47.25651" lon="-1.53941">
        <ele>66</ele>
        <time>2021-06-06T13:12:31.000Z</time>
      </trkpt>
      <trkpt lat="47.25663" lon="-1.5394">
        <ele>66</ele>
        <time>2021-06-06T13:12:33.000Z</time>
      </trkpt>
      <trkpt lat="47.25672" lon="-1.53937">
        <ele>66</ele>
        <time>2021-06-06T13:12:35.000Z</time>
      </trkpt>
      <trkpt lat="47.2568" lon="-1.53928">
        <ele>65</ele>
        <time>2021-06-06T13:12:42.000Z</time>
      </trkpt>
      <trkpt lat="47.25689" lon="-1.53917">
        <ele>63</ele>
        <time>2021-06-06T13:12:47.000Z</time>
      </trkpt>
      <trkpt lat="47.25698" lon="-1.5391">
        <ele>63</ele>
        <time>2021-06-06T13:12:50.000Z</time>
      </trkpt>
      <trkpt lat="47.25708" lon="-1.53909">
        <ele>63</ele>
        <time>2021-06-06T13:12:54.000Z</time>
      </trkpt>
      <trkpt lat="47.25718" lon="-1.53912">
        <ele>63</ele>
        <time>2021-06-06T13:12:58.000Z</time>
      </trkpt>
      <trkpt lat="47.25726" lon="-1.53924">
        <ele>63</ele>
        <time>2021-06-06T13:13:01.000Z</time>
      </trkpt>
      <trkpt lat="47.25735" lon="-1.53937">
        <ele>62</ele>
        <time>2021-06-06T13:13:03.000Z</time>
      </trkpt>
      <trkpt lat="47.25744" lon="-1.53949">
        <ele>63</ele>
        <time>2021-06-06T13:13:05.000Z</time>
      </trkpt>
      <trkpt lat="47.25753" lon="-1.53958">
        <ele>63</ele>
        <time>2021-06-06T13:13:07.000Z</time>
      </trkpt>
      <trkpt lat="47.25762" lon="-1.53962">
        <ele>62</ele>
        <time>2021-06-06T13:13:09.000Z</time>
      </trkpt>
      <trkpt lat="47.25773" lon="-1.53958">
        <ele>62</ele>
        <time>2021-06-06T13:13:11.000Z</time>
      </trkpt>
      <trkpt lat="47.25785" lon="-1.53952">
        <ele>62</ele>
        <time>2021-06-06T13:13:13.000Z</time>
      </trkpt>
      <trkpt lat="47.25798" lon="-1.53948">
        <ele>63</ele>
        <time>2021-06-06T13:13:15.000Z</time>
      </trkpt>
      <trkpt lat="47.25809" lon="-1.53945">
        <ele>63</ele>
        <time>2021-06-06T13:13:17.000Z</time>
      </trkpt>
      <trkpt lat="47.25821" lon="-1.53944">
        <ele>63</ele>
        <time>2021-06-06T13:13:19.000Z</time>
      </trkpt>
      <trkpt lat="47.25831" lon="-1.53943">
        <ele>63</ele>
        <time>2021-06-06T13:13:21.000Z</time>
      </trkpt>
      <trkpt lat="47.25841" lon="-1.5394">
        <ele>63</ele>
        <time>2021-06-06T13:13:23.000Z</time>
      </trkpt>
      <trkpt lat="47.25852" lon="-1.53934">
        <ele>63</ele>
        <time>2021-06-06T13:13:25.000Z</time>
      </trkpt>
      <trkpt lat="47.25863" lon="-1.53927">
        <ele>63</ele>
        <time>2021-06-06T13:13:27.000Z</time>
      </trkpt>
      <trkpt lat="47.25873" lon="-1.53919">
        <ele>63</ele>
        <time>2021-06-06T13:13:29.000Z</time>
      </trkpt>
      <trkpt lat="47.25882" lon="-1.53912">
        <ele>63</ele>
        <time>2021-06-06T13:13:31.000Z</time>
      </trkpt>
      <trkpt lat="47.25892" lon="-1.53903">
        <ele>64</ele>
        <time>2021-06-06T13:13:33.000Z</time>
      </trkpt>
      <trkpt lat="47.25902" lon="-1.53896">
        <ele>64</ele>
        <time>2021-06-06T13:13:35.000Z</time>
      </trkpt>
      <trkpt lat="47.2591" lon="-1.53892">
        <ele>64</ele>
        <time>2021-06-06T13:13:37.000Z</time>
      </trkpt>
      <trkpt lat="47.25922" lon="-1.53888">
        <ele>63</ele>
        <time>2021-06-06T13:13:40.000Z</time>
      </trkpt>
      <trkpt lat="47.25932" lon="-1.53883">
        <ele>63</ele>
        <time>2021-06-06T13:13:44.000Z</time>
      </trkpt>
      <trkpt lat="47.25941" lon="-1.53873">
        <ele>63</ele>
        <time>2021-06-06T13:13:48.000Z</time>
      </trkpt>
      <trkpt lat="47.25951" lon="-1.53865">
        <ele>63</ele>
        <time>2021-06-06T13:13:50.000Z</time>
      </trkpt>
      <trkpt lat="47.25961" lon="-1.53858">
        <ele>63</ele>
        <time>2021-06-06T13:13:52.000Z</time>
      </trkpt>
      <trkpt lat="47.25972" lon="-1.53852">
        <ele>63</ele>
        <time>2021-06-06T13:13:54.000Z</time>
      </trkpt>
      <trkpt lat="47.25983" lon="-1.53845">
        <ele>63</ele>
        <time>2021-06-06T13:13:56.000Z</time>
      </trkpt>
      <trkpt lat="47.25995" lon="-1.5384">
        <ele>62</ele>
        <time>2021-06-06T13:13:58.000Z</time>
      </trkpt>
      <trkpt lat="47.26007" lon="-1.53838">
        <ele>61</ele>
        <time>2021-06-06T13:14:00.000Z</time>
      </trkpt>
      <trkpt lat="47.26019" lon="-1.53837">
        <ele>60</ele>
        <time>2021-06-06T13:14:02.000Z</time>
      </trkpt>
      <trkpt lat="47.26031" lon="-1.53836">
        <ele>59</ele>
        <time>2021-06-06T13:14:04.000Z</time>
      </trkpt>
      <trkpt lat="47.26042" lon="-1.53837">
        <ele>59</ele>
        <time>2021-06-06T13:14:06.000Z</time>
      </trkpt>
      <trkpt lat="47.26051" lon="-1.53837">
        <ele>58</ele>
        <time>2021-06-06T13:14:08.000Z</time>
      </trkpt>
      <trkpt lat="47.26061" lon="-1.53839">
        <ele>58</ele>
        <time>2021-06-06T13:14:10.000Z</time>
      </trkpt>
      <trkpt lat="47.26074" lon="-1.53839">
        <ele>59</ele>
        <time>2021-06-06T13:14:13.000Z</time>
      </trkpt>
      <trkpt lat="47.26084" lon="-1.53833">
        <ele>60</ele>
        <time>2021-06-06T13:14:15.000Z</time>
      </trkpt>
      <trkpt lat="47.26094" lon="-1.53829">
        <ele>60</ele>
        <time>2021-06-06T13:14:17.000Z</time>
      </trkpt>
      <trkpt lat="47.26105" lon="-1.53826">
        <ele>60</ele>
        <time>2021-06-06T13:14:19.000Z</time>
      </trkpt>
      <trkpt lat="47.26116" lon="-1.53825">
        <ele>61</ele>
        <time>2021-06-06T13:14:21.000Z</time>
      </trkpt>
      <trkpt lat="47.26129" lon="-1.53826">
        <ele>63</ele>
        <time>2021-06-06T13:14:24.000Z</time>
      </trkpt>
      <trkpt lat="47.2614" lon="-1.53825">
        <ele>63</ele>
        <time>2021-06-06T13:14:26.000Z</time>
      </trkpt>
      <trkpt lat="47.26152" lon="-1.53825">
        <ele>63</ele>
        <time>2021-06-06T13:14:28.000Z</time>
      </trkpt>
      <trkpt lat="47.26163" lon="-1.53831">
        <ele>64</ele>
        <time>2021-06-06T13:14:30.000Z</time>
      </trkpt>
      <trkpt lat="47.26176" lon="-1.53837">
        <ele>64</ele>
        <time>2021-06-06T13:14:32.000Z</time>
      </trkpt>
      <trkpt lat="47.26187" lon="-1.53842">
        <ele>64</ele>
        <time>2021-06-06T13:14:34.000Z</time>
      </trkpt>
      <trkpt lat="47.26197" lon="-1.53849">
        <ele>64</ele>
        <time>2021-06-06T13:14:36.000Z</time>
      </trkpt>
      <trkpt lat="47.26206" lon="-1.53857">
        <ele>65</ele>
        <time>2021-06-06T13:14:38.000Z</time>
      </trkpt>
      <trkpt lat="47.26216" lon="-1.53865">
        <ele>65</ele>
        <time>2021-06-06T13:14:40.000Z</time>
      </trkpt>
      <trkpt lat="47.26225" lon="-1.53874">
        <ele>65</ele>
        <time>2021-06-06T13:14:42.000Z</time>
      </trkpt>
      <trkpt lat="47.26234" lon="-1.53882">
        <ele>66</ele>
        <time>2021-06-06T13:14:44.000Z</time>
      </trkpt>
      <trkpt lat="47.26243" lon="-1.5389">
        <ele>66</ele>
        <time>2021-06-06T13:14:46.000Z</time>
      </trkpt>
      <trkpt lat="47.26252" lon="-1.53898">
        <ele>66</ele>
        <time>2021-06-06T13:14:50.000Z</time>
      </trkpt>
      <trkpt lat="47.26262" lon="-1.53905">
        <ele>67</ele>
        <time>2021-06-06T13:14:53.000Z</time>
      </trkpt>
      <trkpt lat="47.26273" lon="-1.53916">
        <ele>67</ele>
        <time>2021-06-06T13:14:55.000Z</time>
      </trkpt>
      <trkpt lat="47.26285" lon="-1.53925">
        <ele>67</ele>
        <time>2021-06-06T13:14:57.000Z</time>
      </trkpt>
      <trkpt lat="47.26295" lon="-1.53934">
        <ele>67</ele>
        <time>2021-06-06T13:14:59.000Z</time>
      </trkpt>
      <trkpt lat="47.26303" lon="-1.53942">
        <ele>67</ele>
        <time>2021-06-06T13:15:01.000Z</time>
      </trkpt>
      <trkpt lat="47.26313" lon="-1.53951">
        <ele>67</ele>
        <time>2021-06-06T13:15:04.000Z</time>
      </trkpt>
      <trkpt lat="47.26325" lon="-1.53959">
        <ele>67</ele>
        <time>2021-06-06T13:15:07.000Z</time>
      </trkpt>
      <trkpt lat="47.26335" lon="-1.53966">
        <ele>66</ele>
        <time>2021-06-06T13:15:09.000Z</time>
      </trkpt>
      <trkpt lat="47.2635" lon="-1.53973">
        <ele>66</ele>
        <time>2021-06-06T13:15:11.000Z</time>
      </trkpt>
      <trkpt lat="47.26368" lon="-1.53978">
        <ele>65</ele>
        <time>2021-06-06T13:15:13.000Z</time>
      </trkpt>
      <trkpt lat="47.26383" lon="-1.53981">
        <ele>65</ele>
        <time>2021-06-06T13:15:15.000Z</time>
      </trkpt>
      <trkpt lat="47.26397" lon="-1.53986">
        <ele>64</ele>
        <time>2021-06-06T13:15:17.000Z</time>
      </trkpt>
      <trkpt lat="47.26406" lon="-1.53991">
        <ele>64</ele>
        <time>2021-06-06T13:15:19.000Z</time>
      </trkpt>
      <trkpt lat="47.26417" lon="-1.53993">
        <ele>64</ele>
        <time>2021-06-06T13:15:24.000Z</time>
      </trkpt>
      <trkpt lat="47.26429" lon="-1.53996">
        <ele>62</ele>
        <time>2021-06-06T13:15:27.000Z</time>
      </trkpt>
      <trkpt lat="47.26438" lon="-1.54">
        <ele>59</ele>
        <time>2021-06-06T13:15:29.000Z</time>
      </trkpt>
      <trkpt lat="47.26451" lon="-1.53999">
        <ele>57</ele>
        <time>2021-06-06T13:15:32.000Z</time>
      </trkpt>
      <trkpt lat="47.26463" lon="-1.53995">
        <ele>56</ele>
        <time>2021-06-06T13:15:35.000Z</time>
      </trkpt>
      <trkpt lat="47.26474" lon="-1.53988">
        <ele>56</ele>
        <time>2021-06-06T13:15:38.000Z</time>
      </trkpt>
      <trkpt lat="47.26481" lon="-1.53979">
        <ele>56</ele>
        <time>2021-06-06T13:15:41.000Z</time>
      </trkpt>
      <trkpt lat="47.2649" lon="-1.53977">
        <ele>55</ele>
        <time>2021-06-06T13:15:53.000Z</time>
      </trkpt>
      <trkpt lat="47.26501" lon="-1.53979">
        <ele>57</ele>
        <time>2021-06-06T13:15:57.000Z</time>
      </trkpt>
      <trkpt lat="47.26512" lon="-1.53983">
        <ele>58</ele>
        <time>2021-06-06T13:15:59.000Z</time>
      </trkpt>
      <trkpt lat="47.26523" lon="-1.53987">
        <ele>59</ele>
        <time>2021-06-06T13:16:01.000Z</time>
      </trkpt>
      <trkpt lat="47.26534" lon="-1.53992">
        <ele>59</ele>
        <time>2021-06-06T13:16:03.000Z</time>
      </trkpt>
      <trkpt lat="47.26545" lon="-1.53999">
        <ele>60</ele>
        <time>2021-06-06T13:16:05.000Z</time>
      </trkpt>
      <trkpt lat="47.26556" lon="-1.54007">
        <ele>60</ele>
        <time>2021-06-06T13:16:07.000Z</time>
      </trkpt>
      <trkpt lat="47.26566" lon="-1.54011">
        <ele>59</ele>
        <time>2021-06-06T13:16:09.000Z</time>
      </trkpt>
      <trkpt lat="47.26576" lon="-1.54015">
        <ele>60</ele>
        <time>2021-06-06T13:16:12.000Z</time>
      </trkpt>
      <trkpt lat="47.26586" lon="-1.54012">
        <ele>61</ele>
        <time>2021-06-06T13:16:15.000Z</time>
      </trkpt>
      <trkpt lat="47.26596" lon="-1.54008">
        <ele>63</ele>
        <time>2021-06-06T13:16:19.000Z</time>
      </trkpt>
      <trkpt lat="47.26607" lon="-1.54015">
        <ele>64</ele>
        <time>2021-06-06T13:16:23.000Z</time>
      </trkpt>
      <trkpt lat="47.26616" lon="-1.54028">
        <ele>66</ele>
        <time>2021-06-06T13:16:26.000Z</time>
      </trkpt>
      <trkpt lat="47.26622" lon="-1.5404">
        <ele>67</ele>
        <time>2021-06-06T13:16:29.000Z</time>
      </trkpt>
      <trkpt lat="47.2663" lon="-1.54053">
        <ele>68</ele>
        <time>2021-06-06T13:16:33.000Z</time>
      </trkpt>
      <trkpt lat="47.26635" lon="-1.54066">
        <ele>69</ele>
        <time>2021-06-06T13:16:36.000Z</time>
      </trkpt>
      <trkpt lat="47.26638" lon="-1.54079">
        <ele>70</ele>
        <time>2021-06-06T13:16:39.000Z</time>
      </trkpt>
      <trkpt lat="47.26645" lon="-1.54092">
        <ele>72</ele>
        <time>2021-06-06T13:16:43.000Z</time>
      </trkpt>
      <trkpt lat="47.26654" lon="-1.54102">
        <ele>74</ele>
        <time>2021-06-06T13:16:47.000Z</time>
      </trkpt>
      <trkpt lat="47.26661" lon="-1.54116">
        <ele>77</ele>
        <time>2021-06-06T13:16:51.000Z</time>
      </trkpt>
      <trkpt lat="47.26669" lon="-1.54129">
        <ele>79</ele>
        <time>2021-06-06T13:16:55.000Z</time>
      </trkpt>
      <trkpt lat="47.26676" lon="-1.54142">
        <ele>81</ele>
        <time>2021-06-06T13:16:59.000Z</time>
      </trkpt>
      <trkpt lat="47.26684" lon="-1.54149">
        <ele>82</ele>
        <time>2021-06-06T13:17:03.000Z</time>
      </trkpt>
      <trkpt lat="47.26696" lon="-1.54148">
        <ele>83</ele>
        <time>2021-06-06T13:17:07.000Z</time>
      </trkpt>
      <trkpt lat="47.26707" lon="-1.54139">
        <ele>83</ele>
        <time>2021-06-06T13:17:10.000Z</time>
      </trkpt>
      <trkpt lat="47.26717" lon="-1.54126">
        <ele>82</ele>
        <time>2021-06-06T13:17:13.000Z</time>
      </trkpt>
      <trkpt lat="47.26724" lon="-1.54118">
        <ele>83</ele>
        <time>2021-06-06T13:17:15.000Z</time>
      </trkpt>
      <trkpt lat="47.26733" lon="-1.54113">
        <ele>82</ele>
        <time>2021-06-06T13:17:17.000Z</time>
      </trkpt>
      <trkpt lat="47.26741" lon="-1.54105">
        <ele>82</ele>
        <time>2021-06-06T13:17:19.000Z</time>
      </trkpt>
      <trkpt lat="47.26749" lon="-1.54097">
        <ele>81</ele>
        <time>2021-06-06T13:17:21.000Z</time>
      </trkpt>
      <trkpt lat="47.26757" lon="-1.54088">
        <ele>82</ele>
        <time>2021-06-06T13:17:23.000Z</time>
      </trkpt>
      <trkpt lat="47.26766" lon="-1.54081">
        <ele>82</ele>
        <time>2021-06-06T13:17:25.000Z</time>
      </trkpt>
      <trkpt lat="47.26776" lon="-1.54072">
        <ele>80</ele>
        <time>2021-06-06T13:17:27.000Z</time>
      </trkpt>
      <trkpt lat="47.26785" lon="-1.54063">
        <ele>80</ele>
        <time>2021-06-06T13:17:29.000Z</time>
      </trkpt>
      <trkpt lat="47.26796" lon="-1.54054">
        <ele>80</ele>
        <time>2021-06-06T13:17:31.000Z</time>
      </trkpt>
      <trkpt lat="47.26806" lon="-1.54046">
        <ele>81</ele>
        <time>2021-06-06T13:17:33.000Z</time>
      </trkpt>
      <trkpt lat="47.26817" lon="-1.54036">
        <ele>81</ele>
        <time>2021-06-06T13:17:35.000Z</time>
      </trkpt>
      <trkpt lat="47.26826" lon="-1.54023">
        <ele>83</ele>
        <time>2021-06-06T13:17:37.000Z</time>
      </trkpt>
      <trkpt lat="47.26838" lon="-1.54012">
        <ele>84</ele>
        <time>2021-06-06T13:17:39.000Z</time>
      </trkpt>
      <trkpt lat="47.26848" lon="-1.54001">
        <ele>83</ele>
        <time>2021-06-06T13:17:41.000Z</time>
      </trkpt>
      <trkpt lat="47.26859" lon="-1.53992">
        <ele>83</ele>
        <time>2021-06-06T13:17:43.000Z</time>
      </trkpt>
      <trkpt lat="47.2687" lon="-1.53985">
        <ele>83</ele>
        <time>2021-06-06T13:17:45.000Z</time>
      </trkpt>
      <trkpt lat="47.2688" lon="-1.5398">
        <ele>82</ele>
        <time>2021-06-06T13:17:47.000Z</time>
      </trkpt>
      <trkpt lat="47.2689" lon="-1.53974">
        <ele>82</ele>
        <time>2021-06-06T13:17:49.000Z</time>
      </trkpt>
      <trkpt lat="47.269" lon="-1.5397">
        <ele>82</ele>
        <time>2021-06-06T13:17:51.000Z</time>
      </trkpt>
      <trkpt lat="47.26911" lon="-1.53965">
        <ele>83</ele>
        <time>2021-06-06T13:17:53.000Z</time>
      </trkpt>
      <trkpt lat="47.26924" lon="-1.5396">
        <ele>83</ele>
        <time>2021-06-06T13:17:55.000Z</time>
      </trkpt>
      <trkpt lat="47.26937" lon="-1.53956">
        <ele>83</ele>
        <time>2021-06-06T13:17:57.000Z</time>
      </trkpt>
      <trkpt lat="47.26951" lon="-1.5395">
        <ele>84</ele>
        <time>2021-06-06T13:17:59.000Z</time>
      </trkpt>
      <trkpt lat="47.26963" lon="-1.53945">
        <ele>83</ele>
        <time>2021-06-06T13:18:01.000Z</time>
      </trkpt>
      <trkpt lat="47.26976" lon="-1.5394">
        <ele>81</ele>
        <time>2021-06-06T13:18:03.000Z</time>
      </trkpt>
      <trkpt lat="47.26988" lon="-1.53935">
        <ele>80</ele>
        <time>2021-06-06T13:18:05.000Z</time>
      </trkpt>
      <trkpt lat="47.26998" lon="-1.53924">
        <ele>80</ele>
        <time>2021-06-06T13:18:07.000Z</time>
      </trkpt>
      <trkpt lat="47.27008" lon="-1.53911">
        <ele>79</ele>
        <time>2021-06-06T13:18:09.000Z</time>
      </trkpt>
      <trkpt lat="47.27018" lon="-1.53898">
        <ele>79</ele>
        <time>2021-06-06T13:18:11.000Z</time>
      </trkpt>
      <trkpt lat="47.27028" lon="-1.53885">
        <ele>79</ele>
        <time>2021-06-06T13:18:13.000Z</time>
      </trkpt>
      <trkpt lat="47.27037" lon="-1.53871">
        <ele>79</ele>
        <time>2021-06-06T13:18:15.000Z</time>
      </trkpt>
      <trkpt lat="47.27048" lon="-1.53856">
        <ele>77</ele>
        <time>2021-06-06T13:18:17.000Z</time>
      </trkpt>
      <trkpt lat="47.27058" lon="-1.53842">
        <ele>78</ele>
        <time>2021-06-06T13:18:19.000Z</time>
      </trkpt>
      <trkpt lat="47.27068" lon="-1.5383">
        <ele>78</ele>
        <time>2021-06-06T13:18:21.000Z</time>
      </trkpt>
      <trkpt lat="47.2708" lon="-1.53819">
        <ele>77</ele>
        <time>2021-06-06T13:18:23.000Z</time>
      </trkpt>
      <trkpt lat="47.27088" lon="-1.53809">
        <ele>78</ele>
        <time>2021-06-06T13:18:25.000Z</time>
      </trkpt>
      <trkpt lat="47.27097" lon="-1.53798">
        <ele>77</ele>
        <time>2021-06-06T13:18:27.000Z</time>
      </trkpt>
      <trkpt lat="47.27107" lon="-1.53789">
        <ele>76</ele>
        <time>2021-06-06T13:18:29.000Z</time>
      </trkpt>
      <trkpt lat="47.27117" lon="-1.53775">
        <ele>75</ele>
        <time>2021-06-06T13:18:31.000Z</time>
      </trkpt>
      <trkpt lat="47.27129" lon="-1.53762">
        <ele>74</ele>
        <time>2021-06-06T13:18:33.000Z</time>
      </trkpt>
      <trkpt lat="47.27141" lon="-1.53751">
        <ele>72</ele>
        <time>2021-06-06T13:18:35.000Z</time>
      </trkpt>
      <trkpt lat="47.27152" lon="-1.53742">
        <ele>71</ele>
        <time>2021-06-06T13:18:37.000Z</time>
      </trkpt>
      <trkpt lat="47.27161" lon="-1.53733">
        <ele>71</ele>
        <time>2021-06-06T13:18:39.000Z</time>
      </trkpt>
      <trkpt lat="47.2717" lon="-1.53724">
        <ele>71</ele>
        <time>2021-06-06T13:18:41.000Z</time>
      </trkpt>
      <trkpt lat="47.27178" lon="-1.53716">
        <ele>70</ele>
        <time>2021-06-06T13:18:43.000Z</time>
      </trkpt>
      <trkpt lat="47.27186" lon="-1.53707">
        <ele>70</ele>
        <time>2021-06-06T13:18:45.000Z</time>
      </trkpt>
      <trkpt lat="47.27198" lon="-1.53699">
        <ele>70</ele>
        <time>2021-06-06T13:18:48.000Z</time>
      </trkpt>
      <trkpt lat="47.27208" lon="-1.53693">
        <ele>71</ele>
        <time>2021-06-06T13:18:51.000Z</time>
      </trkpt>
      <trkpt lat="47.27216" lon="-1.53684">
        <ele>71</ele>
        <time>2021-06-06T13:18:54.000Z</time>
      </trkpt>
      <trkpt lat="47.27227" lon="-1.53682">
        <ele>72</ele>
        <time>2021-06-06T13:18:57.000Z</time>
      </trkpt>
      <trkpt lat="47.27235" lon="-1.53692">
        <ele>73</ele>
        <time>2021-06-06T13:18:59.000Z</time>
      </trkpt>
      <trkpt lat="47.27241" lon="-1.53703">
        <ele>73</ele>
        <time>2021-06-06T13:19:01.000Z</time>
      </trkpt>
      <trkpt lat="47.27247" lon="-1.53713">
        <ele>72</ele>
        <time>2021-06-06T13:19:03.000Z</time>
      </trkpt>
      <trkpt lat="47.27252" lon="-1.53725">
        <ele>72</ele>
        <time>2021-06-06T13:19:05.000Z</time>
      </trkpt>
      <trkpt lat="47.27258" lon="-1.53737">
        <ele>72</ele>
        <time>2021-06-06T13:19:07.000Z</time>
      </trkpt>
      <trkpt lat="47.27263" lon="-1.53748">
        <ele>72</ele>
        <time>2021-06-06T13:19:09.000Z</time>
      </trkpt>
      <trkpt lat="47.27269" lon="-1.53759">
        <ele>72</ele>
        <time>2021-06-06T13:19:11.000Z</time>
      </trkpt>
      <trkpt lat="47.27275" lon="-1.53771">
        <ele>72</ele>
        <time>2021-06-06T13:19:13.000Z</time>
      </trkpt>
      <trkpt lat="47.27281" lon="-1.53782">
        <ele>72</ele>
        <time>2021-06-06T13:19:15.000Z</time>
      </trkpt>
      <trkpt lat="47.27289" lon="-1.53793">
        <ele>71</ele>
        <time>2021-06-06T13:19:17.000Z</time>
      </trkpt>
      <trkpt lat="47.27297" lon="-1.53805">
        <ele>72</ele>
        <time>2021-06-06T13:19:19.000Z</time>
      </trkpt>
      <trkpt lat="47.27302" lon="-1.53819">
        <ele>73</ele>
        <time>2021-06-06T13:19:21.000Z</time>
      </trkpt>
      <trkpt lat="47.27306" lon="-1.53831">
        <ele>73</ele>
        <time>2021-06-06T13:19:23.000Z</time>
      </trkpt>
      <trkpt lat="47.27311" lon="-1.53844">
        <ele>73</ele>
        <time>2021-06-06T13:19:25.000Z</time>
      </trkpt>
      <trkpt lat="47.27318" lon="-1.5386">
        <ele>75</ele>
        <time>2021-06-06T13:19:28.000Z</time>
      </trkpt>
      <trkpt lat="47.27322" lon="-1.53872">
        <ele>75</ele>
        <time>2021-06-06T13:19:30.000Z</time>
      </trkpt>
      <trkpt lat="47.27327" lon="-1.53886">
        <ele>75</ele>
        <time>2021-06-06T13:19:32.000Z</time>
      </trkpt>
      <trkpt lat="47.27333" lon="-1.539">
        <ele>75</ele>
        <time>2021-06-06T13:19:34.000Z</time>
      </trkpt>
      <trkpt lat="47.27339" lon="-1.53915">
        <ele>75</ele>
        <time>2021-06-06T13:19:36.000Z</time>
      </trkpt>
      <trkpt lat="47.27343" lon="-1.53928">
        <ele>74</ele>
        <time>2021-06-06T13:19:38.000Z</time>
      </trkpt>
      <trkpt lat="47.27348" lon="-1.5394">
        <ele>74</ele>
        <time>2021-06-06T13:19:40.000Z</time>
      </trkpt>
      <trkpt lat="47.27354" lon="-1.53953">
        <ele>73</ele>
        <time>2021-06-06T13:19:42.000Z</time>
      </trkpt>
      <trkpt lat="47.2736" lon="-1.53964">
        <ele>73</ele>
        <time>2021-06-06T13:19:44.000Z</time>
      </trkpt>
      <trkpt lat="47.27365" lon="-1.53975">
        <ele>74</ele>
        <time>2021-06-06T13:19:46.000Z</time>
      </trkpt>
      <trkpt lat="47.27371" lon="-1.53987">
        <ele>73</ele>
        <time>2021-06-06T13:19:48.000Z</time>
      </trkpt>
      <trkpt lat="47.27377" lon="-1.54">
        <ele>73</ele>
        <time>2021-06-06T13:19:50.000Z</time>
      </trkpt>
      <trkpt lat="47.27383" lon="-1.54013">
        <ele>74</ele>
        <time>2021-06-06T13:19:52.000Z</time>
      </trkpt>
      <trkpt lat="47.27389" lon="-1.54025">
        <ele>74</ele>
        <time>2021-06-06T13:19:54.000Z</time>
      </trkpt>
      <trkpt lat="47.27396" lon="-1.54041">
        <ele>76</ele>
        <time>2021-06-06T13:19:57.000Z</time>
      </trkpt>
      <trkpt lat="47.27405" lon="-1.54056">
        <ele>78</ele>
        <time>2021-06-06T13:20:00.000Z</time>
      </trkpt>
      <trkpt lat="47.27411" lon="-1.54068">
        <ele>79</ele>
        <time>2021-06-06T13:20:02.000Z</time>
      </trkpt>
      <trkpt lat="47.27416" lon="-1.5408">
        <ele>80</ele>
        <time>2021-06-06T13:20:04.000Z</time>
      </trkpt>
      <trkpt lat="47.27421" lon="-1.54093">
        <ele>81</ele>
        <time>2021-06-06T13:20:06.000Z</time>
      </trkpt>
      <trkpt lat="47.27425" lon="-1.54105">
        <ele>82</ele>
        <time>2021-06-06T13:20:08.000Z</time>
      </trkpt>
      <trkpt lat="47.27429" lon="-1.54117">
        <ele>82</ele>
        <time>2021-06-06T13:20:10.000Z</time>
      </trkpt>
      <trkpt lat="47.27434" lon="-1.54132">
        <ele>81</ele>
        <time>2021-06-06T13:20:12.000Z</time>
      </trkpt>
      <trkpt lat="47.2744" lon="-1.54149">
        <ele>80</ele>
        <time>2021-06-06T13:20:14.000Z</time>
      </trkpt>
      <trkpt lat="47.27446" lon="-1.54168">
        <ele>79</ele>
        <time>2021-06-06T13:20:16.000Z</time>
      </trkpt>
      <trkpt lat="47.27451" lon="-1.54186">
        <ele>79</ele>
        <time>2021-06-06T13:20:18.000Z</time>
      </trkpt>
      <trkpt lat="47.27456" lon="-1.54202">
        <ele>79</ele>
        <time>2021-06-06T13:20:20.000Z</time>
      </trkpt>
      <trkpt lat="47.2746" lon="-1.54217">
        <ele>79</ele>
        <time>2021-06-06T13:20:22.000Z</time>
      </trkpt>
      <trkpt lat="47.27464" lon="-1.54231">
        <ele>79</ele>
        <time>2021-06-06T13:20:24.000Z</time>
      </trkpt>
      <trkpt lat="47.27468" lon="-1.54244">
        <ele>79</ele>
        <time>2021-06-06T13:20:26.000Z</time>
      </trkpt>
      <trkpt lat="47.27471" lon="-1.54258">
        <ele>79</ele>
        <time>2021-06-06T13:20:28.000Z</time>
      </trkpt>
      <trkpt lat="47.27475" lon="-1.54272">
        <ele>79</ele>
        <time>2021-06-06T13:20:30.000Z</time>
      </trkpt>
      <trkpt lat="47.27479" lon="-1.54286">
        <ele>79</ele>
        <time>2021-06-06T13:20:32.000Z</time>
      </trkpt>
      <trkpt lat="47.27483" lon="-1.543">
        <ele>79</ele>
        <time>2021-06-06T13:20:34.000Z</time>
      </trkpt>
      <trkpt lat="47.27489" lon="-1.54318">
        <ele>80</ele>
        <time>2021-06-06T13:20:37.000Z</time>
      </trkpt>
      <trkpt lat="47.27493" lon="-1.5433">
        <ele>80</ele>
        <time>2021-06-06T13:20:39.000Z</time>
      </trkpt>
      <trkpt lat="47.27498" lon="-1.54343">
        <ele>81</ele>
        <time>2021-06-06T13:20:41.000Z</time>
      </trkpt>
      <trkpt lat="47.27502" lon="-1.54356">
        <ele>81</ele>
        <time>2021-06-06T13:20:43.000Z</time>
      </trkpt>
      <trkpt lat="47.27506" lon="-1.54369">
        <ele>82</ele>
        <time>2021-06-06T13:20:45.000Z</time>
      </trkpt>
      <trkpt lat="47.2751" lon="-1.54382">
        <ele>83</ele>
        <time>2021-06-06T13:20:47.000Z</time>
      </trkpt>
      <trkpt lat="47.27515" lon="-1.544">
        <ele>84</ele>
        <time>2021-06-06T13:20:50.000Z</time>
      </trkpt>
      <trkpt lat="47.2752" lon="-1.54413">
        <ele>85</ele>
        <time>2021-06-06T13:20:52.000Z</time>
      </trkpt>
      <trkpt lat="47.27524" lon="-1.54426">
        <ele>85</ele>
        <time>2021-06-06T13:20:54.000Z</time>
      </trkpt>
      <trkpt lat="47.27529" lon="-1.54441">
        <ele>86</ele>
        <time>2021-06-06T13:20:56.000Z</time>
      </trkpt>
      <trkpt lat="47.27533" lon="-1.54455">
        <ele>86</ele>
        <time>2021-06-06T13:20:58.000Z</time>
      </trkpt>
      <trkpt lat="47.27536" lon="-1.54469">
        <ele>86</ele>
        <time>2021-06-06T13:21:00.000Z</time>
      </trkpt>
      <trkpt lat="47.27539" lon="-1.54483">
        <ele>85</ele>
        <time>2021-06-06T13:21:02.000Z</time>
      </trkpt>
      <trkpt lat="47.27541" lon="-1.54498">
        <ele>85</ele>
        <time>2021-06-06T13:21:04.000Z</time>
      </trkpt>
      <trkpt lat="47.2754" lon="-1.54513">
        <ele>85</ele>
        <time>2021-06-06T13:21:06.000Z</time>
      </trkpt>
      <trkpt lat="47.27537" lon="-1.54526">
        <ele>85</ele>
        <time>2021-06-06T13:21:08.000Z</time>
      </trkpt>
      <trkpt lat="47.27534" lon="-1.54539">
        <ele>85</ele>
        <time>2021-06-06T13:21:10.000Z</time>
      </trkpt>
      <trkpt lat="47.27528" lon="-1.54552">
        <ele>85</ele>
        <time>2021-06-06T13:21:12.000Z</time>
      </trkpt>
      <trkpt lat="47.27522" lon="-1.54563">
        <ele>85</ele>
        <time>2021-06-06T13:21:14.000Z</time>
      </trkpt>
      <trkpt lat="47.27515" lon="-1.54572">
        <ele>85</ele>
        <time>2021-06-06T13:21:16.000Z</time>
      </trkpt>
      <trkpt lat="47.27507" lon="-1.54578">
        <ele>85</ele>
        <time>2021-06-06T13:21:18.000Z</time>
      </trkpt>
      <trkpt lat="47.27498" lon="-1.54585">
        <ele>85</ele>
        <time>2021-06-06T13:21:20.000Z</time>
      </trkpt>
      <trkpt lat="47.2749" lon="-1.54591">
        <ele>86</ele>
        <time>2021-06-06T13:21:22.000Z</time>
      </trkpt>
      <trkpt lat="47.27481" lon="-1.54598">
        <ele>86</ele>
        <time>2021-06-06T13:21:24.000Z</time>
      </trkpt>
      <trkpt lat="47.27473" lon="-1.54606">
        <ele>86</ele>
        <time>2021-06-06T13:21:26.000Z</time>
      </trkpt>
      <trkpt lat="47.27465" lon="-1.54615">
        <ele>87</ele>
        <time>2021-06-06T13:21:28.000Z</time>
      </trkpt>
      <trkpt lat="47.27455" lon="-1.54633">
        <ele>87</ele>
        <time>2021-06-06T13:21:31.000Z</time>
      </trkpt>
      <trkpt lat="47.27451" lon="-1.54649">
        <ele>86</ele>
        <time>2021-06-06T13:21:33.000Z</time>
      </trkpt>
      <trkpt lat="47.27449" lon="-1.54664">
        <ele>85</ele>
        <time>2021-06-06T13:21:35.000Z</time>
      </trkpt>
      <trkpt lat="47.27449" lon="-1.54678">
        <ele>85</ele>
        <time>2021-06-06T13:21:37.000Z</time>
      </trkpt>
      <trkpt lat="47.27452" lon="-1.54692">
        <ele>86</ele>
        <time>2021-06-06T13:21:39.000Z</time>
      </trkpt>
      <trkpt lat="47.27456" lon="-1.54705">
        <ele>86</ele>
        <time>2021-06-06T13:21:41.000Z</time>
      </trkpt>
      <trkpt lat="47.27458" lon="-1.54727">
        <ele>86</ele>
        <time>2021-06-06T13:21:44.000Z</time>
      </trkpt>
      <trkpt lat="47.27451" lon="-1.54746">
        <ele>85</ele>
        <time>2021-06-06T13:21:47.000Z</time>
      </trkpt>
      <trkpt lat="47.27448" lon="-1.54759">
        <ele>85</ele>
        <time>2021-06-06T13:21:50.000Z</time>
      </trkpt>
      <trkpt lat="47.27458" lon="-1.54751">
        <ele>85</ele>
        <time>2021-06-06T13:21:53.000Z</time>
      </trkpt>
      <trkpt lat="47.27467" lon="-1.5475">
        <ele>85</ele>
        <time>2021-06-06T13:21:55.000Z</time>
      </trkpt>
      <trkpt lat="47.27478" lon="-1.54749">
        <ele>86</ele>
        <time>2021-06-06T13:21:57.000Z</time>
      </trkpt>
      <trkpt lat="47.27489" lon="-1.54751">
        <ele>87</ele>
        <time>2021-06-06T13:21:59.000Z</time>
      </trkpt>
      <trkpt lat="47.27499" lon="-1.54752">
        <ele>87</ele>
        <time>2021-06-06T13:22:01.000Z</time>
      </trkpt>
      <trkpt lat="47.27508" lon="-1.54754">
        <ele>88</ele>
        <time>2021-06-06T13:22:03.000Z</time>
      </trkpt>
      <trkpt lat="47.27518" lon="-1.54756">
        <ele>88</ele>
        <time>2021-06-06T13:22:05.000Z</time>
      </trkpt>
      <trkpt lat="47.27528" lon="-1.54759">
        <ele>89</ele>
        <time>2021-06-06T13:22:07.000Z</time>
      </trkpt>
      <trkpt lat="47.27538" lon="-1.54762">
        <ele>89</ele>
        <time>2021-06-06T13:22:09.000Z</time>
      </trkpt>
      <trkpt lat="47.27553" lon="-1.54767">
        <ele>89</ele>
        <time>2021-06-06T13:22:12.000Z</time>
      </trkpt>
      <trkpt lat="47.27563" lon="-1.5477">
        <ele>89</ele>
        <time>2021-06-06T13:22:14.000Z</time>
      </trkpt>
      <trkpt lat="47.27572" lon="-1.54774">
        <ele>89</ele>
        <time>2021-06-06T13:22:16.000Z</time>
      </trkpt>
      <trkpt lat="47.27581" lon="-1.54779">
        <ele>89</ele>
        <time>2021-06-06T13:22:18.000Z</time>
      </trkpt>
      <trkpt lat="47.27588" lon="-1.54789">
        <ele>90</ele>
        <time>2021-06-06T13:22:20.000Z</time>
      </trkpt>
      <trkpt lat="47.27595" lon="-1.54806">
        <ele>89</ele>
        <time>2021-06-06T13:22:24.000Z</time>
      </trkpt>
      <trkpt lat="47.27603" lon="-1.54821">
        <ele>89</ele>
        <time>2021-06-06T13:22:27.000Z</time>
      </trkpt>
      <trkpt lat="47.27612" lon="-1.54826">
        <ele>89</ele>
        <time>2021-06-06T13:22:29.000Z</time>
      </trkpt>
      <trkpt lat="47.27621" lon="-1.54829">
        <ele>88</ele>
        <time>2021-06-06T13:22:31.000Z</time>
      </trkpt>
      <trkpt lat="47.27633" lon="-1.54826">
        <ele>89</ele>
        <time>2021-06-06T13:22:34.000Z</time>
      </trkpt>
      <trkpt lat="47.27645" lon="-1.54817">
        <ele>90</ele>
        <time>2021-06-06T13:22:37.000Z</time>
      </trkpt>
      <trkpt lat="47.27655" lon="-1.54814">
        <ele>90</ele>
        <time>2021-06-06T13:22:39.000Z</time>
      </trkpt>
      <trkpt lat="47.27666" lon="-1.54814">
        <ele>90</ele>
        <time>2021-06-06T13:22:41.000Z</time>
      </trkpt>
      <trkpt lat="47.27677" lon="-1.54814">
        <ele>90</ele>
        <time>2021-06-06T13:22:43.000Z</time>
      </trkpt>
      <trkpt lat="47.27689" lon="-1.54816">
        <ele>89</ele>
        <time>2021-06-06T13:22:45.000Z</time>
      </trkpt>
      <trkpt lat="47.277" lon="-1.54818">
        <ele>89</ele>
        <time>2021-06-06T13:22:47.000Z</time>
      </trkpt>
      <trkpt lat="47.27711" lon="-1.5482">
        <ele>88</ele>
        <time>2021-06-06T13:22:49.000Z</time>
      </trkpt>
      <trkpt lat="47.27723" lon="-1.54823">
        <ele>88</ele>
        <time>2021-06-06T13:22:51.000Z</time>
      </trkpt>
      <trkpt lat="47.27734" lon="-1.54827">
        <ele>88</ele>
        <time>2021-06-06T13:22:53.000Z</time>
      </trkpt>
      <trkpt lat="47.27747" lon="-1.5483">
        <ele>87</ele>
        <time>2021-06-06T13:22:55.000Z</time>
      </trkpt>
      <trkpt lat="47.2776" lon="-1.54834">
        <ele>87</ele>
        <time>2021-06-06T13:22:57.000Z</time>
      </trkpt>
      <trkpt lat="47.27774" lon="-1.54838">
        <ele>86</ele>
        <time>2021-06-06T13:22:59.000Z</time>
      </trkpt>
      <trkpt lat="47.27788" lon="-1.54842">
        <ele>85</ele>
        <time>2021-06-06T13:23:01.000Z</time>
      </trkpt>
      <trkpt lat="47.27802" lon="-1.54846">
        <ele>85</ele>
        <time>2021-06-06T13:23:03.000Z</time>
      </trkpt>
      <trkpt lat="47.27818" lon="-1.54851">
        <ele>84</ele>
        <time>2021-06-06T13:23:05.000Z</time>
      </trkpt>
      <trkpt lat="47.27833" lon="-1.54855">
        <ele>83</ele>
        <time>2021-06-06T13:23:07.000Z</time>
      </trkpt>
      <trkpt lat="47.27849" lon="-1.54859">
        <ele>82</ele>
        <time>2021-06-06T13:23:09.000Z</time>
      </trkpt>
      <trkpt lat="47.27865" lon="-1.54864">
        <ele>82</ele>
        <time>2021-06-06T13:23:11.000Z</time>
      </trkpt>
      <trkpt lat="47.27881" lon="-1.5487">
        <ele>81</ele>
        <time>2021-06-06T13:23:13.000Z</time>
      </trkpt>
      <trkpt lat="47.27897" lon="-1.54874">
        <ele>80</ele>
        <time>2021-06-06T13:23:15.000Z</time>
      </trkpt>
      <trkpt lat="47.27914" lon="-1.54879">
        <ele>79</ele>
        <time>2021-06-06T13:23:17.000Z</time>
      </trkpt>
      <trkpt lat="47.2793" lon="-1.54884">
        <ele>78</ele>
        <time>2021-06-06T13:23:19.000Z</time>
      </trkpt>
      <trkpt lat="47.27947" lon="-1.54889">
        <ele>78</ele>
        <time>2021-06-06T13:23:21.000Z</time>
      </trkpt>
      <trkpt lat="47.27964" lon="-1.54894">
        <ele>77</ele>
        <time>2021-06-06T13:23:23.000Z</time>
      </trkpt>
      <trkpt lat="47.2798" lon="-1.54899">
        <ele>76</ele>
        <time>2021-06-06T13:23:25.000Z</time>
      </trkpt>
      <trkpt lat="47.27995" lon="-1.54904">
        <ele>75</ele>
        <time>2021-06-06T13:23:27.000Z</time>
      </trkpt>
      <trkpt lat="47.28011" lon="-1.54908">
        <ele>75</ele>
        <time>2021-06-06T13:23:29.000Z</time>
      </trkpt>
      <trkpt lat="47.28027" lon="-1.54912">
        <ele>75</ele>
        <time>2021-06-06T13:23:31.000Z</time>
      </trkpt>
      <trkpt lat="47.28042" lon="-1.54917">
        <ele>75</ele>
        <time>2021-06-06T13:23:33.000Z</time>
      </trkpt>
      <trkpt lat="47.28057" lon="-1.54921">
        <ele>74</ele>
        <time>2021-06-06T13:23:35.000Z</time>
      </trkpt>
      <trkpt lat="47.28072" lon="-1.54926">
        <ele>74</ele>
        <time>2021-06-06T13:23:37.000Z</time>
      </trkpt>
      <trkpt lat="47.28087" lon="-1.54931">
        <ele>74</ele>
        <time>2021-06-06T13:23:39.000Z</time>
      </trkpt>
      <trkpt lat="47.28101" lon="-1.54936">
        <ele>74</ele>
        <time>2021-06-06T13:23:41.000Z</time>
      </trkpt>
      <trkpt lat="47.28115" lon="-1.5494">
        <ele>74</ele>
        <time>2021-06-06T13:23:43.000Z</time>
      </trkpt>
      <trkpt lat="47.28129" lon="-1.54944">
        <ele>74</ele>
        <time>2021-06-06T13:23:45.000Z</time>
      </trkpt>
      <trkpt lat="47.28143" lon="-1.54948">
        <ele>74</ele>
        <time>2021-06-06T13:23:47.000Z</time>
      </trkpt>
      <trkpt lat="47.28157" lon="-1.54952">
        <ele>74</ele>
        <time>2021-06-06T13:23:49.000Z</time>
      </trkpt>
      <trkpt lat="47.28171" lon="-1.54955">
        <ele>74</ele>
        <time>2021-06-06T13:23:51.000Z</time>
      </trkpt>
      <trkpt lat="47.28184" lon="-1.54959">
        <ele>74</ele>
        <time>2021-06-06T13:23:53.000Z</time>
      </trkpt>
      <trkpt lat="47.28198" lon="-1.54962">
        <ele>74</ele>
        <time>2021-06-06T13:23:55.000Z</time>
      </trkpt>
      <trkpt lat="47.28211" lon="-1.54965">
        <ele>74</ele>
        <time>2021-06-06T13:23:57.000Z</time>
      </trkpt>
      <trkpt lat="47.28224" lon="-1.54968">
        <ele>74</ele>
        <time>2021-06-06T13:23:59.000Z</time>
      </trkpt>
      <trkpt lat="47.28237" lon="-1.5497">
        <ele>74</ele>
        <time>2021-06-06T13:24:01.000Z</time>
      </trkpt>
      <trkpt lat="47.2825" lon="-1.54972">
        <ele>74</ele>
        <time>2021-06-06T13:24:03.000Z</time>
      </trkpt>
      <trkpt lat="47.28264" lon="-1.54973">
        <ele>75</ele>
        <time>2021-06-06T13:24:05.000Z</time>
      </trkpt>
      <trkpt lat="47.28276" lon="-1.54976">
        <ele>75</ele>
        <time>2021-06-06T13:24:07.000Z</time>
      </trkpt>
      <trkpt lat="47.28292" lon="-1.54986">
        <ele>77</ele>
        <time>2021-06-06T13:24:10.000Z</time>
      </trkpt>
      <trkpt lat="47.28303" lon="-1.54987">
        <ele>77</ele>
        <time>2021-06-06T13:24:12.000Z</time>
      </trkpt>
      <trkpt lat="47.28314" lon="-1.54976">
        <ele>77</ele>
        <time>2021-06-06T13:24:14.000Z</time>
      </trkpt>
      <trkpt lat="47.28327" lon="-1.54974">
        <ele>77</ele>
        <time>2021-06-06T13:24:16.000Z</time>
      </trkpt>
      <trkpt lat="47.2834" lon="-1.54976">
        <ele>77</ele>
        <time>2021-06-06T13:24:18.000Z</time>
      </trkpt>
      <trkpt lat="47.28353" lon="-1.54977">
        <ele>77</ele>
        <time>2021-06-06T13:24:20.000Z</time>
      </trkpt>
      <trkpt lat="47.28366" lon="-1.54978">
        <ele>77</ele>
        <time>2021-06-06T13:24:22.000Z</time>
      </trkpt>
      <trkpt lat="47.28379" lon="-1.54979">
        <ele>77</ele>
        <time>2021-06-06T13:24:24.000Z</time>
      </trkpt>
      <trkpt lat="47.28393" lon="-1.5498">
        <ele>77</ele>
        <time>2021-06-06T13:24:26.000Z</time>
      </trkpt>
      <trkpt lat="47.28406" lon="-1.54981">
        <ele>77</ele>
        <time>2021-06-06T13:24:28.000Z</time>
      </trkpt>
      <trkpt lat="47.28419" lon="-1.54982">
        <ele>77</ele>
        <time>2021-06-06T13:24:30.000Z</time>
      </trkpt>
      <trkpt lat="47.28433" lon="-1.54984">
        <ele>76</ele>
        <time>2021-06-06T13:24:32.000Z</time>
      </trkpt>
      <trkpt lat="47.28447" lon="-1.54984">
        <ele>76</ele>
        <time>2021-06-06T13:24:34.000Z</time>
      </trkpt>
      <trkpt lat="47.2846" lon="-1.54984">
        <ele>76</ele>
        <time>2021-06-06T13:24:36.000Z</time>
      </trkpt>
      <trkpt lat="47.28474" lon="-1.54983">
        <ele>76</ele>
        <time>2021-06-06T13:24:38.000Z</time>
      </trkpt>
      <trkpt lat="47.28488" lon="-1.54983">
        <ele>76</ele>
        <time>2021-06-06T13:24:40.000Z</time>
      </trkpt>
      <trkpt lat="47.28501" lon="-1.54983">
        <ele>75</ele>
        <time>2021-06-06T13:24:42.000Z</time>
      </trkpt>
      <trkpt lat="47.28513" lon="-1.54986">
        <ele>75</ele>
        <time>2021-06-06T13:24:44.000Z</time>
      </trkpt>
      <trkpt lat="47.28521" lon="-1.54998">
        <ele>75</ele>
        <time>2021-06-06T13:24:46.000Z</time>
      </trkpt>
      <trkpt lat="47.28526" lon="-1.55012">
        <ele>75</ele>
        <time>2021-06-06T13:24:48.000Z</time>
      </trkpt>
      <trkpt lat="47.28534" lon="-1.55023">
        <ele>75</ele>
        <time>2021-06-06T13:24:50.000Z</time>
      </trkpt>
      <trkpt lat="47.28543" lon="-1.55033">
        <ele>75</ele>
        <time>2021-06-06T13:24:52.000Z</time>
      </trkpt>
      <trkpt lat="47.28551" lon="-1.55043">
        <ele>75</ele>
        <time>2021-06-06T13:24:54.000Z</time>
      </trkpt>
      <trkpt lat="47.28562" lon="-1.55047">
        <ele>75</ele>
        <time>2021-06-06T13:24:57.000Z</time>
      </trkpt>
      <trkpt lat="47.28571" lon="-1.5504">
        <ele>74</ele>
        <time>2021-06-06T13:24:59.000Z</time>
      </trkpt>
      <trkpt lat="47.28577" lon="-1.55023">
        <ele>75</ele>
        <time>2021-06-06T13:25:01.000Z</time>
      </trkpt>
      <trkpt lat="47.28583" lon="-1.55007">
        <ele>75</ele>
        <time>2021-06-06T13:25:03.000Z</time>
      </trkpt>
      <trkpt lat="47.28591" lon="-1.54992">
        <ele>76</ele>
        <time>2021-06-06T13:25:05.000Z</time>
      </trkpt>
      <trkpt lat="47.286" lon="-1.5498">
        <ele>76</ele>
        <time>2021-06-06T13:25:07.000Z</time>
      </trkpt>
      <trkpt lat="47.28613" lon="-1.54976">
        <ele>76</ele>
        <time>2021-06-06T13:25:09.000Z</time>
      </trkpt>
      <trkpt lat="47.28628" lon="-1.54973">
        <ele>76</ele>
        <time>2021-06-06T13:25:11.000Z</time>
      </trkpt>
      <trkpt lat="47.28642" lon="-1.5497">
        <ele>77</ele>
        <time>2021-06-06T13:25:13.000Z</time>
      </trkpt>
      <trkpt lat="47.28657" lon="-1.54968">
        <ele>77</ele>
        <time>2021-06-06T13:25:15.000Z</time>
      </trkpt>
      <trkpt lat="47.2867" lon="-1.54965">
        <ele>78</ele>
        <time>2021-06-06T13:25:17.000Z</time>
      </trkpt>
      <trkpt lat="47.28684" lon="-1.54963">
        <ele>77</ele>
        <time>2021-06-06T13:25:19.000Z</time>
      </trkpt>
      <trkpt lat="47.28697" lon="-1.54961">
        <ele>78</ele>
        <time>2021-06-06T13:25:21.000Z</time>
      </trkpt>
      <trkpt lat="47.28711" lon="-1.54959">
        <ele>78</ele>
        <time>2021-06-06T13:25:23.000Z</time>
      </trkpt>
      <trkpt lat="47.28724" lon="-1.54957">
        <ele>78</ele>
        <time>2021-06-06T13:25:25.000Z</time>
      </trkpt>
      <trkpt lat="47.28737" lon="-1.54955">
        <ele>78</ele>
        <time>2021-06-06T13:25:27.000Z</time>
      </trkpt>
      <trkpt lat="47.2875" lon="-1.54953">
        <ele>78</ele>
        <time>2021-06-06T13:25:29.000Z</time>
      </trkpt>
      <trkpt lat="47.28763" lon="-1.5495">
        <ele>79</ele>
        <time>2021-06-06T13:25:31.000Z</time>
      </trkpt>
      <trkpt lat="47.28776" lon="-1.54949">
        <ele>78</ele>
        <time>2021-06-06T13:25:33.000Z</time>
      </trkpt>
      <trkpt lat="47.2879" lon="-1.54946">
        <ele>79</ele>
        <time>2021-06-06T13:25:35.000Z</time>
      </trkpt>
      <trkpt lat="47.28803" lon="-1.54945">
        <ele>78</ele>
        <time>2021-06-06T13:25:37.000Z</time>
      </trkpt>
      <trkpt lat="47.28816" lon="-1.54942">
        <ele>79</ele>
        <time>2021-06-06T13:25:39.000Z</time>
      </trkpt>
      <trkpt lat="47.28829" lon="-1.54941">
        <ele>79</ele>
        <time>2021-06-06T13:25:41.000Z</time>
      </trkpt>
      <trkpt lat="47.28841" lon="-1.54939">
        <ele>79</ele>
        <time>2021-06-06T13:25:43.000Z</time>
      </trkpt>
      <trkpt lat="47.28854" lon="-1.54937">
        <ele>80</ele>
        <time>2021-06-06T13:25:45.000Z</time>
      </trkpt>
      <trkpt lat="47.28866" lon="-1.54934">
        <ele>80</ele>
        <time>2021-06-06T13:25:47.000Z</time>
      </trkpt>
      <trkpt lat="47.28879" lon="-1.54932">
        <ele>79</ele>
        <time>2021-06-06T13:25:49.000Z</time>
      </trkpt>
      <trkpt lat="47.28892" lon="-1.5493">
        <ele>79</ele>
        <time>2021-06-06T13:25:51.000Z</time>
      </trkpt>
      <trkpt lat="47.28904" lon="-1.54927">
        <ele>79</ele>
        <time>2021-06-06T13:25:53.000Z</time>
      </trkpt>
      <trkpt lat="47.28917" lon="-1.54925">
        <ele>79</ele>
        <time>2021-06-06T13:25:55.000Z</time>
      </trkpt>
      <trkpt lat="47.2893" lon="-1.54923">
        <ele>78</ele>
        <time>2021-06-06T13:25:57.000Z</time>
      </trkpt>
      <trkpt lat="47.28944" lon="-1.54922">
        <ele>78</ele>
        <time>2021-06-06T13:25:59.000Z</time>
      </trkpt>
      <trkpt lat="47.28957" lon="-1.54923">
        <ele>77</ele>
        <time>2021-06-06T13:26:01.000Z</time>
      </trkpt>
      <trkpt lat="47.2897" lon="-1.54926">
        <ele>77</ele>
        <time>2021-06-06T13:26:03.000Z</time>
      </trkpt>
      <trkpt lat="47.28982" lon="-1.54929">
        <ele>77</ele>
        <time>2021-06-06T13:26:05.000Z</time>
      </trkpt>
      <trkpt lat="47.28994" lon="-1.54926">
        <ele>77</ele>
        <time>2021-06-06T13:26:07.000Z</time>
      </trkpt>
      <trkpt lat="47.29007" lon="-1.54925">
        <ele>78</ele>
        <time>2021-06-06T13:26:09.000Z</time>
      </trkpt>
      <trkpt lat="47.29019" lon="-1.54926">
        <ele>78</ele>
        <time>2021-06-06T13:26:11.000Z</time>
      </trkpt>
      <trkpt lat="47.29029" lon="-1.54928">
        <ele>78</ele>
        <time>2021-06-06T13:26:13.000Z</time>
      </trkpt>
      <trkpt lat="47.29037" lon="-1.54917">
        <ele>78</ele>
        <time>2021-06-06T13:26:16.000Z</time>
      </trkpt>
      <trkpt lat="47.29047" lon="-1.54915">
        <ele>79</ele>
        <time>2021-06-06T13:26:18.000Z</time>
      </trkpt>
      <trkpt lat="47.29057" lon="-1.54914">
        <ele>79</ele>
        <time>2021-06-06T13:26:20.000Z</time>
      </trkpt>
      <trkpt lat="47.29068" lon="-1.54913">
        <ele>80</ele>
        <time>2021-06-06T13:26:22.000Z</time>
      </trkpt>
      <trkpt lat="47.2908" lon="-1.54914">
        <ele>80</ele>
        <time>2021-06-06T13:26:24.000Z</time>
      </trkpt>
      <trkpt lat="47.29091" lon="-1.54914">
        <ele>79</ele>
        <time>2021-06-06T13:26:26.000Z</time>
      </trkpt>
      <trkpt lat="47.29102" lon="-1.54915">
        <ele>80</ele>
        <time>2021-06-06T13:26:28.000Z</time>
      </trkpt>
      <trkpt lat="47.29113" lon="-1.54913">
        <ele>79</ele>
        <time>2021-06-06T13:26:30.000Z</time>
      </trkpt>
      <trkpt lat="47.29124" lon="-1.54911">
        <ele>80</ele>
        <time>2021-06-06T13:26:32.000Z</time>
      </trkpt>
      <trkpt lat="47.29134" lon="-1.5491">
        <ele>80</ele>
        <time>2021-06-06T13:26:34.000Z</time>
      </trkpt>
      <trkpt lat="47.29147" lon="-1.54909">
        <ele>81</ele>
        <time>2021-06-06T13:26:36.000Z</time>
      </trkpt>
      <trkpt lat="47.29159" lon="-1.54909">
        <ele>82</ele>
        <time>2021-06-06T13:26:38.000Z</time>
      </trkpt>
      <trkpt lat="47.29169" lon="-1.5491">
        <ele>82</ele>
        <time>2021-06-06T13:26:40.000Z</time>
      </trkpt>
      <trkpt lat="47.29179" lon="-1.54907">
        <ele>82</ele>
        <time>2021-06-06T13:26:42.000Z</time>
      </trkpt>
      <trkpt lat="47.2919" lon="-1.54906">
        <ele>82</ele>
        <time>2021-06-06T13:26:44.000Z</time>
      </trkpt>
      <trkpt lat="47.29201" lon="-1.54905">
        <ele>83</ele>
        <time>2021-06-06T13:26:46.000Z</time>
      </trkpt>
      <trkpt lat="47.29211" lon="-1.54904">
        <ele>83</ele>
        <time>2021-06-06T13:26:48.000Z</time>
      </trkpt>
      <trkpt lat="47.29222" lon="-1.54903">
        <ele>83</ele>
        <time>2021-06-06T13:26:50.000Z</time>
      </trkpt>
      <trkpt lat="47.29234" lon="-1.54905">
        <ele>84</ele>
        <time>2021-06-06T13:26:52.000Z</time>
      </trkpt>
      <trkpt lat="47.29243" lon="-1.54911">
        <ele>84</ele>
        <time>2021-06-06T13:26:54.000Z</time>
      </trkpt>
      <trkpt lat="47.29255" lon="-1.54912">
        <ele>84</ele>
        <time>2021-06-06T13:26:56.000Z</time>
      </trkpt>
      <trkpt lat="47.29267" lon="-1.54912">
        <ele>83</ele>
        <time>2021-06-06T13:26:58.000Z</time>
      </trkpt>
      <trkpt lat="47.29278" lon="-1.54912">
        <ele>83</ele>
        <time>2021-06-06T13:27:00.000Z</time>
      </trkpt>
      <trkpt lat="47.29289" lon="-1.54913">
        <ele>85</ele>
        <time>2021-06-06T13:27:02.000Z</time>
      </trkpt>
      <trkpt lat="47.293" lon="-1.54913">
        <ele>85</ele>
        <time>2021-06-06T13:27:04.000Z</time>
      </trkpt>
      <trkpt lat="47.29311" lon="-1.54914">
        <ele>85</ele>
        <time>2021-06-06T13:27:06.000Z</time>
      </trkpt>
      <trkpt lat="47.29322" lon="-1.54914">
        <ele>85</ele>
        <time>2021-06-06T13:27:08.000Z</time>
      </trkpt>
      <trkpt lat="47.29333" lon="-1.54912">
        <ele>85</ele>
        <time>2021-06-06T13:27:10.000Z</time>
      </trkpt>
      <trkpt lat="47.29342" lon="-1.54909">
        <ele>85</ele>
        <time>2021-06-06T13:27:12.000Z</time>
      </trkpt>
      <trkpt lat="47.29349" lon="-1.54901">
        <ele>86</ele>
        <time>2021-06-06T13:27:14.000Z</time>
      </trkpt>
      <trkpt lat="47.29359" lon="-1.54895">
        <ele>85</ele>
        <time>2021-06-06T13:27:16.000Z</time>
      </trkpt>
      <trkpt lat="47.2937" lon="-1.54894">
        <ele>84</ele>
        <time>2021-06-06T13:27:18.000Z</time>
      </trkpt>
      <trkpt lat="47.2938" lon="-1.54892">
        <ele>83</ele>
        <time>2021-06-06T13:27:20.000Z</time>
      </trkpt>
      <trkpt lat="47.2939" lon="-1.54892">
        <ele>83</ele>
        <time>2021-06-06T13:27:22.000Z</time>
      </trkpt>
      <trkpt lat="47.294" lon="-1.54891">
        <ele>83</ele>
        <time>2021-06-06T13:27:24.000Z</time>
      </trkpt>
      <trkpt lat="47.2941" lon="-1.54891">
        <ele>83</ele>
        <time>2021-06-06T13:27:26.000Z</time>
      </trkpt>
      <trkpt lat="47.29421" lon="-1.54891">
        <ele>82</ele>
        <time>2021-06-06T13:27:28.000Z</time>
      </trkpt>
      <trkpt lat="47.29432" lon="-1.5489">
        <ele>82</ele>
        <time>2021-06-06T13:27:30.000Z</time>
      </trkpt>
      <trkpt lat="47.29442" lon="-1.5489">
        <ele>82</ele>
        <time>2021-06-06T13:27:32.000Z</time>
      </trkpt>
      <trkpt lat="47.29453" lon="-1.54889">
        <ele>81</ele>
        <time>2021-06-06T13:27:34.000Z</time>
      </trkpt>
      <trkpt lat="47.29465" lon="-1.54889">
        <ele>81</ele>
        <time>2021-06-06T13:27:36.000Z</time>
      </trkpt>
      <trkpt lat="47.29477" lon="-1.54892">
        <ele>80</ele>
        <time>2021-06-06T13:27:38.000Z</time>
      </trkpt>
      <trkpt lat="47.29489" lon="-1.54893">
        <ele>80</ele>
        <time>2021-06-06T13:27:40.000Z</time>
      </trkpt>
      <trkpt lat="47.29502" lon="-1.54892">
        <ele>79</ele>
        <time>2021-06-06T13:27:42.000Z</time>
      </trkpt>
      <trkpt lat="47.29514" lon="-1.54891">
        <ele>78</ele>
        <time>2021-06-06T13:27:44.000Z</time>
      </trkpt>
      <trkpt lat="47.29527" lon="-1.5489">
        <ele>78</ele>
        <time>2021-06-06T13:27:46.000Z</time>
      </trkpt>
      <trkpt lat="47.29539" lon="-1.5489">
        <ele>78</ele>
        <time>2021-06-06T13:27:48.000Z</time>
      </trkpt>
      <trkpt lat="47.29552" lon="-1.54889">
        <ele>77</ele>
        <time>2021-06-06T13:27:50.000Z</time>
      </trkpt>
      <trkpt lat="47.29564" lon="-1.54889">
        <ele>77</ele>
        <time>2021-06-06T13:27:52.000Z</time>
      </trkpt>
      <trkpt lat="47.29577" lon="-1.54887">
        <ele>77</ele>
        <time>2021-06-06T13:27:54.000Z</time>
      </trkpt>
      <trkpt lat="47.29591" lon="-1.54886">
        <ele>77</ele>
        <time>2021-06-06T13:27:56.000Z</time>
      </trkpt>
      <trkpt lat="47.29603" lon="-1.54883">
        <ele>77</ele>
        <time>2021-06-06T13:27:58.000Z</time>
      </trkpt>
      <trkpt lat="47.29614" lon="-1.54877">
        <ele>77</ele>
        <time>2021-06-06T13:28:00.000Z</time>
      </trkpt>
      <trkpt lat="47.29626" lon="-1.54874">
        <ele>77</ele>
        <time>2021-06-06T13:28:02.000Z</time>
      </trkpt>
      <trkpt lat="47.29637" lon="-1.54871">
        <ele>77</ele>
        <time>2021-06-06T13:28:04.000Z</time>
      </trkpt>
      <trkpt lat="47.29649" lon="-1.54868">
        <ele>77</ele>
        <time>2021-06-06T13:28:06.000Z</time>
      </trkpt>
      <trkpt lat="47.29661" lon="-1.54866">
        <ele>78</ele>
        <time>2021-06-06T13:28:08.000Z</time>
      </trkpt>
      <trkpt lat="47.29673" lon="-1.54863">
        <ele>77</ele>
        <time>2021-06-06T13:28:10.000Z</time>
      </trkpt>
      <trkpt lat="47.29685" lon="-1.54859">
        <ele>77</ele>
        <time>2021-06-06T13:28:12.000Z</time>
      </trkpt>
      <trkpt lat="47.29697" lon="-1.54857">
        <ele>77</ele>
        <time>2021-06-06T13:28:14.000Z</time>
      </trkpt>
      <trkpt lat="47.29708" lon="-1.54856">
        <ele>77</ele>
        <time>2021-06-06T13:28:16.000Z</time>
      </trkpt>
      <trkpt lat="47.29718" lon="-1.54858">
        <ele>77</ele>
        <time>2021-06-06T13:28:18.000Z</time>
      </trkpt>
      <trkpt lat="47.29727" lon="-1.54855">
        <ele>77</ele>
        <time>2021-06-06T13:28:20.000Z</time>
      </trkpt>
      <trkpt lat="47.29737" lon="-1.54851">
        <ele>77</ele>
        <time>2021-06-06T13:28:22.000Z</time>
      </trkpt>
      <trkpt lat="47.29749" lon="-1.54846">
        <ele>77</ele>
        <time>2021-06-06T13:28:24.000Z</time>
      </trkpt>
      <trkpt lat="47.29763" lon="-1.5484">
        <ele>77</ele>
        <time>2021-06-06T13:28:26.000Z</time>
      </trkpt>
      <trkpt lat="47.29776" lon="-1.54837">
        <ele>77</ele>
        <time>2021-06-06T13:28:28.000Z</time>
      </trkpt>
      <trkpt lat="47.2979" lon="-1.54837">
        <ele>77</ele>
        <time>2021-06-06T13:28:30.000Z</time>
      </trkpt>
      <trkpt lat="47.29803" lon="-1.54843">
        <ele>78</ele>
        <time>2021-06-06T13:28:32.000Z</time>
      </trkpt>
      <trkpt lat="47.29814" lon="-1.54843">
        <ele>77</ele>
        <time>2021-06-06T13:28:34.000Z</time>
      </trkpt>
      <trkpt lat="47.29826" lon="-1.5484">
        <ele>77</ele>
        <time>2021-06-06T13:28:36.000Z</time>
      </trkpt>
      <trkpt lat="47.29837" lon="-1.54837">
        <ele>77</ele>
        <time>2021-06-06T13:28:38.000Z</time>
      </trkpt>
      <trkpt lat="47.2985" lon="-1.54834">
        <ele>77</ele>
        <time>2021-06-06T13:28:40.000Z</time>
      </trkpt>
      <trkpt lat="47.29863" lon="-1.54829">
        <ele>77</ele>
        <time>2021-06-06T13:28:42.000Z</time>
      </trkpt>
      <trkpt lat="47.29876" lon="-1.54826">
        <ele>77</ele>
        <time>2021-06-06T13:28:44.000Z</time>
      </trkpt>
      <trkpt lat="47.29889" lon="-1.54824">
        <ele>78</ele>
        <time>2021-06-06T13:28:46.000Z</time>
      </trkpt>
      <trkpt lat="47.29902" lon="-1.5482">
        <ele>79</ele>
        <time>2021-06-06T13:28:48.000Z</time>
      </trkpt>
      <trkpt lat="47.29915" lon="-1.54814">
        <ele>80</ele>
        <time>2021-06-06T13:28:50.000Z</time>
      </trkpt>
      <trkpt lat="47.29929" lon="-1.54809">
        <ele>80</ele>
        <time>2021-06-06T13:28:52.000Z</time>
      </trkpt>
      <trkpt lat="47.29942" lon="-1.54804">
        <ele>81</ele>
        <time>2021-06-06T13:28:54.000Z</time>
      </trkpt>
      <trkpt lat="47.29955" lon="-1.548">
        <ele>81</ele>
        <time>2021-06-06T13:28:56.000Z</time>
      </trkpt>
      <trkpt lat="47.29968" lon="-1.54794">
        <ele>81</ele>
        <time>2021-06-06T13:28:58.000Z</time>
      </trkpt>
      <trkpt lat="47.29982" lon="-1.54789">
        <ele>80</ele>
        <time>2021-06-06T13:29:00.000Z</time>
      </trkpt>
      <trkpt lat="47.29995" lon="-1.54785">
        <ele>80</ele>
        <time>2021-06-06T13:29:02.000Z</time>
      </trkpt>
      <trkpt lat="47.30009" lon="-1.54779">
        <ele>80</ele>
        <time>2021-06-06T13:29:04.000Z</time>
      </trkpt>
      <trkpt lat="47.30023" lon="-1.54775">
        <ele>79</ele>
        <time>2021-06-06T13:29:06.000Z</time>
      </trkpt>
      <trkpt lat="47.30036" lon="-1.54771">
        <ele>79</ele>
        <time>2021-06-06T13:29:08.000Z</time>
      </trkpt>
      <trkpt lat="47.30049" lon="-1.54766">
        <ele>79</ele>
        <time>2021-06-06T13:29:10.000Z</time>
      </trkpt>
      <trkpt lat="47.30061" lon="-1.54762">
        <ele>79</ele>
        <time>2021-06-06T13:29:12.000Z</time>
      </trkpt>
      <trkpt lat="47.30074" lon="-1.54756">
        <ele>79</ele>
        <time>2021-06-06T13:29:14.000Z</time>
      </trkpt>
      <trkpt lat="47.30087" lon="-1.5475">
        <ele>79</ele>
        <time>2021-06-06T13:29:16.000Z</time>
      </trkpt>
      <trkpt lat="47.30099" lon="-1.54743">
        <ele>79</ele>
        <time>2021-06-06T13:29:18.000Z</time>
      </trkpt>
      <trkpt lat="47.30112" lon="-1.54736">
        <ele>80</ele>
        <time>2021-06-06T13:29:20.000Z</time>
      </trkpt>
      <trkpt lat="47.30124" lon="-1.54729">
        <ele>81</ele>
        <time>2021-06-06T13:29:22.000Z</time>
      </trkpt>
      <trkpt lat="47.30137" lon="-1.54723">
        <ele>80</ele>
        <time>2021-06-06T13:29:24.000Z</time>
      </trkpt>
      <trkpt lat="47.3015" lon="-1.54716">
        <ele>80</ele>
        <time>2021-06-06T13:29:26.000Z</time>
      </trkpt>
      <trkpt lat="47.30162" lon="-1.5471">
        <ele>79</ele>
        <time>2021-06-06T13:29:28.000Z</time>
      </trkpt>
      <trkpt lat="47.30176" lon="-1.54703">
        <ele>79</ele>
        <time>2021-06-06T13:29:30.000Z</time>
      </trkpt>
      <trkpt lat="47.30189" lon="-1.54696">
        <ele>79</ele>
        <time>2021-06-06T13:29:32.000Z</time>
      </trkpt>
      <trkpt lat="47.30202" lon="-1.54688">
        <ele>80</ele>
        <time>2021-06-06T13:29:34.000Z</time>
      </trkpt>
      <trkpt lat="47.30215" lon="-1.54681">
        <ele>80</ele>
        <time>2021-06-06T13:29:36.000Z</time>
      </trkpt>
      <trkpt lat="47.3023" lon="-1.54674">
        <ele>80</ele>
        <time>2021-06-06T13:29:38.000Z</time>
      </trkpt>
      <trkpt lat="47.30244" lon="-1.54665">
        <ele>80</ele>
        <time>2021-06-06T13:29:40.000Z</time>
      </trkpt>
      <trkpt lat="47.30258" lon="-1.54657">
        <ele>80</ele>
        <time>2021-06-06T13:29:42.000Z</time>
      </trkpt>
      <trkpt lat="47.30274" lon="-1.54652">
        <ele>80</ele>
        <time>2021-06-06T13:29:44.000Z</time>
      </trkpt>
      <trkpt lat="47.30292" lon="-1.54655">
        <ele>78</ele>
        <time>2021-06-06T13:29:46.000Z</time>
      </trkpt>
      <trkpt lat="47.30308" lon="-1.54664">
        <ele>75</ele>
        <time>2021-06-06T13:29:48.000Z</time>
      </trkpt>
      <trkpt lat="47.30323" lon="-1.54668">
        <ele>75</ele>
        <time>2021-06-06T13:29:50.000Z</time>
      </trkpt>
      <trkpt lat="47.30337" lon="-1.54664">
        <ele>74</ele>
        <time>2021-06-06T13:29:52.000Z</time>
      </trkpt>
      <trkpt lat="47.3035" lon="-1.54658">
        <ele>72</ele>
        <time>2021-06-06T13:29:54.000Z</time>
      </trkpt>
      <trkpt lat="47.30364" lon="-1.54649">
        <ele>71</ele>
        <time>2021-06-06T13:29:56.000Z</time>
      </trkpt>
      <trkpt lat="47.30374" lon="-1.54633">
        <ele>71</ele>
        <time>2021-06-06T13:29:58.000Z</time>
      </trkpt>
      <trkpt lat="47.30384" lon="-1.54617">
        <ele>71</ele>
        <time>2021-06-06T13:30:00.000Z</time>
      </trkpt>
      <trkpt lat="47.30395" lon="-1.54603">
        <ele>72</ele>
        <time>2021-06-06T13:30:02.000Z</time>
      </trkpt>
      <trkpt lat="47.30405" lon="-1.5459">
        <ele>73</ele>
        <time>2021-06-06T13:30:04.000Z</time>
      </trkpt>
      <trkpt lat="47.30414" lon="-1.54579">
        <ele>75</ele>
        <time>2021-06-06T13:30:06.000Z</time>
      </trkpt>
      <trkpt lat="47.30424" lon="-1.54572">
        <ele>79</ele>
        <time>2021-06-06T13:30:08.000Z</time>
      </trkpt>
      <trkpt lat="47.30435" lon="-1.54563">
        <ele>79</ele>
        <time>2021-06-06T13:30:10.000Z</time>
      </trkpt>
      <trkpt lat="47.30448" lon="-1.54552">
        <ele>78</ele>
        <time>2021-06-06T13:30:12.000Z</time>
      </trkpt>
      <trkpt lat="47.30458" lon="-1.54544">
        <ele>78</ele>
        <time>2021-06-06T13:30:14.000Z</time>
      </trkpt>
      <trkpt lat="47.30469" lon="-1.54536">
        <ele>78</ele>
        <time>2021-06-06T13:30:16.000Z</time>
      </trkpt>
      <trkpt lat="47.3048" lon="-1.54528">
        <ele>78</ele>
        <time>2021-06-06T13:30:18.000Z</time>
      </trkpt>
      <trkpt lat="47.30492" lon="-1.54519">
        <ele>78</ele>
        <time>2021-06-06T13:30:20.000Z</time>
      </trkpt>
      <trkpt lat="47.30504" lon="-1.54511">
        <ele>78</ele>
        <time>2021-06-06T13:30:22.000Z</time>
      </trkpt>
      <trkpt lat="47.30515" lon="-1.54502">
        <ele>79</ele>
        <time>2021-06-06T13:30:24.000Z</time>
      </trkpt>
      <trkpt lat="47.30526" lon="-1.54493">
        <ele>79</ele>
        <time>2021-06-06T13:30:26.000Z</time>
      </trkpt>
      <trkpt lat="47.30537" lon="-1.54484">
        <ele>79</ele>
        <time>2021-06-06T13:30:28.000Z</time>
      </trkpt>
      <trkpt lat="47.30547" lon="-1.54475">
        <ele>80</ele>
        <time>2021-06-06T13:30:30.000Z</time>
      </trkpt>
      <trkpt lat="47.30556" lon="-1.54467">
        <ele>79</ele>
        <time>2021-06-06T13:30:32.000Z</time>
      </trkpt>
      <trkpt lat="47.30565" lon="-1.5446">
        <ele>80</ele>
        <time>2021-06-06T13:30:34.000Z</time>
      </trkpt>
      <trkpt lat="47.30574" lon="-1.54452">
        <ele>80</ele>
        <time>2021-06-06T13:30:36.000Z</time>
      </trkpt>
      <trkpt lat="47.30583" lon="-1.54444">
        <ele>80</ele>
        <time>2021-06-06T13:30:38.000Z</time>
      </trkpt>
      <trkpt lat="47.30593" lon="-1.54434">
        <ele>80</ele>
        <time>2021-06-06T13:30:40.000Z</time>
      </trkpt>
      <trkpt lat="47.30604" lon="-1.54424">
        <ele>80</ele>
        <time>2021-06-06T13:30:42.000Z</time>
      </trkpt>
      <trkpt lat="47.30614" lon="-1.54415">
        <ele>80</ele>
        <time>2021-06-06T13:30:44.000Z</time>
      </trkpt>
      <trkpt lat="47.30624" lon="-1.54405">
        <ele>81</ele>
        <time>2021-06-06T13:30:46.000Z</time>
      </trkpt>
      <trkpt lat="47.30635" lon="-1.54395">
        <ele>81</ele>
        <time>2021-06-06T13:30:48.000Z</time>
      </trkpt>
      <trkpt lat="47.30644" lon="-1.54386">
        <ele>81</ele>
        <time>2021-06-06T13:30:50.000Z</time>
      </trkpt>
      <trkpt lat="47.30655" lon="-1.54377">
        <ele>80</ele>
        <time>2021-06-06T13:30:52.000Z</time>
      </trkpt>
      <trkpt lat="47.30666" lon="-1.54368">
        <ele>79</ele>
        <time>2021-06-06T13:30:54.000Z</time>
      </trkpt>
      <trkpt lat="47.30676" lon="-1.54359">
        <ele>79</ele>
        <time>2021-06-06T13:30:56.000Z</time>
      </trkpt>
      <trkpt lat="47.30687" lon="-1.54351">
        <ele>78</ele>
        <time>2021-06-06T13:30:58.000Z</time>
      </trkpt>
      <trkpt lat="47.30698" lon="-1.54341">
        <ele>77</ele>
        <time>2021-06-06T13:31:00.000Z</time>
      </trkpt>
      <trkpt lat="47.3071" lon="-1.54332">
        <ele>76</ele>
        <time>2021-06-06T13:31:02.000Z</time>
      </trkpt>
      <trkpt lat="47.30722" lon="-1.54322">
        <ele>75</ele>
        <time>2021-06-06T13:31:04.000Z</time>
      </trkpt>
      <trkpt lat="47.30734" lon="-1.54312">
        <ele>75</ele>
        <time>2021-06-06T13:31:06.000Z</time>
      </trkpt>
      <trkpt lat="47.30747" lon="-1.54304">
        <ele>74</ele>
        <time>2021-06-06T13:31:08.000Z</time>
      </trkpt>
      <trkpt lat="47.30761" lon="-1.54298">
        <ele>73</ele>
        <time>2021-06-06T13:31:10.000Z</time>
      </trkpt>
      <trkpt lat="47.30775" lon="-1.54301">
        <ele>73</ele>
        <time>2021-06-06T13:31:12.000Z</time>
      </trkpt>
      <trkpt lat="47.3079" lon="-1.54303">
        <ele>71</ele>
        <time>2021-06-06T13:31:14.000Z</time>
      </trkpt>
      <trkpt lat="47.30806" lon="-1.54301">
        <ele>70</ele>
        <time>2021-06-06T13:31:16.000Z</time>
      </trkpt>
      <trkpt lat="47.30821" lon="-1.54297">
        <ele>69</ele>
        <time>2021-06-06T13:31:18.000Z</time>
      </trkpt>
      <trkpt lat="47.30834" lon="-1.54289">
        <ele>69</ele>
        <time>2021-06-06T13:31:20.000Z</time>
      </trkpt>
      <trkpt lat="47.30847" lon="-1.54281">
        <ele>69</ele>
        <time>2021-06-06T13:31:22.000Z</time>
      </trkpt>
      <trkpt lat="47.30861" lon="-1.54272">
        <ele>69</ele>
        <time>2021-06-06T13:31:24.000Z</time>
      </trkpt>
      <trkpt lat="47.30876" lon="-1.54269">
        <ele>68</ele>
        <time>2021-06-06T13:31:26.000Z</time>
      </trkpt>
      <trkpt lat="47.30893" lon="-1.5427">
        <ele>68</ele>
        <time>2021-06-06T13:31:28.000Z</time>
      </trkpt>
      <trkpt lat="47.3091" lon="-1.54271">
        <ele>67</ele>
        <time>2021-06-06T13:31:30.000Z</time>
      </trkpt>
      <trkpt lat="47.30927" lon="-1.54272">
        <ele>66</ele>
        <time>2021-06-06T13:31:32.000Z</time>
      </trkpt>
      <trkpt lat="47.30943" lon="-1.54278">
        <ele>66</ele>
        <time>2021-06-06T13:31:34.000Z</time>
      </trkpt>
      <trkpt lat="47.30958" lon="-1.54287">
        <ele>65</ele>
        <time>2021-06-06T13:31:36.000Z</time>
      </trkpt>
      <trkpt lat="47.30972" lon="-1.54293">
        <ele>64</ele>
        <time>2021-06-06T13:31:38.000Z</time>
      </trkpt>
      <trkpt lat="47.30988" lon="-1.54286">
        <ele>64</ele>
        <time>2021-06-06T13:31:40.000Z</time>
      </trkpt>
      <trkpt lat="47.31002" lon="-1.54281">
        <ele>64</ele>
        <time>2021-06-06T13:31:42.000Z</time>
      </trkpt>
      <trkpt lat="47.31017" lon="-1.54281">
        <ele>64</ele>
        <time>2021-06-06T13:31:44.000Z</time>
      </trkpt>
      <trkpt lat="47.31033" lon="-1.54284">
        <ele>63</ele>
        <time>2021-06-06T13:31:46.000Z</time>
      </trkpt>
      <trkpt lat="47.31048" lon="-1.54287">
        <ele>62</ele>
        <time>2021-06-06T13:31:48.000Z</time>
      </trkpt>
      <trkpt lat="47.31064" lon="-1.5429">
        <ele>62</ele>
        <time>2021-06-06T13:31:50.000Z</time>
      </trkpt>
      <trkpt lat="47.31078" lon="-1.54292">
        <ele>62</ele>
        <time>2021-06-06T13:31:52.000Z</time>
      </trkpt>
      <trkpt lat="47.31093" lon="-1.54294">
        <ele>61</ele>
        <time>2021-06-06T13:31:54.000Z</time>
      </trkpt>
      <trkpt lat="47.31108" lon="-1.54295">
        <ele>60</ele>
        <time>2021-06-06T13:31:56.000Z</time>
      </trkpt>
      <trkpt lat="47.3113" lon="-1.54293">
        <ele>59</ele>
        <time>2021-06-06T13:31:59.000Z</time>
      </trkpt>
      <trkpt lat="47.31142" lon="-1.54292">
        <ele>58</ele>
        <time>2021-06-06T13:32:01.000Z</time>
      </trkpt>
      <trkpt lat="47.31155" lon="-1.54294">
        <ele>58</ele>
        <time>2021-06-06T13:32:03.000Z</time>
      </trkpt>
      <trkpt lat="47.31169" lon="-1.54295">
        <ele>58</ele>
        <time>2021-06-06T13:32:05.000Z</time>
      </trkpt>
      <trkpt lat="47.31185" lon="-1.543">
        <ele>58</ele>
        <time>2021-06-06T13:32:07.000Z</time>
      </trkpt>
      <trkpt lat="47.312" lon="-1.54308">
        <ele>57</ele>
        <time>2021-06-06T13:32:09.000Z</time>
      </trkpt>
      <trkpt lat="47.31212" lon="-1.54321">
        <ele>57</ele>
        <time>2021-06-06T13:32:11.000Z</time>
      </trkpt>
      <trkpt lat="47.31226" lon="-1.5433">
        <ele>57</ele>
        <time>2021-06-06T13:32:13.000Z</time>
      </trkpt>
      <trkpt lat="47.3124" lon="-1.54327">
        <ele>56</ele>
        <time>2021-06-06T13:32:15.000Z</time>
      </trkpt>
      <trkpt lat="47.31252" lon="-1.54314">
        <ele>56</ele>
        <time>2021-06-06T13:32:17.000Z</time>
      </trkpt>
      <trkpt lat="47.31266" lon="-1.54308">
        <ele>56</ele>
        <time>2021-06-06T13:32:19.000Z</time>
      </trkpt>
      <trkpt lat="47.31279" lon="-1.54307">
        <ele>56</ele>
        <time>2021-06-06T13:32:21.000Z</time>
      </trkpt>
      <trkpt lat="47.31293" lon="-1.54306">
        <ele>57</ele>
        <time>2021-06-06T13:32:23.000Z</time>
      </trkpt>
      <trkpt lat="47.31307" lon="-1.54306">
        <ele>57</ele>
        <time>2021-06-06T13:32:25.000Z</time>
      </trkpt>
      <trkpt lat="47.31321" lon="-1.54307">
        <ele>57</ele>
        <time>2021-06-06T13:32:27.000Z</time>
      </trkpt>
      <trkpt lat="47.31335" lon="-1.54309">
        <ele>57</ele>
        <time>2021-06-06T13:32:29.000Z</time>
      </trkpt>
      <trkpt lat="47.31348" lon="-1.54315">
        <ele>58</ele>
        <time>2021-06-06T13:32:31.000Z</time>
      </trkpt>
      <trkpt lat="47.31362" lon="-1.54318">
        <ele>58</ele>
        <time>2021-06-06T13:32:33.000Z</time>
      </trkpt>
      <trkpt lat="47.31377" lon="-1.54319">
        <ele>58</ele>
        <time>2021-06-06T13:32:35.000Z</time>
      </trkpt>
      <trkpt lat="47.31391" lon="-1.54321">
        <ele>58</ele>
        <time>2021-06-06T13:32:37.000Z</time>
      </trkpt>
      <trkpt lat="47.31405" lon="-1.54322">
        <ele>58</ele>
        <time>2021-06-06T13:32:39.000Z</time>
      </trkpt>
      <trkpt lat="47.31418" lon="-1.54323">
        <ele>59</ele>
        <time>2021-06-06T13:32:41.000Z</time>
      </trkpt>
      <trkpt lat="47.31432" lon="-1.54327">
        <ele>59</ele>
        <time>2021-06-06T13:32:43.000Z</time>
      </trkpt>
      <trkpt lat="47.31445" lon="-1.54331">
        <ele>59</ele>
        <time>2021-06-06T13:32:45.000Z</time>
      </trkpt>
      <trkpt lat="47.31458" lon="-1.54333">
        <ele>60</ele>
        <time>2021-06-06T13:32:47.000Z</time>
      </trkpt>
      <trkpt lat="47.31471" lon="-1.54334">
        <ele>60</ele>
        <time>2021-06-06T13:32:49.000Z</time>
      </trkpt>
      <trkpt lat="47.31485" lon="-1.54336">
        <ele>60</ele>
        <time>2021-06-06T13:32:51.000Z</time>
      </trkpt>
      <trkpt lat="47.31498" lon="-1.54336">
        <ele>59</ele>
        <time>2021-06-06T13:32:53.000Z</time>
      </trkpt>
      <trkpt lat="47.3151" lon="-1.5433">
        <ele>59</ele>
        <time>2021-06-06T13:32:55.000Z</time>
      </trkpt>
      <trkpt lat="47.31522" lon="-1.54325">
        <ele>59</ele>
        <time>2021-06-06T13:32:57.000Z</time>
      </trkpt>
      <trkpt lat="47.31535" lon="-1.54325">
        <ele>60</ele>
        <time>2021-06-06T13:32:59.000Z</time>
      </trkpt>
      <trkpt lat="47.31549" lon="-1.54326">
        <ele>59</ele>
        <time>2021-06-06T13:33:01.000Z</time>
      </trkpt>
      <trkpt lat="47.31562" lon="-1.54327">
        <ele>59</ele>
        <time>2021-06-06T13:33:03.000Z</time>
      </trkpt>
      <trkpt lat="47.31574" lon="-1.54328">
        <ele>59</ele>
        <time>2021-06-06T13:33:05.000Z</time>
      </trkpt>
      <trkpt lat="47.31586" lon="-1.54328">
        <ele>58</ele>
        <time>2021-06-06T13:33:07.000Z</time>
      </trkpt>
      <trkpt lat="47.31597" lon="-1.54327">
        <ele>59</ele>
        <time>2021-06-06T13:33:09.000Z</time>
      </trkpt>
      <trkpt lat="47.31607" lon="-1.54328">
        <ele>60</ele>
        <time>2021-06-06T13:33:11.000Z</time>
      </trkpt>
      <trkpt lat="47.31616" lon="-1.54323">
        <ele>60</ele>
        <time>2021-06-06T13:33:13.000Z</time>
      </trkpt>
      <trkpt lat="47.31625" lon="-1.54318">
        <ele>59</ele>
        <time>2021-06-06T13:33:15.000Z</time>
      </trkpt>
      <trkpt lat="47.31633" lon="-1.54307">
        <ele>60</ele>
        <time>2021-06-06T13:33:17.000Z</time>
      </trkpt>
      <trkpt lat="47.31642" lon="-1.54295">
        <ele>59</ele>
        <time>2021-06-06T13:33:19.000Z</time>
      </trkpt>
      <trkpt lat="47.31653" lon="-1.54287">
        <ele>60</ele>
        <time>2021-06-06T13:33:21.000Z</time>
      </trkpt>
      <trkpt lat="47.31664" lon="-1.54279">
        <ele>60</ele>
        <time>2021-06-06T13:33:23.000Z</time>
      </trkpt>
      <trkpt lat="47.31675" lon="-1.54272">
        <ele>60</ele>
        <time>2021-06-06T13:33:25.000Z</time>
      </trkpt>
      <trkpt lat="47.31685" lon="-1.54264">
        <ele>60</ele>
        <time>2021-06-06T13:33:27.000Z</time>
      </trkpt>
      <trkpt lat="47.31695" lon="-1.54254">
        <ele>60</ele>
        <time>2021-06-06T13:33:29.000Z</time>
      </trkpt>
      <trkpt lat="47.31705" lon="-1.54245">
        <ele>60</ele>
        <time>2021-06-06T13:33:31.000Z</time>
      </trkpt>
      <trkpt lat="47.31716" lon="-1.54235">
        <ele>60</ele>
        <time>2021-06-06T13:33:33.000Z</time>
      </trkpt>
      <trkpt lat="47.31726" lon="-1.54224">
        <ele>60</ele>
        <time>2021-06-06T13:33:35.000Z</time>
      </trkpt>
      <trkpt lat="47.31735" lon="-1.54213">
        <ele>60</ele>
        <time>2021-06-06T13:33:37.000Z</time>
      </trkpt>
      <trkpt lat="47.31745" lon="-1.54203">
        <ele>60</ele>
        <time>2021-06-06T13:33:39.000Z</time>
      </trkpt>
      <trkpt lat="47.31756" lon="-1.54192">
        <ele>60</ele>
        <time>2021-06-06T13:33:41.000Z</time>
      </trkpt>
      <trkpt lat="47.31764" lon="-1.5418">
        <ele>60</ele>
        <time>2021-06-06T13:33:43.000Z</time>
      </trkpt>
      <trkpt lat="47.31772" lon="-1.54166">
        <ele>60</ele>
        <time>2021-06-06T13:33:45.000Z</time>
      </trkpt>
      <trkpt lat="47.31781" lon="-1.54151">
        <ele>60</ele>
        <time>2021-06-06T13:33:47.000Z</time>
      </trkpt>
      <trkpt lat="47.31788" lon="-1.54136">
        <ele>60</ele>
        <time>2021-06-06T13:33:49.000Z</time>
      </trkpt>
      <trkpt lat="47.31796" lon="-1.54123">
        <ele>59</ele>
        <time>2021-06-06T13:33:51.000Z</time>
      </trkpt>
      <trkpt lat="47.31803" lon="-1.54109">
        <ele>60</ele>
        <time>2021-06-06T13:33:53.000Z</time>
      </trkpt>
      <trkpt lat="47.31811" lon="-1.54094">
        <ele>60</ele>
        <time>2021-06-06T13:33:55.000Z</time>
      </trkpt>
      <trkpt lat="47.31819" lon="-1.54079">
        <ele>59</ele>
        <time>2021-06-06T13:33:57.000Z</time>
      </trkpt>
      <trkpt lat="47.31826" lon="-1.54064">
        <ele>60</ele>
        <time>2021-06-06T13:33:59.000Z</time>
      </trkpt>
      <trkpt lat="47.31833" lon="-1.54049">
        <ele>60</ele>
        <time>2021-06-06T13:34:01.000Z</time>
      </trkpt>
      <trkpt lat="47.3184" lon="-1.54035">
        <ele>60</ele>
        <time>2021-06-06T13:34:03.000Z</time>
      </trkpt>
      <trkpt lat="47.31847" lon="-1.54021">
        <ele>60</ele>
        <time>2021-06-06T13:34:05.000Z</time>
      </trkpt>
      <trkpt lat="47.31854" lon="-1.54006">
        <ele>60</ele>
        <time>2021-06-06T13:34:07.000Z</time>
      </trkpt>
      <trkpt lat="47.31861" lon="-1.53992">
        <ele>60</ele>
        <time>2021-06-06T13:34:09.000Z</time>
      </trkpt>
      <trkpt lat="47.31869" lon="-1.53978">
        <ele>60</ele>
        <time>2021-06-06T13:34:11.000Z</time>
      </trkpt>
      <trkpt lat="47.31876" lon="-1.53964">
        <ele>60</ele>
        <time>2021-06-06T13:34:13.000Z</time>
      </trkpt>
      <trkpt lat="47.31883" lon="-1.53949">
        <ele>60</ele>
        <time>2021-06-06T13:34:15.000Z</time>
      </trkpt>
      <trkpt lat="47.3189" lon="-1.53935">
        <ele>60</ele>
        <time>2021-06-06T13:34:17.000Z</time>
      </trkpt>
      <trkpt lat="47.31897" lon="-1.53921">
        <ele>60</ele>
        <time>2021-06-06T13:34:19.000Z</time>
      </trkpt>
      <trkpt lat="47.31904" lon="-1.53907">
        <ele>60</ele>
        <time>2021-06-06T13:34:21.000Z</time>
      </trkpt>
      <trkpt lat="47.31911" lon="-1.53893">
        <ele>60</ele>
        <time>2021-06-06T13:34:23.000Z</time>
      </trkpt>
      <trkpt lat="47.31918" lon="-1.53878">
        <ele>60</ele>
        <time>2021-06-06T13:34:25.000Z</time>
      </trkpt>
      <trkpt lat="47.31926" lon="-1.53864">
        <ele>60</ele>
        <time>2021-06-06T13:34:27.000Z</time>
      </trkpt>
      <trkpt lat="47.31934" lon="-1.53851">
        <ele>60</ele>
        <time>2021-06-06T13:34:29.000Z</time>
      </trkpt>
      <trkpt lat="47.31941" lon="-1.53837">
        <ele>61</ele>
        <time>2021-06-06T13:34:31.000Z</time>
      </trkpt>
      <trkpt lat="47.31948" lon="-1.53823">
        <ele>61</ele>
        <time>2021-06-06T13:34:33.000Z</time>
      </trkpt>
      <trkpt lat="47.31954" lon="-1.53808">
        <ele>61</ele>
        <time>2021-06-06T13:34:35.000Z</time>
      </trkpt>
      <trkpt lat="47.3196" lon="-1.53793">
        <ele>61</ele>
        <time>2021-06-06T13:34:37.000Z</time>
      </trkpt>
      <trkpt lat="47.31968" lon="-1.5378">
        <ele>61</ele>
        <time>2021-06-06T13:34:39.000Z</time>
      </trkpt>
      <trkpt lat="47.31978" lon="-1.53771">
        <ele>61</ele>
        <time>2021-06-06T13:34:41.000Z</time>
      </trkpt>
      <trkpt lat="47.31987" lon="-1.53761">
        <ele>62</ele>
        <time>2021-06-06T13:34:43.000Z</time>
      </trkpt>
      <trkpt lat="47.31994" lon="-1.53749">
        <ele>62</ele>
        <time>2021-06-06T13:34:45.000Z</time>
      </trkpt>
      <trkpt lat="47.32003" lon="-1.53739">
        <ele>63</ele>
        <time>2021-06-06T13:34:47.000Z</time>
      </trkpt>
      <trkpt lat="47.32014" lon="-1.53732">
        <ele>63</ele>
        <time>2021-06-06T13:34:49.000Z</time>
      </trkpt>
      <trkpt lat="47.32025" lon="-1.53724">
        <ele>64</ele>
        <time>2021-06-06T13:34:51.000Z</time>
      </trkpt>
      <trkpt lat="47.32035" lon="-1.53716">
        <ele>65</ele>
        <time>2021-06-06T13:34:53.000Z</time>
      </trkpt>
      <trkpt lat="47.32045" lon="-1.53705">
        <ele>64</ele>
        <time>2021-06-06T13:34:55.000Z</time>
      </trkpt>
      <trkpt lat="47.32053" lon="-1.53691">
        <ele>64</ele>
        <time>2021-06-06T13:34:57.000Z</time>
      </trkpt>
      <trkpt lat="47.32057" lon="-1.53676">
        <ele>64</ele>
        <time>2021-06-06T13:34:59.000Z</time>
      </trkpt>
      <trkpt lat="47.3206" lon="-1.53659">
        <ele>65</ele>
        <time>2021-06-06T13:35:01.000Z</time>
      </trkpt>
      <trkpt lat="47.32061" lon="-1.53645">
        <ele>65</ele>
        <time>2021-06-06T13:35:03.000Z</time>
      </trkpt>
      <trkpt lat="47.32065" lon="-1.53626">
        <ele>66</ele>
        <time>2021-06-06T13:35:05.000Z</time>
      </trkpt>
      <trkpt lat="47.32075" lon="-1.53614">
        <ele>66</ele>
        <time>2021-06-06T13:35:07.000Z</time>
      </trkpt>
      <trkpt lat="47.32086" lon="-1.53606">
        <ele>66</ele>
        <time>2021-06-06T13:35:09.000Z</time>
      </trkpt>
      <trkpt lat="47.32096" lon="-1.53598">
        <ele>66</ele>
        <time>2021-06-06T13:35:11.000Z</time>
      </trkpt>
      <trkpt lat="47.32107" lon="-1.53591">
        <ele>66</ele>
        <time>2021-06-06T13:35:13.000Z</time>
      </trkpt>
      <trkpt lat="47.32118" lon="-1.53588">
        <ele>66</ele>
        <time>2021-06-06T13:35:15.000Z</time>
      </trkpt>
      <trkpt lat="47.3213" lon="-1.53586">
        <ele>66</ele>
        <time>2021-06-06T13:35:17.000Z</time>
      </trkpt>
      <trkpt lat="47.32142" lon="-1.53585">
        <ele>65</ele>
        <time>2021-06-06T13:35:19.000Z</time>
      </trkpt>
      <trkpt lat="47.32155" lon="-1.53584">
        <ele>65</ele>
        <time>2021-06-06T13:35:21.000Z</time>
      </trkpt>
      <trkpt lat="47.32167" lon="-1.53585">
        <ele>64</ele>
        <time>2021-06-06T13:35:23.000Z</time>
      </trkpt>
      <trkpt lat="47.32178" lon="-1.53585">
        <ele>64</ele>
        <time>2021-06-06T13:35:25.000Z</time>
      </trkpt>
      <trkpt lat="47.32189" lon="-1.53585">
        <ele>64</ele>
        <time>2021-06-06T13:35:27.000Z</time>
      </trkpt>
      <trkpt lat="47.322" lon="-1.53585">
        <ele>64</ele>
        <time>2021-06-06T13:35:29.000Z</time>
      </trkpt>
      <trkpt lat="47.3221" lon="-1.53583">
        <ele>65</ele>
        <time>2021-06-06T13:35:31.000Z</time>
      </trkpt>
      <trkpt lat="47.3222" lon="-1.53582">
        <ele>65</ele>
        <time>2021-06-06T13:35:33.000Z</time>
      </trkpt>
      <trkpt lat="47.3223" lon="-1.53582">
        <ele>65</ele>
        <time>2021-06-06T13:35:35.000Z</time>
      </trkpt>
      <trkpt lat="47.32239" lon="-1.53577">
        <ele>65</ele>
        <time>2021-06-06T13:35:37.000Z</time>
      </trkpt>
      <trkpt lat="47.32245" lon="-1.53564">
        <ele>65</ele>
        <time>2021-06-06T13:35:39.000Z</time>
      </trkpt>
      <trkpt lat="47.32246" lon="-1.53546">
        <ele>65</ele>
        <time>2021-06-06T13:35:41.000Z</time>
      </trkpt>
      <trkpt lat="47.32246" lon="-1.5353">
        <ele>65</ele>
        <time>2021-06-06T13:35:43.000Z</time>
      </trkpt>
      <trkpt lat="47.32244" lon="-1.53517">
        <ele>65</ele>
        <time>2021-06-06T13:35:45.000Z</time>
      </trkpt>
      <trkpt lat="47.32255" lon="-1.5351">
        <ele>65</ele>
        <time>2021-06-06T13:35:49.000Z</time>
      </trkpt>
      <trkpt lat="47.32265" lon="-1.53515">
        <ele>65</ele>
        <time>2021-06-06T13:35:51.000Z</time>
      </trkpt>
      <trkpt lat="47.32274" lon="-1.5352">
        <ele>64</ele>
        <time>2021-06-06T13:35:53.000Z</time>
      </trkpt>
      <trkpt lat="47.32283" lon="-1.53526">
        <ele>65</ele>
        <time>2021-06-06T13:35:55.000Z</time>
      </trkpt>
      <trkpt lat="47.32291" lon="-1.53531">
        <ele>65</ele>
        <time>2021-06-06T13:35:57.000Z</time>
      </trkpt>
      <trkpt lat="47.32304" lon="-1.53537">
        <ele>66</ele>
        <time>2021-06-06T13:36:00.000Z</time>
      </trkpt>
      <trkpt lat="47.32312" lon="-1.53542">
        <ele>67</ele>
        <time>2021-06-06T13:36:02.000Z</time>
      </trkpt>
      <trkpt lat="47.32324" lon="-1.53549">
        <ele>69</ele>
        <time>2021-06-06T13:36:05.000Z</time>
      </trkpt>
      <trkpt lat="47.32335" lon="-1.53556">
        <ele>70</ele>
        <time>2021-06-06T13:36:08.000Z</time>
      </trkpt>
      <trkpt lat="47.32344" lon="-1.5356">
        <ele>70</ele>
        <time>2021-06-06T13:36:10.000Z</time>
      </trkpt>
      <trkpt lat="47.32353" lon="-1.53564">
        <ele>70</ele>
        <time>2021-06-06T13:36:12.000Z</time>
      </trkpt>
      <trkpt lat="47.32362" lon="-1.53568">
        <ele>70</ele>
        <time>2021-06-06T13:36:14.000Z</time>
      </trkpt>
      <trkpt lat="47.32371" lon="-1.53572">
        <ele>70</ele>
        <time>2021-06-06T13:36:16.000Z</time>
      </trkpt>
      <trkpt lat="47.32384" lon="-1.53579">
        <ele>70</ele>
        <time>2021-06-06T13:36:19.000Z</time>
      </trkpt>
      <trkpt lat="47.32392" lon="-1.53583">
        <ele>71</ele>
        <time>2021-06-06T13:36:21.000Z</time>
      </trkpt>
      <trkpt lat="47.32401" lon="-1.53588">
        <ele>71</ele>
        <time>2021-06-06T13:36:23.000Z</time>
      </trkpt>
      <trkpt lat="47.32413" lon="-1.53594">
        <ele>72</ele>
        <time>2021-06-06T13:36:26.000Z</time>
      </trkpt>
      <trkpt lat="47.32426" lon="-1.536">
        <ele>73</ele>
        <time>2021-06-06T13:36:29.000Z</time>
      </trkpt>
      <trkpt lat="47.32439" lon="-1.53606">
        <ele>73</ele>
        <time>2021-06-06T13:36:32.000Z</time>
      </trkpt>
      <trkpt lat="47.32447" lon="-1.53611">
        <ele>74</ele>
        <time>2021-06-06T13:36:34.000Z</time>
      </trkpt>
      <trkpt lat="47.3246" lon="-1.53617">
        <ele>74</ele>
        <time>2021-06-06T13:36:37.000Z</time>
      </trkpt>
      <trkpt lat="47.32472" lon="-1.53623">
        <ele>75</ele>
        <time>2021-06-06T13:36:40.000Z</time>
      </trkpt>
      <trkpt lat="47.32485" lon="-1.53628">
        <ele>76</ele>
        <time>2021-06-06T13:36:43.000Z</time>
      </trkpt>
      <trkpt lat="47.32497" lon="-1.53634">
        <ele>76</ele>
        <time>2021-06-06T13:36:46.000Z</time>
      </trkpt>
      <trkpt lat="47.32506" lon="-1.53638">
        <ele>76</ele>
        <time>2021-06-06T13:36:48.000Z</time>
      </trkpt>
      <trkpt lat="47.32518" lon="-1.53645">
        <ele>77</ele>
        <time>2021-06-06T13:36:51.000Z</time>
      </trkpt>
      <trkpt lat="47.32531" lon="-1.53651">
        <ele>77</ele>
        <time>2021-06-06T13:36:54.000Z</time>
      </trkpt>
      <trkpt lat="47.3254" lon="-1.53655">
        <ele>77</ele>
        <time>2021-06-06T13:36:56.000Z</time>
      </trkpt>
      <trkpt lat="47.32553" lon="-1.53662">
        <ele>77</ele>
        <time>2021-06-06T13:36:59.000Z</time>
      </trkpt>
      <trkpt lat="47.32561" lon="-1.53666">
        <ele>77</ele>
        <time>2021-06-06T13:37:01.000Z</time>
      </trkpt>
      <trkpt lat="47.3257" lon="-1.53671">
        <ele>77</ele>
        <time>2021-06-06T13:37:03.000Z</time>
      </trkpt>
      <trkpt lat="47.3258" lon="-1.53675">
        <ele>78</ele>
        <time>2021-06-06T13:37:05.000Z</time>
      </trkpt>
      <trkpt lat="47.32589" lon="-1.53679">
        <ele>77</ele>
        <time>2021-06-06T13:37:07.000Z</time>
      </trkpt>
      <trkpt lat="47.32599" lon="-1.53683">
        <ele>77</ele>
        <time>2021-06-06T13:37:09.000Z</time>
      </trkpt>
      <trkpt lat="47.32609" lon="-1.53687">
        <ele>77</ele>
        <time>2021-06-06T13:37:11.000Z</time>
      </trkpt>
      <trkpt lat="47.32618" lon="-1.53691">
        <ele>77</ele>
        <time>2021-06-06T13:37:13.000Z</time>
      </trkpt>
      <trkpt lat="47.32628" lon="-1.53694">
        <ele>77</ele>
        <time>2021-06-06T13:37:15.000Z</time>
      </trkpt>
      <trkpt lat="47.32638" lon="-1.53697">
        <ele>77</ele>
        <time>2021-06-06T13:37:17.000Z</time>
      </trkpt>
      <trkpt lat="47.32648" lon="-1.53698">
        <ele>77</ele>
        <time>2021-06-06T13:37:19.000Z</time>
      </trkpt>
      <trkpt lat="47.32658" lon="-1.53699">
        <ele>76</ele>
        <time>2021-06-06T13:37:21.000Z</time>
      </trkpt>
      <trkpt lat="47.32669" lon="-1.53699">
        <ele>76</ele>
        <time>2021-06-06T13:37:23.000Z</time>
      </trkpt>
      <trkpt lat="47.3268" lon="-1.53698">
        <ele>76</ele>
        <time>2021-06-06T13:37:25.000Z</time>
      </trkpt>
      <trkpt lat="47.32691" lon="-1.537">
        <ele>76</ele>
        <time>2021-06-06T13:37:27.000Z</time>
      </trkpt>
      <trkpt lat="47.32704" lon="-1.53701">
        <ele>76</ele>
        <time>2021-06-06T13:37:29.000Z</time>
      </trkpt>
      <trkpt lat="47.32716" lon="-1.53701">
        <ele>75</ele>
        <time>2021-06-06T13:37:31.000Z</time>
      </trkpt>
      <trkpt lat="47.32728" lon="-1.53701">
        <ele>75</ele>
        <time>2021-06-06T13:37:33.000Z</time>
      </trkpt>
      <trkpt lat="47.32741" lon="-1.53698">
        <ele>75</ele>
        <time>2021-06-06T13:37:35.000Z</time>
      </trkpt>
      <trkpt lat="47.32756" lon="-1.53693">
        <ele>73</ele>
        <time>2021-06-06T13:37:37.000Z</time>
      </trkpt>
      <trkpt lat="47.32772" lon="-1.53688">
        <ele>71</ele>
        <time>2021-06-06T13:37:39.000Z</time>
      </trkpt>
      <trkpt lat="47.32788" lon="-1.53686">
        <ele>70</ele>
        <time>2021-06-06T13:37:41.000Z</time>
      </trkpt>
      <trkpt lat="47.32803" lon="-1.53684">
        <ele>70</ele>
        <time>2021-06-06T13:37:43.000Z</time>
      </trkpt>
      <trkpt lat="47.32819" lon="-1.53682">
        <ele>69</ele>
        <time>2021-06-06T13:37:45.000Z</time>
      </trkpt>
      <trkpt lat="47.32834" lon="-1.5368">
        <ele>69</ele>
        <time>2021-06-06T13:37:47.000Z</time>
      </trkpt>
      <trkpt lat="47.32848" lon="-1.53679">
        <ele>68</ele>
        <time>2021-06-06T13:37:49.000Z</time>
      </trkpt>
      <trkpt lat="47.3286" lon="-1.53682">
        <ele>68</ele>
        <time>2021-06-06T13:37:51.000Z</time>
      </trkpt>
      <trkpt lat="47.32873" lon="-1.53685">
        <ele>66</ele>
        <time>2021-06-06T13:37:53.000Z</time>
      </trkpt>
      <trkpt lat="47.32888" lon="-1.53683">
        <ele>65</ele>
        <time>2021-06-06T13:37:55.000Z</time>
      </trkpt>
      <trkpt lat="47.32902" lon="-1.5368">
        <ele>64</ele>
        <time>2021-06-06T13:37:57.000Z</time>
      </trkpt>
      <trkpt lat="47.32917" lon="-1.53677">
        <ele>63</ele>
        <time>2021-06-06T13:37:59.000Z</time>
      </trkpt>
      <trkpt lat="47.32932" lon="-1.53673">
        <ele>62</ele>
        <time>2021-06-06T13:38:01.000Z</time>
      </trkpt>
      <trkpt lat="47.32946" lon="-1.53668">
        <ele>61</ele>
        <time>2021-06-06T13:38:03.000Z</time>
      </trkpt>
      <trkpt lat="47.3296" lon="-1.53664">
        <ele>61</ele>
        <time>2021-06-06T13:38:05.000Z</time>
      </trkpt>
      <trkpt lat="47.32974" lon="-1.53659">
        <ele>61</ele>
        <time>2021-06-06T13:38:07.000Z</time>
      </trkpt>
      <trkpt lat="47.32988" lon="-1.53653">
        <ele>62</ele>
        <time>2021-06-06T13:38:09.000Z</time>
      </trkpt>
      <trkpt lat="47.33002" lon="-1.53647">
        <ele>62</ele>
        <time>2021-06-06T13:38:11.000Z</time>
      </trkpt>
      <trkpt lat="47.33016" lon="-1.53643">
        <ele>63</ele>
        <time>2021-06-06T13:38:13.000Z</time>
      </trkpt>
      <trkpt lat="47.33029" lon="-1.53637">
        <ele>63</ele>
        <time>2021-06-06T13:38:15.000Z</time>
      </trkpt>
      <trkpt lat="47.33041" lon="-1.53633">
        <ele>64</ele>
        <time>2021-06-06T13:38:17.000Z</time>
      </trkpt>
      <trkpt lat="47.33053" lon="-1.53628">
        <ele>64</ele>
        <time>2021-06-06T13:38:19.000Z</time>
      </trkpt>
      <trkpt lat="47.33065" lon="-1.53624">
        <ele>64</ele>
        <time>2021-06-06T13:38:21.000Z</time>
      </trkpt>
      <trkpt lat="47.33076" lon="-1.53621">
        <ele>66</ele>
        <time>2021-06-06T13:38:23.000Z</time>
      </trkpt>
      <trkpt lat="47.33088" lon="-1.53617">
        <ele>66</ele>
        <time>2021-06-06T13:38:25.000Z</time>
      </trkpt>
      <trkpt lat="47.33099" lon="-1.53613">
        <ele>67</ele>
        <time>2021-06-06T13:38:27.000Z</time>
      </trkpt>
      <trkpt lat="47.3311" lon="-1.53609">
        <ele>67</ele>
        <time>2021-06-06T13:38:29.000Z</time>
      </trkpt>
      <trkpt lat="47.33121" lon="-1.53605">
        <ele>68</ele>
        <time>2021-06-06T13:38:31.000Z</time>
      </trkpt>
      <trkpt lat="47.33132" lon="-1.53602">
        <ele>69</ele>
        <time>2021-06-06T13:38:33.000Z</time>
      </trkpt>
      <trkpt lat="47.33143" lon="-1.536">
        <ele>69</ele>
        <time>2021-06-06T13:38:35.000Z</time>
      </trkpt>
      <trkpt lat="47.33153" lon="-1.53596">
        <ele>69</ele>
        <time>2021-06-06T13:38:37.000Z</time>
      </trkpt>
      <trkpt lat="47.33164" lon="-1.53592">
        <ele>70</ele>
        <time>2021-06-06T13:38:39.000Z</time>
      </trkpt>
      <trkpt lat="47.33175" lon="-1.53589">
        <ele>71</ele>
        <time>2021-06-06T13:38:41.000Z</time>
      </trkpt>
      <trkpt lat="47.33186" lon="-1.53585">
        <ele>71</ele>
        <time>2021-06-06T13:38:43.000Z</time>
      </trkpt>
      <trkpt lat="47.33196" lon="-1.53581">
        <ele>71</ele>
        <time>2021-06-06T13:38:45.000Z</time>
      </trkpt>
      <trkpt lat="47.33206" lon="-1.53577">
        <ele>72</ele>
        <time>2021-06-06T13:38:47.000Z</time>
      </trkpt>
      <trkpt lat="47.33216" lon="-1.53573">
        <ele>73</ele>
        <time>2021-06-06T13:38:49.000Z</time>
      </trkpt>
      <trkpt lat="47.33227" lon="-1.53569">
        <ele>73</ele>
        <time>2021-06-06T13:38:51.000Z</time>
      </trkpt>
      <trkpt lat="47.33236" lon="-1.53565">
        <ele>74</ele>
        <time>2021-06-06T13:38:53.000Z</time>
      </trkpt>
      <trkpt lat="47.33245" lon="-1.5356">
        <ele>74</ele>
        <time>2021-06-06T13:38:55.000Z</time>
      </trkpt>
      <trkpt lat="47.33255" lon="-1.5355">
        <ele>75</ele>
        <time>2021-06-06T13:38:58.000Z</time>
      </trkpt>
      <trkpt lat="47.33265" lon="-1.53545">
        <ele>75</ele>
        <time>2021-06-06T13:39:01.000Z</time>
      </trkpt>
      <trkpt lat="47.33275" lon="-1.53542">
        <ele>75</ele>
        <time>2021-06-06T13:39:03.000Z</time>
      </trkpt>
      <trkpt lat="47.33287" lon="-1.53539">
        <ele>74</ele>
        <time>2021-06-06T13:39:05.000Z</time>
      </trkpt>
      <trkpt lat="47.33298" lon="-1.53534">
        <ele>74</ele>
        <time>2021-06-06T13:39:07.000Z</time>
      </trkpt>
      <trkpt lat="47.33309" lon="-1.5353">
        <ele>74</ele>
        <time>2021-06-06T13:39:09.000Z</time>
      </trkpt>
      <trkpt lat="47.33319" lon="-1.53525">
        <ele>74</ele>
        <time>2021-06-06T13:39:11.000Z</time>
      </trkpt>
      <trkpt lat="47.33331" lon="-1.53521">
        <ele>74</ele>
        <time>2021-06-06T13:39:13.000Z</time>
      </trkpt>
      <trkpt lat="47.33342" lon="-1.53517">
        <ele>73</ele>
        <time>2021-06-06T13:39:15.000Z</time>
      </trkpt>
      <trkpt lat="47.33353" lon="-1.53512">
        <ele>73</ele>
        <time>2021-06-06T13:39:17.000Z</time>
      </trkpt>
      <trkpt lat="47.33364" lon="-1.53508">
        <ele>72</ele>
        <time>2021-06-06T13:39:19.000Z</time>
      </trkpt>
      <trkpt lat="47.33375" lon="-1.53505">
        <ele>72</ele>
        <time>2021-06-06T13:39:21.000Z</time>
      </trkpt>
      <trkpt lat="47.33388" lon="-1.53503">
        <ele>72</ele>
        <time>2021-06-06T13:39:23.000Z</time>
      </trkpt>
      <trkpt lat="47.33399" lon="-1.53502">
        <ele>72</ele>
        <time>2021-06-06T13:39:25.000Z</time>
      </trkpt>
      <trkpt lat="47.33411" lon="-1.53499">
        <ele>72</ele>
        <time>2021-06-06T13:39:27.000Z</time>
      </trkpt>
      <trkpt lat="47.33424" lon="-1.53496">
        <ele>71</ele>
        <time>2021-06-06T13:39:29.000Z</time>
      </trkpt>
      <trkpt lat="47.33436" lon="-1.53493">
        <ele>71</ele>
        <time>2021-06-06T13:39:31.000Z</time>
      </trkpt>
      <trkpt lat="47.3345" lon="-1.53489">
        <ele>71</ele>
        <time>2021-06-06T13:39:33.000Z</time>
      </trkpt>
      <trkpt lat="47.33465" lon="-1.53487">
        <ele>70</ele>
        <time>2021-06-06T13:39:35.000Z</time>
      </trkpt>
      <trkpt lat="47.33481" lon="-1.53485">
        <ele>69</ele>
        <time>2021-06-06T13:39:37.000Z</time>
      </trkpt>
      <trkpt lat="47.33492" lon="-1.53477">
        <ele>68</ele>
        <time>2021-06-06T13:39:39.000Z</time>
      </trkpt>
      <trkpt lat="47.33496" lon="-1.53459">
        <ele>68</ele>
        <time>2021-06-06T13:39:41.000Z</time>
      </trkpt>
      <trkpt lat="47.33498" lon="-1.53439">
        <ele>69</ele>
        <time>2021-06-06T13:39:43.000Z</time>
      </trkpt>
      <trkpt lat="47.335" lon="-1.5342">
        <ele>69</ele>
        <time>2021-06-06T13:39:45.000Z</time>
      </trkpt>
      <trkpt lat="47.33502" lon="-1.53401">
        <ele>69</ele>
        <time>2021-06-06T13:39:47.000Z</time>
      </trkpt>
      <trkpt lat="47.33505" lon="-1.53382">
        <ele>68</ele>
        <time>2021-06-06T13:39:49.000Z</time>
      </trkpt>
      <trkpt lat="47.33507" lon="-1.53364">
        <ele>68</ele>
        <time>2021-06-06T13:39:51.000Z</time>
      </trkpt>
      <trkpt lat="47.33509" lon="-1.53347">
        <ele>68</ele>
        <time>2021-06-06T13:39:53.000Z</time>
      </trkpt>
      <trkpt lat="47.33511" lon="-1.53331">
        <ele>68</ele>
        <time>2021-06-06T13:39:55.000Z</time>
      </trkpt>
      <trkpt lat="47.33513" lon="-1.53314">
        <ele>68</ele>
        <time>2021-06-06T13:39:57.000Z</time>
      </trkpt>
      <trkpt lat="47.33517" lon="-1.53299">
        <ele>68</ele>
        <time>2021-06-06T13:39:59.000Z</time>
      </trkpt>
      <trkpt lat="47.33525" lon="-1.53288">
        <ele>67</ele>
        <time>2021-06-06T13:40:01.000Z</time>
      </trkpt>
      <trkpt lat="47.33536" lon="-1.5328">
        <ele>68</ele>
        <time>2021-06-06T13:40:03.000Z</time>
      </trkpt>
      <trkpt lat="47.33548" lon="-1.53274">
        <ele>67</ele>
        <time>2021-06-06T13:40:05.000Z</time>
      </trkpt>
      <trkpt lat="47.3356" lon="-1.53268">
        <ele>66</ele>
        <time>2021-06-06T13:40:07.000Z</time>
      </trkpt>
      <trkpt lat="47.33573" lon="-1.53262">
        <ele>66</ele>
        <time>2021-06-06T13:40:09.000Z</time>
      </trkpt>
      <trkpt lat="47.33586" lon="-1.53255">
        <ele>65</ele>
        <time>2021-06-06T13:40:11.000Z</time>
      </trkpt>
      <trkpt lat="47.33597" lon="-1.53246">
        <ele>64</ele>
        <time>2021-06-06T13:40:13.000Z</time>
      </trkpt>
      <trkpt lat="47.33609" lon="-1.53238">
        <ele>64</ele>
        <time>2021-06-06T13:40:15.000Z</time>
      </trkpt>
      <trkpt lat="47.33621" lon="-1.53231">
        <ele>64</ele>
        <time>2021-06-06T13:40:17.000Z</time>
      </trkpt>
      <trkpt lat="47.33634" lon="-1.53224">
        <ele>64</ele>
        <time>2021-06-06T13:40:19.000Z</time>
      </trkpt>
      <trkpt lat="47.33647" lon="-1.53216">
        <ele>63</ele>
        <time>2021-06-06T13:40:21.000Z</time>
      </trkpt>
      <trkpt lat="47.33661" lon="-1.53209">
        <ele>62</ele>
        <time>2021-06-06T13:40:23.000Z</time>
      </trkpt>
      <trkpt lat="47.33675" lon="-1.53201">
        <ele>62</ele>
        <time>2021-06-06T13:40:25.000Z</time>
      </trkpt>
      <trkpt lat="47.33688" lon="-1.53195">
        <ele>61</ele>
        <time>2021-06-06T13:40:27.000Z</time>
      </trkpt>
      <trkpt lat="47.33703" lon="-1.53188">
        <ele>60</ele>
        <time>2021-06-06T13:40:29.000Z</time>
      </trkpt>
      <trkpt lat="47.33717" lon="-1.53181">
        <ele>60</ele>
        <time>2021-06-06T13:40:31.000Z</time>
      </trkpt>
      <trkpt lat="47.33732" lon="-1.53174">
        <ele>59</ele>
        <time>2021-06-06T13:40:33.000Z</time>
      </trkpt>
      <trkpt lat="47.33743" lon="-1.53167">
        <ele>58</ele>
        <time>2021-06-06T13:40:35.000Z</time>
      </trkpt>
      <trkpt lat="47.33755" lon="-1.5316">
        <ele>58</ele>
        <time>2021-06-06T13:40:37.000Z</time>
      </trkpt>
      <trkpt lat="47.33766" lon="-1.53151">
        <ele>58</ele>
        <time>2021-06-06T13:40:39.000Z</time>
      </trkpt>
      <trkpt lat="47.33774" lon="-1.53143">
        <ele>58</ele>
        <time>2021-06-06T13:40:41.000Z</time>
      </trkpt>
      <trkpt lat="47.3378" lon="-1.53132">
        <ele>58</ele>
        <time>2021-06-06T13:40:43.000Z</time>
      </trkpt>
      <trkpt lat="47.33787" lon="-1.53116">
        <ele>58</ele>
        <time>2021-06-06T13:40:46.000Z</time>
      </trkpt>
      <trkpt lat="47.33795" lon="-1.53103">
        <ele>58</ele>
        <time>2021-06-06T13:40:49.000Z</time>
      </trkpt>
      <trkpt lat="47.33802" lon="-1.53088">
        <ele>57</ele>
        <time>2021-06-06T13:40:52.000Z</time>
      </trkpt>
      <trkpt lat="47.33807" lon="-1.53076">
        <ele>57</ele>
        <time>2021-06-06T13:40:55.000Z</time>
      </trkpt>
      <trkpt lat="47.33812" lon="-1.53064">
        <ele>57</ele>
        <time>2021-06-06T13:41:27.000Z</time>
      </trkpt>
      <trkpt lat="47.33821" lon="-1.53058">
        <ele>59</ele>
        <time>2021-06-06T13:41:31.000Z</time>
      </trkpt>
      <trkpt lat="47.33832" lon="-1.5307">
        <ele>59</ele>
        <time>2021-06-06T13:41:34.000Z</time>
      </trkpt>
      <trkpt lat="47.33838" lon="-1.5308">
        <ele>59</ele>
        <time>2021-06-06T13:41:36.000Z</time>
      </trkpt>
      <trkpt lat="47.33845" lon="-1.53091">
        <ele>59</ele>
        <time>2021-06-06T13:41:38.000Z</time>
      </trkpt>
      <trkpt lat="47.33852" lon="-1.53102">
        <ele>60</ele>
        <time>2021-06-06T13:41:40.000Z</time>
      </trkpt>
      <trkpt lat="47.33858" lon="-1.53112">
        <ele>60</ele>
        <time>2021-06-06T13:41:42.000Z</time>
      </trkpt>
      <trkpt lat="47.33866" lon="-1.5312">
        <ele>60</ele>
        <time>2021-06-06T13:41:44.000Z</time>
      </trkpt>
      <trkpt lat="47.33875" lon="-1.53116">
        <ele>59</ele>
        <time>2021-06-06T13:41:47.000Z</time>
      </trkpt>
      <trkpt lat="47.33879" lon="-1.531">
        <ele>59</ele>
        <time>2021-06-06T13:41:49.000Z</time>
      </trkpt>
      <trkpt lat="47.33883" lon="-1.53086">
        <ele>59</ele>
        <time>2021-06-06T13:41:51.000Z</time>
      </trkpt>
      <trkpt lat="47.33888" lon="-1.53073">
        <ele>59</ele>
        <time>2021-06-06T13:41:53.000Z</time>
      </trkpt>
      <trkpt lat="47.33893" lon="-1.53058">
        <ele>59</ele>
        <time>2021-06-06T13:41:55.000Z</time>
      </trkpt>
      <trkpt lat="47.33899" lon="-1.53043">
        <ele>59</ele>
        <time>2021-06-06T13:41:57.000Z</time>
      </trkpt>
      <trkpt lat="47.33905" lon="-1.53027">
        <ele>59</ele>
        <time>2021-06-06T13:41:59.000Z</time>
      </trkpt>
      <trkpt lat="47.33911" lon="-1.53011">
        <ele>59</ele>
        <time>2021-06-06T13:42:01.000Z</time>
      </trkpt>
      <trkpt lat="47.33918" lon="-1.52994">
        <ele>58</ele>
        <time>2021-06-06T13:42:03.000Z</time>
      </trkpt>
      <trkpt lat="47.33924" lon="-1.52978">
        <ele>58</ele>
        <time>2021-06-06T13:42:05.000Z</time>
      </trkpt>
      <trkpt lat="47.3393" lon="-1.52962">
        <ele>58</ele>
        <time>2021-06-06T13:42:07.000Z</time>
      </trkpt>
      <trkpt lat="47.33936" lon="-1.52947">
        <ele>58</ele>
        <time>2021-06-06T13:42:09.000Z</time>
      </trkpt>
      <trkpt lat="47.33941" lon="-1.52932">
        <ele>58</ele>
        <time>2021-06-06T13:42:11.000Z</time>
      </trkpt>
      <trkpt lat="47.33947" lon="-1.52917">
        <ele>59</ele>
        <time>2021-06-06T13:42:13.000Z</time>
      </trkpt>
      <trkpt lat="47.33952" lon="-1.52903">
        <ele>58</ele>
        <time>2021-06-06T13:42:15.000Z</time>
      </trkpt>
      <trkpt lat="47.33959" lon="-1.5289">
        <ele>58</ele>
        <time>2021-06-06T13:42:17.000Z</time>
      </trkpt>
      <trkpt lat="47.33963" lon="-1.52877">
        <ele>58</ele>
        <time>2021-06-06T13:42:19.000Z</time>
      </trkpt>
      <trkpt lat="47.33968" lon="-1.52863">
        <ele>58</ele>
        <time>2021-06-06T13:42:22.000Z</time>
      </trkpt>
      <trkpt lat="47.33959" lon="-1.52851">
        <ele>58</ele>
        <time>2021-06-06T13:42:25.000Z</time>
      </trkpt>
      <trkpt lat="47.33949" lon="-1.52844">
        <ele>59</ele>
        <time>2021-06-06T13:42:27.000Z</time>
      </trkpt>
      <trkpt lat="47.33938" lon="-1.52835">
        <ele>59</ele>
        <time>2021-06-06T13:42:29.000Z</time>
      </trkpt>
      <trkpt lat="47.33928" lon="-1.52827">
        <ele>59</ele>
        <time>2021-06-06T13:42:31.000Z</time>
      </trkpt>
      <trkpt lat="47.33916" lon="-1.52818">
        <ele>59</ele>
        <time>2021-06-06T13:42:33.000Z</time>
      </trkpt>
      <trkpt lat="47.33907" lon="-1.52805">
        <ele>59</ele>
        <time>2021-06-06T13:42:35.000Z</time>
      </trkpt>
      <trkpt lat="47.33905" lon="-1.52789">
        <ele>59</ele>
        <time>2021-06-06T13:42:37.000Z</time>
      </trkpt>
      <trkpt lat="47.33908" lon="-1.52774">
        <ele>59</ele>
        <time>2021-06-06T13:42:39.000Z</time>
      </trkpt>
      <trkpt lat="47.33911" lon="-1.52758">
        <ele>59</ele>
        <time>2021-06-06T13:42:41.000Z</time>
      </trkpt>
      <trkpt lat="47.33914" lon="-1.52743">
        <ele>60</ele>
        <time>2021-06-06T13:42:43.000Z</time>
      </trkpt>
      <trkpt lat="47.33916" lon="-1.52724">
        <ele>61</ele>
        <time>2021-06-06T13:42:45.000Z</time>
      </trkpt>
      <trkpt lat="47.33918" lon="-1.52706">
        <ele>61</ele>
        <time>2021-06-06T13:42:47.000Z</time>
      </trkpt>
      <trkpt lat="47.33921" lon="-1.52688">
        <ele>61</ele>
        <time>2021-06-06T13:42:49.000Z</time>
      </trkpt>
      <trkpt lat="47.33925" lon="-1.52672">
        <ele>61</ele>
        <time>2021-06-06T13:42:51.000Z</time>
      </trkpt>
      <trkpt lat="47.33927" lon="-1.52656">
        <ele>61</ele>
        <time>2021-06-06T13:42:53.000Z</time>
      </trkpt>
      <trkpt lat="47.3393" lon="-1.5264">
        <ele>61</ele>
        <time>2021-06-06T13:42:55.000Z</time>
      </trkpt>
      <trkpt lat="47.33933" lon="-1.52623">
        <ele>62</ele>
        <time>2021-06-06T13:42:57.000Z</time>
      </trkpt>
      <trkpt lat="47.33929" lon="-1.52606">
        <ele>62</ele>
        <time>2021-06-06T13:43:00.000Z</time>
      </trkpt>
      <trkpt lat="47.33918" lon="-1.52602">
        <ele>62</ele>
        <time>2021-06-06T13:43:02.000Z</time>
      </trkpt>
      <trkpt lat="47.33908" lon="-1.52597">
        <ele>62</ele>
        <time>2021-06-06T13:43:04.000Z</time>
      </trkpt>
      <trkpt lat="47.33898" lon="-1.52593">
        <ele>63</ele>
        <time>2021-06-06T13:43:06.000Z</time>
      </trkpt>
      <trkpt lat="47.33887" lon="-1.52589">
        <ele>62</ele>
        <time>2021-06-06T13:43:08.000Z</time>
      </trkpt>
      <trkpt lat="47.33876" lon="-1.52585">
        <ele>62</ele>
        <time>2021-06-06T13:43:10.000Z</time>
      </trkpt>
      <trkpt lat="47.33865" lon="-1.5258">
        <ele>62</ele>
        <time>2021-06-06T13:43:12.000Z</time>
      </trkpt>
      <trkpt lat="47.33854" lon="-1.52575">
        <ele>61</ele>
        <time>2021-06-06T13:43:14.000Z</time>
      </trkpt>
      <trkpt lat="47.33844" lon="-1.52571">
        <ele>62</ele>
        <time>2021-06-06T13:43:16.000Z</time>
      </trkpt>
      <trkpt lat="47.33834" lon="-1.52567">
        <ele>62</ele>
        <time>2021-06-06T13:43:18.000Z</time>
      </trkpt>
      <trkpt lat="47.33823" lon="-1.52563">
        <ele>63</ele>
        <time>2021-06-06T13:43:20.000Z</time>
      </trkpt>
      <trkpt lat="47.33812" lon="-1.5256">
        <ele>63</ele>
        <time>2021-06-06T13:43:22.000Z</time>
      </trkpt>
      <trkpt lat="47.33801" lon="-1.52555">
        <ele>64</ele>
        <time>2021-06-06T13:43:24.000Z</time>
      </trkpt>
      <trkpt lat="47.33791" lon="-1.52551">
        <ele>65</ele>
        <time>2021-06-06T13:43:26.000Z</time>
      </trkpt>
      <trkpt lat="47.3378" lon="-1.52545">
        <ele>65</ele>
        <time>2021-06-06T13:43:28.000Z</time>
      </trkpt>
      <trkpt lat="47.3377" lon="-1.5254">
        <ele>63</ele>
        <time>2021-06-06T13:43:30.000Z</time>
      </trkpt>
      <trkpt lat="47.33759" lon="-1.52534">
        <ele>62</ele>
        <time>2021-06-06T13:43:32.000Z</time>
      </trkpt>
      <trkpt lat="47.33746" lon="-1.5253">
        <ele>61</ele>
        <time>2021-06-06T13:43:34.000Z</time>
      </trkpt>
      <trkpt lat="47.33733" lon="-1.52525">
        <ele>61</ele>
        <time>2021-06-06T13:43:36.000Z</time>
      </trkpt>
      <trkpt lat="47.3372" lon="-1.52518">
        <ele>61</ele>
        <time>2021-06-06T13:43:38.000Z</time>
      </trkpt>
      <trkpt lat="47.33709" lon="-1.52509">
        <ele>60</ele>
        <time>2021-06-06T13:43:40.000Z</time>
      </trkpt>
      <trkpt lat="47.337" lon="-1.52498">
        <ele>61</ele>
        <time>2021-06-06T13:43:42.000Z</time>
      </trkpt>
      <trkpt lat="47.33692" lon="-1.52485">
        <ele>61</ele>
        <time>2021-06-06T13:43:44.000Z</time>
      </trkpt>
      <trkpt lat="47.33693" lon="-1.52471">
        <ele>61</ele>
        <time>2021-06-06T13:43:46.000Z</time>
      </trkpt>
      <trkpt lat="47.33699" lon="-1.52457">
        <ele>60</ele>
        <time>2021-06-06T13:43:48.000Z</time>
      </trkpt>
      <trkpt lat="47.33702" lon="-1.52441">
        <ele>61</ele>
        <time>2021-06-06T13:43:50.000Z</time>
      </trkpt>
      <trkpt lat="47.33705" lon="-1.52427">
        <ele>61</ele>
        <time>2021-06-06T13:43:52.000Z</time>
      </trkpt>
      <trkpt lat="47.33708" lon="-1.52414">
        <ele>62</ele>
        <time>2021-06-06T13:43:54.000Z</time>
      </trkpt>
      <trkpt lat="47.3371" lon="-1.524">
        <ele>62</ele>
        <time>2021-06-06T13:43:56.000Z</time>
      </trkpt>
      <trkpt lat="47.33714" lon="-1.52381">
        <ele>62</ele>
        <time>2021-06-06T13:43:59.000Z</time>
      </trkpt>
      <trkpt lat="47.33716" lon="-1.52368">
        <ele>63</ele>
        <time>2021-06-06T13:44:01.000Z</time>
      </trkpt>
      <trkpt lat="47.33719" lon="-1.52355">
        <ele>64</ele>
        <time>2021-06-06T13:44:03.000Z</time>
      </trkpt>
      <trkpt lat="47.33722" lon="-1.52341">
        <ele>64</ele>
        <time>2021-06-06T13:44:05.000Z</time>
      </trkpt>
      <trkpt lat="47.33724" lon="-1.52328">
        <ele>64</ele>
        <time>2021-06-06T13:44:07.000Z</time>
      </trkpt>
      <trkpt lat="47.33726" lon="-1.52314">
        <ele>64</ele>
        <time>2021-06-06T13:44:09.000Z</time>
      </trkpt>
      <trkpt lat="47.33729" lon="-1.523">
        <ele>65</ele>
        <time>2021-06-06T13:44:11.000Z</time>
      </trkpt>
      <trkpt lat="47.33732" lon="-1.52286">
        <ele>65</ele>
        <time>2021-06-06T13:44:13.000Z</time>
      </trkpt>
      <trkpt lat="47.33735" lon="-1.52271">
        <ele>65</ele>
        <time>2021-06-06T13:44:15.000Z</time>
      </trkpt>
      <trkpt lat="47.33737" lon="-1.52256">
        <ele>66</ele>
        <time>2021-06-06T13:44:17.000Z</time>
      </trkpt>
      <trkpt lat="47.3374" lon="-1.52241">
        <ele>66</ele>
        <time>2021-06-06T13:44:19.000Z</time>
      </trkpt>
      <trkpt lat="47.33743" lon="-1.52226">
        <ele>66</ele>
        <time>2021-06-06T13:44:21.000Z</time>
      </trkpt>
      <trkpt lat="47.33746" lon="-1.5221">
        <ele>67</ele>
        <time>2021-06-06T13:44:23.000Z</time>
      </trkpt>
      <trkpt lat="47.33748" lon="-1.52194">
        <ele>67</ele>
        <time>2021-06-06T13:44:25.000Z</time>
      </trkpt>
      <trkpt lat="47.33749" lon="-1.52178">
        <ele>66</ele>
        <time>2021-06-06T13:44:27.000Z</time>
      </trkpt>
      <trkpt lat="47.3375" lon="-1.52161">
        <ele>67</ele>
        <time>2021-06-06T13:44:29.000Z</time>
      </trkpt>
      <trkpt lat="47.33751" lon="-1.52145">
        <ele>67</ele>
        <time>2021-06-06T13:44:31.000Z</time>
      </trkpt>
      <trkpt lat="47.33752" lon="-1.52128">
        <ele>67</ele>
        <time>2021-06-06T13:44:33.000Z</time>
      </trkpt>
      <trkpt lat="47.33754" lon="-1.52113">
        <ele>68</ele>
        <time>2021-06-06T13:44:35.000Z</time>
      </trkpt>
      <trkpt lat="47.33756" lon="-1.52098">
        <ele>68</ele>
        <time>2021-06-06T13:44:37.000Z</time>
      </trkpt>
      <trkpt lat="47.33757" lon="-1.52084">
        <ele>68</ele>
        <time>2021-06-06T13:44:39.000Z</time>
      </trkpt>
      <trkpt lat="47.33759" lon="-1.52069">
        <ele>69</ele>
        <time>2021-06-06T13:44:41.000Z</time>
      </trkpt>
      <trkpt lat="47.33759" lon="-1.52055">
        <ele>69</ele>
        <time>2021-06-06T13:44:43.000Z</time>
      </trkpt>
      <trkpt lat="47.33757" lon="-1.5204">
        <ele>70</ele>
        <time>2021-06-06T13:44:45.000Z</time>
      </trkpt>
      <trkpt lat="47.33758" lon="-1.52025">
        <ele>70</ele>
        <time>2021-06-06T13:44:47.000Z</time>
      </trkpt>
      <trkpt lat="47.33756" lon="-1.5201">
        <ele>71</ele>
        <time>2021-06-06T13:44:49.000Z</time>
      </trkpt>
      <trkpt lat="47.33754" lon="-1.51995">
        <ele>71</ele>
        <time>2021-06-06T13:44:51.000Z</time>
      </trkpt>
      <trkpt lat="47.33752" lon="-1.51981">
        <ele>71</ele>
        <time>2021-06-06T13:44:53.000Z</time>
      </trkpt>
      <trkpt lat="47.3375" lon="-1.51966">
        <ele>72</ele>
        <time>2021-06-06T13:44:55.000Z</time>
      </trkpt>
      <trkpt lat="47.33748" lon="-1.51953">
        <ele>72</ele>
        <time>2021-06-06T13:44:57.000Z</time>
      </trkpt>
      <trkpt lat="47.33747" lon="-1.5194">
        <ele>73</ele>
        <time>2021-06-06T13:44:59.000Z</time>
      </trkpt>
      <trkpt lat="47.33746" lon="-1.51926">
        <ele>73</ele>
        <time>2021-06-06T13:45:01.000Z</time>
      </trkpt>
      <trkpt lat="47.33745" lon="-1.51912">
        <ele>73</ele>
        <time>2021-06-06T13:45:03.000Z</time>
      </trkpt>
      <trkpt lat="47.33743" lon="-1.51898">
        <ele>74</ele>
        <time>2021-06-06T13:45:05.000Z</time>
      </trkpt>
      <trkpt lat="47.33743" lon="-1.51883">
        <ele>74</ele>
        <time>2021-06-06T13:45:07.000Z</time>
      </trkpt>
      <trkpt lat="47.33742" lon="-1.51869">
        <ele>75</ele>
        <time>2021-06-06T13:45:09.000Z</time>
      </trkpt>
      <trkpt lat="47.33742" lon="-1.51855">
        <ele>75</ele>
        <time>2021-06-06T13:45:11.000Z</time>
      </trkpt>
      <trkpt lat="47.33741" lon="-1.5184">
        <ele>75</ele>
        <time>2021-06-06T13:45:13.000Z</time>
      </trkpt>
      <trkpt lat="47.33741" lon="-1.51825">
        <ele>75</ele>
        <time>2021-06-06T13:45:15.000Z</time>
      </trkpt>
      <trkpt lat="47.3374" lon="-1.51811">
        <ele>75</ele>
        <time>2021-06-06T13:45:17.000Z</time>
      </trkpt>
      <trkpt lat="47.33739" lon="-1.51796">
        <ele>76</ele>
        <time>2021-06-06T13:45:19.000Z</time>
      </trkpt>
      <trkpt lat="47.33739" lon="-1.51782">
        <ele>76</ele>
        <time>2021-06-06T13:45:21.000Z</time>
      </trkpt>
      <trkpt lat="47.33738" lon="-1.51769">
        <ele>76</ele>
        <time>2021-06-06T13:45:23.000Z</time>
      </trkpt>
      <trkpt lat="47.33737" lon="-1.51754">
        <ele>76</ele>
        <time>2021-06-06T13:45:25.000Z</time>
      </trkpt>
      <trkpt lat="47.33736" lon="-1.51739">
        <ele>76</ele>
        <time>2021-06-06T13:45:27.000Z</time>
      </trkpt>
      <trkpt lat="47.33735" lon="-1.51725">
        <ele>76</ele>
        <time>2021-06-06T13:45:29.000Z</time>
      </trkpt>
      <trkpt lat="47.33734" lon="-1.51709">
        <ele>76</ele>
        <time>2021-06-06T13:45:31.000Z</time>
      </trkpt>
      <trkpt lat="47.33733" lon="-1.51695">
        <ele>76</ele>
        <time>2021-06-06T13:45:33.000Z</time>
      </trkpt>
      <trkpt lat="47.33731" lon="-1.5168">
        <ele>76</ele>
        <time>2021-06-06T13:45:35.000Z</time>
      </trkpt>
      <trkpt lat="47.33729" lon="-1.51666">
        <ele>75</ele>
        <time>2021-06-06T13:45:37.000Z</time>
      </trkpt>
      <trkpt lat="47.33726" lon="-1.51651">
        <ele>75</ele>
        <time>2021-06-06T13:45:39.000Z</time>
      </trkpt>
      <trkpt lat="47.33723" lon="-1.51635">
        <ele>74</ele>
        <time>2021-06-06T13:45:41.000Z</time>
      </trkpt>
      <trkpt lat="47.33718" lon="-1.51621">
        <ele>74</ele>
        <time>2021-06-06T13:45:43.000Z</time>
      </trkpt>
      <trkpt lat="47.33713" lon="-1.51607">
        <ele>74</ele>
        <time>2021-06-06T13:45:45.000Z</time>
      </trkpt>
      <trkpt lat="47.3371" lon="-1.51591">
        <ele>74</ele>
        <time>2021-06-06T13:45:47.000Z</time>
      </trkpt>
      <trkpt lat="47.33706" lon="-1.51573">
        <ele>73</ele>
        <time>2021-06-06T13:45:49.000Z</time>
      </trkpt>
      <trkpt lat="47.33702" lon="-1.51555">
        <ele>73</ele>
        <time>2021-06-06T13:45:51.000Z</time>
      </trkpt>
      <trkpt lat="47.33697" lon="-1.51536">
        <ele>72</ele>
        <time>2021-06-06T13:45:53.000Z</time>
      </trkpt>
      <trkpt lat="47.33694" lon="-1.51515">
        <ele>71</ele>
        <time>2021-06-06T13:45:55.000Z</time>
      </trkpt>
      <trkpt lat="47.33692" lon="-1.51493">
        <ele>70</ele>
        <time>2021-06-06T13:45:57.000Z</time>
      </trkpt>
      <trkpt lat="47.33691" lon="-1.51472">
        <ele>70</ele>
        <time>2021-06-06T13:45:59.000Z</time>
      </trkpt>
      <trkpt lat="47.3369" lon="-1.5145">
        <ele>69</ele>
        <time>2021-06-06T13:46:01.000Z</time>
      </trkpt>
      <trkpt lat="47.33687" lon="-1.51428">
        <ele>69</ele>
        <time>2021-06-06T13:46:03.000Z</time>
      </trkpt>
      <trkpt lat="47.33683" lon="-1.51407">
        <ele>68</ele>
        <time>2021-06-06T13:46:05.000Z</time>
      </trkpt>
      <trkpt lat="47.33678" lon="-1.51385">
        <ele>67</ele>
        <time>2021-06-06T13:46:07.000Z</time>
      </trkpt>
      <trkpt lat="47.33673" lon="-1.51362">
        <ele>67</ele>
        <time>2021-06-06T13:46:09.000Z</time>
      </trkpt>
      <trkpt lat="47.33668" lon="-1.51341">
        <ele>67</ele>
        <time>2021-06-06T13:46:11.000Z</time>
      </trkpt>
      <trkpt lat="47.33663" lon="-1.51319">
        <ele>66</ele>
        <time>2021-06-06T13:46:13.000Z</time>
      </trkpt>
      <trkpt lat="47.33659" lon="-1.51296">
        <ele>66</ele>
        <time>2021-06-06T13:46:15.000Z</time>
      </trkpt>
      <trkpt lat="47.33656" lon="-1.51275">
        <ele>66</ele>
        <time>2021-06-06T13:46:17.000Z</time>
      </trkpt>
      <trkpt lat="47.33654" lon="-1.51255">
        <ele>65</ele>
        <time>2021-06-06T13:46:19.000Z</time>
      </trkpt>
      <trkpt lat="47.33653" lon="-1.51233">
        <ele>65</ele>
        <time>2021-06-06T13:46:21.000Z</time>
      </trkpt>
      <trkpt lat="47.33651" lon="-1.51212">
        <ele>64</ele>
        <time>2021-06-06T13:46:23.000Z</time>
      </trkpt>
      <trkpt lat="47.33651" lon="-1.51191">
        <ele>64</ele>
        <time>2021-06-06T13:46:25.000Z</time>
      </trkpt>
      <trkpt lat="47.33651" lon="-1.5117">
        <ele>64</ele>
        <time>2021-06-06T13:46:27.000Z</time>
      </trkpt>
      <trkpt lat="47.3365" lon="-1.51149">
        <ele>64</ele>
        <time>2021-06-06T13:46:29.000Z</time>
      </trkpt>
      <trkpt lat="47.33649" lon="-1.51128">
        <ele>64</ele>
        <time>2021-06-06T13:46:31.000Z</time>
      </trkpt>
      <trkpt lat="47.33649" lon="-1.51109">
        <ele>64</ele>
        <time>2021-06-06T13:46:33.000Z</time>
      </trkpt>
      <trkpt lat="47.33649" lon="-1.51088">
        <ele>65</ele>
        <time>2021-06-06T13:46:35.000Z</time>
      </trkpt>
      <trkpt lat="47.33654" lon="-1.51069">
        <ele>65</ele>
        <time>2021-06-06T13:46:37.000Z</time>
      </trkpt>
      <trkpt lat="47.3366" lon="-1.51052">
        <ele>65</ele>
        <time>2021-06-06T13:46:39.000Z</time>
      </trkpt>
      <trkpt lat="47.33666" lon="-1.51033">
        <ele>65</ele>
        <time>2021-06-06T13:46:41.000Z</time>
      </trkpt>
      <trkpt lat="47.3367" lon="-1.51014">
        <ele>64</ele>
        <time>2021-06-06T13:46:43.000Z</time>
      </trkpt>
      <trkpt lat="47.33674" lon="-1.50994">
        <ele>64</ele>
        <time>2021-06-06T13:46:45.000Z</time>
      </trkpt>
      <trkpt lat="47.33677" lon="-1.50975">
        <ele>64</ele>
        <time>2021-06-06T13:46:47.000Z</time>
      </trkpt>
      <trkpt lat="47.33681" lon="-1.50955">
        <ele>64</ele>
        <time>2021-06-06T13:46:49.000Z</time>
      </trkpt>
      <trkpt lat="47.33684" lon="-1.50935">
        <ele>64</ele>
        <time>2021-06-06T13:46:51.000Z</time>
      </trkpt>
      <trkpt lat="47.33688" lon="-1.50915">
        <ele>64</ele>
        <time>2021-06-06T13:46:53.000Z</time>
      </trkpt>
      <trkpt lat="47.33692" lon="-1.50894">
        <ele>64</ele>
        <time>2021-06-06T13:46:55.000Z</time>
      </trkpt>
      <trkpt lat="47.33696" lon="-1.50874">
        <ele>63</ele>
        <time>2021-06-06T13:46:57.000Z</time>
      </trkpt>
      <trkpt lat="47.337" lon="-1.50854">
        <ele>62</ele>
        <time>2021-06-06T13:46:59.000Z</time>
      </trkpt>
      <trkpt lat="47.33705" lon="-1.50833">
        <ele>61</ele>
        <time>2021-06-06T13:47:01.000Z</time>
      </trkpt>
      <trkpt lat="47.33709" lon="-1.50813">
        <ele>61</ele>
        <time>2021-06-06T13:47:03.000Z</time>
      </trkpt>
      <trkpt lat="47.33713" lon="-1.50792">
        <ele>60</ele>
        <time>2021-06-06T13:47:05.000Z</time>
      </trkpt>
      <trkpt lat="47.33717" lon="-1.50771">
        <ele>60</ele>
        <time>2021-06-06T13:47:07.000Z</time>
      </trkpt>
      <trkpt lat="47.33721" lon="-1.50751">
        <ele>60</ele>
        <time>2021-06-06T13:47:09.000Z</time>
      </trkpt>
      <trkpt lat="47.33724" lon="-1.50731">
        <ele>60</ele>
        <time>2021-06-06T13:47:11.000Z</time>
      </trkpt>
      <trkpt lat="47.33728" lon="-1.50711">
        <ele>60</ele>
        <time>2021-06-06T13:47:13.000Z</time>
      </trkpt>
      <trkpt lat="47.33732" lon="-1.50692">
        <ele>60</ele>
        <time>2021-06-06T13:47:15.000Z</time>
      </trkpt>
      <trkpt lat="47.33736" lon="-1.50672">
        <ele>60</ele>
        <time>2021-06-06T13:47:17.000Z</time>
      </trkpt>
      <trkpt lat="47.33739" lon="-1.50652">
        <ele>60</ele>
        <time>2021-06-06T13:47:19.000Z</time>
      </trkpt>
      <trkpt lat="47.33743" lon="-1.50633">
        <ele>60</ele>
        <time>2021-06-06T13:47:21.000Z</time>
      </trkpt>
      <trkpt lat="47.33746" lon="-1.50612">
        <ele>60</ele>
        <time>2021-06-06T13:47:23.000Z</time>
      </trkpt>
      <trkpt lat="47.3375" lon="-1.50592">
        <ele>59</ele>
        <time>2021-06-06T13:47:25.000Z</time>
      </trkpt>
      <trkpt lat="47.33754" lon="-1.50573">
        <ele>59</ele>
        <time>2021-06-06T13:47:27.000Z</time>
      </trkpt>
      <trkpt lat="47.33758" lon="-1.50553">
        <ele>59</ele>
        <time>2021-06-06T13:47:29.000Z</time>
      </trkpt>
      <trkpt lat="47.33762" lon="-1.50533">
        <ele>59</ele>
        <time>2021-06-06T13:47:31.000Z</time>
      </trkpt>
      <trkpt lat="47.33765" lon="-1.50514">
        <ele>59</ele>
        <time>2021-06-06T13:47:33.000Z</time>
      </trkpt>
      <trkpt lat="47.33769" lon="-1.50494">
        <ele>59</ele>
        <time>2021-06-06T13:47:35.000Z</time>
      </trkpt>
      <trkpt lat="47.33774" lon="-1.50475">
        <ele>59</ele>
        <time>2021-06-06T13:47:37.000Z</time>
      </trkpt>
      <trkpt lat="47.33777" lon="-1.50455">
        <ele>60</ele>
        <time>2021-06-06T13:47:39.000Z</time>
      </trkpt>
      <trkpt lat="47.33781" lon="-1.50436">
        <ele>60</ele>
        <time>2021-06-06T13:47:41.000Z</time>
      </trkpt>
      <trkpt lat="47.33784" lon="-1.50416">
        <ele>60</ele>
        <time>2021-06-06T13:47:43.000Z</time>
      </trkpt>
      <trkpt lat="47.33787" lon="-1.50397">
        <ele>60</ele>
        <time>2021-06-06T13:47:45.000Z</time>
      </trkpt>
      <trkpt lat="47.33788" lon="-1.50376">
        <ele>60</ele>
        <time>2021-06-06T13:47:47.000Z</time>
      </trkpt>
      <trkpt lat="47.33786" lon="-1.50356">
        <ele>60</ele>
        <time>2021-06-06T13:47:49.000Z</time>
      </trkpt>
      <trkpt lat="47.33783" lon="-1.50336">
        <ele>60</ele>
        <time>2021-06-06T13:47:51.000Z</time>
      </trkpt>
      <trkpt lat="47.3378" lon="-1.50315">
        <ele>60</ele>
        <time>2021-06-06T13:47:53.000Z</time>
      </trkpt>
      <trkpt lat="47.33778" lon="-1.50295">
        <ele>60</ele>
        <time>2021-06-06T13:47:55.000Z</time>
      </trkpt>
      <trkpt lat="47.33775" lon="-1.50275">
        <ele>61</ele>
        <time>2021-06-06T13:47:57.000Z</time>
      </trkpt>
      <trkpt lat="47.33772" lon="-1.50256">
        <ele>61</ele>
        <time>2021-06-06T13:47:59.000Z</time>
      </trkpt>
      <trkpt lat="47.33769" lon="-1.50236">
        <ele>61</ele>
        <time>2021-06-06T13:48:01.000Z</time>
      </trkpt>
      <trkpt lat="47.33766" lon="-1.50217">
        <ele>61</ele>
        <time>2021-06-06T13:48:03.000Z</time>
      </trkpt>
      <trkpt lat="47.33763" lon="-1.50196">
        <ele>61</ele>
        <time>2021-06-06T13:48:05.000Z</time>
      </trkpt>
      <trkpt lat="47.33761" lon="-1.50176">
        <ele>61</ele>
        <time>2021-06-06T13:48:07.000Z</time>
      </trkpt>
      <trkpt lat="47.33757" lon="-1.50156">
        <ele>62</ele>
        <time>2021-06-06T13:48:09.000Z</time>
      </trkpt>
      <trkpt lat="47.33755" lon="-1.50137">
        <ele>62</ele>
        <time>2021-06-06T13:48:11.000Z</time>
      </trkpt>
      <trkpt lat="47.33753" lon="-1.50119">
        <ele>63</ele>
        <time>2021-06-06T13:48:13.000Z</time>
      </trkpt>
      <trkpt lat="47.33751" lon="-1.501">
        <ele>64</ele>
        <time>2021-06-06T13:48:15.000Z</time>
      </trkpt>
      <trkpt lat="47.3375" lon="-1.50079">
        <ele>65</ele>
        <time>2021-06-06T13:48:17.000Z</time>
      </trkpt>
      <trkpt lat="47.33749" lon="-1.50058">
        <ele>66</ele>
        <time>2021-06-06T13:48:19.000Z</time>
      </trkpt>
      <trkpt lat="47.33746" lon="-1.50037">
        <ele>66</ele>
        <time>2021-06-06T13:48:21.000Z</time>
      </trkpt>
      <trkpt lat="47.33743" lon="-1.50017">
        <ele>66</ele>
        <time>2021-06-06T13:48:23.000Z</time>
      </trkpt>
      <trkpt lat="47.33738" lon="-1.49999">
        <ele>66</ele>
        <time>2021-06-06T13:48:25.000Z</time>
      </trkpt>
      <trkpt lat="47.33733" lon="-1.4998">
        <ele>65</ele>
        <time>2021-06-06T13:48:27.000Z</time>
      </trkpt>
      <trkpt lat="47.33728" lon="-1.49963">
        <ele>65</ele>
        <time>2021-06-06T13:48:29.000Z</time>
      </trkpt>
      <trkpt lat="47.33722" lon="-1.49944">
        <ele>64</ele>
        <time>2021-06-06T13:48:31.000Z</time>
      </trkpt>
      <trkpt lat="47.33712" lon="-1.49927">
        <ele>63</ele>
        <time>2021-06-06T13:48:33.000Z</time>
      </trkpt>
      <trkpt lat="47.337" lon="-1.49913">
        <ele>62</ele>
        <time>2021-06-06T13:48:35.000Z</time>
      </trkpt>
      <trkpt lat="47.33687" lon="-1.49898">
        <ele>60</ele>
        <time>2021-06-06T13:48:37.000Z</time>
      </trkpt>
      <trkpt lat="47.33674" lon="-1.49879">
        <ele>59</ele>
        <time>2021-06-06T13:48:39.000Z</time>
      </trkpt>
      <trkpt lat="47.33669" lon="-1.49868">
        <ele>58</ele>
        <time>2021-06-06T13:48:40.000Z</time>
      </trkpt>
      <trkpt lat="47.33664" lon="-1.49856">
        <ele>58</ele>
        <time>2021-06-06T13:48:41.000Z</time>
      </trkpt>
      <trkpt lat="47.3366" lon="-1.49844">
        <ele>57</ele>
        <time>2021-06-06T13:48:42.000Z</time>
      </trkpt>
      <trkpt lat="47.33656" lon="-1.49831">
        <ele>57</ele>
        <time>2021-06-06T13:48:43.000Z</time>
      </trkpt>
      <trkpt lat="47.33654" lon="-1.49818">
        <ele>57</ele>
        <time>2021-06-06T13:48:44.000Z</time>
      </trkpt>
      <trkpt lat="47.33652" lon="-1.49804">
        <ele>57</ele>
        <time>2021-06-06T13:48:45.000Z</time>
      </trkpt>
      <trkpt lat="47.33651" lon="-1.49791">
        <ele>57</ele>
        <time>2021-06-06T13:48:46.000Z</time>
      </trkpt>
      <trkpt lat="47.33649" lon="-1.49766">
        <ele>56</ele>
        <time>2021-06-06T13:48:48.000Z</time>
      </trkpt>
      <trkpt lat="47.33646" lon="-1.49741">
        <ele>56</ele>
        <time>2021-06-06T13:48:50.000Z</time>
      </trkpt>
      <trkpt lat="47.33643" lon="-1.49716">
        <ele>57</ele>
        <time>2021-06-06T13:48:52.000Z</time>
      </trkpt>
      <trkpt lat="47.33639" lon="-1.49693">
        <ele>57</ele>
        <time>2021-06-06T13:48:54.000Z</time>
      </trkpt>
      <trkpt lat="47.33637" lon="-1.4967">
        <ele>57</ele>
        <time>2021-06-06T13:48:56.000Z</time>
      </trkpt>
      <trkpt lat="47.33635" lon="-1.49647">
        <ele>57</ele>
        <time>2021-06-06T13:48:58.000Z</time>
      </trkpt>
      <trkpt lat="47.33636" lon="-1.49626">
        <ele>58</ele>
        <time>2021-06-06T13:49:00.000Z</time>
      </trkpt>
      <trkpt lat="47.33637" lon="-1.49602">
        <ele>58</ele>
        <time>2021-06-06T13:49:02.000Z</time>
      </trkpt>
      <trkpt lat="47.33638" lon="-1.49581">
        <ele>58</ele>
        <time>2021-06-06T13:49:04.000Z</time>
      </trkpt>
      <trkpt lat="47.33636" lon="-1.49559">
        <ele>58</ele>
        <time>2021-06-06T13:49:06.000Z</time>
      </trkpt>
      <trkpt lat="47.33633" lon="-1.49539">
        <ele>58</ele>
        <time>2021-06-06T13:49:08.000Z</time>
      </trkpt>
      <trkpt lat="47.33629" lon="-1.49519">
        <ele>59</ele>
        <time>2021-06-06T13:49:10.000Z</time>
      </trkpt>
      <trkpt lat="47.33624" lon="-1.49499">
        <ele>59</ele>
        <time>2021-06-06T13:49:12.000Z</time>
      </trkpt>
      <trkpt lat="47.33618" lon="-1.49479">
        <ele>60</ele>
        <time>2021-06-06T13:49:14.000Z</time>
      </trkpt>
      <trkpt lat="47.33609" lon="-1.4946">
        <ele>59</ele>
        <time>2021-06-06T13:49:16.000Z</time>
      </trkpt>
      <trkpt lat="47.33601" lon="-1.49442">
        <ele>59</ele>
        <time>2021-06-06T13:49:18.000Z</time>
      </trkpt>
      <trkpt lat="47.33594" lon="-1.49423">
        <ele>58</ele>
        <time>2021-06-06T13:49:20.000Z</time>
      </trkpt>
      <trkpt lat="47.33586" lon="-1.49405">
        <ele>58</ele>
        <time>2021-06-06T13:49:22.000Z</time>
      </trkpt>
      <trkpt lat="47.33578" lon="-1.49387">
        <ele>57</ele>
        <time>2021-06-06T13:49:24.000Z</time>
      </trkpt>
      <trkpt lat="47.3357" lon="-1.4937">
        <ele>57</ele>
        <time>2021-06-06T13:49:26.000Z</time>
      </trkpt>
      <trkpt lat="47.33562" lon="-1.49353">
        <ele>56</ele>
        <time>2021-06-06T13:49:28.000Z</time>
      </trkpt>
      <trkpt lat="47.33554" lon="-1.49336">
        <ele>56</ele>
        <time>2021-06-06T13:49:30.000Z</time>
      </trkpt>
      <trkpt lat="47.33546" lon="-1.49319">
        <ele>56</ele>
        <time>2021-06-06T13:49:32.000Z</time>
      </trkpt>
      <trkpt lat="47.33538" lon="-1.49302">
        <ele>57</ele>
        <time>2021-06-06T13:49:34.000Z</time>
      </trkpt>
      <trkpt lat="47.33529" lon="-1.49285">
        <ele>57</ele>
        <time>2021-06-06T13:49:36.000Z</time>
      </trkpt>
      <trkpt lat="47.33521" lon="-1.49267">
        <ele>57</ele>
        <time>2021-06-06T13:49:38.000Z</time>
      </trkpt>
      <trkpt lat="47.33513" lon="-1.4925">
        <ele>57</ele>
        <time>2021-06-06T13:49:40.000Z</time>
      </trkpt>
      <trkpt lat="47.33505" lon="-1.49233">
        <ele>57</ele>
        <time>2021-06-06T13:49:42.000Z</time>
      </trkpt>
      <trkpt lat="47.33496" lon="-1.49216">
        <ele>57</ele>
        <time>2021-06-06T13:49:44.000Z</time>
      </trkpt>
      <trkpt lat="47.33488" lon="-1.49199">
        <ele>57</ele>
        <time>2021-06-06T13:49:46.000Z</time>
      </trkpt>
      <trkpt lat="47.3348" lon="-1.49182">
        <ele>57</ele>
        <time>2021-06-06T13:49:48.000Z</time>
      </trkpt>
      <trkpt lat="47.33471" lon="-1.49164">
        <ele>57</ele>
        <time>2021-06-06T13:49:50.000Z</time>
      </trkpt>
      <trkpt lat="47.33463" lon="-1.49147">
        <ele>57</ele>
        <time>2021-06-06T13:49:52.000Z</time>
      </trkpt>
      <trkpt lat="47.33455" lon="-1.4913">
        <ele>57</ele>
        <time>2021-06-06T13:49:54.000Z</time>
      </trkpt>
      <trkpt lat="47.33447" lon="-1.49113">
        <ele>57</ele>
        <time>2021-06-06T13:49:56.000Z</time>
      </trkpt>
      <trkpt lat="47.33439" lon="-1.49097">
        <ele>57</ele>
        <time>2021-06-06T13:49:58.000Z</time>
      </trkpt>
      <trkpt lat="47.33431" lon="-1.4908">
        <ele>57</ele>
        <time>2021-06-06T13:50:00.000Z</time>
      </trkpt>
      <trkpt lat="47.33423" lon="-1.49064">
        <ele>58</ele>
        <time>2021-06-06T13:50:02.000Z</time>
      </trkpt>
      <trkpt lat="47.33415" lon="-1.49046">
        <ele>58</ele>
        <time>2021-06-06T13:50:04.000Z</time>
      </trkpt>
      <trkpt lat="47.3341" lon="-1.49027">
        <ele>58</ele>
        <time>2021-06-06T13:50:06.000Z</time>
      </trkpt>
      <trkpt lat="47.33406" lon="-1.49007">
        <ele>58</ele>
        <time>2021-06-06T13:50:08.000Z</time>
      </trkpt>
      <trkpt lat="47.33404" lon="-1.48987">
        <ele>58</ele>
        <time>2021-06-06T13:50:10.000Z</time>
      </trkpt>
      <trkpt lat="47.33402" lon="-1.48968">
        <ele>58</ele>
        <time>2021-06-06T13:50:12.000Z</time>
      </trkpt>
      <trkpt lat="47.33401" lon="-1.48949">
        <ele>58</ele>
        <time>2021-06-06T13:50:14.000Z</time>
      </trkpt>
      <trkpt lat="47.334" lon="-1.4893">
        <ele>58</ele>
        <time>2021-06-06T13:50:16.000Z</time>
      </trkpt>
      <trkpt lat="47.33398" lon="-1.48912">
        <ele>58</ele>
        <time>2021-06-06T13:50:18.000Z</time>
      </trkpt>
      <trkpt lat="47.33396" lon="-1.48893">
        <ele>59</ele>
        <time>2021-06-06T13:50:20.000Z</time>
      </trkpt>
      <trkpt lat="47.33394" lon="-1.48874">
        <ele>59</ele>
        <time>2021-06-06T13:50:22.000Z</time>
      </trkpt>
      <trkpt lat="47.33392" lon="-1.48856">
        <ele>60</ele>
        <time>2021-06-06T13:50:24.000Z</time>
      </trkpt>
      <trkpt lat="47.33391" lon="-1.48838">
        <ele>60</ele>
        <time>2021-06-06T13:50:26.000Z</time>
      </trkpt>
      <trkpt lat="47.33388" lon="-1.48819">
        <ele>60</ele>
        <time>2021-06-06T13:50:28.000Z</time>
      </trkpt>
      <trkpt lat="47.33387" lon="-1.488">
        <ele>60</ele>
        <time>2021-06-06T13:50:30.000Z</time>
      </trkpt>
      <trkpt lat="47.33385" lon="-1.48779">
        <ele>59</ele>
        <time>2021-06-06T13:50:32.000Z</time>
      </trkpt>
      <trkpt lat="47.33384" lon="-1.48759">
        <ele>59</ele>
        <time>2021-06-06T13:50:34.000Z</time>
      </trkpt>
      <trkpt lat="47.33382" lon="-1.48737">
        <ele>58</ele>
        <time>2021-06-06T13:50:36.000Z</time>
      </trkpt>
      <trkpt lat="47.3338" lon="-1.48715">
        <ele>57</ele>
        <time>2021-06-06T13:50:38.000Z</time>
      </trkpt>
      <trkpt lat="47.33378" lon="-1.48694">
        <ele>57</ele>
        <time>2021-06-06T13:50:40.000Z</time>
      </trkpt>
      <trkpt lat="47.33376" lon="-1.48672">
        <ele>56</ele>
        <time>2021-06-06T13:50:42.000Z</time>
      </trkpt>
      <trkpt lat="47.33373" lon="-1.48651">
        <ele>56</ele>
        <time>2021-06-06T13:50:44.000Z</time>
      </trkpt>
      <trkpt lat="47.33366" lon="-1.4863">
        <ele>56</ele>
        <time>2021-06-06T13:50:46.000Z</time>
      </trkpt>
      <trkpt lat="47.33358" lon="-1.48613">
        <ele>56</ele>
        <time>2021-06-06T13:50:48.000Z</time>
      </trkpt>
      <trkpt lat="47.33349" lon="-1.48598">
        <ele>56</ele>
        <time>2021-06-06T13:50:50.000Z</time>
      </trkpt>
      <trkpt lat="47.3334" lon="-1.48586">
        <ele>57</ele>
        <time>2021-06-06T13:50:52.000Z</time>
      </trkpt>
      <trkpt lat="47.33332" lon="-1.48576">
        <ele>57</ele>
        <time>2021-06-06T13:50:54.000Z</time>
      </trkpt>
      <trkpt lat="47.33324" lon="-1.48563">
        <ele>57</ele>
        <time>2021-06-06T13:50:56.000Z</time>
      </trkpt>
      <trkpt lat="47.33317" lon="-1.48546">
        <ele>58</ele>
        <time>2021-06-06T13:50:58.000Z</time>
      </trkpt>
      <trkpt lat="47.33307" lon="-1.48527">
        <ele>58</ele>
        <time>2021-06-06T13:51:00.000Z</time>
      </trkpt>
      <trkpt lat="47.33299" lon="-1.4851">
        <ele>58</ele>
        <time>2021-06-06T13:51:02.000Z</time>
      </trkpt>
      <trkpt lat="47.33291" lon="-1.48489">
        <ele>58</ele>
        <time>2021-06-06T13:51:04.000Z</time>
      </trkpt>
      <trkpt lat="47.33283" lon="-1.48471">
        <ele>59</ele>
        <time>2021-06-06T13:51:06.000Z</time>
      </trkpt>
      <trkpt lat="47.33275" lon="-1.48452">
        <ele>59</ele>
        <time>2021-06-06T13:51:08.000Z</time>
      </trkpt>
      <trkpt lat="47.33267" lon="-1.48434">
        <ele>58</ele>
        <time>2021-06-06T13:51:10.000Z</time>
      </trkpt>
      <trkpt lat="47.3326" lon="-1.48414">
        <ele>58</ele>
        <time>2021-06-06T13:51:12.000Z</time>
      </trkpt>
      <trkpt lat="47.33254" lon="-1.48395">
        <ele>57</ele>
        <time>2021-06-06T13:51:14.000Z</time>
      </trkpt>
      <trkpt lat="47.33247" lon="-1.48377">
        <ele>57</ele>
        <time>2021-06-06T13:51:16.000Z</time>
      </trkpt>
      <trkpt lat="47.3324" lon="-1.48358">
        <ele>56</ele>
        <time>2021-06-06T13:51:18.000Z</time>
      </trkpt>
      <trkpt lat="47.33234" lon="-1.4834">
        <ele>56</ele>
        <time>2021-06-06T13:51:20.000Z</time>
      </trkpt>
      <trkpt lat="47.33227" lon="-1.48321">
        <ele>55</ele>
        <time>2021-06-06T13:51:22.000Z</time>
      </trkpt>
      <trkpt lat="47.3322" lon="-1.48303">
        <ele>55</ele>
        <time>2021-06-06T13:51:24.000Z</time>
      </trkpt>
      <trkpt lat="47.33213" lon="-1.48285">
        <ele>56</ele>
        <time>2021-06-06T13:51:26.000Z</time>
      </trkpt>
      <trkpt lat="47.33207" lon="-1.48267">
        <ele>55</ele>
        <time>2021-06-06T13:51:28.000Z</time>
      </trkpt>
      <trkpt lat="47.332" lon="-1.48248">
        <ele>55</ele>
        <time>2021-06-06T13:51:30.000Z</time>
      </trkpt>
      <trkpt lat="47.33194" lon="-1.4823">
        <ele>55</ele>
        <time>2021-06-06T13:51:32.000Z</time>
      </trkpt>
      <trkpt lat="47.33187" lon="-1.48213">
        <ele>55</ele>
        <time>2021-06-06T13:51:34.000Z</time>
      </trkpt>
      <trkpt lat="47.33181" lon="-1.48196">
        <ele>56</ele>
        <time>2021-06-06T13:51:36.000Z</time>
      </trkpt>
      <trkpt lat="47.33175" lon="-1.48178">
        <ele>56</ele>
        <time>2021-06-06T13:51:38.000Z</time>
      </trkpt>
      <trkpt lat="47.33168" lon="-1.4816">
        <ele>56</ele>
        <time>2021-06-06T13:51:40.000Z</time>
      </trkpt>
      <trkpt lat="47.33162" lon="-1.48143">
        <ele>56</ele>
        <time>2021-06-06T13:51:42.000Z</time>
      </trkpt>
      <trkpt lat="47.33155" lon="-1.48126">
        <ele>56</ele>
        <time>2021-06-06T13:51:44.000Z</time>
      </trkpt>
      <trkpt lat="47.33149" lon="-1.48108">
        <ele>56</ele>
        <time>2021-06-06T13:51:46.000Z</time>
      </trkpt>
      <trkpt lat="47.33143" lon="-1.4809">
        <ele>56</ele>
        <time>2021-06-06T13:51:48.000Z</time>
      </trkpt>
      <trkpt lat="47.33138" lon="-1.48071">
        <ele>57</ele>
        <time>2021-06-06T13:51:50.000Z</time>
      </trkpt>
      <trkpt lat="47.33133" lon="-1.48052">
        <ele>57</ele>
        <time>2021-06-06T13:51:52.000Z</time>
      </trkpt>
      <trkpt lat="47.33128" lon="-1.48032">
        <ele>57</ele>
        <time>2021-06-06T13:51:54.000Z</time>
      </trkpt>
      <trkpt lat="47.33124" lon="-1.48014">
        <ele>57</ele>
        <time>2021-06-06T13:51:56.000Z</time>
      </trkpt>
      <trkpt lat="47.3312" lon="-1.47995">
        <ele>57</ele>
        <time>2021-06-06T13:51:58.000Z</time>
      </trkpt>
      <trkpt lat="47.33116" lon="-1.47976">
        <ele>58</ele>
        <time>2021-06-06T13:52:00.000Z</time>
      </trkpt>
      <trkpt lat="47.33112" lon="-1.47956">
        <ele>58</ele>
        <time>2021-06-06T13:52:02.000Z</time>
      </trkpt>
      <trkpt lat="47.3311" lon="-1.47937">
        <ele>59</ele>
        <time>2021-06-06T13:52:04.000Z</time>
      </trkpt>
      <trkpt lat="47.33108" lon="-1.47918">
        <ele>59</ele>
        <time>2021-06-06T13:52:06.000Z</time>
      </trkpt>
      <trkpt lat="47.33106" lon="-1.47899">
        <ele>59</ele>
        <time>2021-06-06T13:52:08.000Z</time>
      </trkpt>
      <trkpt lat="47.33105" lon="-1.4788">
        <ele>59</ele>
        <time>2021-06-06T13:52:10.000Z</time>
      </trkpt>
      <trkpt lat="47.33104" lon="-1.4786">
        <ele>59</ele>
        <time>2021-06-06T13:52:12.000Z</time>
      </trkpt>
      <trkpt lat="47.33103" lon="-1.47841">
        <ele>59</ele>
        <time>2021-06-06T13:52:14.000Z</time>
      </trkpt>
      <trkpt lat="47.33102" lon="-1.47821">
        <ele>59</ele>
        <time>2021-06-06T13:52:16.000Z</time>
      </trkpt>
      <trkpt lat="47.33101" lon="-1.47802">
        <ele>59</ele>
        <time>2021-06-06T13:52:18.000Z</time>
      </trkpt>
      <trkpt lat="47.331" lon="-1.47783">
        <ele>59</ele>
        <time>2021-06-06T13:52:20.000Z</time>
      </trkpt>
      <trkpt lat="47.33098" lon="-1.47767">
        <ele>59</ele>
        <time>2021-06-06T13:52:22.000Z</time>
      </trkpt>
      <trkpt lat="47.33096" lon="-1.47752">
        <ele>59</ele>
        <time>2021-06-06T13:52:24.000Z</time>
      </trkpt>
      <trkpt lat="47.33092" lon="-1.47737">
        <ele>59</ele>
        <time>2021-06-06T13:52:27.000Z</time>
      </trkpt>
      <trkpt lat="47.33087" lon="-1.47724">
        <ele>59</ele>
        <time>2021-06-06T13:52:29.000Z</time>
      </trkpt>
      <trkpt lat="47.33084" lon="-1.47707">
        <ele>59</ele>
        <time>2021-06-06T13:52:31.000Z</time>
      </trkpt>
      <trkpt lat="47.33089" lon="-1.4769">
        <ele>59</ele>
        <time>2021-06-06T13:52:33.000Z</time>
      </trkpt>
      <trkpt lat="47.33095" lon="-1.47674">
        <ele>59</ele>
        <time>2021-06-06T13:52:35.000Z</time>
      </trkpt>
      <trkpt lat="47.33098" lon="-1.47654">
        <ele>59</ele>
        <time>2021-06-06T13:52:37.000Z</time>
      </trkpt>
      <trkpt lat="47.33098" lon="-1.47634">
        <ele>59</ele>
        <time>2021-06-06T13:52:39.000Z</time>
      </trkpt>
      <trkpt lat="47.33098" lon="-1.47614">
        <ele>59</ele>
        <time>2021-06-06T13:52:41.000Z</time>
      </trkpt>
      <trkpt lat="47.33099" lon="-1.47594">
        <ele>59</ele>
        <time>2021-06-06T13:52:43.000Z</time>
      </trkpt>
      <trkpt lat="47.331" lon="-1.47573">
        <ele>60</ele>
        <time>2021-06-06T13:52:45.000Z</time>
      </trkpt>
      <trkpt lat="47.331" lon="-1.47553">
        <ele>60</ele>
        <time>2021-06-06T13:52:47.000Z</time>
      </trkpt>
      <trkpt lat="47.33101" lon="-1.47533">
        <ele>60</ele>
        <time>2021-06-06T13:52:49.000Z</time>
      </trkpt>
      <trkpt lat="47.33102" lon="-1.47513">
        <ele>59</ele>
        <time>2021-06-06T13:52:51.000Z</time>
      </trkpt>
      <trkpt lat="47.33102" lon="-1.47494">
        <ele>60</ele>
        <time>2021-06-06T13:52:53.000Z</time>
      </trkpt>
      <trkpt lat="47.33102" lon="-1.47474">
        <ele>60</ele>
        <time>2021-06-06T13:52:55.000Z</time>
      </trkpt>
      <trkpt lat="47.33101" lon="-1.47455">
        <ele>60</ele>
        <time>2021-06-06T13:52:57.000Z</time>
      </trkpt>
      <trkpt lat="47.33098" lon="-1.47436">
        <ele>60</ele>
        <time>2021-06-06T13:52:59.000Z</time>
      </trkpt>
      <trkpt lat="47.33093" lon="-1.47419">
        <ele>60</ele>
        <time>2021-06-06T13:53:01.000Z</time>
      </trkpt>
      <trkpt lat="47.33087" lon="-1.47402">
        <ele>60</ele>
        <time>2021-06-06T13:53:03.000Z</time>
      </trkpt>
      <trkpt lat="47.33079" lon="-1.47387">
        <ele>60</ele>
        <time>2021-06-06T13:53:05.000Z</time>
      </trkpt>
      <trkpt lat="47.33071" lon="-1.47374">
        <ele>61</ele>
        <time>2021-06-06T13:53:07.000Z</time>
      </trkpt>
      <trkpt lat="47.33062" lon="-1.47362">
        <ele>61</ele>
        <time>2021-06-06T13:53:09.000Z</time>
      </trkpt>
      <trkpt lat="47.33054" lon="-1.47349">
        <ele>61</ele>
        <time>2021-06-06T13:53:11.000Z</time>
      </trkpt>
      <trkpt lat="47.33046" lon="-1.47335">
        <ele>61</ele>
        <time>2021-06-06T13:53:13.000Z</time>
      </trkpt>
      <trkpt lat="47.33038" lon="-1.47322">
        <ele>61</ele>
        <time>2021-06-06T13:53:15.000Z</time>
      </trkpt>
      <trkpt lat="47.33029" lon="-1.47308">
        <ele>61</ele>
        <time>2021-06-06T13:53:17.000Z</time>
      </trkpt>
      <trkpt lat="47.33021" lon="-1.47295">
        <ele>61</ele>
        <time>2021-06-06T13:53:19.000Z</time>
      </trkpt>
      <trkpt lat="47.33013" lon="-1.47281">
        <ele>61</ele>
        <time>2021-06-06T13:53:21.000Z</time>
      </trkpt>
      <trkpt lat="47.33004" lon="-1.47269">
        <ele>61</ele>
        <time>2021-06-06T13:53:23.000Z</time>
      </trkpt>
      <trkpt lat="47.32995" lon="-1.47257">
        <ele>62</ele>
        <time>2021-06-06T13:53:25.000Z</time>
      </trkpt>
      <trkpt lat="47.32985" lon="-1.47246">
        <ele>62</ele>
        <time>2021-06-06T13:53:27.000Z</time>
      </trkpt>
      <trkpt lat="47.32975" lon="-1.47238">
        <ele>62</ele>
        <time>2021-06-06T13:53:29.000Z</time>
      </trkpt>
      <trkpt lat="47.32964" lon="-1.4723">
        <ele>62</ele>
        <time>2021-06-06T13:53:31.000Z</time>
      </trkpt>
      <trkpt lat="47.32954" lon="-1.47221">
        <ele>62</ele>
        <time>2021-06-06T13:53:33.000Z</time>
      </trkpt>
      <trkpt lat="47.32946" lon="-1.47212">
        <ele>63</ele>
        <time>2021-06-06T13:53:35.000Z</time>
      </trkpt>
      <trkpt lat="47.32938" lon="-1.47197">
        <ele>63</ele>
        <time>2021-06-06T13:53:37.000Z</time>
      </trkpt>
      <trkpt lat="47.32932" lon="-1.47181">
        <ele>63</ele>
        <time>2021-06-06T13:53:39.000Z</time>
      </trkpt>
      <trkpt lat="47.32929" lon="-1.47164">
        <ele>63</ele>
        <time>2021-06-06T13:53:41.000Z</time>
      </trkpt>
      <trkpt lat="47.32926" lon="-1.47147">
        <ele>63</ele>
        <time>2021-06-06T13:53:43.000Z</time>
      </trkpt>
      <trkpt lat="47.32923" lon="-1.47129">
        <ele>63</ele>
        <time>2021-06-06T13:53:45.000Z</time>
      </trkpt>
      <trkpt lat="47.32921" lon="-1.47111">
        <ele>63</ele>
        <time>2021-06-06T13:53:47.000Z</time>
      </trkpt>
      <trkpt lat="47.32918" lon="-1.47093">
        <ele>64</ele>
        <time>2021-06-06T13:53:49.000Z</time>
      </trkpt>
      <trkpt lat="47.32915" lon="-1.47076">
        <ele>64</ele>
        <time>2021-06-06T13:53:51.000Z</time>
      </trkpt>
      <trkpt lat="47.32912" lon="-1.47058">
        <ele>64</ele>
        <time>2021-06-06T13:53:53.000Z</time>
      </trkpt>
      <trkpt lat="47.32909" lon="-1.47041">
        <ele>64</ele>
        <time>2021-06-06T13:53:55.000Z</time>
      </trkpt>
      <trkpt lat="47.32907" lon="-1.47023">
        <ele>64</ele>
        <time>2021-06-06T13:53:57.000Z</time>
      </trkpt>
      <trkpt lat="47.32904" lon="-1.47006">
        <ele>64</ele>
        <time>2021-06-06T13:53:59.000Z</time>
      </trkpt>
      <trkpt lat="47.32901" lon="-1.46989">
        <ele>64</ele>
        <time>2021-06-06T13:54:01.000Z</time>
      </trkpt>
      <trkpt lat="47.32899" lon="-1.46972">
        <ele>64</ele>
        <time>2021-06-06T13:54:03.000Z</time>
      </trkpt>
      <trkpt lat="47.32897" lon="-1.46956">
        <ele>64</ele>
        <time>2021-06-06T13:54:05.000Z</time>
      </trkpt>
      <trkpt lat="47.32894" lon="-1.4694">
        <ele>64</ele>
        <time>2021-06-06T13:54:07.000Z</time>
      </trkpt>
      <trkpt lat="47.32891" lon="-1.46924">
        <ele>64</ele>
        <time>2021-06-06T13:54:09.000Z</time>
      </trkpt>
      <trkpt lat="47.32886" lon="-1.46908">
        <ele>65</ele>
        <time>2021-06-06T13:54:11.000Z</time>
      </trkpt>
      <trkpt lat="47.32881" lon="-1.46894">
        <ele>65</ele>
        <time>2021-06-06T13:54:13.000Z</time>
      </trkpt>
      <trkpt lat="47.3288" lon="-1.46878">
        <ele>65</ele>
        <time>2021-06-06T13:54:15.000Z</time>
      </trkpt>
      <trkpt lat="47.3288" lon="-1.46861">
        <ele>66</ele>
        <time>2021-06-06T13:54:17.000Z</time>
      </trkpt>
      <trkpt lat="47.32881" lon="-1.46845">
        <ele>66</ele>
        <time>2021-06-06T13:54:19.000Z</time>
      </trkpt>
      <trkpt lat="47.32881" lon="-1.46828">
        <ele>67</ele>
        <time>2021-06-06T13:54:21.000Z</time>
      </trkpt>
      <trkpt lat="47.3288" lon="-1.46812">
        <ele>67</ele>
        <time>2021-06-06T13:54:23.000Z</time>
      </trkpt>
      <trkpt lat="47.3288" lon="-1.46796">
        <ele>68</ele>
        <time>2021-06-06T13:54:25.000Z</time>
      </trkpt>
      <trkpt lat="47.32881" lon="-1.46779">
        <ele>68</ele>
        <time>2021-06-06T13:54:27.000Z</time>
      </trkpt>
      <trkpt lat="47.32884" lon="-1.46764">
        <ele>68</ele>
        <time>2021-06-06T13:54:29.000Z</time>
      </trkpt>
      <trkpt lat="47.32888" lon="-1.46752">
        <ele>69</ele>
        <time>2021-06-06T13:54:31.000Z</time>
      </trkpt>
      <trkpt lat="47.32894" lon="-1.46735">
        <ele>69</ele>
        <time>2021-06-06T13:54:34.000Z</time>
      </trkpt>
      <trkpt lat="47.329" lon="-1.46719">
        <ele>70</ele>
        <time>2021-06-06T13:54:37.000Z</time>
      </trkpt>
      <trkpt lat="47.32906" lon="-1.46705">
        <ele>71</ele>
        <time>2021-06-06T13:54:40.000Z</time>
      </trkpt>
      <trkpt lat="47.32912" lon="-1.46691">
        <ele>72</ele>
        <time>2021-06-06T13:54:43.000Z</time>
      </trkpt>
      <trkpt lat="47.32918" lon="-1.46675">
        <ele>73</ele>
        <time>2021-06-06T13:54:46.000Z</time>
      </trkpt>
      <trkpt lat="47.32925" lon="-1.46658">
        <ele>73</ele>
        <time>2021-06-06T13:54:49.000Z</time>
      </trkpt>
      <trkpt lat="47.32931" lon="-1.46643">
        <ele>74</ele>
        <time>2021-06-06T13:54:52.000Z</time>
      </trkpt>
      <trkpt lat="47.32937" lon="-1.46628">
        <ele>75</ele>
        <time>2021-06-06T13:54:55.000Z</time>
      </trkpt>
      <trkpt lat="47.32943" lon="-1.46613">
        <ele>75</ele>
        <time>2021-06-06T13:54:58.000Z</time>
      </trkpt>
      <trkpt lat="47.32949" lon="-1.46598">
        <ele>76</ele>
        <time>2021-06-06T13:55:01.000Z</time>
      </trkpt>
      <trkpt lat="47.32956" lon="-1.46583">
        <ele>77</ele>
        <time>2021-06-06T13:55:04.000Z</time>
      </trkpt>
      <trkpt lat="47.32961" lon="-1.46568">
        <ele>78</ele>
        <time>2021-06-06T13:55:07.000Z</time>
      </trkpt>
      <trkpt lat="47.32967" lon="-1.46553">
        <ele>78</ele>
        <time>2021-06-06T13:55:10.000Z</time>
      </trkpt>
      <trkpt lat="47.32972" lon="-1.46537">
        <ele>78</ele>
        <time>2021-06-06T13:55:13.000Z</time>
      </trkpt>
      <trkpt lat="47.32974" lon="-1.46521">
        <ele>79</ele>
        <time>2021-06-06T13:55:16.000Z</time>
      </trkpt>
      <trkpt lat="47.32975" lon="-1.46503">
        <ele>79</ele>
        <time>2021-06-06T13:55:19.000Z</time>
      </trkpt>
      <trkpt lat="47.32973" lon="-1.46481">
        <ele>82</ele>
        <time>2021-06-06T13:55:23.000Z</time>
      </trkpt>
      <trkpt lat="47.32973" lon="-1.46464">
        <ele>82</ele>
        <time>2021-06-06T13:55:26.000Z</time>
      </trkpt>
      <trkpt lat="47.32972" lon="-1.46446">
        <ele>83</ele>
        <time>2021-06-06T13:55:29.000Z</time>
      </trkpt>
      <trkpt lat="47.32972" lon="-1.46429">
        <ele>84</ele>
        <time>2021-06-06T13:55:32.000Z</time>
      </trkpt>
      <trkpt lat="47.32972" lon="-1.46411">
        <ele>84</ele>
        <time>2021-06-06T13:55:35.000Z</time>
      </trkpt>
      <trkpt lat="47.32971" lon="-1.46388">
        <ele>86</ele>
        <time>2021-06-06T13:55:39.000Z</time>
      </trkpt>
      <trkpt lat="47.3297" lon="-1.46371">
        <ele>86</ele>
        <time>2021-06-06T13:55:42.000Z</time>
      </trkpt>
      <trkpt lat="47.32969" lon="-1.46353">
        <ele>87</ele>
        <time>2021-06-06T13:55:45.000Z</time>
      </trkpt>
      <trkpt lat="47.32969" lon="-1.46336">
        <ele>88</ele>
        <time>2021-06-06T13:55:48.000Z</time>
      </trkpt>
      <trkpt lat="47.32968" lon="-1.46318">
        <ele>89</ele>
        <time>2021-06-06T13:55:51.000Z</time>
      </trkpt>
      <trkpt lat="47.32967" lon="-1.46295">
        <ele>89</ele>
        <time>2021-06-06T13:55:55.000Z</time>
      </trkpt>
      <trkpt lat="47.32967" lon="-1.46278">
        <ele>89</ele>
        <time>2021-06-06T13:55:58.000Z</time>
      </trkpt>
      <trkpt lat="47.32966" lon="-1.4626">
        <ele>90</ele>
        <time>2021-06-06T13:56:01.000Z</time>
      </trkpt>
      <trkpt lat="47.32966" lon="-1.46243">
        <ele>90</ele>
        <time>2021-06-06T13:56:04.000Z</time>
      </trkpt>
      <trkpt lat="47.32967" lon="-1.46225">
        <ele>91</ele>
        <time>2021-06-06T13:56:07.000Z</time>
      </trkpt>
      <trkpt lat="47.32969" lon="-1.46208">
        <ele>91</ele>
        <time>2021-06-06T13:56:10.000Z</time>
      </trkpt>
      <trkpt lat="47.32974" lon="-1.46191">
        <ele>91</ele>
        <time>2021-06-06T13:56:13.000Z</time>
      </trkpt>
      <trkpt lat="47.3298" lon="-1.46173">
        <ele>91</ele>
        <time>2021-06-06T13:56:16.000Z</time>
      </trkpt>
      <trkpt lat="47.32985" lon="-1.46155">
        <ele>91</ele>
        <time>2021-06-06T13:56:19.000Z</time>
      </trkpt>
      <trkpt lat="47.32989" lon="-1.46143">
        <ele>91</ele>
        <time>2021-06-06T13:56:21.000Z</time>
      </trkpt>
      <trkpt lat="47.32993" lon="-1.4613">
        <ele>92</ele>
        <time>2021-06-06T13:56:23.000Z</time>
      </trkpt>
      <trkpt lat="47.32997" lon="-1.46118">
        <ele>92</ele>
        <time>2021-06-06T13:56:25.000Z</time>
      </trkpt>
      <trkpt lat="47.33" lon="-1.46106">
        <ele>92</ele>
        <time>2021-06-06T13:56:27.000Z</time>
      </trkpt>
      <trkpt lat="47.33006" lon="-1.46086">
        <ele>92</ele>
        <time>2021-06-06T13:56:30.000Z</time>
      </trkpt>
      <trkpt lat="47.3301" lon="-1.46074">
        <ele>92</ele>
        <time>2021-06-06T13:56:32.000Z</time>
      </trkpt>
      <trkpt lat="47.33013" lon="-1.46061">
        <ele>92</ele>
        <time>2021-06-06T13:56:34.000Z</time>
      </trkpt>
      <trkpt lat="47.33017" lon="-1.4605">
        <ele>92</ele>
        <time>2021-06-06T13:56:36.000Z</time>
      </trkpt>
      <trkpt lat="47.33021" lon="-1.46037">
        <ele>93</ele>
        <time>2021-06-06T13:56:38.000Z</time>
      </trkpt>
      <trkpt lat="47.33026" lon="-1.46019">
        <ele>93</ele>
        <time>2021-06-06T13:56:41.000Z</time>
      </trkpt>
      <trkpt lat="47.33033" lon="-1.46005">
        <ele>94</ele>
        <time>2021-06-06T13:56:44.000Z</time>
      </trkpt>
      <trkpt lat="47.33038" lon="-1.45992">
        <ele>94</ele>
        <time>2021-06-06T13:56:47.000Z</time>
      </trkpt>
      <trkpt lat="47.3305" lon="-1.45989">
        <ele>96</ele>
        <time>2021-06-06T13:56:50.000Z</time>
      </trkpt>
      <trkpt lat="47.33063" lon="-1.45984">
        <ele>97</ele>
        <time>2021-06-06T13:56:53.000Z</time>
      </trkpt>
      <trkpt lat="47.33074" lon="-1.45981">
        <ele>98</ele>
        <time>2021-06-06T13:56:55.000Z</time>
      </trkpt>
      <trkpt lat="47.33084" lon="-1.45976">
        <ele>98</ele>
        <time>2021-06-06T13:56:57.000Z</time>
      </trkpt>
      <trkpt lat="47.33094" lon="-1.45971">
        <ele>97</ele>
        <time>2021-06-06T13:56:59.000Z</time>
      </trkpt>
      <trkpt lat="47.33104" lon="-1.45966">
        <ele>97</ele>
        <time>2021-06-06T13:57:01.000Z</time>
      </trkpt>
      <trkpt lat="47.33113" lon="-1.45963">
        <ele>98</ele>
        <time>2021-06-06T13:57:03.000Z</time>
      </trkpt>
      <trkpt lat="47.33122" lon="-1.4596">
        <ele>97</ele>
        <time>2021-06-06T13:57:05.000Z</time>
      </trkpt>
      <trkpt lat="47.33132" lon="-1.45956">
        <ele>97</ele>
        <time>2021-06-06T13:57:07.000Z</time>
      </trkpt>
      <trkpt lat="47.33141" lon="-1.45952">
        <ele>98</ele>
        <time>2021-06-06T13:57:09.000Z</time>
      </trkpt>
      <trkpt lat="47.3315" lon="-1.45947">
        <ele>98</ele>
        <time>2021-06-06T13:57:11.000Z</time>
      </trkpt>
      <trkpt lat="47.3316" lon="-1.45943">
        <ele>98</ele>
        <time>2021-06-06T13:57:13.000Z</time>
      </trkpt>
      <trkpt lat="47.33169" lon="-1.45938">
        <ele>98</ele>
        <time>2021-06-06T13:57:15.000Z</time>
      </trkpt>
      <trkpt lat="47.33178" lon="-1.45934">
        <ele>98</ele>
        <time>2021-06-06T13:57:17.000Z</time>
      </trkpt>
      <trkpt lat="47.33188" lon="-1.45929">
        <ele>99</ele>
        <time>2021-06-06T13:57:19.000Z</time>
      </trkpt>
      <trkpt lat="47.33198" lon="-1.45923">
        <ele>100</ele>
        <time>2021-06-06T13:57:21.000Z</time>
      </trkpt>
      <trkpt lat="47.33207" lon="-1.45918">
        <ele>100</ele>
        <time>2021-06-06T13:57:23.000Z</time>
      </trkpt>
      <trkpt lat="47.33216" lon="-1.45912">
        <ele>100</ele>
        <time>2021-06-06T13:57:25.000Z</time>
      </trkpt>
      <trkpt lat="47.33225" lon="-1.45905">
        <ele>100</ele>
        <time>2021-06-06T13:57:27.000Z</time>
      </trkpt>
      <trkpt lat="47.33234" lon="-1.45899">
        <ele>101</ele>
        <time>2021-06-06T13:57:29.000Z</time>
      </trkpt>
      <trkpt lat="47.33243" lon="-1.45892">
        <ele>101</ele>
        <time>2021-06-06T13:57:31.000Z</time>
      </trkpt>
      <trkpt lat="47.33252" lon="-1.45884">
        <ele>102</ele>
        <time>2021-06-06T13:57:33.000Z</time>
      </trkpt>
      <trkpt lat="47.3326" lon="-1.45878">
        <ele>103</ele>
        <time>2021-06-06T13:57:35.000Z</time>
      </trkpt>
      <trkpt lat="47.3327" lon="-1.4587">
        <ele>104</ele>
        <time>2021-06-06T13:57:37.000Z</time>
      </trkpt>
      <trkpt lat="47.3328" lon="-1.45864">
        <ele>105</ele>
        <time>2021-06-06T13:57:39.000Z</time>
      </trkpt>
      <trkpt lat="47.33289" lon="-1.45857">
        <ele>105</ele>
        <time>2021-06-06T13:57:41.000Z</time>
      </trkpt>
      <trkpt lat="47.33299" lon="-1.4585">
        <ele>105</ele>
        <time>2021-06-06T13:57:43.000Z</time>
      </trkpt>
      <trkpt lat="47.33308" lon="-1.45843">
        <ele>106</ele>
        <time>2021-06-06T13:57:45.000Z</time>
      </trkpt>
      <trkpt lat="47.33316" lon="-1.45834">
        <ele>106</ele>
        <time>2021-06-06T13:57:47.000Z</time>
      </trkpt>
      <trkpt lat="47.33325" lon="-1.45824">
        <ele>107</ele>
        <time>2021-06-06T13:57:49.000Z</time>
      </trkpt>
      <trkpt lat="47.33333" lon="-1.45813">
        <ele>108</ele>
        <time>2021-06-06T13:57:51.000Z</time>
      </trkpt>
      <trkpt lat="47.33341" lon="-1.45804">
        <ele>107</ele>
        <time>2021-06-06T13:57:53.000Z</time>
      </trkpt>
      <trkpt lat="47.33352" lon="-1.45797">
        <ele>108</ele>
        <time>2021-06-06T13:57:55.000Z</time>
      </trkpt>
      <trkpt lat="47.33361" lon="-1.45789">
        <ele>107</ele>
        <time>2021-06-06T13:57:57.000Z</time>
      </trkpt>
      <trkpt lat="47.33371" lon="-1.4578">
        <ele>107</ele>
        <time>2021-06-06T13:57:59.000Z</time>
      </trkpt>
      <trkpt lat="47.33379" lon="-1.45772">
        <ele>107</ele>
        <time>2021-06-06T13:58:01.000Z</time>
      </trkpt>
      <trkpt lat="47.33388" lon="-1.45763">
        <ele>108</ele>
        <time>2021-06-06T13:58:03.000Z</time>
      </trkpt>
      <trkpt lat="47.33397" lon="-1.45753">
        <ele>108</ele>
        <time>2021-06-06T13:58:05.000Z</time>
      </trkpt>
      <trkpt lat="47.33405" lon="-1.45741">
        <ele>107</ele>
        <time>2021-06-06T13:58:07.000Z</time>
      </trkpt>
      <trkpt lat="47.33414" lon="-1.45731">
        <ele>108</ele>
        <time>2021-06-06T13:58:09.000Z</time>
      </trkpt>
      <trkpt lat="47.33422" lon="-1.45721">
        <ele>108</ele>
        <time>2021-06-06T13:58:11.000Z</time>
      </trkpt>
      <trkpt lat="47.33431" lon="-1.45712">
        <ele>108</ele>
        <time>2021-06-06T13:58:13.000Z</time>
      </trkpt>
      <trkpt lat="47.33439" lon="-1.45702">
        <ele>108</ele>
        <time>2021-06-06T13:58:15.000Z</time>
      </trkpt>
      <trkpt lat="47.33447" lon="-1.45691">
        <ele>108</ele>
        <time>2021-06-06T13:58:17.000Z</time>
      </trkpt>
      <trkpt lat="47.33455" lon="-1.4568">
        <ele>108</ele>
        <time>2021-06-06T13:58:19.000Z</time>
      </trkpt>
      <trkpt lat="47.33463" lon="-1.4567">
        <ele>108</ele>
        <time>2021-06-06T13:58:21.000Z</time>
      </trkpt>
      <trkpt lat="47.33471" lon="-1.45658">
        <ele>108</ele>
        <time>2021-06-06T13:58:23.000Z</time>
      </trkpt>
      <trkpt lat="47.33479" lon="-1.45649">
        <ele>108</ele>
        <time>2021-06-06T13:58:25.000Z</time>
      </trkpt>
      <trkpt lat="47.33487" lon="-1.45638">
        <ele>107</ele>
        <time>2021-06-06T13:58:27.000Z</time>
      </trkpt>
      <trkpt lat="47.33496" lon="-1.45628">
        <ele>107</ele>
        <time>2021-06-06T13:58:29.000Z</time>
      </trkpt>
      <trkpt lat="47.33503" lon="-1.45617">
        <ele>107</ele>
        <time>2021-06-06T13:58:31.000Z</time>
      </trkpt>
      <trkpt lat="47.33511" lon="-1.45606">
        <ele>106</ele>
        <time>2021-06-06T13:58:33.000Z</time>
      </trkpt>
      <trkpt lat="47.33519" lon="-1.45596">
        <ele>106</ele>
        <time>2021-06-06T13:58:35.000Z</time>
      </trkpt>
      <trkpt lat="47.33527" lon="-1.45585">
        <ele>105</ele>
        <time>2021-06-06T13:58:37.000Z</time>
      </trkpt>
      <trkpt lat="47.33534" lon="-1.45574">
        <ele>105</ele>
        <time>2021-06-06T13:58:39.000Z</time>
      </trkpt>
      <trkpt lat="47.33542" lon="-1.45563">
        <ele>104</ele>
        <time>2021-06-06T13:58:41.000Z</time>
      </trkpt>
      <trkpt lat="47.3355" lon="-1.45552">
        <ele>104</ele>
        <time>2021-06-06T13:58:43.000Z</time>
      </trkpt>
      <trkpt lat="47.33558" lon="-1.45542">
        <ele>104</ele>
        <time>2021-06-06T13:58:45.000Z</time>
      </trkpt>
      <trkpt lat="47.33566" lon="-1.45531">
        <ele>104</ele>
        <time>2021-06-06T13:58:47.000Z</time>
      </trkpt>
      <trkpt lat="47.33573" lon="-1.4552">
        <ele>105</ele>
        <time>2021-06-06T13:58:49.000Z</time>
      </trkpt>
      <trkpt lat="47.33581" lon="-1.45508">
        <ele>105</ele>
        <time>2021-06-06T13:58:51.000Z</time>
      </trkpt>
      <trkpt lat="47.33589" lon="-1.45497">
        <ele>105</ele>
        <time>2021-06-06T13:58:53.000Z</time>
      </trkpt>
      <trkpt lat="47.33598" lon="-1.45485">
        <ele>106</ele>
        <time>2021-06-06T13:58:55.000Z</time>
      </trkpt>
      <trkpt lat="47.33606" lon="-1.45473">
        <ele>107</ele>
        <time>2021-06-06T13:58:57.000Z</time>
      </trkpt>
      <trkpt lat="47.33615" lon="-1.45463">
        <ele>106</ele>
        <time>2021-06-06T13:58:59.000Z</time>
      </trkpt>
      <trkpt lat="47.33623" lon="-1.45453">
        <ele>106</ele>
        <time>2021-06-06T13:59:01.000Z</time>
      </trkpt>
      <trkpt lat="47.33631" lon="-1.45443">
        <ele>106</ele>
        <time>2021-06-06T13:59:03.000Z</time>
      </trkpt>
      <trkpt lat="47.3364" lon="-1.45432">
        <ele>106</ele>
        <time>2021-06-06T13:59:05.000Z</time>
      </trkpt>
      <trkpt lat="47.33648" lon="-1.45422">
        <ele>106</ele>
        <time>2021-06-06T13:59:07.000Z</time>
      </trkpt>
      <trkpt lat="47.33655" lon="-1.45412">
        <ele>107</ele>
        <time>2021-06-06T13:59:09.000Z</time>
      </trkpt>
      <trkpt lat="47.33662" lon="-1.45401">
        <ele>108</ele>
        <time>2021-06-06T13:59:11.000Z</time>
      </trkpt>
      <trkpt lat="47.33669" lon="-1.4539">
        <ele>109</ele>
        <time>2021-06-06T13:59:13.000Z</time>
      </trkpt>
      <trkpt lat="47.33677" lon="-1.45379">
        <ele>109</ele>
        <time>2021-06-06T13:59:15.000Z</time>
      </trkpt>
      <trkpt lat="47.33685" lon="-1.45369">
        <ele>110</ele>
        <time>2021-06-06T13:59:17.000Z</time>
      </trkpt>
      <trkpt lat="47.33693" lon="-1.45358">
        <ele>110</ele>
        <time>2021-06-06T13:59:19.000Z</time>
      </trkpt>
      <trkpt lat="47.33701" lon="-1.45347">
        <ele>110</ele>
        <time>2021-06-06T13:59:21.000Z</time>
      </trkpt>
      <trkpt lat="47.3371" lon="-1.45335">
        <ele>110</ele>
        <time>2021-06-06T13:59:23.000Z</time>
      </trkpt>
      <trkpt lat="47.33718" lon="-1.45325">
        <ele>111</ele>
        <time>2021-06-06T13:59:25.000Z</time>
      </trkpt>
      <trkpt lat="47.33726" lon="-1.45315">
        <ele>111</ele>
        <time>2021-06-06T13:59:27.000Z</time>
      </trkpt>
      <trkpt lat="47.33734" lon="-1.45304">
        <ele>111</ele>
        <time>2021-06-06T13:59:29.000Z</time>
      </trkpt>
      <trkpt lat="47.33743" lon="-1.45294">
        <ele>111</ele>
        <time>2021-06-06T13:59:31.000Z</time>
      </trkpt>
      <trkpt lat="47.33751" lon="-1.45283">
        <ele>111</ele>
        <time>2021-06-06T13:59:33.000Z</time>
      </trkpt>
      <trkpt lat="47.33759" lon="-1.45271">
        <ele>111</ele>
        <time>2021-06-06T13:59:35.000Z</time>
      </trkpt>
      <trkpt lat="47.33767" lon="-1.45259">
        <ele>111</ele>
        <time>2021-06-06T13:59:37.000Z</time>
      </trkpt>
      <trkpt lat="47.33776" lon="-1.45248">
        <ele>111</ele>
        <time>2021-06-06T13:59:39.000Z</time>
      </trkpt>
      <trkpt lat="47.33784" lon="-1.45238">
        <ele>111</ele>
        <time>2021-06-06T13:59:41.000Z</time>
      </trkpt>
      <trkpt lat="47.33791" lon="-1.45226">
        <ele>111</ele>
        <time>2021-06-06T13:59:43.000Z</time>
      </trkpt>
      <trkpt lat="47.338" lon="-1.45216">
        <ele>111</ele>
        <time>2021-06-06T13:59:45.000Z</time>
      </trkpt>
      <trkpt lat="47.33807" lon="-1.45204">
        <ele>111</ele>
        <time>2021-06-06T13:59:47.000Z</time>
      </trkpt>
      <trkpt lat="47.33815" lon="-1.45194">
        <ele>110</ele>
        <time>2021-06-06T13:59:49.000Z</time>
      </trkpt>
      <trkpt lat="47.33822" lon="-1.45182">
        <ele>109</ele>
        <time>2021-06-06T13:59:52.000Z</time>
      </trkpt>
      <trkpt lat="47.3383" lon="-1.45173">
        <ele>110</ele>
        <time>2021-06-06T13:59:55.000Z</time>
      </trkpt>
      <trkpt lat="47.33838" lon="-1.45162">
        <ele>109</ele>
        <time>2021-06-06T13:59:58.000Z</time>
      </trkpt>
      <trkpt lat="47.33845" lon="-1.45153">
        <ele>109</ele>
        <time>2021-06-06T14:00:00.000Z</time>
      </trkpt>
      <trkpt lat="47.33853" lon="-1.45143">
        <ele>108</ele>
        <time>2021-06-06T14:00:02.000Z</time>
      </trkpt>
      <trkpt lat="47.33861" lon="-1.45131">
        <ele>109</ele>
        <time>2021-06-06T14:00:04.000Z</time>
      </trkpt>
      <trkpt lat="47.33871" lon="-1.45118">
        <ele>108</ele>
        <time>2021-06-06T14:00:06.000Z</time>
      </trkpt>
      <trkpt lat="47.3388" lon="-1.45106">
        <ele>108</ele>
        <time>2021-06-06T14:00:08.000Z</time>
      </trkpt>
      <trkpt lat="47.33891" lon="-1.45093">
        <ele>108</ele>
        <time>2021-06-06T14:00:10.000Z</time>
      </trkpt>
      <trkpt lat="47.33901" lon="-1.45079">
        <ele>108</ele>
        <time>2021-06-06T14:00:12.000Z</time>
      </trkpt>
      <trkpt lat="47.3391" lon="-1.45066">
        <ele>109</ele>
        <time>2021-06-06T14:00:14.000Z</time>
      </trkpt>
      <trkpt lat="47.33919" lon="-1.45053">
        <ele>109</ele>
        <time>2021-06-06T14:00:16.000Z</time>
      </trkpt>
      <trkpt lat="47.33929" lon="-1.45039">
        <ele>108</ele>
        <time>2021-06-06T14:00:18.000Z</time>
      </trkpt>
      <trkpt lat="47.33939" lon="-1.45027">
        <ele>108</ele>
        <time>2021-06-06T14:00:20.000Z</time>
      </trkpt>
      <trkpt lat="47.33948" lon="-1.45014">
        <ele>107</ele>
        <time>2021-06-06T14:00:22.000Z</time>
      </trkpt>
      <trkpt lat="47.33958" lon="-1.45">
        <ele>107</ele>
        <time>2021-06-06T14:00:24.000Z</time>
      </trkpt>
      <trkpt lat="47.33967" lon="-1.44986">
        <ele>107</ele>
        <time>2021-06-06T14:00:26.000Z</time>
      </trkpt>
      <trkpt lat="47.33977" lon="-1.44972">
        <ele>106</ele>
        <time>2021-06-06T14:00:28.000Z</time>
      </trkpt>
      <trkpt lat="47.33986" lon="-1.44959">
        <ele>106</ele>
        <time>2021-06-06T14:00:30.000Z</time>
      </trkpt>
      <trkpt lat="47.33996" lon="-1.44946">
        <ele>106</ele>
        <time>2021-06-06T14:00:32.000Z</time>
      </trkpt>
      <trkpt lat="47.34006" lon="-1.44933">
        <ele>107</ele>
        <time>2021-06-06T14:00:34.000Z</time>
      </trkpt>
      <trkpt lat="47.34016" lon="-1.4492">
        <ele>107</ele>
        <time>2021-06-06T14:00:36.000Z</time>
      </trkpt>
      <trkpt lat="47.34025" lon="-1.44906">
        <ele>107</ele>
        <time>2021-06-06T14:00:38.000Z</time>
      </trkpt>
      <trkpt lat="47.34035" lon="-1.44893">
        <ele>108</ele>
        <time>2021-06-06T14:00:40.000Z</time>
      </trkpt>
      <trkpt lat="47.34045" lon="-1.4488">
        <ele>108</ele>
        <time>2021-06-06T14:00:42.000Z</time>
      </trkpt>
      <trkpt lat="47.34054" lon="-1.44866">
        <ele>108</ele>
        <time>2021-06-06T14:00:44.000Z</time>
      </trkpt>
      <trkpt lat="47.34064" lon="-1.44853">
        <ele>108</ele>
        <time>2021-06-06T14:00:46.000Z</time>
      </trkpt>
      <trkpt lat="47.34074" lon="-1.4484">
        <ele>109</ele>
        <time>2021-06-06T14:00:48.000Z</time>
      </trkpt>
      <trkpt lat="47.34084" lon="-1.44827">
        <ele>110</ele>
        <time>2021-06-06T14:00:50.000Z</time>
      </trkpt>
      <trkpt lat="47.34093" lon="-1.44814">
        <ele>110</ele>
        <time>2021-06-06T14:00:52.000Z</time>
      </trkpt>
      <trkpt lat="47.34102" lon="-1.44799">
        <ele>110</ele>
        <time>2021-06-06T14:00:54.000Z</time>
      </trkpt>
      <trkpt lat="47.34113" lon="-1.44784">
        <ele>109</ele>
        <time>2021-06-06T14:00:56.000Z</time>
      </trkpt>
      <trkpt lat="47.34122" lon="-1.4477">
        <ele>110</ele>
        <time>2021-06-06T14:00:58.000Z</time>
      </trkpt>
      <trkpt lat="47.34132" lon="-1.44757">
        <ele>111</ele>
        <time>2021-06-06T14:01:00.000Z</time>
      </trkpt>
      <trkpt lat="47.34141" lon="-1.44743">
        <ele>111</ele>
        <time>2021-06-06T14:01:02.000Z</time>
      </trkpt>
      <trkpt lat="47.34152" lon="-1.44729">
        <ele>110</ele>
        <time>2021-06-06T14:01:04.000Z</time>
      </trkpt>
      <trkpt lat="47.34162" lon="-1.44715">
        <ele>110</ele>
        <time>2021-06-06T14:01:06.000Z</time>
      </trkpt>
      <trkpt lat="47.34172" lon="-1.44703">
        <ele>110</ele>
        <time>2021-06-06T14:01:08.000Z</time>
      </trkpt>
      <trkpt lat="47.34183" lon="-1.4469">
        <ele>111</ele>
        <time>2021-06-06T14:01:10.000Z</time>
      </trkpt>
      <trkpt lat="47.34193" lon="-1.44677">
        <ele>110</ele>
        <time>2021-06-06T14:01:12.000Z</time>
      </trkpt>
      <trkpt lat="47.34203" lon="-1.44664">
        <ele>110</ele>
        <time>2021-06-06T14:01:14.000Z</time>
      </trkpt>
      <trkpt lat="47.34212" lon="-1.4465">
        <ele>109</ele>
        <time>2021-06-06T14:01:16.000Z</time>
      </trkpt>
      <trkpt lat="47.34222" lon="-1.44637">
        <ele>109</ele>
        <time>2021-06-06T14:01:18.000Z</time>
      </trkpt>
      <trkpt lat="47.34231" lon="-1.44622">
        <ele>109</ele>
        <time>2021-06-06T14:01:20.000Z</time>
      </trkpt>
      <trkpt lat="47.34241" lon="-1.44608">
        <ele>109</ele>
        <time>2021-06-06T14:01:22.000Z</time>
      </trkpt>
      <trkpt lat="47.34251" lon="-1.44594">
        <ele>108</ele>
        <time>2021-06-06T14:01:24.000Z</time>
      </trkpt>
      <trkpt lat="47.34262" lon="-1.44582">
        <ele>107</ele>
        <time>2021-06-06T14:01:26.000Z</time>
      </trkpt>
      <trkpt lat="47.34271" lon="-1.44569">
        <ele>107</ele>
        <time>2021-06-06T14:01:28.000Z</time>
      </trkpt>
      <trkpt lat="47.34281" lon="-1.44556">
        <ele>107</ele>
        <time>2021-06-06T14:01:30.000Z</time>
      </trkpt>
      <trkpt lat="47.3429" lon="-1.44542">
        <ele>108</ele>
        <time>2021-06-06T14:01:32.000Z</time>
      </trkpt>
      <trkpt lat="47.343" lon="-1.44529">
        <ele>108</ele>
        <time>2021-06-06T14:01:34.000Z</time>
      </trkpt>
      <trkpt lat="47.34309" lon="-1.44517">
        <ele>109</ele>
        <time>2021-06-06T14:01:36.000Z</time>
      </trkpt>
      <trkpt lat="47.34316" lon="-1.44506">
        <ele>109</ele>
        <time>2021-06-06T14:01:38.000Z</time>
      </trkpt>
      <trkpt lat="47.34324" lon="-1.44494">
        <ele>110</ele>
        <time>2021-06-06T14:01:41.000Z</time>
      </trkpt>
      <trkpt lat="47.34315" lon="-1.44496">
        <ele>107</ele>
        <time>2021-06-06T14:01:48.000Z</time>
      </trkpt>
      <trkpt lat="47.34304" lon="-1.44497">
        <ele>106</ele>
        <time>2021-06-06T14:01:53.000Z</time>
      </trkpt>
      <trkpt lat="47.34298" lon="-1.44486">
        <ele>103</ele>
        <time>2021-06-06T14:01:55.000Z</time>
      </trkpt>
      <trkpt lat="47.34295" lon="-1.44468">
        <ele>102</ele>
        <time>2021-06-06T14:01:57.000Z</time>
      </trkpt>
      <trkpt lat="47.34292" lon="-1.44451">
        <ele>101</ele>
        <time>2021-06-06T14:01:59.000Z</time>
      </trkpt>
      <trkpt lat="47.34288" lon="-1.44433">
        <ele>101</ele>
        <time>2021-06-06T14:02:01.000Z</time>
      </trkpt>
      <trkpt lat="47.34284" lon="-1.44415">
        <ele>101</ele>
        <time>2021-06-06T14:02:03.000Z</time>
      </trkpt>
      <trkpt lat="47.3428" lon="-1.44398">
        <ele>101</ele>
        <time>2021-06-06T14:02:05.000Z</time>
      </trkpt>
      <trkpt lat="47.34276" lon="-1.44382">
        <ele>101</ele>
        <time>2021-06-06T14:02:07.000Z</time>
      </trkpt>
      <trkpt lat="47.34271" lon="-1.44365">
        <ele>100</ele>
        <time>2021-06-06T14:02:09.000Z</time>
      </trkpt>
      <trkpt lat="47.34266" lon="-1.44348">
        <ele>100</ele>
        <time>2021-06-06T14:02:11.000Z</time>
      </trkpt>
      <trkpt lat="47.3426" lon="-1.44332">
        <ele>100</ele>
        <time>2021-06-06T14:02:13.000Z</time>
      </trkpt>
      <trkpt lat="47.34254" lon="-1.44315">
        <ele>100</ele>
        <time>2021-06-06T14:02:15.000Z</time>
      </trkpt>
      <trkpt lat="47.34248" lon="-1.44298">
        <ele>99</ele>
        <time>2021-06-06T14:02:17.000Z</time>
      </trkpt>
      <trkpt lat="47.34242" lon="-1.44283">
        <ele>99</ele>
        <time>2021-06-06T14:02:19.000Z</time>
      </trkpt>
      <trkpt lat="47.34237" lon="-1.44267">
        <ele>99</ele>
        <time>2021-06-06T14:02:21.000Z</time>
      </trkpt>
      <trkpt lat="47.34232" lon="-1.44252">
        <ele>99</ele>
        <time>2021-06-06T14:02:23.000Z</time>
      </trkpt>
      <trkpt lat="47.34226" lon="-1.44238">
        <ele>99</ele>
        <time>2021-06-06T14:02:25.000Z</time>
      </trkpt>
      <trkpt lat="47.3422" lon="-1.44227">
        <ele>99</ele>
        <time>2021-06-06T14:02:27.000Z</time>
      </trkpt>
      <trkpt lat="47.34214" lon="-1.44213">
        <ele>99</ele>
        <time>2021-06-06T14:02:29.000Z</time>
      </trkpt>
      <trkpt lat="47.34207" lon="-1.442">
        <ele>99</ele>
        <time>2021-06-06T14:02:31.000Z</time>
      </trkpt>
      <trkpt lat="47.342" lon="-1.44186">
        <ele>99</ele>
        <time>2021-06-06T14:02:33.000Z</time>
      </trkpt>
      <trkpt lat="47.34192" lon="-1.44173">
        <ele>99</ele>
        <time>2021-06-06T14:02:35.000Z</time>
      </trkpt>
      <trkpt lat="47.34186" lon="-1.44159">
        <ele>99</ele>
        <time>2021-06-06T14:02:37.000Z</time>
      </trkpt>
      <trkpt lat="47.3418" lon="-1.44147">
        <ele>99</ele>
        <time>2021-06-06T14:02:39.000Z</time>
      </trkpt>
      <trkpt lat="47.34173" lon="-1.44134">
        <ele>100</ele>
        <time>2021-06-06T14:02:41.000Z</time>
      </trkpt>
      <trkpt lat="47.34167" lon="-1.44123">
        <ele>100</ele>
        <time>2021-06-06T14:02:43.000Z</time>
      </trkpt>
      <trkpt lat="47.34161" lon="-1.4411">
        <ele>101</ele>
        <time>2021-06-06T14:02:46.000Z</time>
      </trkpt>
      <trkpt lat="47.34155" lon="-1.44096">
        <ele>101</ele>
        <time>2021-06-06T14:02:50.000Z</time>
      </trkpt>
      <trkpt lat="47.34156" lon="-1.4408">
        <ele>102</ele>
        <time>2021-06-06T14:02:53.000Z</time>
      </trkpt>
      <trkpt lat="47.34161" lon="-1.44063">
        <ele>103</ele>
        <time>2021-06-06T14:02:56.000Z</time>
      </trkpt>
      <trkpt lat="47.34167" lon="-1.44045">
        <ele>104</ele>
        <time>2021-06-06T14:02:59.000Z</time>
      </trkpt>
      <trkpt lat="47.34171" lon="-1.44032">
        <ele>104</ele>
        <time>2021-06-06T14:03:01.000Z</time>
      </trkpt>
      <trkpt lat="47.34176" lon="-1.44015">
        <ele>105</ele>
        <time>2021-06-06T14:03:04.000Z</time>
      </trkpt>
      <trkpt lat="47.3418" lon="-1.44003">
        <ele>105</ele>
        <time>2021-06-06T14:03:06.000Z</time>
      </trkpt>
      <trkpt lat="47.34186" lon="-1.43986">
        <ele>105</ele>
        <time>2021-06-06T14:03:09.000Z</time>
      </trkpt>
      <trkpt lat="47.3419" lon="-1.43973">
        <ele>105</ele>
        <time>2021-06-06T14:03:11.000Z</time>
      </trkpt>
      <trkpt lat="47.34195" lon="-1.43957">
        <ele>105</ele>
        <time>2021-06-06T14:03:14.000Z</time>
      </trkpt>
      <trkpt lat="47.342" lon="-1.43938">
        <ele>106</ele>
        <time>2021-06-06T14:03:17.000Z</time>
      </trkpt>
      <trkpt lat="47.34205" lon="-1.43921">
        <ele>107</ele>
        <time>2021-06-06T14:03:20.000Z</time>
      </trkpt>
      <trkpt lat="47.34208" lon="-1.43902">
        <ele>107</ele>
        <time>2021-06-06T14:03:23.000Z</time>
      </trkpt>
      <trkpt lat="47.34205" lon="-1.4389">
        <ele>107</ele>
        <time>2021-06-06T14:03:25.000Z</time>
      </trkpt>
      <trkpt lat="47.34196" lon="-1.43874">
        <ele>108</ele>
        <time>2021-06-06T14:03:28.000Z</time>
      </trkpt>
      <trkpt lat="47.34189" lon="-1.43865">
        <ele>109</ele>
        <time>2021-06-06T14:03:30.000Z</time>
      </trkpt>
      <trkpt lat="47.34182" lon="-1.43856">
        <ele>109</ele>
        <time>2021-06-06T14:03:32.000Z</time>
      </trkpt>
      <trkpt lat="47.34175" lon="-1.43848">
        <ele>108</ele>
        <time>2021-06-06T14:03:34.000Z</time>
      </trkpt>
      <trkpt lat="47.34165" lon="-1.43836">
        <ele>109</ele>
        <time>2021-06-06T14:03:37.000Z</time>
      </trkpt>
      <trkpt lat="47.34156" lon="-1.43822">
        <ele>110</ele>
        <time>2021-06-06T14:03:40.000Z</time>
      </trkpt>
      <trkpt lat="47.34149" lon="-1.43813">
        <ele>110</ele>
        <time>2021-06-06T14:03:42.000Z</time>
      </trkpt>
      <trkpt lat="47.34142" lon="-1.43802">
        <ele>110</ele>
        <time>2021-06-06T14:03:44.000Z</time>
      </trkpt>
      <trkpt lat="47.34135" lon="-1.43792">
        <ele>110</ele>
        <time>2021-06-06T14:03:46.000Z</time>
      </trkpt>
      <trkpt lat="47.34127" lon="-1.43781">
        <ele>110</ele>
        <time>2021-06-06T14:03:48.000Z</time>
      </trkpt>
      <trkpt lat="47.34119" lon="-1.43769">
        <ele>110</ele>
        <time>2021-06-06T14:03:50.000Z</time>
      </trkpt>
      <trkpt lat="47.34112" lon="-1.43756">
        <ele>110</ele>
        <time>2021-06-06T14:03:52.000Z</time>
      </trkpt>
      <trkpt lat="47.34106" lon="-1.4374">
        <ele>109</ele>
        <time>2021-06-06T14:03:54.000Z</time>
      </trkpt>
      <trkpt lat="47.34101" lon="-1.43725">
        <ele>109</ele>
        <time>2021-06-06T14:03:56.000Z</time>
      </trkpt>
      <trkpt lat="47.34097" lon="-1.4371">
        <ele>109</ele>
        <time>2021-06-06T14:03:58.000Z</time>
      </trkpt>
      <trkpt lat="47.34092" lon="-1.43695">
        <ele>108</ele>
        <time>2021-06-06T14:04:00.000Z</time>
      </trkpt>
      <trkpt lat="47.34088" lon="-1.43679">
        <ele>108</ele>
        <time>2021-06-06T14:04:02.000Z</time>
      </trkpt>
      <trkpt lat="47.34083" lon="-1.43663">
        <ele>108</ele>
        <time>2021-06-06T14:04:04.000Z</time>
      </trkpt>
      <trkpt lat="47.34078" lon="-1.43648">
        <ele>108</ele>
        <time>2021-06-06T14:04:06.000Z</time>
      </trkpt>
      <trkpt lat="47.34073" lon="-1.43632">
        <ele>108</ele>
        <time>2021-06-06T14:04:08.000Z</time>
      </trkpt>
      <trkpt lat="47.34066" lon="-1.43617">
        <ele>108</ele>
        <time>2021-06-06T14:04:10.000Z</time>
      </trkpt>
      <trkpt lat="47.34059" lon="-1.43603">
        <ele>108</ele>
        <time>2021-06-06T14:04:12.000Z</time>
      </trkpt>
      <trkpt lat="47.34052" lon="-1.43588">
        <ele>108</ele>
        <time>2021-06-06T14:04:14.000Z</time>
      </trkpt>
      <trkpt lat="47.34045" lon="-1.43571">
        <ele>107</ele>
        <time>2021-06-06T14:04:16.000Z</time>
      </trkpt>
      <trkpt lat="47.34039" lon="-1.43554">
        <ele>107</ele>
        <time>2021-06-06T14:04:18.000Z</time>
      </trkpt>
      <trkpt lat="47.34035" lon="-1.43538">
        <ele>107</ele>
        <time>2021-06-06T14:04:20.000Z</time>
      </trkpt>
      <trkpt lat="47.3403" lon="-1.43521">
        <ele>107</ele>
        <time>2021-06-06T14:04:22.000Z</time>
      </trkpt>
      <trkpt lat="47.34025" lon="-1.43506">
        <ele>108</ele>
        <time>2021-06-06T14:04:24.000Z</time>
      </trkpt>
      <trkpt lat="47.34021" lon="-1.43491">
        <ele>107</ele>
        <time>2021-06-06T14:04:26.000Z</time>
      </trkpt>
      <trkpt lat="47.34016" lon="-1.43476">
        <ele>108</ele>
        <time>2021-06-06T14:04:28.000Z</time>
      </trkpt>
      <trkpt lat="47.34011" lon="-1.43462">
        <ele>108</ele>
        <time>2021-06-06T14:04:30.000Z</time>
      </trkpt>
      <trkpt lat="47.34007" lon="-1.43449">
        <ele>108</ele>
        <time>2021-06-06T14:04:32.000Z</time>
      </trkpt>
      <trkpt lat="47.34002" lon="-1.43435">
        <ele>109</ele>
        <time>2021-06-06T14:04:34.000Z</time>
      </trkpt>
      <trkpt lat="47.33997" lon="-1.43422">
        <ele>109</ele>
        <time>2021-06-06T14:04:36.000Z</time>
      </trkpt>
      <trkpt lat="47.3399" lon="-1.43409">
        <ele>109</ele>
        <time>2021-06-06T14:04:38.000Z</time>
      </trkpt>
      <trkpt lat="47.33984" lon="-1.43396">
        <ele>110</ele>
        <time>2021-06-06T14:04:40.000Z</time>
      </trkpt>
      <trkpt lat="47.33977" lon="-1.43384">
        <ele>110</ele>
        <time>2021-06-06T14:04:42.000Z</time>
      </trkpt>
      <trkpt lat="47.3397" lon="-1.43371">
        <ele>111</ele>
        <time>2021-06-06T14:04:44.000Z</time>
      </trkpt>
      <trkpt lat="47.33964" lon="-1.43359">
        <ele>111</ele>
        <time>2021-06-06T14:04:46.000Z</time>
      </trkpt>
      <trkpt lat="47.33958" lon="-1.43346">
        <ele>112</ele>
        <time>2021-06-06T14:04:48.000Z</time>
      </trkpt>
      <trkpt lat="47.33951" lon="-1.43334">
        <ele>113</ele>
        <time>2021-06-06T14:04:50.000Z</time>
      </trkpt>
      <trkpt lat="47.33944" lon="-1.43322">
        <ele>113</ele>
        <time>2021-06-06T14:04:52.000Z</time>
      </trkpt>
      <trkpt lat="47.33938" lon="-1.43309">
        <ele>114</ele>
        <time>2021-06-06T14:04:54.000Z</time>
      </trkpt>
      <trkpt lat="47.33931" lon="-1.43296">
        <ele>113</ele>
        <time>2021-06-06T14:04:56.000Z</time>
      </trkpt>
      <trkpt lat="47.33924" lon="-1.43284">
        <ele>113</ele>
        <time>2021-06-06T14:04:58.000Z</time>
      </trkpt>
      <trkpt lat="47.33919" lon="-1.43271">
        <ele>113</ele>
        <time>2021-06-06T14:05:00.000Z</time>
      </trkpt>
      <trkpt lat="47.33913" lon="-1.43259">
        <ele>113</ele>
        <time>2021-06-06T14:05:02.000Z</time>
      </trkpt>
      <trkpt lat="47.33908" lon="-1.43245">
        <ele>113</ele>
        <time>2021-06-06T14:05:04.000Z</time>
      </trkpt>
      <trkpt lat="47.33903" lon="-1.43231">
        <ele>113</ele>
        <time>2021-06-06T14:05:06.000Z</time>
      </trkpt>
      <trkpt lat="47.33898" lon="-1.43216">
        <ele>112</ele>
        <time>2021-06-06T14:05:08.000Z</time>
      </trkpt>
      <trkpt lat="47.33893" lon="-1.43201">
        <ele>112</ele>
        <time>2021-06-06T14:05:10.000Z</time>
      </trkpt>
      <trkpt lat="47.33887" lon="-1.43187">
        <ele>112</ele>
        <time>2021-06-06T14:05:12.000Z</time>
      </trkpt>
      <trkpt lat="47.33882" lon="-1.43173">
        <ele>112</ele>
        <time>2021-06-06T14:05:14.000Z</time>
      </trkpt>
      <trkpt lat="47.33876" lon="-1.43158">
        <ele>112</ele>
        <time>2021-06-06T14:05:16.000Z</time>
      </trkpt>
      <trkpt lat="47.33871" lon="-1.43144">
        <ele>113</ele>
        <time>2021-06-06T14:05:18.000Z</time>
      </trkpt>
      <trkpt lat="47.33866" lon="-1.43129">
        <ele>112</ele>
        <time>2021-06-06T14:05:20.000Z</time>
      </trkpt>
      <trkpt lat="47.33861" lon="-1.43114">
        <ele>112</ele>
        <time>2021-06-06T14:05:22.000Z</time>
      </trkpt>
      <trkpt lat="47.33856" lon="-1.431">
        <ele>112</ele>
        <time>2021-06-06T14:05:24.000Z</time>
      </trkpt>
      <trkpt lat="47.3385" lon="-1.43085">
        <ele>112</ele>
        <time>2021-06-06T14:05:26.000Z</time>
      </trkpt>
      <trkpt lat="47.33845" lon="-1.4307">
        <ele>112</ele>
        <time>2021-06-06T14:05:28.000Z</time>
      </trkpt>
      <trkpt lat="47.33839" lon="-1.43056">
        <ele>112</ele>
        <time>2021-06-06T14:05:30.000Z</time>
      </trkpt>
      <trkpt lat="47.33833" lon="-1.43041">
        <ele>112</ele>
        <time>2021-06-06T14:05:32.000Z</time>
      </trkpt>
      <trkpt lat="47.33827" lon="-1.43025">
        <ele>111</ele>
        <time>2021-06-06T14:05:34.000Z</time>
      </trkpt>
      <trkpt lat="47.33821" lon="-1.4301">
        <ele>111</ele>
        <time>2021-06-06T14:05:36.000Z</time>
      </trkpt>
      <trkpt lat="47.33814" lon="-1.42994">
        <ele>111</ele>
        <time>2021-06-06T14:05:38.000Z</time>
      </trkpt>
      <trkpt lat="47.33806" lon="-1.42978">
        <ele>111</ele>
        <time>2021-06-06T14:05:40.000Z</time>
      </trkpt>
      <trkpt lat="47.33799" lon="-1.42963">
        <ele>110</ele>
        <time>2021-06-06T14:05:42.000Z</time>
      </trkpt>
      <trkpt lat="47.33789" lon="-1.42948">
        <ele>110</ele>
        <time>2021-06-06T14:05:44.000Z</time>
      </trkpt>
      <trkpt lat="47.33779" lon="-1.42935">
        <ele>110</ele>
        <time>2021-06-06T14:05:46.000Z</time>
      </trkpt>
      <trkpt lat="47.33769" lon="-1.42922">
        <ele>111</ele>
        <time>2021-06-06T14:05:48.000Z</time>
      </trkpt>
      <trkpt lat="47.33758" lon="-1.42912">
        <ele>111</ele>
        <time>2021-06-06T14:05:50.000Z</time>
      </trkpt>
      <trkpt lat="47.33746" lon="-1.42903">
        <ele>111</ele>
        <time>2021-06-06T14:05:52.000Z</time>
      </trkpt>
      <trkpt lat="47.33735" lon="-1.42895">
        <ele>111</ele>
        <time>2021-06-06T14:05:54.000Z</time>
      </trkpt>
      <trkpt lat="47.33724" lon="-1.4289">
        <ele>111</ele>
        <time>2021-06-06T14:05:56.000Z</time>
      </trkpt>
      <trkpt lat="47.33713" lon="-1.42884">
        <ele>111</ele>
        <time>2021-06-06T14:05:58.000Z</time>
      </trkpt>
      <trkpt lat="47.33702" lon="-1.42881">
        <ele>111</ele>
        <time>2021-06-06T14:06:00.000Z</time>
      </trkpt>
      <trkpt lat="47.33691" lon="-1.42878">
        <ele>111</ele>
        <time>2021-06-06T14:06:02.000Z</time>
      </trkpt>
      <trkpt lat="47.3368" lon="-1.42876">
        <ele>111</ele>
        <time>2021-06-06T14:06:04.000Z</time>
      </trkpt>
      <trkpt lat="47.33669" lon="-1.42875">
        <ele>112</ele>
        <time>2021-06-06T14:06:06.000Z</time>
      </trkpt>
      <trkpt lat="47.33657" lon="-1.42875">
        <ele>113</ele>
        <time>2021-06-06T14:06:08.000Z</time>
      </trkpt>
      <trkpt lat="47.33646" lon="-1.42875">
        <ele>113</ele>
        <time>2021-06-06T14:06:10.000Z</time>
      </trkpt>
      <trkpt lat="47.33635" lon="-1.42876">
        <ele>113</ele>
        <time>2021-06-06T14:06:12.000Z</time>
      </trkpt>
      <trkpt lat="47.33623" lon="-1.42876">
        <ele>114</ele>
        <time>2021-06-06T14:06:14.000Z</time>
      </trkpt>
      <trkpt lat="47.33612" lon="-1.42877">
        <ele>114</ele>
        <time>2021-06-06T14:06:16.000Z</time>
      </trkpt>
      <trkpt lat="47.33601" lon="-1.42877">
        <ele>115</ele>
        <time>2021-06-06T14:06:18.000Z</time>
      </trkpt>
      <trkpt lat="47.3359" lon="-1.42877">
        <ele>115</ele>
        <time>2021-06-06T14:06:20.000Z</time>
      </trkpt>
      <trkpt lat="47.33579" lon="-1.42877">
        <ele>115</ele>
        <time>2021-06-06T14:06:22.000Z</time>
      </trkpt>
      <trkpt lat="47.33568" lon="-1.42876">
        <ele>115</ele>
        <time>2021-06-06T14:06:24.000Z</time>
      </trkpt>
      <trkpt lat="47.33557" lon="-1.42876">
        <ele>115</ele>
        <time>2021-06-06T14:06:26.000Z</time>
      </trkpt>
      <trkpt lat="47.33546" lon="-1.42874">
        <ele>115</ele>
        <time>2021-06-06T14:06:28.000Z</time>
      </trkpt>
      <trkpt lat="47.33535" lon="-1.42873">
        <ele>115</ele>
        <time>2021-06-06T14:06:30.000Z</time>
      </trkpt>
      <trkpt lat="47.33523" lon="-1.4287">
        <ele>115</ele>
        <time>2021-06-06T14:06:32.000Z</time>
      </trkpt>
      <trkpt lat="47.33512" lon="-1.42867">
        <ele>115</ele>
        <time>2021-06-06T14:06:34.000Z</time>
      </trkpt>
      <trkpt lat="47.33501" lon="-1.42862">
        <ele>115</ele>
        <time>2021-06-06T14:06:36.000Z</time>
      </trkpt>
      <trkpt lat="47.3349" lon="-1.42858">
        <ele>116</ele>
        <time>2021-06-06T14:06:38.000Z</time>
      </trkpt>
      <trkpt lat="47.3348" lon="-1.42852">
        <ele>117</ele>
        <time>2021-06-06T14:06:40.000Z</time>
      </trkpt>
      <trkpt lat="47.33469" lon="-1.42846">
        <ele>117</ele>
        <time>2021-06-06T14:06:42.000Z</time>
      </trkpt>
      <trkpt lat="47.33459" lon="-1.42838">
        <ele>117</ele>
        <time>2021-06-06T14:06:44.000Z</time>
      </trkpt>
      <trkpt lat="47.33451" lon="-1.42828">
        <ele>117</ele>
        <time>2021-06-06T14:06:46.000Z</time>
      </trkpt>
      <trkpt lat="47.33442" lon="-1.42819">
        <ele>117</ele>
        <time>2021-06-06T14:06:48.000Z</time>
      </trkpt>
      <trkpt lat="47.33432" lon="-1.4281">
        <ele>117</ele>
        <time>2021-06-06T14:06:50.000Z</time>
      </trkpt>
      <trkpt lat="47.33423" lon="-1.42801">
        <ele>117</ele>
        <time>2021-06-06T14:06:52.000Z</time>
      </trkpt>
      <trkpt lat="47.33414" lon="-1.4279">
        <ele>117</ele>
        <time>2021-06-06T14:06:54.000Z</time>
      </trkpt>
      <trkpt lat="47.33404" lon="-1.42781">
        <ele>117</ele>
        <time>2021-06-06T14:06:56.000Z</time>
      </trkpt>
      <trkpt lat="47.33395" lon="-1.42772">
        <ele>117</ele>
        <time>2021-06-06T14:06:58.000Z</time>
      </trkpt>
      <trkpt lat="47.33386" lon="-1.42762">
        <ele>117</ele>
        <time>2021-06-06T14:07:00.000Z</time>
      </trkpt>
      <trkpt lat="47.33376" lon="-1.42752">
        <ele>117</ele>
        <time>2021-06-06T14:07:02.000Z</time>
      </trkpt>
      <trkpt lat="47.33368" lon="-1.42743">
        <ele>118</ele>
        <time>2021-06-06T14:07:04.000Z</time>
      </trkpt>
      <trkpt lat="47.33358" lon="-1.42733">
        <ele>118</ele>
        <time>2021-06-06T14:07:06.000Z</time>
      </trkpt>
      <trkpt lat="47.33347" lon="-1.42722">
        <ele>117</ele>
        <time>2021-06-06T14:07:08.000Z</time>
      </trkpt>
      <trkpt lat="47.33337" lon="-1.42711">
        <ele>116</ele>
        <time>2021-06-06T14:07:10.000Z</time>
      </trkpt>
      <trkpt lat="47.33327" lon="-1.427">
        <ele>116</ele>
        <time>2021-06-06T14:07:12.000Z</time>
      </trkpt>
      <trkpt lat="47.33316" lon="-1.4269">
        <ele>115</ele>
        <time>2021-06-06T14:07:14.000Z</time>
      </trkpt>
      <trkpt lat="47.33304" lon="-1.42686">
        <ele>115</ele>
        <time>2021-06-06T14:07:16.000Z</time>
      </trkpt>
      <trkpt lat="47.3329" lon="-1.42685">
        <ele>114</ele>
        <time>2021-06-06T14:07:18.000Z</time>
      </trkpt>
      <trkpt lat="47.33277" lon="-1.42688">
        <ele>115</ele>
        <time>2021-06-06T14:07:20.000Z</time>
      </trkpt>
      <trkpt lat="47.33265" lon="-1.42686">
        <ele>115</ele>
        <time>2021-06-06T14:07:22.000Z</time>
      </trkpt>
      <trkpt lat="47.33254" lon="-1.42676">
        <ele>115</ele>
        <time>2021-06-06T14:07:24.000Z</time>
      </trkpt>
      <trkpt lat="47.33248" lon="-1.42661">
        <ele>115</ele>
        <time>2021-06-06T14:07:26.000Z</time>
      </trkpt>
      <trkpt lat="47.33244" lon="-1.42645">
        <ele>115</ele>
        <time>2021-06-06T14:07:28.000Z</time>
      </trkpt>
      <trkpt lat="47.33241" lon="-1.4263">
        <ele>116</ele>
        <time>2021-06-06T14:07:30.000Z</time>
      </trkpt>
      <trkpt lat="47.33238" lon="-1.42616">
        <ele>116</ele>
        <time>2021-06-06T14:07:32.000Z</time>
      </trkpt>
      <trkpt lat="47.33235" lon="-1.426">
        <ele>117</ele>
        <time>2021-06-06T14:07:34.000Z</time>
      </trkpt>
      <trkpt lat="47.33231" lon="-1.42585">
        <ele>117</ele>
        <time>2021-06-06T14:07:36.000Z</time>
      </trkpt>
      <trkpt lat="47.33227" lon="-1.42569">
        <ele>117</ele>
        <time>2021-06-06T14:07:38.000Z</time>
      </trkpt>
      <trkpt lat="47.33224" lon="-1.42555">
        <ele>117</ele>
        <time>2021-06-06T14:07:40.000Z</time>
      </trkpt>
      <trkpt lat="47.33221" lon="-1.42538">
        <ele>117</ele>
        <time>2021-06-06T14:07:42.000Z</time>
      </trkpt>
      <trkpt lat="47.33217" lon="-1.42523">
        <ele>117</ele>
        <time>2021-06-06T14:07:44.000Z</time>
      </trkpt>
      <trkpt lat="47.33214" lon="-1.42508">
        <ele>117</ele>
        <time>2021-06-06T14:07:46.000Z</time>
      </trkpt>
      <trkpt lat="47.3321" lon="-1.42492">
        <ele>117</ele>
        <time>2021-06-06T14:07:48.000Z</time>
      </trkpt>
      <trkpt lat="47.33207" lon="-1.42477">
        <ele>117</ele>
        <time>2021-06-06T14:07:50.000Z</time>
      </trkpt>
      <trkpt lat="47.33203" lon="-1.42461">
        <ele>117</ele>
        <time>2021-06-06T14:07:52.000Z</time>
      </trkpt>
      <trkpt lat="47.332" lon="-1.42445">
        <ele>118</ele>
        <time>2021-06-06T14:07:54.000Z</time>
      </trkpt>
      <trkpt lat="47.33196" lon="-1.4243">
        <ele>118</ele>
        <time>2021-06-06T14:07:56.000Z</time>
      </trkpt>
      <trkpt lat="47.33193" lon="-1.42415">
        <ele>118</ele>
        <time>2021-06-06T14:07:58.000Z</time>
      </trkpt>
      <trkpt lat="47.33189" lon="-1.42399">
        <ele>118</ele>
        <time>2021-06-06T14:08:00.000Z</time>
      </trkpt>
      <trkpt lat="47.33184" lon="-1.42384">
        <ele>118</ele>
        <time>2021-06-06T14:08:02.000Z</time>
      </trkpt>
      <trkpt lat="47.3318" lon="-1.42369">
        <ele>118</ele>
        <time>2021-06-06T14:08:04.000Z</time>
      </trkpt>
      <trkpt lat="47.33176" lon="-1.42355">
        <ele>118</ele>
        <time>2021-06-06T14:08:06.000Z</time>
      </trkpt>
      <trkpt lat="47.33171" lon="-1.42341">
        <ele>119</ele>
        <time>2021-06-06T14:08:08.000Z</time>
      </trkpt>
      <trkpt lat="47.33167" lon="-1.42327">
        <ele>119</ele>
        <time>2021-06-06T14:08:10.000Z</time>
      </trkpt>
      <trkpt lat="47.33163" lon="-1.42312">
        <ele>119</ele>
        <time>2021-06-06T14:08:12.000Z</time>
      </trkpt>
      <trkpt lat="47.33158" lon="-1.42297">
        <ele>118</ele>
        <time>2021-06-06T14:08:14.000Z</time>
      </trkpt>
      <trkpt lat="47.33152" lon="-1.42282">
        <ele>118</ele>
        <time>2021-06-06T14:08:16.000Z</time>
      </trkpt>
      <trkpt lat="47.33146" lon="-1.42268">
        <ele>118</ele>
        <time>2021-06-06T14:08:18.000Z</time>
      </trkpt>
      <trkpt lat="47.33138" lon="-1.42255">
        <ele>118</ele>
        <time>2021-06-06T14:08:20.000Z</time>
      </trkpt>
      <trkpt lat="47.3313" lon="-1.42242">
        <ele>117</ele>
        <time>2021-06-06T14:08:22.000Z</time>
      </trkpt>
      <trkpt lat="47.33121" lon="-1.42229">
        <ele>117</ele>
        <time>2021-06-06T14:08:24.000Z</time>
      </trkpt>
      <trkpt lat="47.33112" lon="-1.42217">
        <ele>117</ele>
        <time>2021-06-06T14:08:26.000Z</time>
      </trkpt>
      <trkpt lat="47.33103" lon="-1.42205">
        <ele>116</ele>
        <time>2021-06-06T14:08:28.000Z</time>
      </trkpt>
      <trkpt lat="47.33094" lon="-1.42192">
        <ele>116</ele>
        <time>2021-06-06T14:08:30.000Z</time>
      </trkpt>
      <trkpt lat="47.33084" lon="-1.42179">
        <ele>116</ele>
        <time>2021-06-06T14:08:32.000Z</time>
      </trkpt>
      <trkpt lat="47.33075" lon="-1.42166">
        <ele>115</ele>
        <time>2021-06-06T14:08:34.000Z</time>
      </trkpt>
      <trkpt lat="47.33065" lon="-1.42154">
        <ele>116</ele>
        <time>2021-06-06T14:08:36.000Z</time>
      </trkpt>
      <trkpt lat="47.33055" lon="-1.42141">
        <ele>116</ele>
        <time>2021-06-06T14:08:38.000Z</time>
      </trkpt>
      <trkpt lat="47.33046" lon="-1.42128">
        <ele>116</ele>
        <time>2021-06-06T14:08:40.000Z</time>
      </trkpt>
      <trkpt lat="47.33037" lon="-1.42115">
        <ele>116</ele>
        <time>2021-06-06T14:08:42.000Z</time>
      </trkpt>
      <trkpt lat="47.33028" lon="-1.42102">
        <ele>116</ele>
        <time>2021-06-06T14:08:44.000Z</time>
      </trkpt>
      <trkpt lat="47.33019" lon="-1.42089">
        <ele>116</ele>
        <time>2021-06-06T14:08:46.000Z</time>
      </trkpt>
      <trkpt lat="47.3301" lon="-1.42077">
        <ele>117</ele>
        <time>2021-06-06T14:08:48.000Z</time>
      </trkpt>
      <trkpt lat="47.33" lon="-1.42064">
        <ele>116</ele>
        <time>2021-06-06T14:08:50.000Z</time>
      </trkpt>
      <trkpt lat="47.3299" lon="-1.42051">
        <ele>116</ele>
        <time>2021-06-06T14:08:52.000Z</time>
      </trkpt>
      <trkpt lat="47.32981" lon="-1.4204">
        <ele>116</ele>
        <time>2021-06-06T14:08:54.000Z</time>
      </trkpt>
      <trkpt lat="47.32971" lon="-1.4203">
        <ele>116</ele>
        <time>2021-06-06T14:08:56.000Z</time>
      </trkpt>
      <trkpt lat="47.32962" lon="-1.42021">
        <ele>116</ele>
        <time>2021-06-06T14:08:58.000Z</time>
      </trkpt>
      <trkpt lat="47.32951" lon="-1.42013">
        <ele>116</ele>
        <time>2021-06-06T14:09:00.000Z</time>
      </trkpt>
      <trkpt lat="47.32939" lon="-1.42007">
        <ele>116</ele>
        <time>2021-06-06T14:09:02.000Z</time>
      </trkpt>
      <trkpt lat="47.32926" lon="-1.42003">
        <ele>116</ele>
        <time>2021-06-06T14:09:04.000Z</time>
      </trkpt>
      <trkpt lat="47.32913" lon="-1.42">
        <ele>116</ele>
        <time>2021-06-06T14:09:06.000Z</time>
      </trkpt>
      <trkpt lat="47.32901" lon="-1.41997">
        <ele>116</ele>
        <time>2021-06-06T14:09:08.000Z</time>
      </trkpt>
      <trkpt lat="47.3289" lon="-1.41994">
        <ele>116</ele>
        <time>2021-06-06T14:09:10.000Z</time>
      </trkpt>
      <trkpt lat="47.32879" lon="-1.4199">
        <ele>116</ele>
        <time>2021-06-06T14:09:12.000Z</time>
      </trkpt>
      <trkpt lat="47.32868" lon="-1.41983">
        <ele>116</ele>
        <time>2021-06-06T14:09:14.000Z</time>
      </trkpt>
      <trkpt lat="47.32857" lon="-1.41971">
        <ele>116</ele>
        <time>2021-06-06T14:09:16.000Z</time>
      </trkpt>
      <trkpt lat="47.32848" lon="-1.41957">
        <ele>115</ele>
        <time>2021-06-06T14:09:18.000Z</time>
      </trkpt>
      <trkpt lat="47.32839" lon="-1.41942">
        <ele>115</ele>
        <time>2021-06-06T14:09:20.000Z</time>
      </trkpt>
      <trkpt lat="47.32831" lon="-1.41927">
        <ele>115</ele>
        <time>2021-06-06T14:09:22.000Z</time>
      </trkpt>
      <trkpt lat="47.32823" lon="-1.41914">
        <ele>115</ele>
        <time>2021-06-06T14:09:24.000Z</time>
      </trkpt>
      <trkpt lat="47.32815" lon="-1.419">
        <ele>116</ele>
        <time>2021-06-06T14:09:26.000Z</time>
      </trkpt>
      <trkpt lat="47.32807" lon="-1.41885">
        <ele>116</ele>
        <time>2021-06-06T14:09:28.000Z</time>
      </trkpt>
      <trkpt lat="47.328" lon="-1.41871">
        <ele>117</ele>
        <time>2021-06-06T14:09:30.000Z</time>
      </trkpt>
      <trkpt lat="47.32791" lon="-1.41857">
        <ele>117</ele>
        <time>2021-06-06T14:09:32.000Z</time>
      </trkpt>
      <trkpt lat="47.32783" lon="-1.41843">
        <ele>116</ele>
        <time>2021-06-06T14:09:34.000Z</time>
      </trkpt>
      <trkpt lat="47.32773" lon="-1.41832">
        <ele>116</ele>
        <time>2021-06-06T14:09:36.000Z</time>
      </trkpt>
      <trkpt lat="47.32763" lon="-1.41822">
        <ele>116</ele>
        <time>2021-06-06T14:09:38.000Z</time>
      </trkpt>
      <trkpt lat="47.32752" lon="-1.41814">
        <ele>115</ele>
        <time>2021-06-06T14:09:40.000Z</time>
      </trkpt>
      <trkpt lat="47.32741" lon="-1.41804">
        <ele>115</ele>
        <time>2021-06-06T14:09:42.000Z</time>
      </trkpt>
      <trkpt lat="47.3273" lon="-1.41793">
        <ele>115</ele>
        <time>2021-06-06T14:09:44.000Z</time>
      </trkpt>
      <trkpt lat="47.32721" lon="-1.4178">
        <ele>115</ele>
        <time>2021-06-06T14:09:46.000Z</time>
      </trkpt>
      <trkpt lat="47.32713" lon="-1.41764">
        <ele>115</ele>
        <time>2021-06-06T14:09:48.000Z</time>
      </trkpt>
      <trkpt lat="47.32705" lon="-1.41744">
        <ele>114</ele>
        <time>2021-06-06T14:09:50.000Z</time>
      </trkpt>
      <trkpt lat="47.32699" lon="-1.41723">
        <ele>112</ele>
        <time>2021-06-06T14:09:52.000Z</time>
      </trkpt>
      <trkpt lat="47.32692" lon="-1.417">
        <ele>111</ele>
        <time>2021-06-06T14:09:54.000Z</time>
      </trkpt>
      <trkpt lat="47.32686" lon="-1.41677">
        <ele>111</ele>
        <time>2021-06-06T14:09:56.000Z</time>
      </trkpt>
      <trkpt lat="47.3268" lon="-1.41654">
        <ele>111</ele>
        <time>2021-06-06T14:09:58.000Z</time>
      </trkpt>
      <trkpt lat="47.32674" lon="-1.41633">
        <ele>112</ele>
        <time>2021-06-06T14:10:00.000Z</time>
      </trkpt>
      <trkpt lat="47.32668" lon="-1.41616">
        <ele>112</ele>
        <time>2021-06-06T14:10:02.000Z</time>
      </trkpt>
      <trkpt lat="47.32662" lon="-1.41599">
        <ele>112</ele>
        <time>2021-06-06T14:10:04.000Z</time>
      </trkpt>
      <trkpt lat="47.32657" lon="-1.41584">
        <ele>112</ele>
        <time>2021-06-06T14:10:06.000Z</time>
      </trkpt>
      <trkpt lat="47.32653" lon="-1.41569">
        <ele>113</ele>
        <time>2021-06-06T14:10:08.000Z</time>
      </trkpt>
      <trkpt lat="47.32647" lon="-1.41554">
        <ele>114</ele>
        <time>2021-06-06T14:10:10.000Z</time>
      </trkpt>
      <trkpt lat="47.32641" lon="-1.4154">
        <ele>114</ele>
        <time>2021-06-06T14:10:12.000Z</time>
      </trkpt>
      <trkpt lat="47.32634" lon="-1.41528">
        <ele>115</ele>
        <time>2021-06-06T14:10:14.000Z</time>
      </trkpt>
      <trkpt lat="47.32624" lon="-1.41517">
        <ele>115</ele>
        <time>2021-06-06T14:10:16.000Z</time>
      </trkpt>
      <trkpt lat="47.32614" lon="-1.41509">
        <ele>115</ele>
        <time>2021-06-06T14:10:18.000Z</time>
      </trkpt>
      <trkpt lat="47.32603" lon="-1.415">
        <ele>115</ele>
        <time>2021-06-06T14:10:20.000Z</time>
      </trkpt>
      <trkpt lat="47.32593" lon="-1.41491">
        <ele>115</ele>
        <time>2021-06-06T14:10:22.000Z</time>
      </trkpt>
      <trkpt lat="47.32584" lon="-1.41481">
        <ele>116</ele>
        <time>2021-06-06T14:10:24.000Z</time>
      </trkpt>
      <trkpt lat="47.32576" lon="-1.41471">
        <ele>116</ele>
        <time>2021-06-06T14:10:26.000Z</time>
      </trkpt>
      <trkpt lat="47.32567" lon="-1.41459">
        <ele>117</ele>
        <time>2021-06-06T14:10:28.000Z</time>
      </trkpt>
      <trkpt lat="47.3256" lon="-1.41447">
        <ele>116</ele>
        <time>2021-06-06T14:10:30.000Z</time>
      </trkpt>
      <trkpt lat="47.32553" lon="-1.41435">
        <ele>116</ele>
        <time>2021-06-06T14:10:32.000Z</time>
      </trkpt>
      <trkpt lat="47.32547" lon="-1.41424">
        <ele>116</ele>
        <time>2021-06-06T14:10:34.000Z</time>
      </trkpt>
      <trkpt lat="47.3254" lon="-1.41413">
        <ele>116</ele>
        <time>2021-06-06T14:10:36.000Z</time>
      </trkpt>
      <trkpt lat="47.32534" lon="-1.41403">
        <ele>116</ele>
        <time>2021-06-06T14:10:38.000Z</time>
      </trkpt>
      <trkpt lat="47.32527" lon="-1.41392">
        <ele>115</ele>
        <time>2021-06-06T14:10:40.000Z</time>
      </trkpt>
      <trkpt lat="47.32518" lon="-1.41384">
        <ele>115</ele>
        <time>2021-06-06T14:10:43.000Z</time>
      </trkpt>
      <trkpt lat="47.32506" lon="-1.41392">
        <ele>114</ele>
        <time>2021-06-06T14:10:46.000Z</time>
      </trkpt>
      <trkpt lat="47.32496" lon="-1.41401">
        <ele>114</ele>
        <time>2021-06-06T14:10:48.000Z</time>
      </trkpt>
      <trkpt lat="47.32484" lon="-1.41411">
        <ele>113</ele>
        <time>2021-06-06T14:10:50.000Z</time>
      </trkpt>
      <trkpt lat="47.32473" lon="-1.41423">
        <ele>112</ele>
        <time>2021-06-06T14:10:52.000Z</time>
      </trkpt>
      <trkpt lat="47.32462" lon="-1.41438">
        <ele>112</ele>
        <time>2021-06-06T14:10:54.000Z</time>
      </trkpt>
      <trkpt lat="47.32451" lon="-1.41454">
        <ele>111</ele>
        <time>2021-06-06T14:10:56.000Z</time>
      </trkpt>
      <trkpt lat="47.32441" lon="-1.41472">
        <ele>110</ele>
        <time>2021-06-06T14:10:58.000Z</time>
      </trkpt>
      <trkpt lat="47.32431" lon="-1.41491">
        <ele>111</ele>
        <time>2021-06-06T14:11:00.000Z</time>
      </trkpt>
      <trkpt lat="47.32421" lon="-1.41509">
        <ele>110</ele>
        <time>2021-06-06T14:11:02.000Z</time>
      </trkpt>
      <trkpt lat="47.32411" lon="-1.41527">
        <ele>110</ele>
        <time>2021-06-06T14:11:04.000Z</time>
      </trkpt>
      <trkpt lat="47.32399" lon="-1.41547">
        <ele>109</ele>
        <time>2021-06-06T14:11:06.000Z</time>
      </trkpt>
      <trkpt lat="47.32388" lon="-1.41567">
        <ele>108</ele>
        <time>2021-06-06T14:11:08.000Z</time>
      </trkpt>
      <trkpt lat="47.32377" lon="-1.41586">
        <ele>107</ele>
        <time>2021-06-06T14:11:10.000Z</time>
      </trkpt>
      <trkpt lat="47.32365" lon="-1.41605">
        <ele>107</ele>
        <time>2021-06-06T14:11:12.000Z</time>
      </trkpt>
      <trkpt lat="47.32355" lon="-1.41623">
        <ele>106</ele>
        <time>2021-06-06T14:11:14.000Z</time>
      </trkpt>
      <trkpt lat="47.32344" lon="-1.41641">
        <ele>106</ele>
        <time>2021-06-06T14:11:16.000Z</time>
      </trkpt>
      <trkpt lat="47.32334" lon="-1.41659">
        <ele>106</ele>
        <time>2021-06-06T14:11:18.000Z</time>
      </trkpt>
      <trkpt lat="47.32323" lon="-1.41676">
        <ele>106</ele>
        <time>2021-06-06T14:11:20.000Z</time>
      </trkpt>
      <trkpt lat="47.32313" lon="-1.41694">
        <ele>105</ele>
        <time>2021-06-06T14:11:22.000Z</time>
      </trkpt>
      <trkpt lat="47.32303" lon="-1.41713">
        <ele>105</ele>
        <time>2021-06-06T14:11:24.000Z</time>
      </trkpt>
      <trkpt lat="47.32295" lon="-1.41733">
        <ele>104</ele>
        <time>2021-06-06T14:11:26.000Z</time>
      </trkpt>
      <trkpt lat="47.32288" lon="-1.41757">
        <ele>103</ele>
        <time>2021-06-06T14:11:28.000Z</time>
      </trkpt>
      <trkpt lat="47.32283" lon="-1.4178">
        <ele>102</ele>
        <time>2021-06-06T14:11:30.000Z</time>
      </trkpt>
      <trkpt lat="47.32279" lon="-1.41805">
        <ele>101</ele>
        <time>2021-06-06T14:11:32.000Z</time>
      </trkpt>
      <trkpt lat="47.32275" lon="-1.4183">
        <ele>100</ele>
        <time>2021-06-06T14:11:34.000Z</time>
      </trkpt>
      <trkpt lat="47.32271" lon="-1.41856">
        <ele>99</ele>
        <time>2021-06-06T14:11:36.000Z</time>
      </trkpt>
      <trkpt lat="47.32267" lon="-1.41881">
        <ele>98</ele>
        <time>2021-06-06T14:11:38.000Z</time>
      </trkpt>
      <trkpt lat="47.32261" lon="-1.41905">
        <ele>98</ele>
        <time>2021-06-06T14:11:40.000Z</time>
      </trkpt>
      <trkpt lat="47.32251" lon="-1.41927">
        <ele>97</ele>
        <time>2021-06-06T14:11:42.000Z</time>
      </trkpt>
      <trkpt lat="47.32245" lon="-1.41938">
        <ele>97</ele>
        <time>2021-06-06T14:11:43.000Z</time>
      </trkpt>
      <trkpt lat="47.32238" lon="-1.41948">
        <ele>97</ele>
        <time>2021-06-06T14:11:44.000Z</time>
      </trkpt>
      <trkpt lat="47.32231" lon="-1.41956">
        <ele>96</ele>
        <time>2021-06-06T14:11:45.000Z</time>
      </trkpt>
      <trkpt lat="47.32223" lon="-1.41964">
        <ele>95</ele>
        <time>2021-06-06T14:11:46.000Z</time>
      </trkpt>
      <trkpt lat="47.32214" lon="-1.4197">
        <ele>95</ele>
        <time>2021-06-06T14:11:47.000Z</time>
      </trkpt>
      <trkpt lat="47.32205" lon="-1.41976">
        <ele>95</ele>
        <time>2021-06-06T14:11:48.000Z</time>
      </trkpt>
      <trkpt lat="47.32195" lon="-1.41979">
        <ele>94</ele>
        <time>2021-06-06T14:11:49.000Z</time>
      </trkpt>
      <trkpt lat="47.32185" lon="-1.41982">
        <ele>93</ele>
        <time>2021-06-06T14:11:50.000Z</time>
      </trkpt>
      <trkpt lat="47.32175" lon="-1.41983">
        <ele>93</ele>
        <time>2021-06-06T14:11:51.000Z</time>
      </trkpt>
      <trkpt lat="47.32164" lon="-1.41982">
        <ele>93</ele>
        <time>2021-06-06T14:11:52.000Z</time>
      </trkpt>
      <trkpt lat="47.32154" lon="-1.41982">
        <ele>94</ele>
        <time>2021-06-06T14:11:53.000Z</time>
      </trkpt>
      <trkpt lat="47.32144" lon="-1.4198">
        <ele>94</ele>
        <time>2021-06-06T14:11:54.000Z</time>
      </trkpt>
      <trkpt lat="47.32134" lon="-1.41976">
        <ele>95</ele>
        <time>2021-06-06T14:11:55.000Z</time>
      </trkpt>
      <trkpt lat="47.32125" lon="-1.41968">
        <ele>94</ele>
        <time>2021-06-06T14:11:56.000Z</time>
      </trkpt>
      <trkpt lat="47.32117" lon="-1.41957">
        <ele>94</ele>
        <time>2021-06-06T14:11:57.000Z</time>
      </trkpt>
      <trkpt lat="47.3211" lon="-1.41944">
        <ele>94</ele>
        <time>2021-06-06T14:11:58.000Z</time>
      </trkpt>
      <trkpt lat="47.32104" lon="-1.41933">
        <ele>93</ele>
        <time>2021-06-06T14:11:59.000Z</time>
      </trkpt>
      <trkpt lat="47.32097" lon="-1.41922">
        <ele>92</ele>
        <time>2021-06-06T14:12:00.000Z</time>
      </trkpt>
      <trkpt lat="47.3209" lon="-1.41911">
        <ele>91</ele>
        <time>2021-06-06T14:12:01.000Z</time>
      </trkpt>
      <trkpt lat="47.32084" lon="-1.419">
        <ele>90</ele>
        <time>2021-06-06T14:12:02.000Z</time>
      </trkpt>
      <trkpt lat="47.32077" lon="-1.41888">
        <ele>90</ele>
        <time>2021-06-06T14:12:03.000Z</time>
      </trkpt>
      <trkpt lat="47.32071" lon="-1.41878">
        <ele>89</ele>
        <time>2021-06-06T14:12:04.000Z</time>
      </trkpt>
      <trkpt lat="47.32064" lon="-1.41868">
        <ele>88</ele>
        <time>2021-06-06T14:12:05.000Z</time>
      </trkpt>
      <trkpt lat="47.32058" lon="-1.41857">
        <ele>88</ele>
        <time>2021-06-06T14:12:06.000Z</time>
      </trkpt>
      <trkpt lat="47.32052" lon="-1.41847">
        <ele>87</ele>
        <time>2021-06-06T14:12:07.000Z</time>
      </trkpt>
      <trkpt lat="47.32045" lon="-1.41836">
        <ele>86</ele>
        <time>2021-06-06T14:12:08.000Z</time>
      </trkpt>
      <trkpt lat="47.32039" lon="-1.41825">
        <ele>86</ele>
        <time>2021-06-06T14:12:09.000Z</time>
      </trkpt>
      <trkpt lat="47.32032" lon="-1.41815">
        <ele>86</ele>
        <time>2021-06-06T14:12:10.000Z</time>
      </trkpt>
      <trkpt lat="47.32026" lon="-1.41805">
        <ele>85</ele>
        <time>2021-06-06T14:12:11.000Z</time>
      </trkpt>
      <trkpt lat="47.32019" lon="-1.41794">
        <ele>84</ele>
        <time>2021-06-06T14:12:12.000Z</time>
      </trkpt>
      <trkpt lat="47.32012" lon="-1.41783">
        <ele>83</ele>
        <time>2021-06-06T14:12:13.000Z</time>
      </trkpt>
      <trkpt lat="47.32006" lon="-1.41772">
        <ele>82</ele>
        <time>2021-06-06T14:12:14.000Z</time>
      </trkpt>
      <trkpt lat="47.32" lon="-1.41761">
        <ele>81</ele>
        <time>2021-06-06T14:12:15.000Z</time>
      </trkpt>
      <trkpt lat="47.31993" lon="-1.41751">
        <ele>80</ele>
        <time>2021-06-06T14:12:16.000Z</time>
      </trkpt>
      <trkpt lat="47.31986" lon="-1.41741">
        <ele>80</ele>
        <time>2021-06-06T14:12:17.000Z</time>
      </trkpt>
      <trkpt lat="47.3198" lon="-1.4173">
        <ele>78</ele>
        <time>2021-06-06T14:12:18.000Z</time>
      </trkpt>
      <trkpt lat="47.31973" lon="-1.4172">
        <ele>78</ele>
        <time>2021-06-06T14:12:19.000Z</time>
      </trkpt>
      <trkpt lat="47.31967" lon="-1.41709">
        <ele>77</ele>
        <time>2021-06-06T14:12:20.000Z</time>
      </trkpt>
      <trkpt lat="47.3196" lon="-1.41699">
        <ele>76</ele>
        <time>2021-06-06T14:12:21.000Z</time>
      </trkpt>
      <trkpt lat="47.31954" lon="-1.41689">
        <ele>76</ele>
        <time>2021-06-06T14:12:22.000Z</time>
      </trkpt>
      <trkpt lat="47.31947" lon="-1.41679">
        <ele>75</ele>
        <time>2021-06-06T14:12:23.000Z</time>
      </trkpt>
      <trkpt lat="47.3194" lon="-1.4167">
        <ele>75</ele>
        <time>2021-06-06T14:12:24.000Z</time>
      </trkpt>
      <trkpt lat="47.31932" lon="-1.41662">
        <ele>74</ele>
        <time>2021-06-06T14:12:25.000Z</time>
      </trkpt>
      <trkpt lat="47.31924" lon="-1.41654">
        <ele>74</ele>
        <time>2021-06-06T14:12:26.000Z</time>
      </trkpt>
      <trkpt lat="47.31916" lon="-1.41648">
        <ele>73</ele>
        <time>2021-06-06T14:12:27.000Z</time>
      </trkpt>
      <trkpt lat="47.31907" lon="-1.41643">
        <ele>72</ele>
        <time>2021-06-06T14:12:28.000Z</time>
      </trkpt>
      <trkpt lat="47.31898" lon="-1.41639">
        <ele>72</ele>
        <time>2021-06-06T14:12:29.000Z</time>
      </trkpt>
      <trkpt lat="47.3189" lon="-1.41636">
        <ele>72</ele>
        <time>2021-06-06T14:12:30.000Z</time>
      </trkpt>
      <trkpt lat="47.31881" lon="-1.41632">
        <ele>71</ele>
        <time>2021-06-06T14:12:31.000Z</time>
      </trkpt>
      <trkpt lat="47.31872" lon="-1.41629">
        <ele>70</ele>
        <time>2021-06-06T14:12:32.000Z</time>
      </trkpt>
      <trkpt lat="47.31863" lon="-1.41625">
        <ele>70</ele>
        <time>2021-06-06T14:12:33.000Z</time>
      </trkpt>
      <trkpt lat="47.31855" lon="-1.41622">
        <ele>70</ele>
        <time>2021-06-06T14:12:34.000Z</time>
      </trkpt>
      <trkpt lat="47.31846" lon="-1.41619">
        <ele>69</ele>
        <time>2021-06-06T14:12:35.000Z</time>
      </trkpt>
      <trkpt lat="47.31837" lon="-1.41615">
        <ele>69</ele>
        <time>2021-06-06T14:12:36.000Z</time>
      </trkpt>
      <trkpt lat="47.3182" lon="-1.41609">
        <ele>68</ele>
        <time>2021-06-06T14:12:38.000Z</time>
      </trkpt>
      <trkpt lat="47.31802" lon="-1.41602">
        <ele>67</ele>
        <time>2021-06-06T14:12:40.000Z</time>
      </trkpt>
      <trkpt lat="47.31785" lon="-1.41596">
        <ele>67</ele>
        <time>2021-06-06T14:12:42.000Z</time>
      </trkpt>
      <trkpt lat="47.31768" lon="-1.41589">
        <ele>66</ele>
        <time>2021-06-06T14:12:44.000Z</time>
      </trkpt>
      <trkpt lat="47.31751" lon="-1.41583">
        <ele>66</ele>
        <time>2021-06-06T14:12:46.000Z</time>
      </trkpt>
      <trkpt lat="47.31734" lon="-1.41576">
        <ele>65</ele>
        <time>2021-06-06T14:12:48.000Z</time>
      </trkpt>
      <trkpt lat="47.31717" lon="-1.41569">
        <ele>64</ele>
        <time>2021-06-06T14:12:50.000Z</time>
      </trkpt>
      <trkpt lat="47.317" lon="-1.41562">
        <ele>63</ele>
        <time>2021-06-06T14:12:52.000Z</time>
      </trkpt>
      <trkpt lat="47.31684" lon="-1.41553">
        <ele>63</ele>
        <time>2021-06-06T14:12:54.000Z</time>
      </trkpt>
      <trkpt lat="47.31669" lon="-1.4154">
        <ele>63</ele>
        <time>2021-06-06T14:12:56.000Z</time>
      </trkpt>
      <trkpt lat="47.31654" lon="-1.41524">
        <ele>62</ele>
        <time>2021-06-06T14:12:58.000Z</time>
      </trkpt>
      <trkpt lat="47.31647" lon="-1.41515">
        <ele>61</ele>
        <time>2021-06-06T14:12:59.000Z</time>
      </trkpt>
      <trkpt lat="47.3164" lon="-1.41506">
        <ele>60</ele>
        <time>2021-06-06T14:13:00.000Z</time>
      </trkpt>
      <trkpt lat="47.31633" lon="-1.41498">
        <ele>60</ele>
        <time>2021-06-06T14:13:01.000Z</time>
      </trkpt>
      <trkpt lat="47.31619" lon="-1.41483">
        <ele>59</ele>
        <time>2021-06-06T14:13:03.000Z</time>
      </trkpt>
      <trkpt lat="47.31605" lon="-1.41469">
        <ele>59</ele>
        <time>2021-06-06T14:13:05.000Z</time>
      </trkpt>
      <trkpt lat="47.31591" lon="-1.41457">
        <ele>59</ele>
        <time>2021-06-06T14:13:07.000Z</time>
      </trkpt>
      <trkpt lat="47.31578" lon="-1.41445">
        <ele>59</ele>
        <time>2021-06-06T14:13:09.000Z</time>
      </trkpt>
      <trkpt lat="47.31565" lon="-1.41434">
        <ele>59</ele>
        <time>2021-06-06T14:13:11.000Z</time>
      </trkpt>
      <trkpt lat="47.31553" lon="-1.41423">
        <ele>59</ele>
        <time>2021-06-06T14:13:13.000Z</time>
      </trkpt>
      <trkpt lat="47.31542" lon="-1.41412">
        <ele>59</ele>
        <time>2021-06-06T14:13:15.000Z</time>
      </trkpt>
      <trkpt lat="47.3153" lon="-1.41402">
        <ele>59</ele>
        <time>2021-06-06T14:13:17.000Z</time>
      </trkpt>
      <trkpt lat="47.31519" lon="-1.41393">
        <ele>60</ele>
        <time>2021-06-06T14:13:19.000Z</time>
      </trkpt>
      <trkpt lat="47.31507" lon="-1.41383">
        <ele>60</ele>
        <time>2021-06-06T14:13:21.000Z</time>
      </trkpt>
      <trkpt lat="47.31494" lon="-1.41376">
        <ele>60</ele>
        <time>2021-06-06T14:13:23.000Z</time>
      </trkpt>
      <trkpt lat="47.31481" lon="-1.41371">
        <ele>60</ele>
        <time>2021-06-06T14:13:25.000Z</time>
      </trkpt>
      <trkpt lat="47.31469" lon="-1.41367">
        <ele>60</ele>
        <time>2021-06-06T14:13:27.000Z</time>
      </trkpt>
      <trkpt lat="47.31456" lon="-1.41363">
        <ele>60</ele>
        <time>2021-06-06T14:13:29.000Z</time>
      </trkpt>
      <trkpt lat="47.31444" lon="-1.41355">
        <ele>60</ele>
        <time>2021-06-06T14:13:31.000Z</time>
      </trkpt>
      <trkpt lat="47.31433" lon="-1.41346">
        <ele>60</ele>
        <time>2021-06-06T14:13:33.000Z</time>
      </trkpt>
      <trkpt lat="47.31422" lon="-1.41336">
        <ele>61</ele>
        <time>2021-06-06T14:13:35.000Z</time>
      </trkpt>
      <trkpt lat="47.31411" lon="-1.41321">
        <ele>60</ele>
        <time>2021-06-06T14:13:37.000Z</time>
      </trkpt>
      <trkpt lat="47.31402" lon="-1.41306">
        <ele>60</ele>
        <time>2021-06-06T14:13:39.000Z</time>
      </trkpt>
      <trkpt lat="47.31394" lon="-1.41291">
        <ele>60</ele>
        <time>2021-06-06T14:13:41.000Z</time>
      </trkpt>
      <trkpt lat="47.31385" lon="-1.41275">
        <ele>61</ele>
        <time>2021-06-06T14:13:43.000Z</time>
      </trkpt>
      <trkpt lat="47.31377" lon="-1.4126">
        <ele>61</ele>
        <time>2021-06-06T14:13:45.000Z</time>
      </trkpt>
      <trkpt lat="47.31369" lon="-1.41246">
        <ele>61</ele>
        <time>2021-06-06T14:13:47.000Z</time>
      </trkpt>
      <trkpt lat="47.31361" lon="-1.41232">
        <ele>61</ele>
        <time>2021-06-06T14:13:49.000Z</time>
      </trkpt>
      <trkpt lat="47.31355" lon="-1.41217">
        <ele>61</ele>
        <time>2021-06-06T14:13:51.000Z</time>
      </trkpt>
      <trkpt lat="47.31346" lon="-1.41188">
        <ele>61</ele>
        <time>2021-06-06T14:13:54.000Z</time>
      </trkpt>
      <trkpt lat="47.31336" lon="-1.41177">
        <ele>62</ele>
        <time>2021-06-06T14:13:56.000Z</time>
      </trkpt>
      <trkpt lat="47.31324" lon="-1.41166">
        <ele>61</ele>
        <time>2021-06-06T14:13:58.000Z</time>
      </trkpt>
      <trkpt lat="47.31314" lon="-1.41152">
        <ele>60</ele>
        <time>2021-06-06T14:14:00.000Z</time>
      </trkpt>
      <trkpt lat="47.31306" lon="-1.41138">
        <ele>61</ele>
        <time>2021-06-06T14:14:02.000Z</time>
      </trkpt>
      <trkpt lat="47.31298" lon="-1.41125">
        <ele>61</ele>
        <time>2021-06-06T14:14:04.000Z</time>
      </trkpt>
      <trkpt lat="47.3129" lon="-1.41112">
        <ele>62</ele>
        <time>2021-06-06T14:14:06.000Z</time>
      </trkpt>
      <trkpt lat="47.31283" lon="-1.41099">
        <ele>63</ele>
        <time>2021-06-06T14:14:08.000Z</time>
      </trkpt>
      <trkpt lat="47.31274" lon="-1.41087">
        <ele>63</ele>
        <time>2021-06-06T14:14:10.000Z</time>
      </trkpt>
      <trkpt lat="47.31264" lon="-1.41075">
        <ele>63</ele>
        <time>2021-06-06T14:14:12.000Z</time>
      </trkpt>
      <trkpt lat="47.31254" lon="-1.41066">
        <ele>62</ele>
        <time>2021-06-06T14:14:14.000Z</time>
      </trkpt>
      <trkpt lat="47.31242" lon="-1.41056">
        <ele>61</ele>
        <time>2021-06-06T14:14:16.000Z</time>
      </trkpt>
      <trkpt lat="47.31231" lon="-1.41047">
        <ele>61</ele>
        <time>2021-06-06T14:14:18.000Z</time>
      </trkpt>
      <trkpt lat="47.31219" lon="-1.41039">
        <ele>60</ele>
        <time>2021-06-06T14:14:20.000Z</time>
      </trkpt>
      <trkpt lat="47.31208" lon="-1.41029">
        <ele>60</ele>
        <time>2021-06-06T14:14:22.000Z</time>
      </trkpt>
      <trkpt lat="47.31196" lon="-1.41018">
        <ele>59</ele>
        <time>2021-06-06T14:14:24.000Z</time>
      </trkpt>
      <trkpt lat="47.31186" lon="-1.41005">
        <ele>59</ele>
        <time>2021-06-06T14:14:26.000Z</time>
      </trkpt>
      <trkpt lat="47.31177" lon="-1.40991">
        <ele>59</ele>
        <time>2021-06-06T14:14:28.000Z</time>
      </trkpt>
      <trkpt lat="47.31168" lon="-1.40976">
        <ele>59</ele>
        <time>2021-06-06T14:14:30.000Z</time>
      </trkpt>
      <trkpt lat="47.31161" lon="-1.4096">
        <ele>59</ele>
        <time>2021-06-06T14:14:32.000Z</time>
      </trkpt>
      <trkpt lat="47.31153" lon="-1.40943">
        <ele>58</ele>
        <time>2021-06-06T14:14:34.000Z</time>
      </trkpt>
      <trkpt lat="47.31146" lon="-1.40926">
        <ele>58</ele>
        <time>2021-06-06T14:14:36.000Z</time>
      </trkpt>
      <trkpt lat="47.31139" lon="-1.4091">
        <ele>58</ele>
        <time>2021-06-06T14:14:38.000Z</time>
      </trkpt>
      <trkpt lat="47.31132" lon="-1.40893">
        <ele>57</ele>
        <time>2021-06-06T14:14:40.000Z</time>
      </trkpt>
      <trkpt lat="47.31124" lon="-1.40876">
        <ele>57</ele>
        <time>2021-06-06T14:14:42.000Z</time>
      </trkpt>
      <trkpt lat="47.31117" lon="-1.4086">
        <ele>58</ele>
        <time>2021-06-06T14:14:44.000Z</time>
      </trkpt>
      <trkpt lat="47.3111" lon="-1.40843">
        <ele>58</ele>
        <time>2021-06-06T14:14:46.000Z</time>
      </trkpt>
      <trkpt lat="47.31103" lon="-1.40827">
        <ele>58</ele>
        <time>2021-06-06T14:14:48.000Z</time>
      </trkpt>
      <trkpt lat="47.31096" lon="-1.4081">
        <ele>58</ele>
        <time>2021-06-06T14:14:50.000Z</time>
      </trkpt>
      <trkpt lat="47.31088" lon="-1.40794">
        <ele>58</ele>
        <time>2021-06-06T14:14:52.000Z</time>
      </trkpt>
      <trkpt lat="47.31081" lon="-1.40778">
        <ele>58</ele>
        <time>2021-06-06T14:14:54.000Z</time>
      </trkpt>
      <trkpt lat="47.31074" lon="-1.40762">
        <ele>58</ele>
        <time>2021-06-06T14:14:56.000Z</time>
      </trkpt>
      <trkpt lat="47.31067" lon="-1.40747">
        <ele>58</ele>
        <time>2021-06-06T14:14:58.000Z</time>
      </trkpt>
      <trkpt lat="47.31058" lon="-1.40732">
        <ele>58</ele>
        <time>2021-06-06T14:15:00.000Z</time>
      </trkpt>
      <trkpt lat="47.31048" lon="-1.40719">
        <ele>58</ele>
        <time>2021-06-06T14:15:02.000Z</time>
      </trkpt>
      <trkpt lat="47.31037" lon="-1.40708">
        <ele>58</ele>
        <time>2021-06-06T14:15:04.000Z</time>
      </trkpt>
      <trkpt lat="47.31025" lon="-1.40699">
        <ele>58</ele>
        <time>2021-06-06T14:15:06.000Z</time>
      </trkpt>
      <trkpt lat="47.31013" lon="-1.40693">
        <ele>58</ele>
        <time>2021-06-06T14:15:08.000Z</time>
      </trkpt>
      <trkpt lat="47.31" lon="-1.40687">
        <ele>58</ele>
        <time>2021-06-06T14:15:10.000Z</time>
      </trkpt>
      <trkpt lat="47.30987" lon="-1.40683">
        <ele>59</ele>
        <time>2021-06-06T14:15:12.000Z</time>
      </trkpt>
      <trkpt lat="47.30975" lon="-1.4068">
        <ele>60</ele>
        <time>2021-06-06T14:15:14.000Z</time>
      </trkpt>
      <trkpt lat="47.30964" lon="-1.40677">
        <ele>60</ele>
        <time>2021-06-06T14:15:16.000Z</time>
      </trkpt>
      <trkpt lat="47.30954" lon="-1.40674">
        <ele>61</ele>
        <time>2021-06-06T14:15:18.000Z</time>
      </trkpt>
      <trkpt lat="47.30945" lon="-1.40671">
        <ele>61</ele>
        <time>2021-06-06T14:15:20.000Z</time>
      </trkpt>
      <trkpt lat="47.30932" lon="-1.40667">
        <ele>62</ele>
        <time>2021-06-06T14:15:23.000Z</time>
      </trkpt>
      <trkpt lat="47.30923" lon="-1.40664">
        <ele>63</ele>
        <time>2021-06-06T14:15:25.000Z</time>
      </trkpt>
      <trkpt lat="47.30914" lon="-1.4066">
        <ele>63</ele>
        <time>2021-06-06T14:15:27.000Z</time>
      </trkpt>
      <trkpt lat="47.309" lon="-1.40656">
        <ele>64</ele>
        <time>2021-06-06T14:15:30.000Z</time>
      </trkpt>
      <trkpt lat="47.30887" lon="-1.40652">
        <ele>64</ele>
        <time>2021-06-06T14:15:33.000Z</time>
      </trkpt>
      <trkpt lat="47.30878" lon="-1.40649">
        <ele>65</ele>
        <time>2021-06-06T14:15:35.000Z</time>
      </trkpt>
      <trkpt lat="47.30869" lon="-1.40643">
        <ele>66</ele>
        <time>2021-06-06T14:15:37.000Z</time>
      </trkpt>
      <trkpt lat="47.30861" lon="-1.40637">
        <ele>66</ele>
        <time>2021-06-06T14:15:39.000Z</time>
      </trkpt>
      <trkpt lat="47.30853" lon="-1.4063">
        <ele>66</ele>
        <time>2021-06-06T14:15:41.000Z</time>
      </trkpt>
      <trkpt lat="47.30845" lon="-1.40621">
        <ele>66</ele>
        <time>2021-06-06T14:15:43.000Z</time>
      </trkpt>
      <trkpt lat="47.30838" lon="-1.40612">
        <ele>67</ele>
        <time>2021-06-06T14:15:45.000Z</time>
      </trkpt>
      <trkpt lat="47.30831" lon="-1.40604">
        <ele>67</ele>
        <time>2021-06-06T14:15:47.000Z</time>
      </trkpt>
      <trkpt lat="47.30823" lon="-1.40595">
        <ele>67</ele>
        <time>2021-06-06T14:15:49.000Z</time>
      </trkpt>
      <trkpt lat="47.30816" lon="-1.40585">
        <ele>67</ele>
        <time>2021-06-06T14:15:51.000Z</time>
      </trkpt>
      <trkpt lat="47.30808" lon="-1.40576">
        <ele>68</ele>
        <time>2021-06-06T14:15:53.000Z</time>
      </trkpt>
      <trkpt lat="47.30801" lon="-1.40567">
        <ele>68</ele>
        <time>2021-06-06T14:15:55.000Z</time>
      </trkpt>
      <trkpt lat="47.30791" lon="-1.40555">
        <ele>69</ele>
        <time>2021-06-06T14:15:58.000Z</time>
      </trkpt>
      <trkpt lat="47.30784" lon="-1.40546">
        <ele>70</ele>
        <time>2021-06-06T14:16:00.000Z</time>
      </trkpt>
      <trkpt lat="47.30776" lon="-1.40537">
        <ele>70</ele>
        <time>2021-06-06T14:16:02.000Z</time>
      </trkpt>
      <trkpt lat="47.30769" lon="-1.40528">
        <ele>70</ele>
        <time>2021-06-06T14:16:04.000Z</time>
      </trkpt>
      <trkpt lat="47.30762" lon="-1.40519">
        <ele>70</ele>
        <time>2021-06-06T14:16:06.000Z</time>
      </trkpt>
      <trkpt lat="47.30756" lon="-1.4051">
        <ele>70</ele>
        <time>2021-06-06T14:16:08.000Z</time>
      </trkpt>
      <trkpt lat="47.30748" lon="-1.40501">
        <ele>70</ele>
        <time>2021-06-06T14:16:10.000Z</time>
      </trkpt>
      <trkpt lat="47.30742" lon="-1.40493">
        <ele>70</ele>
        <time>2021-06-06T14:16:12.000Z</time>
      </trkpt>
      <trkpt lat="47.30735" lon="-1.40484">
        <ele>70</ele>
        <time>2021-06-06T14:16:14.000Z</time>
      </trkpt>
      <trkpt lat="47.30728" lon="-1.40475">
        <ele>70</ele>
        <time>2021-06-06T14:16:16.000Z</time>
      </trkpt>
      <trkpt lat="47.30721" lon="-1.40465">
        <ele>70</ele>
        <time>2021-06-06T14:16:18.000Z</time>
      </trkpt>
      <trkpt lat="47.30713" lon="-1.40455">
        <ele>70</ele>
        <time>2021-06-06T14:16:20.000Z</time>
      </trkpt>
      <trkpt lat="47.30706" lon="-1.40446">
        <ele>70</ele>
        <time>2021-06-06T14:16:22.000Z</time>
      </trkpt>
      <trkpt lat="47.30699" lon="-1.40437">
        <ele>70</ele>
        <time>2021-06-06T14:16:24.000Z</time>
      </trkpt>
      <trkpt lat="47.30692" lon="-1.40428">
        <ele>70</ele>
        <time>2021-06-06T14:16:26.000Z</time>
      </trkpt>
      <trkpt lat="47.30685" lon="-1.4042">
        <ele>70</ele>
        <time>2021-06-06T14:16:28.000Z</time>
      </trkpt>
      <trkpt lat="47.30677" lon="-1.4041">
        <ele>70</ele>
        <time>2021-06-06T14:16:30.000Z</time>
      </trkpt>
      <trkpt lat="47.30669" lon="-1.404">
        <ele>70</ele>
        <time>2021-06-06T14:16:32.000Z</time>
      </trkpt>
      <trkpt lat="47.30661" lon="-1.4039">
        <ele>70</ele>
        <time>2021-06-06T14:16:34.000Z</time>
      </trkpt>
      <trkpt lat="47.30653" lon="-1.4038">
        <ele>70</ele>
        <time>2021-06-06T14:16:36.000Z</time>
      </trkpt>
      <trkpt lat="47.30645" lon="-1.4037">
        <ele>70</ele>
        <time>2021-06-06T14:16:38.000Z</time>
      </trkpt>
      <trkpt lat="47.30638" lon="-1.4036">
        <ele>71</ele>
        <time>2021-06-06T14:16:40.000Z</time>
      </trkpt>
      <trkpt lat="47.3063" lon="-1.4035">
        <ele>71</ele>
        <time>2021-06-06T14:16:42.000Z</time>
      </trkpt>
      <trkpt lat="47.30622" lon="-1.4034">
        <ele>71</ele>
        <time>2021-06-06T14:16:44.000Z</time>
      </trkpt>
      <trkpt lat="47.30614" lon="-1.4033">
        <ele>71</ele>
        <time>2021-06-06T14:16:46.000Z</time>
      </trkpt>
      <trkpt lat="47.30605" lon="-1.40319">
        <ele>71</ele>
        <time>2021-06-06T14:16:48.000Z</time>
      </trkpt>
      <trkpt lat="47.30597" lon="-1.40308">
        <ele>71</ele>
        <time>2021-06-06T14:16:50.000Z</time>
      </trkpt>
      <trkpt lat="47.30588" lon="-1.40297">
        <ele>71</ele>
        <time>2021-06-06T14:16:52.000Z</time>
      </trkpt>
      <trkpt lat="47.30579" lon="-1.40285">
        <ele>71</ele>
        <time>2021-06-06T14:16:54.000Z</time>
      </trkpt>
      <trkpt lat="47.3057" lon="-1.40274">
        <ele>72</ele>
        <time>2021-06-06T14:16:56.000Z</time>
      </trkpt>
      <trkpt lat="47.30563" lon="-1.40264">
        <ele>72</ele>
        <time>2021-06-06T14:16:58.000Z</time>
      </trkpt>
      <trkpt lat="47.30555" lon="-1.40254">
        <ele>73</ele>
        <time>2021-06-06T14:17:00.000Z</time>
      </trkpt>
      <trkpt lat="47.30547" lon="-1.40245">
        <ele>73</ele>
        <time>2021-06-06T14:17:02.000Z</time>
      </trkpt>
      <trkpt lat="47.3054" lon="-1.40234">
        <ele>74</ele>
        <time>2021-06-06T14:17:04.000Z</time>
      </trkpt>
      <trkpt lat="47.30531" lon="-1.40223">
        <ele>74</ele>
        <time>2021-06-06T14:17:06.000Z</time>
      </trkpt>
      <trkpt lat="47.30523" lon="-1.40214">
        <ele>74</ele>
        <time>2021-06-06T14:17:08.000Z</time>
      </trkpt>
      <trkpt lat="47.30515" lon="-1.40203">
        <ele>75</ele>
        <time>2021-06-06T14:17:10.000Z</time>
      </trkpt>
      <trkpt lat="47.30507" lon="-1.40192">
        <ele>76</ele>
        <time>2021-06-06T14:17:12.000Z</time>
      </trkpt>
      <trkpt lat="47.30499" lon="-1.40182">
        <ele>76</ele>
        <time>2021-06-06T14:17:14.000Z</time>
      </trkpt>
      <trkpt lat="47.30492" lon="-1.40173">
        <ele>77</ele>
        <time>2021-06-06T14:17:16.000Z</time>
      </trkpt>
      <trkpt lat="47.30483" lon="-1.40165">
        <ele>77</ele>
        <time>2021-06-06T14:17:18.000Z</time>
      </trkpt>
      <trkpt lat="47.30474" lon="-1.40158">
        <ele>77</ele>
        <time>2021-06-06T14:17:20.000Z</time>
      </trkpt>
      <trkpt lat="47.30463" lon="-1.40151">
        <ele>78</ele>
        <time>2021-06-06T14:17:22.000Z</time>
      </trkpt>
      <trkpt lat="47.30452" lon="-1.40146">
        <ele>78</ele>
        <time>2021-06-06T14:17:24.000Z</time>
      </trkpt>
      <trkpt lat="47.30442" lon="-1.40144">
        <ele>78</ele>
        <time>2021-06-06T14:17:26.000Z</time>
      </trkpt>
      <trkpt lat="47.30431" lon="-1.40145">
        <ele>79</ele>
        <time>2021-06-06T14:17:28.000Z</time>
      </trkpt>
      <trkpt lat="47.30421" lon="-1.40145">
        <ele>79</ele>
        <time>2021-06-06T14:17:30.000Z</time>
      </trkpt>
      <trkpt lat="47.30411" lon="-1.40147">
        <ele>79</ele>
        <time>2021-06-06T14:17:32.000Z</time>
      </trkpt>
      <trkpt lat="47.30401" lon="-1.40149">
        <ele>80</ele>
        <time>2021-06-06T14:17:34.000Z</time>
      </trkpt>
      <trkpt lat="47.30392" lon="-1.40151">
        <ele>79</ele>
        <time>2021-06-06T14:17:36.000Z</time>
      </trkpt>
      <trkpt lat="47.30379" lon="-1.40156">
        <ele>80</ele>
        <time>2021-06-06T14:17:39.000Z</time>
      </trkpt>
      <trkpt lat="47.30367" lon="-1.40159">
        <ele>81</ele>
        <time>2021-06-06T14:17:42.000Z</time>
      </trkpt>
      <trkpt lat="47.30354" lon="-1.40163">
        <ele>81</ele>
        <time>2021-06-06T14:17:45.000Z</time>
      </trkpt>
      <trkpt lat="47.30341" lon="-1.40166">
        <ele>82</ele>
        <time>2021-06-06T14:17:48.000Z</time>
      </trkpt>
      <trkpt lat="47.30328" lon="-1.40171">
        <ele>83</ele>
        <time>2021-06-06T14:17:51.000Z</time>
      </trkpt>
      <trkpt lat="47.30319" lon="-1.40173">
        <ele>83</ele>
        <time>2021-06-06T14:17:53.000Z</time>
      </trkpt>
      <trkpt lat="47.3031" lon="-1.40176">
        <ele>84</ele>
        <time>2021-06-06T14:17:55.000Z</time>
      </trkpt>
      <trkpt lat="47.30301" lon="-1.40178">
        <ele>84</ele>
        <time>2021-06-06T14:17:57.000Z</time>
      </trkpt>
      <trkpt lat="47.30287" lon="-1.4018">
        <ele>85</ele>
        <time>2021-06-06T14:18:00.000Z</time>
      </trkpt>
      <trkpt lat="47.30275" lon="-1.4018">
        <ele>87</ele>
        <time>2021-06-06T14:18:03.000Z</time>
      </trkpt>
      <trkpt lat="47.30262" lon="-1.40178">
        <ele>87</ele>
        <time>2021-06-06T14:18:06.000Z</time>
      </trkpt>
      <trkpt lat="47.3025" lon="-1.40172">
        <ele>88</ele>
        <time>2021-06-06T14:18:09.000Z</time>
      </trkpt>
      <trkpt lat="47.30238" lon="-1.40165">
        <ele>89</ele>
        <time>2021-06-06T14:18:12.000Z</time>
      </trkpt>
      <trkpt lat="47.30227" lon="-1.40158">
        <ele>91</ele>
        <time>2021-06-06T14:18:15.000Z</time>
      </trkpt>
      <trkpt lat="47.30216" lon="-1.40149">
        <ele>92</ele>
        <time>2021-06-06T14:18:18.000Z</time>
      </trkpt>
      <trkpt lat="47.30205" lon="-1.4014">
        <ele>93</ele>
        <time>2021-06-06T14:18:21.000Z</time>
      </trkpt>
      <trkpt lat="47.30196" lon="-1.4013">
        <ele>93</ele>
        <time>2021-06-06T14:18:24.000Z</time>
      </trkpt>
      <trkpt lat="47.30186" lon="-1.40121">
        <ele>94</ele>
        <time>2021-06-06T14:18:27.000Z</time>
      </trkpt>
      <trkpt lat="47.30175" lon="-1.40112">
        <ele>95</ele>
        <time>2021-06-06T14:18:30.000Z</time>
      </trkpt>
      <trkpt lat="47.30165" lon="-1.40103">
        <ele>96</ele>
        <time>2021-06-06T14:18:33.000Z</time>
      </trkpt>
      <trkpt lat="47.30155" lon="-1.40094">
        <ele>96</ele>
        <time>2021-06-06T14:18:36.000Z</time>
      </trkpt>
      <trkpt lat="47.30145" lon="-1.40085">
        <ele>97</ele>
        <time>2021-06-06T14:18:39.000Z</time>
      </trkpt>
      <trkpt lat="47.30134" lon="-1.40075">
        <ele>97</ele>
        <time>2021-06-06T14:18:42.000Z</time>
      </trkpt>
      <trkpt lat="47.30124" lon="-1.40066">
        <ele>97</ele>
        <time>2021-06-06T14:18:45.000Z</time>
      </trkpt>
      <trkpt lat="47.30113" lon="-1.40056">
        <ele>97</ele>
        <time>2021-06-06T14:18:48.000Z</time>
      </trkpt>
      <trkpt lat="47.30103" lon="-1.40043">
        <ele>97</ele>
        <time>2021-06-06T14:18:51.000Z</time>
      </trkpt>
      <trkpt lat="47.30095" lon="-1.40027">
        <ele>97</ele>
        <time>2021-06-06T14:18:54.000Z</time>
      </trkpt>
      <trkpt lat="47.30089" lon="-1.40011">
        <ele>97</ele>
        <time>2021-06-06T14:18:57.000Z</time>
      </trkpt>
      <trkpt lat="47.30085" lon="-1.39994">
        <ele>98</ele>
        <time>2021-06-06T14:19:00.000Z</time>
      </trkpt>
      <trkpt lat="47.30082" lon="-1.39977">
        <ele>98</ele>
        <time>2021-06-06T14:19:03.000Z</time>
      </trkpt>
      <trkpt lat="47.30082" lon="-1.39959">
        <ele>98</ele>
        <time>2021-06-06T14:19:06.000Z</time>
      </trkpt>
      <trkpt lat="47.30084" lon="-1.39941">
        <ele>99</ele>
        <time>2021-06-06T14:19:09.000Z</time>
      </trkpt>
      <trkpt lat="47.30089" lon="-1.39924">
        <ele>99</ele>
        <time>2021-06-06T14:19:12.000Z</time>
      </trkpt>
      <trkpt lat="47.30096" lon="-1.39909">
        <ele>100</ele>
        <time>2021-06-06T14:19:15.000Z</time>
      </trkpt>
      <trkpt lat="47.30102" lon="-1.39894">
        <ele>101</ele>
        <time>2021-06-06T14:19:18.000Z</time>
      </trkpt>
      <trkpt lat="47.3011" lon="-1.39881">
        <ele>102</ele>
        <time>2021-06-06T14:19:21.000Z</time>
      </trkpt>
      <trkpt lat="47.30116" lon="-1.39868">
        <ele>103</ele>
        <time>2021-06-06T14:19:24.000Z</time>
      </trkpt>
      <trkpt lat="47.30113" lon="-1.39851">
        <ele>102</ele>
        <time>2021-06-06T14:19:28.000Z</time>
      </trkpt>
      <trkpt lat="47.30102" lon="-1.3984">
        <ele>101</ele>
        <time>2021-06-06T14:19:31.000Z</time>
      </trkpt>
      <trkpt lat="47.30092" lon="-1.39832">
        <ele>100</ele>
        <time>2021-06-06T14:19:33.000Z</time>
      </trkpt>
      <trkpt lat="47.30083" lon="-1.3982">
        <ele>100</ele>
        <time>2021-06-06T14:19:35.000Z</time>
      </trkpt>
      <trkpt lat="47.30071" lon="-1.398">
        <ele>100</ele>
        <time>2021-06-06T14:19:38.000Z</time>
      </trkpt>
      <trkpt lat="47.30063" lon="-1.39787">
        <ele>99</ele>
        <time>2021-06-06T14:19:40.000Z</time>
      </trkpt>
      <trkpt lat="47.3006" lon="-1.39775">
        <ele>100</ele>
        <time>2021-06-06T14:19:42.000Z</time>
      </trkpt>
      <trkpt lat="47.30055" lon="-1.39759">
        <ele>100</ele>
        <time>2021-06-06T14:19:45.000Z</time>
      </trkpt>
      <trkpt lat="47.30049" lon="-1.39747">
        <ele>101</ele>
        <time>2021-06-06T14:19:48.000Z</time>
      </trkpt>
      <trkpt lat="47.3004" lon="-1.39742">
        <ele>101</ele>
        <time>2021-06-06T14:19:52.000Z</time>
      </trkpt>
      <trkpt lat="47.30041" lon="-1.39725">
        <ele>102</ele>
        <time>2021-06-06T14:19:57.000Z</time>
      </trkpt>
      <trkpt lat="47.30049" lon="-1.3971">
        <ele>103</ele>
        <time>2021-06-06T14:20:00.000Z</time>
      </trkpt>
      <trkpt lat="47.30056" lon="-1.39701">
        <ele>104</ele>
        <time>2021-06-06T14:20:02.000Z</time>
      </trkpt>
      <trkpt lat="47.30063" lon="-1.39685">
        <ele>104</ele>
        <time>2021-06-06T14:20:05.000Z</time>
      </trkpt>
      <trkpt lat="47.30059" lon="-1.39671">
        <ele>102</ele>
        <time>2021-06-06T14:20:07.000Z</time>
      </trkpt>
      <trkpt lat="47.30048" lon="-1.3966">
        <ele>102</ele>
        <time>2021-06-06T14:20:09.000Z</time>
      </trkpt>
      <trkpt lat="47.30034" lon="-1.39648">
        <ele>100</ele>
        <time>2021-06-06T14:20:11.000Z</time>
      </trkpt>
      <trkpt lat="47.3002" lon="-1.39636">
        <ele>99</ele>
        <time>2021-06-06T14:20:13.000Z</time>
      </trkpt>
      <trkpt lat="47.30006" lon="-1.39624">
        <ele>97</ele>
        <time>2021-06-06T14:20:15.000Z</time>
      </trkpt>
      <trkpt lat="47.29993" lon="-1.39613">
        <ele>96</ele>
        <time>2021-06-06T14:20:17.000Z</time>
      </trkpt>
      <trkpt lat="47.29981" lon="-1.39603">
        <ele>94</ele>
        <time>2021-06-06T14:20:19.000Z</time>
      </trkpt>
      <trkpt lat="47.2997" lon="-1.396">
        <ele>93</ele>
        <time>2021-06-06T14:20:21.000Z</time>
      </trkpt>
      <trkpt lat="47.29959" lon="-1.39603">
        <ele>92</ele>
        <time>2021-06-06T14:20:24.000Z</time>
      </trkpt>
      <trkpt lat="47.29951" lon="-1.3959">
        <ele>91</ele>
        <time>2021-06-06T14:20:26.000Z</time>
      </trkpt>
      <trkpt lat="47.2994" lon="-1.39591">
        <ele>90</ele>
        <time>2021-06-06T14:20:29.000Z</time>
      </trkpt>
      <trkpt lat="47.29934" lon="-1.39601">
        <ele>91</ele>
        <time>2021-06-06T14:20:31.000Z</time>
      </trkpt>
      <trkpt lat="47.29925" lon="-1.39609">
        <ele>92</ele>
        <time>2021-06-06T14:20:33.000Z</time>
      </trkpt>
      <trkpt lat="47.29916" lon="-1.39614">
        <ele>92</ele>
        <time>2021-06-06T14:20:35.000Z</time>
      </trkpt>
      <trkpt lat="47.29905" lon="-1.39616">
        <ele>92</ele>
        <time>2021-06-06T14:20:37.000Z</time>
      </trkpt>
      <trkpt lat="47.29897" lon="-1.39606">
        <ele>92</ele>
        <time>2021-06-06T14:20:39.000Z</time>
      </trkpt>
      <trkpt lat="47.29889" lon="-1.39598">
        <ele>92</ele>
        <time>2021-06-06T14:20:41.000Z</time>
      </trkpt>
      <trkpt lat="47.29882" lon="-1.39589">
        <ele>93</ele>
        <time>2021-06-06T14:20:43.000Z</time>
      </trkpt>
      <trkpt lat="47.29876" lon="-1.39576">
        <ele>94</ele>
        <time>2021-06-06T14:20:45.000Z</time>
      </trkpt>
      <trkpt lat="47.29871" lon="-1.39563">
        <ele>93</ele>
        <time>2021-06-06T14:20:47.000Z</time>
      </trkpt>
      <trkpt lat="47.29865" lon="-1.39548">
        <ele>92</ele>
        <time>2021-06-06T14:20:49.000Z</time>
      </trkpt>
      <trkpt lat="47.29857" lon="-1.39538">
        <ele>92</ele>
        <time>2021-06-06T14:20:51.000Z</time>
      </trkpt>
      <trkpt lat="47.29848" lon="-1.3953">
        <ele>92</ele>
        <time>2021-06-06T14:20:53.000Z</time>
      </trkpt>
      <trkpt lat="47.29839" lon="-1.39522">
        <ele>93</ele>
        <time>2021-06-06T14:20:55.000Z</time>
      </trkpt>
      <trkpt lat="47.2983" lon="-1.39515">
        <ele>93</ele>
        <time>2021-06-06T14:20:57.000Z</time>
      </trkpt>
      <trkpt lat="47.29821" lon="-1.39507">
        <ele>93</ele>
        <time>2021-06-06T14:20:59.000Z</time>
      </trkpt>
      <trkpt lat="47.29812" lon="-1.395">
        <ele>93</ele>
        <time>2021-06-06T14:21:01.000Z</time>
      </trkpt>
      <trkpt lat="47.29804" lon="-1.39493">
        <ele>93</ele>
        <time>2021-06-06T14:21:03.000Z</time>
      </trkpt>
      <trkpt lat="47.29796" lon="-1.39487">
        <ele>94</ele>
        <time>2021-06-06T14:21:05.000Z</time>
      </trkpt>
      <trkpt lat="47.29787" lon="-1.39481">
        <ele>94</ele>
        <time>2021-06-06T14:21:07.000Z</time>
      </trkpt>
      <trkpt lat="47.29779" lon="-1.39476">
        <ele>94</ele>
        <time>2021-06-06T14:21:09.000Z</time>
      </trkpt>
      <trkpt lat="47.29771" lon="-1.39469">
        <ele>93</ele>
        <time>2021-06-06T14:21:11.000Z</time>
      </trkpt>
      <trkpt lat="47.29763" lon="-1.39462">
        <ele>93</ele>
        <time>2021-06-06T14:21:13.000Z</time>
      </trkpt>
      <trkpt lat="47.29754" lon="-1.39454">
        <ele>93</ele>
        <time>2021-06-06T14:21:15.000Z</time>
      </trkpt>
      <trkpt lat="47.29744" lon="-1.39447">
        <ele>92</ele>
        <time>2021-06-06T14:21:17.000Z</time>
      </trkpt>
      <trkpt lat="47.29734" lon="-1.39443">
        <ele>92</ele>
        <time>2021-06-06T14:21:19.000Z</time>
      </trkpt>
      <trkpt lat="47.29722" lon="-1.39438">
        <ele>91</ele>
        <time>2021-06-06T14:21:21.000Z</time>
      </trkpt>
      <trkpt lat="47.2971" lon="-1.39435">
        <ele>91</ele>
        <time>2021-06-06T14:21:23.000Z</time>
      </trkpt>
      <trkpt lat="47.29698" lon="-1.39431">
        <ele>91</ele>
        <time>2021-06-06T14:21:25.000Z</time>
      </trkpt>
      <trkpt lat="47.29684" lon="-1.39428">
        <ele>91</ele>
        <time>2021-06-06T14:21:27.000Z</time>
      </trkpt>
      <trkpt lat="47.29671" lon="-1.39425">
        <ele>91</ele>
        <time>2021-06-06T14:21:29.000Z</time>
      </trkpt>
      <trkpt lat="47.29655" lon="-1.39422">
        <ele>91</ele>
        <time>2021-06-06T14:21:31.000Z</time>
      </trkpt>
      <trkpt lat="47.29641" lon="-1.39418">
        <ele>91</ele>
        <time>2021-06-06T14:21:33.000Z</time>
      </trkpt>
      <trkpt lat="47.29627" lon="-1.39416">
        <ele>90</ele>
        <time>2021-06-06T14:21:35.000Z</time>
      </trkpt>
      <trkpt lat="47.29612" lon="-1.39412">
        <ele>90</ele>
        <time>2021-06-06T14:21:37.000Z</time>
      </trkpt>
      <trkpt lat="47.29597" lon="-1.39408">
        <ele>90</ele>
        <time>2021-06-06T14:21:39.000Z</time>
      </trkpt>
      <trkpt lat="47.29584" lon="-1.39399">
        <ele>90</ele>
        <time>2021-06-06T14:21:41.000Z</time>
      </trkpt>
      <trkpt lat="47.2957" lon="-1.39389">
        <ele>91</ele>
        <time>2021-06-06T14:21:43.000Z</time>
      </trkpt>
      <trkpt lat="47.29557" lon="-1.39381">
        <ele>91</ele>
        <time>2021-06-06T14:21:45.000Z</time>
      </trkpt>
      <trkpt lat="47.29546" lon="-1.39376">
        <ele>91</ele>
        <time>2021-06-06T14:21:47.000Z</time>
      </trkpt>
      <trkpt lat="47.29536" lon="-1.3939">
        <ele>90</ele>
        <time>2021-06-06T14:21:50.000Z</time>
      </trkpt>
      <trkpt lat="47.29528" lon="-1.3941">
        <ele>86</ele>
        <time>2021-06-06T14:21:52.000Z</time>
      </trkpt>
      <trkpt lat="47.29521" lon="-1.39428">
        <ele>85</ele>
        <time>2021-06-06T14:21:54.000Z</time>
      </trkpt>
      <trkpt lat="47.29513" lon="-1.39446">
        <ele>84</ele>
        <time>2021-06-06T14:21:56.000Z</time>
      </trkpt>
      <trkpt lat="47.29504" lon="-1.39464">
        <ele>83</ele>
        <time>2021-06-06T14:21:58.000Z</time>
      </trkpt>
      <trkpt lat="47.29493" lon="-1.3948">
        <ele>82</ele>
        <time>2021-06-06T14:22:00.000Z</time>
      </trkpt>
      <trkpt lat="47.29478" lon="-1.3949">
        <ele>80</ele>
        <time>2021-06-06T14:22:02.000Z</time>
      </trkpt>
      <trkpt lat="47.29462" lon="-1.39491">
        <ele>80</ele>
        <time>2021-06-06T14:22:04.000Z</time>
      </trkpt>
      <trkpt lat="47.29444" lon="-1.39485">
        <ele>79</ele>
        <time>2021-06-06T14:22:06.000Z</time>
      </trkpt>
      <trkpt lat="47.29435" lon="-1.39481">
        <ele>79</ele>
        <time>2021-06-06T14:22:07.000Z</time>
      </trkpt>
      <trkpt lat="47.29426" lon="-1.39475">
        <ele>78</ele>
        <time>2021-06-06T14:22:08.000Z</time>
      </trkpt>
      <trkpt lat="47.29419" lon="-1.39467">
        <ele>77</ele>
        <time>2021-06-06T14:22:09.000Z</time>
      </trkpt>
      <trkpt lat="47.29412" lon="-1.39459">
        <ele>76</ele>
        <time>2021-06-06T14:22:10.000Z</time>
      </trkpt>
      <trkpt lat="47.29405" lon="-1.39449">
        <ele>75</ele>
        <time>2021-06-06T14:22:11.000Z</time>
      </trkpt>
      <trkpt lat="47.29399" lon="-1.39437">
        <ele>74</ele>
        <time>2021-06-06T14:22:12.000Z</time>
      </trkpt>
      <trkpt lat="47.29395" lon="-1.39424">
        <ele>74</ele>
        <time>2021-06-06T14:22:13.000Z</time>
      </trkpt>
      <trkpt lat="47.29393" lon="-1.39409">
        <ele>73</ele>
        <time>2021-06-06T14:22:14.000Z</time>
      </trkpt>
      <trkpt lat="47.29392" lon="-1.39395">
        <ele>72</ele>
        <time>2021-06-06T14:22:15.000Z</time>
      </trkpt>
      <trkpt lat="47.2939" lon="-1.39381">
        <ele>71</ele>
        <time>2021-06-06T14:22:16.000Z</time>
      </trkpt>
      <trkpt lat="47.2939" lon="-1.39367">
        <ele>71</ele>
        <time>2021-06-06T14:22:17.000Z</time>
      </trkpt>
      <trkpt lat="47.2939" lon="-1.39352">
        <ele>70</ele>
        <time>2021-06-06T14:22:18.000Z</time>
      </trkpt>
      <trkpt lat="47.29392" lon="-1.39338">
        <ele>69</ele>
        <time>2021-06-06T14:22:19.000Z</time>
      </trkpt>
      <trkpt lat="47.29392" lon="-1.39324">
        <ele>68</ele>
        <time>2021-06-06T14:22:20.000Z</time>
      </trkpt>
      <trkpt lat="47.29393" lon="-1.39309">
        <ele>67</ele>
        <time>2021-06-06T14:22:21.000Z</time>
      </trkpt>
      <trkpt lat="47.29394" lon="-1.39294">
        <ele>67</ele>
        <time>2021-06-06T14:22:22.000Z</time>
      </trkpt>
      <trkpt lat="47.29395" lon="-1.3928">
        <ele>66</ele>
        <time>2021-06-06T14:22:23.000Z</time>
      </trkpt>
      <trkpt lat="47.29396" lon="-1.39265">
        <ele>65</ele>
        <time>2021-06-06T14:22:24.000Z</time>
      </trkpt>
      <trkpt lat="47.29397" lon="-1.39252">
        <ele>64</ele>
        <time>2021-06-06T14:22:25.000Z</time>
      </trkpt>
      <trkpt lat="47.29397" lon="-1.39238">
        <ele>64</ele>
        <time>2021-06-06T14:22:26.000Z</time>
      </trkpt>
      <trkpt lat="47.294" lon="-1.39213">
        <ele>63</ele>
        <time>2021-06-06T14:22:28.000Z</time>
      </trkpt>
      <trkpt lat="47.29403" lon="-1.3919">
        <ele>61</ele>
        <time>2021-06-06T14:22:30.000Z</time>
      </trkpt>
      <trkpt lat="47.29406" lon="-1.39171">
        <ele>60</ele>
        <time>2021-06-06T14:22:32.000Z</time>
      </trkpt>
      <trkpt lat="47.29398" lon="-1.39163">
        <ele>59</ele>
        <time>2021-06-06T14:22:34.000Z</time>
      </trkpt>
      <trkpt lat="47.29388" lon="-1.39173">
        <ele>57</ele>
        <time>2021-06-06T14:22:37.000Z</time>
      </trkpt>
      <trkpt lat="47.29389" lon="-1.39188">
        <ele>57</ele>
        <time>2021-06-06T14:22:40.000Z</time>
      </trkpt>
      <trkpt lat="47.2939" lon="-1.39204">
        <ele>57</ele>
        <time>2021-06-06T14:22:43.000Z</time>
      </trkpt>
      <trkpt lat="47.29389" lon="-1.3922">
        <ele>57</ele>
        <time>2021-06-06T14:22:45.000Z</time>
      </trkpt>
      <trkpt lat="47.29389" lon="-1.39238">
        <ele>57</ele>
        <time>2021-06-06T14:22:47.000Z</time>
      </trkpt>
      <trkpt lat="47.29387" lon="-1.39256">
        <ele>57</ele>
        <time>2021-06-06T14:22:49.000Z</time>
      </trkpt>
      <trkpt lat="47.29384" lon="-1.39275">
        <ele>57</ele>
        <time>2021-06-06T14:22:51.000Z</time>
      </trkpt>
      <trkpt lat="47.29381" lon="-1.39294">
        <ele>57</ele>
        <time>2021-06-06T14:22:53.000Z</time>
      </trkpt>
      <trkpt lat="47.29377" lon="-1.39313">
        <ele>57</ele>
        <time>2021-06-06T14:22:55.000Z</time>
      </trkpt>
      <trkpt lat="47.29374" lon="-1.39331">
        <ele>57</ele>
        <time>2021-06-06T14:22:57.000Z</time>
      </trkpt>
      <trkpt lat="47.2937" lon="-1.39348">
        <ele>57</ele>
        <time>2021-06-06T14:22:59.000Z</time>
      </trkpt>
      <trkpt lat="47.29364" lon="-1.39366">
        <ele>57</ele>
        <time>2021-06-06T14:23:01.000Z</time>
      </trkpt>
      <trkpt lat="47.29359" lon="-1.39383">
        <ele>57</ele>
        <time>2021-06-06T14:23:03.000Z</time>
      </trkpt>
      <trkpt lat="47.29353" lon="-1.39399">
        <ele>58</ele>
        <time>2021-06-06T14:23:05.000Z</time>
      </trkpt>
      <trkpt lat="47.29347" lon="-1.39416">
        <ele>58</ele>
        <time>2021-06-06T14:23:07.000Z</time>
      </trkpt>
      <trkpt lat="47.29342" lon="-1.39434">
        <ele>58</ele>
        <time>2021-06-06T14:23:09.000Z</time>
      </trkpt>
      <trkpt lat="47.29336" lon="-1.39451">
        <ele>58</ele>
        <time>2021-06-06T14:23:11.000Z</time>
      </trkpt>
      <trkpt lat="47.29329" lon="-1.39467">
        <ele>58</ele>
        <time>2021-06-06T14:23:13.000Z</time>
      </trkpt>
      <trkpt lat="47.29324" lon="-1.39484">
        <ele>57</ele>
        <time>2021-06-06T14:23:15.000Z</time>
      </trkpt>
      <trkpt lat="47.29319" lon="-1.39502">
        <ele>57</ele>
        <time>2021-06-06T14:23:17.000Z</time>
      </trkpt>
      <trkpt lat="47.29312" lon="-1.39519">
        <ele>57</ele>
        <time>2021-06-06T14:23:19.000Z</time>
      </trkpt>
      <trkpt lat="47.29306" lon="-1.39536">
        <ele>57</ele>
        <time>2021-06-06T14:23:21.000Z</time>
      </trkpt>
      <trkpt lat="47.293" lon="-1.39553">
        <ele>57</ele>
        <time>2021-06-06T14:23:23.000Z</time>
      </trkpt>
      <trkpt lat="47.29295" lon="-1.39569">
        <ele>57</ele>
        <time>2021-06-06T14:23:25.000Z</time>
      </trkpt>
      <trkpt lat="47.2929" lon="-1.39586">
        <ele>57</ele>
        <time>2021-06-06T14:23:27.000Z</time>
      </trkpt>
      <trkpt lat="47.29285" lon="-1.39602">
        <ele>57</ele>
        <time>2021-06-06T14:23:29.000Z</time>
      </trkpt>
      <trkpt lat="47.29279" lon="-1.39619">
        <ele>58</ele>
        <time>2021-06-06T14:23:31.000Z</time>
      </trkpt>
      <trkpt lat="47.29272" lon="-1.39633">
        <ele>58</ele>
        <time>2021-06-06T14:23:33.000Z</time>
      </trkpt>
      <trkpt lat="47.29264" lon="-1.39647">
        <ele>58</ele>
        <time>2021-06-06T14:23:35.000Z</time>
      </trkpt>
      <trkpt lat="47.29258" lon="-1.39661">
        <ele>59</ele>
        <time>2021-06-06T14:23:37.000Z</time>
      </trkpt>
      <trkpt lat="47.2925" lon="-1.39674">
        <ele>59</ele>
        <time>2021-06-06T14:23:39.000Z</time>
      </trkpt>
      <trkpt lat="47.29238" lon="-1.39673">
        <ele>59</ele>
        <time>2021-06-06T14:23:41.000Z</time>
      </trkpt>
      <trkpt lat="47.29226" lon="-1.39663">
        <ele>59</ele>
        <time>2021-06-06T14:23:43.000Z</time>
      </trkpt>
      <trkpt lat="47.2922" lon="-1.39649">
        <ele>59</ele>
        <time>2021-06-06T14:23:45.000Z</time>
      </trkpt>
      <trkpt lat="47.29211" lon="-1.39638">
        <ele>59</ele>
        <time>2021-06-06T14:23:47.000Z</time>
      </trkpt>
      <trkpt lat="47.29203" lon="-1.39628">
        <ele>60</ele>
        <time>2021-06-06T14:23:49.000Z</time>
      </trkpt>
      <trkpt lat="47.29196" lon="-1.39619">
        <ele>62</ele>
        <time>2021-06-06T14:23:51.000Z</time>
      </trkpt>
      <trkpt lat="47.29188" lon="-1.3961">
        <ele>63</ele>
        <time>2021-06-06T14:23:53.000Z</time>
      </trkpt>
      <trkpt lat="47.29181" lon="-1.396">
        <ele>64</ele>
        <time>2021-06-06T14:23:55.000Z</time>
      </trkpt>
      <trkpt lat="47.29173" lon="-1.3959">
        <ele>65</ele>
        <time>2021-06-06T14:23:57.000Z</time>
      </trkpt>
      <trkpt lat="47.29165" lon="-1.39579">
        <ele>66</ele>
        <time>2021-06-06T14:23:59.000Z</time>
      </trkpt>
      <trkpt lat="47.29158" lon="-1.39568">
        <ele>66</ele>
        <time>2021-06-06T14:24:01.000Z</time>
      </trkpt>
      <trkpt lat="47.29149" lon="-1.39556">
        <ele>66</ele>
        <time>2021-06-06T14:24:03.000Z</time>
      </trkpt>
      <trkpt lat="47.29143" lon="-1.39544">
        <ele>66</ele>
        <time>2021-06-06T14:24:05.000Z</time>
      </trkpt>
      <trkpt lat="47.29137" lon="-1.39533">
        <ele>66</ele>
        <time>2021-06-06T14:24:07.000Z</time>
      </trkpt>
      <trkpt lat="47.2913" lon="-1.39522">
        <ele>66</ele>
        <time>2021-06-06T14:24:09.000Z</time>
      </trkpt>
      <trkpt lat="47.29123" lon="-1.3951">
        <ele>66</ele>
        <time>2021-06-06T14:24:11.000Z</time>
      </trkpt>
      <trkpt lat="47.29116" lon="-1.39499">
        <ele>66</ele>
        <time>2021-06-06T14:24:13.000Z</time>
      </trkpt>
      <trkpt lat="47.29109" lon="-1.39486">
        <ele>65</ele>
        <time>2021-06-06T14:24:15.000Z</time>
      </trkpt>
      <trkpt lat="47.29101" lon="-1.39473">
        <ele>65</ele>
        <time>2021-06-06T14:24:17.000Z</time>
      </trkpt>
      <trkpt lat="47.29095" lon="-1.39458">
        <ele>64</ele>
        <time>2021-06-06T14:24:19.000Z</time>
      </trkpt>
      <trkpt lat="47.2909" lon="-1.39442">
        <ele>64</ele>
        <time>2021-06-06T14:24:21.000Z</time>
      </trkpt>
      <trkpt lat="47.29084" lon="-1.39426">
        <ele>63</ele>
        <time>2021-06-06T14:24:23.000Z</time>
      </trkpt>
      <trkpt lat="47.29081" lon="-1.39408">
        <ele>63</ele>
        <time>2021-06-06T14:24:25.000Z</time>
      </trkpt>
      <trkpt lat="47.29079" lon="-1.39388">
        <ele>63</ele>
        <time>2021-06-06T14:24:27.000Z</time>
      </trkpt>
      <trkpt lat="47.29078" lon="-1.39368">
        <ele>62</ele>
        <time>2021-06-06T14:24:29.000Z</time>
      </trkpt>
      <trkpt lat="47.2908" lon="-1.39346">
        <ele>62</ele>
        <time>2021-06-06T14:24:31.000Z</time>
      </trkpt>
      <trkpt lat="47.29077" lon="-1.39327">
        <ele>61</ele>
        <time>2021-06-06T14:24:33.000Z</time>
      </trkpt>
      <trkpt lat="47.29064" lon="-1.39325">
        <ele>59</ele>
        <time>2021-06-06T14:24:35.000Z</time>
      </trkpt>
      <trkpt lat="47.29051" lon="-1.39334">
        <ele>58</ele>
        <time>2021-06-06T14:24:37.000Z</time>
      </trkpt>
      <trkpt lat="47.29039" lon="-1.39349">
        <ele>57</ele>
        <time>2021-06-06T14:24:39.000Z</time>
      </trkpt>
      <trkpt lat="47.29027" lon="-1.39363">
        <ele>57</ele>
        <time>2021-06-06T14:24:41.000Z</time>
      </trkpt>
      <trkpt lat="47.29016" lon="-1.39377">
        <ele>58</ele>
        <time>2021-06-06T14:24:43.000Z</time>
      </trkpt>
      <trkpt lat="47.29006" lon="-1.39389">
        <ele>57</ele>
        <time>2021-06-06T14:24:45.000Z</time>
      </trkpt>
      <trkpt lat="47.28995" lon="-1.39401">
        <ele>57</ele>
        <time>2021-06-06T14:24:47.000Z</time>
      </trkpt>
      <trkpt lat="47.28985" lon="-1.39414">
        <ele>57</ele>
        <time>2021-06-06T14:24:49.000Z</time>
      </trkpt>
      <trkpt lat="47.28975" lon="-1.39427">
        <ele>57</ele>
        <time>2021-06-06T14:24:51.000Z</time>
      </trkpt>
      <trkpt lat="47.28964" lon="-1.3944">
        <ele>57</ele>
        <time>2021-06-06T14:24:53.000Z</time>
      </trkpt>
      <trkpt lat="47.28954" lon="-1.39453">
        <ele>56</ele>
        <time>2021-06-06T14:24:55.000Z</time>
      </trkpt>
      <trkpt lat="47.28943" lon="-1.39465">
        <ele>56</ele>
        <time>2021-06-06T14:24:57.000Z</time>
      </trkpt>
      <trkpt lat="47.28933" lon="-1.39478">
        <ele>56</ele>
        <time>2021-06-06T14:24:59.000Z</time>
      </trkpt>
      <trkpt lat="47.28923" lon="-1.39489">
        <ele>57</ele>
        <time>2021-06-06T14:25:01.000Z</time>
      </trkpt>
      <trkpt lat="47.28913" lon="-1.39501">
        <ele>57</ele>
        <time>2021-06-06T14:25:03.000Z</time>
      </trkpt>
      <trkpt lat="47.28902" lon="-1.39513">
        <ele>57</ele>
        <time>2021-06-06T14:25:05.000Z</time>
      </trkpt>
      <trkpt lat="47.28892" lon="-1.39525">
        <ele>57</ele>
        <time>2021-06-06T14:25:07.000Z</time>
      </trkpt>
      <trkpt lat="47.28882" lon="-1.39537">
        <ele>57</ele>
        <time>2021-06-06T14:25:09.000Z</time>
      </trkpt>
      <trkpt lat="47.28872" lon="-1.39548">
        <ele>56</ele>
        <time>2021-06-06T14:25:11.000Z</time>
      </trkpt>
      <trkpt lat="47.28863" lon="-1.39561">
        <ele>56</ele>
        <time>2021-06-06T14:25:13.000Z</time>
      </trkpt>
      <trkpt lat="47.28853" lon="-1.39573">
        <ele>56</ele>
        <time>2021-06-06T14:25:15.000Z</time>
      </trkpt>
      <trkpt lat="47.28843" lon="-1.39585">
        <ele>55</ele>
        <time>2021-06-06T14:25:17.000Z</time>
      </trkpt>
      <trkpt lat="47.28833" lon="-1.39597">
        <ele>55</ele>
        <time>2021-06-06T14:25:19.000Z</time>
      </trkpt>
      <trkpt lat="47.28823" lon="-1.39609">
        <ele>55</ele>
        <time>2021-06-06T14:25:21.000Z</time>
      </trkpt>
      <trkpt lat="47.28812" lon="-1.39621">
        <ele>55</ele>
        <time>2021-06-06T14:25:23.000Z</time>
      </trkpt>
      <trkpt lat="47.28802" lon="-1.39634">
        <ele>55</ele>
        <time>2021-06-06T14:25:25.000Z</time>
      </trkpt>
      <trkpt lat="47.28792" lon="-1.39646">
        <ele>55</ele>
        <time>2021-06-06T14:25:27.000Z</time>
      </trkpt>
      <trkpt lat="47.28782" lon="-1.39658">
        <ele>56</ele>
        <time>2021-06-06T14:25:29.000Z</time>
      </trkpt>
      <trkpt lat="47.28772" lon="-1.3967">
        <ele>56</ele>
        <time>2021-06-06T14:25:31.000Z</time>
      </trkpt>
      <trkpt lat="47.28763" lon="-1.39682">
        <ele>56</ele>
        <time>2021-06-06T14:25:33.000Z</time>
      </trkpt>
      <trkpt lat="47.28753" lon="-1.39695">
        <ele>56</ele>
        <time>2021-06-06T14:25:35.000Z</time>
      </trkpt>
      <trkpt lat="47.28743" lon="-1.39707">
        <ele>56</ele>
        <time>2021-06-06T14:25:37.000Z</time>
      </trkpt>
      <trkpt lat="47.28733" lon="-1.39719">
        <ele>56</ele>
        <time>2021-06-06T14:25:39.000Z</time>
      </trkpt>
      <trkpt lat="47.28723" lon="-1.39731">
        <ele>57</ele>
        <time>2021-06-06T14:25:41.000Z</time>
      </trkpt>
      <trkpt lat="47.28713" lon="-1.39743">
        <ele>57</ele>
        <time>2021-06-06T14:25:43.000Z</time>
      </trkpt>
      <trkpt lat="47.28703" lon="-1.39755">
        <ele>57</ele>
        <time>2021-06-06T14:25:45.000Z</time>
      </trkpt>
      <trkpt lat="47.28693" lon="-1.39766">
        <ele>57</ele>
        <time>2021-06-06T14:25:47.000Z</time>
      </trkpt>
      <trkpt lat="47.28683" lon="-1.39778">
        <ele>57</ele>
        <time>2021-06-06T14:25:49.000Z</time>
      </trkpt>
      <trkpt lat="47.28673" lon="-1.3979">
        <ele>57</ele>
        <time>2021-06-06T14:25:51.000Z</time>
      </trkpt>
      <trkpt lat="47.28664" lon="-1.39805">
        <ele>56</ele>
        <time>2021-06-06T14:25:53.000Z</time>
      </trkpt>
      <trkpt lat="47.28655" lon="-1.39818">
        <ele>56</ele>
        <time>2021-06-06T14:25:55.000Z</time>
      </trkpt>
      <trkpt lat="47.28645" lon="-1.39832">
        <ele>56</ele>
        <time>2021-06-06T14:25:57.000Z</time>
      </trkpt>
      <trkpt lat="47.28636" lon="-1.39846">
        <ele>56</ele>
        <time>2021-06-06T14:25:59.000Z</time>
      </trkpt>
      <trkpt lat="47.28628" lon="-1.3986">
        <ele>56</ele>
        <time>2021-06-06T14:26:01.000Z</time>
      </trkpt>
      <trkpt lat="47.28619" lon="-1.39873">
        <ele>56</ele>
        <time>2021-06-06T14:26:03.000Z</time>
      </trkpt>
      <trkpt lat="47.28611" lon="-1.39886">
        <ele>56</ele>
        <time>2021-06-06T14:26:05.000Z</time>
      </trkpt>
      <trkpt lat="47.28602" lon="-1.399">
        <ele>56</ele>
        <time>2021-06-06T14:26:07.000Z</time>
      </trkpt>
      <trkpt lat="47.28593" lon="-1.39914">
        <ele>56</ele>
        <time>2021-06-06T14:26:09.000Z</time>
      </trkpt>
      <trkpt lat="47.28584" lon="-1.39927">
        <ele>56</ele>
        <time>2021-06-06T14:26:11.000Z</time>
      </trkpt>
      <trkpt lat="47.28574" lon="-1.39941">
        <ele>56</ele>
        <time>2021-06-06T14:26:13.000Z</time>
      </trkpt>
      <trkpt lat="47.28565" lon="-1.39954">
        <ele>56</ele>
        <time>2021-06-06T14:26:15.000Z</time>
      </trkpt>
      <trkpt lat="47.28555" lon="-1.39967">
        <ele>56</ele>
        <time>2021-06-06T14:26:17.000Z</time>
      </trkpt>
      <trkpt lat="47.28546" lon="-1.39981">
        <ele>56</ele>
        <time>2021-06-06T14:26:19.000Z</time>
      </trkpt>
      <trkpt lat="47.28536" lon="-1.39993">
        <ele>56</ele>
        <time>2021-06-06T14:26:21.000Z</time>
      </trkpt>
      <trkpt lat="47.28528" lon="-1.40006">
        <ele>57</ele>
        <time>2021-06-06T14:26:23.000Z</time>
      </trkpt>
      <trkpt lat="47.2852" lon="-1.40019">
        <ele>58</ele>
        <time>2021-06-06T14:26:25.000Z</time>
      </trkpt>
      <trkpt lat="47.28512" lon="-1.40035">
        <ele>58</ele>
        <time>2021-06-06T14:26:27.000Z</time>
      </trkpt>
      <trkpt lat="47.28504" lon="-1.4005">
        <ele>58</ele>
        <time>2021-06-06T14:26:29.000Z</time>
      </trkpt>
      <trkpt lat="47.28497" lon="-1.40065">
        <ele>59</ele>
        <time>2021-06-06T14:26:31.000Z</time>
      </trkpt>
      <trkpt lat="47.2849" lon="-1.40082">
        <ele>59</ele>
        <time>2021-06-06T14:26:33.000Z</time>
      </trkpt>
      <trkpt lat="47.28483" lon="-1.40098">
        <ele>58</ele>
        <time>2021-06-06T14:26:35.000Z</time>
      </trkpt>
      <trkpt lat="47.28475" lon="-1.40113">
        <ele>59</ele>
        <time>2021-06-06T14:26:37.000Z</time>
      </trkpt>
      <trkpt lat="47.28468" lon="-1.40129">
        <ele>59</ele>
        <time>2021-06-06T14:26:39.000Z</time>
      </trkpt>
      <trkpt lat="47.28463" lon="-1.40147">
        <ele>60</ele>
        <time>2021-06-06T14:26:41.000Z</time>
      </trkpt>
      <trkpt lat="47.28456" lon="-1.40164">
        <ele>59</ele>
        <time>2021-06-06T14:26:43.000Z</time>
      </trkpt>
      <trkpt lat="47.2845" lon="-1.4018">
        <ele>59</ele>
        <time>2021-06-06T14:26:45.000Z</time>
      </trkpt>
      <trkpt lat="47.28444" lon="-1.40196">
        <ele>59</ele>
        <time>2021-06-06T14:26:47.000Z</time>
      </trkpt>
      <trkpt lat="47.28437" lon="-1.40212">
        <ele>59</ele>
        <time>2021-06-06T14:26:49.000Z</time>
      </trkpt>
      <trkpt lat="47.2843" lon="-1.40227">
        <ele>60</ele>
        <time>2021-06-06T14:26:51.000Z</time>
      </trkpt>
      <trkpt lat="47.28424" lon="-1.40243">
        <ele>60</ele>
        <time>2021-06-06T14:26:53.000Z</time>
      </trkpt>
      <trkpt lat="47.28417" lon="-1.40259">
        <ele>59</ele>
        <time>2021-06-06T14:26:55.000Z</time>
      </trkpt>
      <trkpt lat="47.28409" lon="-1.40276">
        <ele>59</ele>
        <time>2021-06-06T14:26:57.000Z</time>
      </trkpt>
      <trkpt lat="47.28402" lon="-1.40292">
        <ele>58</ele>
        <time>2021-06-06T14:26:59.000Z</time>
      </trkpt>
      <trkpt lat="47.28394" lon="-1.40307">
        <ele>57</ele>
        <time>2021-06-06T14:27:01.000Z</time>
      </trkpt>
      <trkpt lat="47.28386" lon="-1.4032">
        <ele>57</ele>
        <time>2021-06-06T14:27:03.000Z</time>
      </trkpt>
      <trkpt lat="47.28377" lon="-1.40334">
        <ele>57</ele>
        <time>2021-06-06T14:27:05.000Z</time>
      </trkpt>
      <trkpt lat="47.28368" lon="-1.40347">
        <ele>57</ele>
        <time>2021-06-06T14:27:07.000Z</time>
      </trkpt>
      <trkpt lat="47.28359" lon="-1.4036">
        <ele>57</ele>
        <time>2021-06-06T14:27:09.000Z</time>
      </trkpt>
      <trkpt lat="47.2835" lon="-1.40373">
        <ele>56</ele>
        <time>2021-06-06T14:27:11.000Z</time>
      </trkpt>
      <trkpt lat="47.2834" lon="-1.40385">
        <ele>56</ele>
        <time>2021-06-06T14:27:13.000Z</time>
      </trkpt>
      <trkpt lat="47.28331" lon="-1.40398">
        <ele>56</ele>
        <time>2021-06-06T14:27:15.000Z</time>
      </trkpt>
      <trkpt lat="47.28321" lon="-1.4041">
        <ele>56</ele>
        <time>2021-06-06T14:27:17.000Z</time>
      </trkpt>
      <trkpt lat="47.28311" lon="-1.40421">
        <ele>56</ele>
        <time>2021-06-06T14:27:19.000Z</time>
      </trkpt>
      <trkpt lat="47.283" lon="-1.40432">
        <ele>56</ele>
        <time>2021-06-06T14:27:21.000Z</time>
      </trkpt>
      <trkpt lat="47.2829" lon="-1.40443">
        <ele>56</ele>
        <time>2021-06-06T14:27:23.000Z</time>
      </trkpt>
      <trkpt lat="47.28279" lon="-1.40453">
        <ele>56</ele>
        <time>2021-06-06T14:27:25.000Z</time>
      </trkpt>
      <trkpt lat="47.28267" lon="-1.40463">
        <ele>56</ele>
        <time>2021-06-06T14:27:27.000Z</time>
      </trkpt>
      <trkpt lat="47.28257" lon="-1.40473">
        <ele>56</ele>
        <time>2021-06-06T14:27:29.000Z</time>
      </trkpt>
      <trkpt lat="47.28246" lon="-1.40484">
        <ele>56</ele>
        <time>2021-06-06T14:27:31.000Z</time>
      </trkpt>
      <trkpt lat="47.28236" lon="-1.40494">
        <ele>56</ele>
        <time>2021-06-06T14:27:33.000Z</time>
      </trkpt>
      <trkpt lat="47.28225" lon="-1.40504">
        <ele>56</ele>
        <time>2021-06-06T14:27:35.000Z</time>
      </trkpt>
      <trkpt lat="47.28215" lon="-1.40515">
        <ele>56</ele>
        <time>2021-06-06T14:27:37.000Z</time>
      </trkpt>
      <trkpt lat="47.28204" lon="-1.40525">
        <ele>56</ele>
        <time>2021-06-06T14:27:39.000Z</time>
      </trkpt>
      <trkpt lat="47.28193" lon="-1.40535">
        <ele>56</ele>
        <time>2021-06-06T14:27:41.000Z</time>
      </trkpt>
      <trkpt lat="47.28182" lon="-1.40545">
        <ele>55</ele>
        <time>2021-06-06T14:27:43.000Z</time>
      </trkpt>
      <trkpt lat="47.28171" lon="-1.40555">
        <ele>55</ele>
        <time>2021-06-06T14:27:45.000Z</time>
      </trkpt>
      <trkpt lat="47.28161" lon="-1.40565">
        <ele>55</ele>
        <time>2021-06-06T14:27:47.000Z</time>
      </trkpt>
      <trkpt lat="47.28151" lon="-1.40576">
        <ele>55</ele>
        <time>2021-06-06T14:27:49.000Z</time>
      </trkpt>
      <trkpt lat="47.2814" lon="-1.40586">
        <ele>55</ele>
        <time>2021-06-06T14:27:51.000Z</time>
      </trkpt>
      <trkpt lat="47.28129" lon="-1.40596">
        <ele>55</ele>
        <time>2021-06-06T14:27:53.000Z</time>
      </trkpt>
      <trkpt lat="47.28118" lon="-1.40606">
        <ele>56</ele>
        <time>2021-06-06T14:27:55.000Z</time>
      </trkpt>
      <trkpt lat="47.28108" lon="-1.40617">
        <ele>56</ele>
        <time>2021-06-06T14:27:57.000Z</time>
      </trkpt>
      <trkpt lat="47.28097" lon="-1.40627">
        <ele>56</ele>
        <time>2021-06-06T14:27:59.000Z</time>
      </trkpt>
      <trkpt lat="47.28086" lon="-1.40638">
        <ele>56</ele>
        <time>2021-06-06T14:28:01.000Z</time>
      </trkpt>
      <trkpt lat="47.28077" lon="-1.40648">
        <ele>56</ele>
        <time>2021-06-06T14:28:03.000Z</time>
      </trkpt>
      <trkpt lat="47.28066" lon="-1.40658">
        <ele>57</ele>
        <time>2021-06-06T14:28:05.000Z</time>
      </trkpt>
      <trkpt lat="47.28055" lon="-1.40668">
        <ele>57</ele>
        <time>2021-06-06T14:28:07.000Z</time>
      </trkpt>
      <trkpt lat="47.28045" lon="-1.40679">
        <ele>57</ele>
        <time>2021-06-06T14:28:09.000Z</time>
      </trkpt>
      <trkpt lat="47.28035" lon="-1.4069">
        <ele>57</ele>
        <time>2021-06-06T14:28:11.000Z</time>
      </trkpt>
      <trkpt lat="47.28025" lon="-1.40701">
        <ele>57</ele>
        <time>2021-06-06T14:28:13.000Z</time>
      </trkpt>
      <trkpt lat="47.28014" lon="-1.40712">
        <ele>57</ele>
        <time>2021-06-06T14:28:15.000Z</time>
      </trkpt>
      <trkpt lat="47.28004" lon="-1.40722">
        <ele>57</ele>
        <time>2021-06-06T14:28:17.000Z</time>
      </trkpt>
      <trkpt lat="47.27992" lon="-1.40733">
        <ele>56</ele>
        <time>2021-06-06T14:28:19.000Z</time>
      </trkpt>
      <trkpt lat="47.27981" lon="-1.40743">
        <ele>56</ele>
        <time>2021-06-06T14:28:21.000Z</time>
      </trkpt>
      <trkpt lat="47.27969" lon="-1.40753">
        <ele>56</ele>
        <time>2021-06-06T14:28:23.000Z</time>
      </trkpt>
      <trkpt lat="47.27958" lon="-1.40763">
        <ele>56</ele>
        <time>2021-06-06T14:28:25.000Z</time>
      </trkpt>
      <trkpt lat="47.27947" lon="-1.40773">
        <ele>56</ele>
        <time>2021-06-06T14:28:27.000Z</time>
      </trkpt>
      <trkpt lat="47.27936" lon="-1.40782">
        <ele>56</ele>
        <time>2021-06-06T14:28:29.000Z</time>
      </trkpt>
      <trkpt lat="47.27926" lon="-1.40792">
        <ele>56</ele>
        <time>2021-06-06T14:28:31.000Z</time>
      </trkpt>
      <trkpt lat="47.27915" lon="-1.40802">
        <ele>56</ele>
        <time>2021-06-06T14:28:33.000Z</time>
      </trkpt>
      <trkpt lat="47.27905" lon="-1.40814">
        <ele>56</ele>
        <time>2021-06-06T14:28:35.000Z</time>
      </trkpt>
      <trkpt lat="47.27894" lon="-1.40824">
        <ele>56</ele>
        <time>2021-06-06T14:28:37.000Z</time>
      </trkpt>
      <trkpt lat="47.27884" lon="-1.40836">
        <ele>56</ele>
        <time>2021-06-06T14:28:39.000Z</time>
      </trkpt>
      <trkpt lat="47.27877" lon="-1.40851">
        <ele>56</ele>
        <time>2021-06-06T14:28:41.000Z</time>
      </trkpt>
      <trkpt lat="47.2787" lon="-1.40867">
        <ele>56</ele>
        <time>2021-06-06T14:28:43.000Z</time>
      </trkpt>
      <trkpt lat="47.27863" lon="-1.40882">
        <ele>56</ele>
        <time>2021-06-06T14:28:45.000Z</time>
      </trkpt>
      <trkpt lat="47.27856" lon="-1.40898">
        <ele>56</ele>
        <time>2021-06-06T14:28:47.000Z</time>
      </trkpt>
      <trkpt lat="47.27849" lon="-1.40913">
        <ele>56</ele>
        <time>2021-06-06T14:28:49.000Z</time>
      </trkpt>
      <trkpt lat="47.27842" lon="-1.40927">
        <ele>56</ele>
        <time>2021-06-06T14:28:51.000Z</time>
      </trkpt>
      <trkpt lat="47.27835" lon="-1.40943">
        <ele>56</ele>
        <time>2021-06-06T14:28:53.000Z</time>
      </trkpt>
      <trkpt lat="47.27826" lon="-1.40957">
        <ele>56</ele>
        <time>2021-06-06T14:28:55.000Z</time>
      </trkpt>
      <trkpt lat="47.27819" lon="-1.40972">
        <ele>56</ele>
        <time>2021-06-06T14:28:57.000Z</time>
      </trkpt>
      <trkpt lat="47.27811" lon="-1.40985">
        <ele>56</ele>
        <time>2021-06-06T14:28:59.000Z</time>
      </trkpt>
      <trkpt lat="47.27802" lon="-1.40999">
        <ele>56</ele>
        <time>2021-06-06T14:29:01.000Z</time>
      </trkpt>
      <trkpt lat="47.27793" lon="-1.41011">
        <ele>56</ele>
        <time>2021-06-06T14:29:03.000Z</time>
      </trkpt>
      <trkpt lat="47.27784" lon="-1.41023">
        <ele>56</ele>
        <time>2021-06-06T14:29:05.000Z</time>
      </trkpt>
      <trkpt lat="47.27778" lon="-1.41038">
        <ele>56</ele>
        <time>2021-06-06T14:29:07.000Z</time>
      </trkpt>
      <trkpt lat="47.27773" lon="-1.41055">
        <ele>56</ele>
        <time>2021-06-06T14:29:09.000Z</time>
      </trkpt>
      <trkpt lat="47.27765" lon="-1.41071">
        <ele>56</ele>
        <time>2021-06-06T14:29:11.000Z</time>
      </trkpt>
      <trkpt lat="47.27757" lon="-1.41083">
        <ele>57</ele>
        <time>2021-06-06T14:29:13.000Z</time>
      </trkpt>
      <trkpt lat="47.27746" lon="-1.41092">
        <ele>56</ele>
        <time>2021-06-06T14:29:15.000Z</time>
      </trkpt>
      <trkpt lat="47.27736" lon="-1.41103">
        <ele>56</ele>
        <time>2021-06-06T14:29:17.000Z</time>
      </trkpt>
      <trkpt lat="47.27725" lon="-1.41113">
        <ele>56</ele>
        <time>2021-06-06T14:29:19.000Z</time>
      </trkpt>
      <trkpt lat="47.27714" lon="-1.41124">
        <ele>56</ele>
        <time>2021-06-06T14:29:21.000Z</time>
      </trkpt>
      <trkpt lat="47.27703" lon="-1.41134">
        <ele>56</ele>
        <time>2021-06-06T14:29:23.000Z</time>
      </trkpt>
      <trkpt lat="47.27693" lon="-1.41144">
        <ele>55</ele>
        <time>2021-06-06T14:29:25.000Z</time>
      </trkpt>
      <trkpt lat="47.27684" lon="-1.41155">
        <ele>55</ele>
        <time>2021-06-06T14:29:27.000Z</time>
      </trkpt>
      <trkpt lat="47.27669" lon="-1.4117">
        <ele>55</ele>
        <time>2021-06-06T14:29:30.000Z</time>
      </trkpt>
      <trkpt lat="47.27654" lon="-1.41187">
        <ele>55</ele>
        <time>2021-06-06T14:29:33.000Z</time>
      </trkpt>
      <trkpt lat="47.27643" lon="-1.41198">
        <ele>55</ele>
        <time>2021-06-06T14:29:35.000Z</time>
      </trkpt>
      <trkpt lat="47.27632" lon="-1.41209">
        <ele>55</ele>
        <time>2021-06-06T14:29:37.000Z</time>
      </trkpt>
      <trkpt lat="47.27622" lon="-1.41221">
        <ele>56</ele>
        <time>2021-06-06T14:29:39.000Z</time>
      </trkpt>
      <trkpt lat="47.2761" lon="-1.41232">
        <ele>55</ele>
        <time>2021-06-06T14:29:41.000Z</time>
      </trkpt>
      <trkpt lat="47.27598" lon="-1.41244">
        <ele>55</ele>
        <time>2021-06-06T14:29:43.000Z</time>
      </trkpt>
      <trkpt lat="47.27588" lon="-1.41256">
        <ele>55</ele>
        <time>2021-06-06T14:29:45.000Z</time>
      </trkpt>
      <trkpt lat="47.27577" lon="-1.41267">
        <ele>55</ele>
        <time>2021-06-06T14:29:47.000Z</time>
      </trkpt>
      <trkpt lat="47.27567" lon="-1.4128">
        <ele>55</ele>
        <time>2021-06-06T14:29:49.000Z</time>
      </trkpt>
      <trkpt lat="47.27557" lon="-1.41292">
        <ele>55</ele>
        <time>2021-06-06T14:29:51.000Z</time>
      </trkpt>
      <trkpt lat="47.27548" lon="-1.41305">
        <ele>55</ele>
        <time>2021-06-06T14:29:53.000Z</time>
      </trkpt>
      <trkpt lat="47.27538" lon="-1.41319">
        <ele>55</ele>
        <time>2021-06-06T14:29:55.000Z</time>
      </trkpt>
      <trkpt lat="47.27528" lon="-1.41332">
        <ele>55</ele>
        <time>2021-06-06T14:29:57.000Z</time>
      </trkpt>
      <trkpt lat="47.27518" lon="-1.41346">
        <ele>55</ele>
        <time>2021-06-06T14:29:59.000Z</time>
      </trkpt>
      <trkpt lat="47.27509" lon="-1.41359">
        <ele>55</ele>
        <time>2021-06-06T14:30:01.000Z</time>
      </trkpt>
      <trkpt lat="47.275" lon="-1.41373">
        <ele>55</ele>
        <time>2021-06-06T14:30:03.000Z</time>
      </trkpt>
      <trkpt lat="47.27492" lon="-1.41387">
        <ele>55</ele>
        <time>2021-06-06T14:30:05.000Z</time>
      </trkpt>
      <trkpt lat="47.27483" lon="-1.41402">
        <ele>55</ele>
        <time>2021-06-06T14:30:07.000Z</time>
      </trkpt>
      <trkpt lat="47.27474" lon="-1.41417">
        <ele>55</ele>
        <time>2021-06-06T14:30:09.000Z</time>
      </trkpt>
      <trkpt lat="47.27466" lon="-1.41431">
        <ele>55</ele>
        <time>2021-06-06T14:30:11.000Z</time>
      </trkpt>
      <trkpt lat="47.27458" lon="-1.41446">
        <ele>55</ele>
        <time>2021-06-06T14:30:13.000Z</time>
      </trkpt>
      <trkpt lat="47.27446" lon="-1.41468">
        <ele>55</ele>
        <time>2021-06-06T14:30:16.000Z</time>
      </trkpt>
      <trkpt lat="47.27438" lon="-1.41483">
        <ele>55</ele>
        <time>2021-06-06T14:30:18.000Z</time>
      </trkpt>
      <trkpt lat="47.27429" lon="-1.41498">
        <ele>55</ele>
        <time>2021-06-06T14:30:20.000Z</time>
      </trkpt>
      <trkpt lat="47.2742" lon="-1.41512">
        <ele>55</ele>
        <time>2021-06-06T14:30:22.000Z</time>
      </trkpt>
      <trkpt lat="47.27412" lon="-1.41527">
        <ele>55</ele>
        <time>2021-06-06T14:30:24.000Z</time>
      </trkpt>
      <trkpt lat="47.27398" lon="-1.41548">
        <ele>55</ele>
        <time>2021-06-06T14:30:27.000Z</time>
      </trkpt>
      <trkpt lat="47.2739" lon="-1.41563">
        <ele>56</ele>
        <time>2021-06-06T14:30:29.000Z</time>
      </trkpt>
      <trkpt lat="47.27381" lon="-1.41577">
        <ele>56</ele>
        <time>2021-06-06T14:30:31.000Z</time>
      </trkpt>
      <trkpt lat="47.27372" lon="-1.41591">
        <ele>56</ele>
        <time>2021-06-06T14:30:33.000Z</time>
      </trkpt>
      <trkpt lat="47.27362" lon="-1.41605">
        <ele>56</ele>
        <time>2021-06-06T14:30:35.000Z</time>
      </trkpt>
      <trkpt lat="47.27353" lon="-1.41619">
        <ele>56</ele>
        <time>2021-06-06T14:30:37.000Z</time>
      </trkpt>
      <trkpt lat="47.27343" lon="-1.41631">
        <ele>56</ele>
        <time>2021-06-06T14:30:39.000Z</time>
      </trkpt>
      <trkpt lat="47.2733" lon="-1.41653">
        <ele>56</ele>
        <time>2021-06-06T14:30:42.000Z</time>
      </trkpt>
      <trkpt lat="47.27322" lon="-1.41667">
        <ele>56</ele>
        <time>2021-06-06T14:30:44.000Z</time>
      </trkpt>
      <trkpt lat="47.27314" lon="-1.41682">
        <ele>57</ele>
        <time>2021-06-06T14:30:46.000Z</time>
      </trkpt>
      <trkpt lat="47.27308" lon="-1.41697">
        <ele>57</ele>
        <time>2021-06-06T14:30:48.000Z</time>
      </trkpt>
      <trkpt lat="47.27302" lon="-1.41713">
        <ele>57</ele>
        <time>2021-06-06T14:30:50.000Z</time>
      </trkpt>
      <trkpt lat="47.2729" lon="-1.41736">
        <ele>57</ele>
        <time>2021-06-06T14:30:53.000Z</time>
      </trkpt>
      <trkpt lat="47.27281" lon="-1.41751">
        <ele>57</ele>
        <time>2021-06-06T14:30:55.000Z</time>
      </trkpt>
      <trkpt lat="47.27272" lon="-1.41766">
        <ele>56</ele>
        <time>2021-06-06T14:30:57.000Z</time>
      </trkpt>
      <trkpt lat="47.27265" lon="-1.4178">
        <ele>56</ele>
        <time>2021-06-06T14:30:59.000Z</time>
      </trkpt>
      <trkpt lat="47.27257" lon="-1.41795">
        <ele>57</ele>
        <time>2021-06-06T14:31:01.000Z</time>
      </trkpt>
      <trkpt lat="47.27249" lon="-1.4181">
        <ele>57</ele>
        <time>2021-06-06T14:31:03.000Z</time>
      </trkpt>
      <trkpt lat="47.27241" lon="-1.41825">
        <ele>57</ele>
        <time>2021-06-06T14:31:05.000Z</time>
      </trkpt>
      <trkpt lat="47.27233" lon="-1.4184">
        <ele>57</ele>
        <time>2021-06-06T14:31:07.000Z</time>
      </trkpt>
      <trkpt lat="47.27226" lon="-1.41855">
        <ele>57</ele>
        <time>2021-06-06T14:31:09.000Z</time>
      </trkpt>
      <trkpt lat="47.27214" lon="-1.41876">
        <ele>57</ele>
        <time>2021-06-06T14:31:12.000Z</time>
      </trkpt>
      <trkpt lat="47.27205" lon="-1.41891">
        <ele>57</ele>
        <time>2021-06-06T14:31:14.000Z</time>
      </trkpt>
      <trkpt lat="47.27192" lon="-1.41912">
        <ele>57</ele>
        <time>2021-06-06T14:31:17.000Z</time>
      </trkpt>
      <trkpt lat="47.27185" lon="-1.41927">
        <ele>57</ele>
        <time>2021-06-06T14:31:19.000Z</time>
      </trkpt>
      <trkpt lat="47.27176" lon="-1.4194">
        <ele>58</ele>
        <time>2021-06-06T14:31:21.000Z</time>
      </trkpt>
      <trkpt lat="47.27168" lon="-1.41955">
        <ele>58</ele>
        <time>2021-06-06T14:31:23.000Z</time>
      </trkpt>
      <trkpt lat="47.27159" lon="-1.4197">
        <ele>58</ele>
        <time>2021-06-06T14:31:25.000Z</time>
      </trkpt>
      <trkpt lat="47.2715" lon="-1.41984">
        <ele>57</ele>
        <time>2021-06-06T14:31:27.000Z</time>
      </trkpt>
      <trkpt lat="47.27143" lon="-1.41999">
        <ele>57</ele>
        <time>2021-06-06T14:31:29.000Z</time>
      </trkpt>
      <trkpt lat="47.27134" lon="-1.42014">
        <ele>58</ele>
        <time>2021-06-06T14:31:31.000Z</time>
      </trkpt>
      <trkpt lat="47.27125" lon="-1.42028">
        <ele>57</ele>
        <time>2021-06-06T14:31:33.000Z</time>
      </trkpt>
      <trkpt lat="47.27115" lon="-1.42041">
        <ele>56</ele>
        <time>2021-06-06T14:31:35.000Z</time>
      </trkpt>
      <trkpt lat="47.27106" lon="-1.42055">
        <ele>57</ele>
        <time>2021-06-06T14:31:37.000Z</time>
      </trkpt>
      <trkpt lat="47.27096" lon="-1.42069">
        <ele>57</ele>
        <time>2021-06-06T14:31:39.000Z</time>
      </trkpt>
      <trkpt lat="47.27087" lon="-1.42083">
        <ele>56</ele>
        <time>2021-06-06T14:31:41.000Z</time>
      </trkpt>
      <trkpt lat="47.27079" lon="-1.42097">
        <ele>56</ele>
        <time>2021-06-06T14:31:43.000Z</time>
      </trkpt>
      <trkpt lat="47.27071" lon="-1.4211">
        <ele>57</ele>
        <time>2021-06-06T14:31:45.000Z</time>
      </trkpt>
      <trkpt lat="47.27064" lon="-1.42124">
        <ele>57</ele>
        <time>2021-06-06T14:31:47.000Z</time>
      </trkpt>
      <trkpt lat="47.27058" lon="-1.42137">
        <ele>58</ele>
        <time>2021-06-06T14:31:49.000Z</time>
      </trkpt>
      <trkpt lat="47.27052" lon="-1.42148">
        <ele>58</ele>
        <time>2021-06-06T14:31:51.000Z</time>
      </trkpt>
      <trkpt lat="47.27044" lon="-1.42161">
        <ele>58</ele>
        <time>2021-06-06T14:31:53.000Z</time>
      </trkpt>
      <trkpt lat="47.27036" lon="-1.42177">
        <ele>58</ele>
        <time>2021-06-06T14:31:55.000Z</time>
      </trkpt>
      <trkpt lat="47.27027" lon="-1.42192">
        <ele>58</ele>
        <time>2021-06-06T14:31:57.000Z</time>
      </trkpt>
      <trkpt lat="47.27019" lon="-1.42207">
        <ele>58</ele>
        <time>2021-06-06T14:31:59.000Z</time>
      </trkpt>
      <trkpt lat="47.27009" lon="-1.42222">
        <ele>58</ele>
        <time>2021-06-06T14:32:01.000Z</time>
      </trkpt>
      <trkpt lat="47.27" lon="-1.42239">
        <ele>58</ele>
        <time>2021-06-06T14:32:03.000Z</time>
      </trkpt>
      <trkpt lat="47.26991" lon="-1.42256">
        <ele>58</ele>
        <time>2021-06-06T14:32:05.000Z</time>
      </trkpt>
      <trkpt lat="47.26981" lon="-1.42273">
        <ele>58</ele>
        <time>2021-06-06T14:32:07.000Z</time>
      </trkpt>
      <trkpt lat="47.26973" lon="-1.42289">
        <ele>57</ele>
        <time>2021-06-06T14:32:09.000Z</time>
      </trkpt>
      <trkpt lat="47.26965" lon="-1.42306">
        <ele>58</ele>
        <time>2021-06-06T14:32:11.000Z</time>
      </trkpt>
      <trkpt lat="47.26956" lon="-1.42322">
        <ele>57</ele>
        <time>2021-06-06T14:32:13.000Z</time>
      </trkpt>
      <trkpt lat="47.26948" lon="-1.42338">
        <ele>57</ele>
        <time>2021-06-06T14:32:15.000Z</time>
      </trkpt>
      <trkpt lat="47.26939" lon="-1.42355">
        <ele>57</ele>
        <time>2021-06-06T14:32:17.000Z</time>
      </trkpt>
      <trkpt lat="47.26931" lon="-1.42373">
        <ele>57</ele>
        <time>2021-06-06T14:32:19.000Z</time>
      </trkpt>
      <trkpt lat="47.26923" lon="-1.4239">
        <ele>57</ele>
        <time>2021-06-06T14:32:21.000Z</time>
      </trkpt>
      <trkpt lat="47.26914" lon="-1.42408">
        <ele>57</ele>
        <time>2021-06-06T14:32:23.000Z</time>
      </trkpt>
      <trkpt lat="47.26905" lon="-1.42424">
        <ele>57</ele>
        <time>2021-06-06T14:32:25.000Z</time>
      </trkpt>
      <trkpt lat="47.26896" lon="-1.4244">
        <ele>57</ele>
        <time>2021-06-06T14:32:27.000Z</time>
      </trkpt>
      <trkpt lat="47.26887" lon="-1.42456">
        <ele>57</ele>
        <time>2021-06-06T14:32:29.000Z</time>
      </trkpt>
      <trkpt lat="47.26878" lon="-1.42473">
        <ele>57</ele>
        <time>2021-06-06T14:32:31.000Z</time>
      </trkpt>
      <trkpt lat="47.26869" lon="-1.42489">
        <ele>57</ele>
        <time>2021-06-06T14:32:33.000Z</time>
      </trkpt>
      <trkpt lat="47.2686" lon="-1.42506">
        <ele>57</ele>
        <time>2021-06-06T14:32:35.000Z</time>
      </trkpt>
      <trkpt lat="47.26851" lon="-1.42522">
        <ele>56</ele>
        <time>2021-06-06T14:32:37.000Z</time>
      </trkpt>
      <trkpt lat="47.26842" lon="-1.42539">
        <ele>56</ele>
        <time>2021-06-06T14:32:39.000Z</time>
      </trkpt>
      <trkpt lat="47.26833" lon="-1.42556">
        <ele>56</ele>
        <time>2021-06-06T14:32:41.000Z</time>
      </trkpt>
      <trkpt lat="47.26825" lon="-1.42573">
        <ele>56</ele>
        <time>2021-06-06T14:32:43.000Z</time>
      </trkpt>
      <trkpt lat="47.26818" lon="-1.4259">
        <ele>56</ele>
        <time>2021-06-06T14:32:45.000Z</time>
      </trkpt>
      <trkpt lat="47.2681" lon="-1.42607">
        <ele>56</ele>
        <time>2021-06-06T14:32:47.000Z</time>
      </trkpt>
      <trkpt lat="47.26803" lon="-1.42625">
        <ele>55</ele>
        <time>2021-06-06T14:32:49.000Z</time>
      </trkpt>
      <trkpt lat="47.26797" lon="-1.42643">
        <ele>56</ele>
        <time>2021-06-06T14:32:51.000Z</time>
      </trkpt>
      <trkpt lat="47.2679" lon="-1.42661">
        <ele>56</ele>
        <time>2021-06-06T14:32:53.000Z</time>
      </trkpt>
      <trkpt lat="47.26783" lon="-1.42679">
        <ele>56</ele>
        <time>2021-06-06T14:32:55.000Z</time>
      </trkpt>
      <trkpt lat="47.26776" lon="-1.42697">
        <ele>56</ele>
        <time>2021-06-06T14:32:57.000Z</time>
      </trkpt>
      <trkpt lat="47.26769" lon="-1.42714">
        <ele>56</ele>
        <time>2021-06-06T14:32:59.000Z</time>
      </trkpt>
      <trkpt lat="47.26762" lon="-1.42731">
        <ele>56</ele>
        <time>2021-06-06T14:33:01.000Z</time>
      </trkpt>
      <trkpt lat="47.26754" lon="-1.42748">
        <ele>56</ele>
        <time>2021-06-06T14:33:03.000Z</time>
      </trkpt>
      <trkpt lat="47.26742" lon="-1.42772">
        <ele>56</ele>
        <time>2021-06-06T14:33:06.000Z</time>
      </trkpt>
      <trkpt lat="47.26736" lon="-1.42789">
        <ele>57</ele>
        <time>2021-06-06T14:33:08.000Z</time>
      </trkpt>
      <trkpt lat="47.26732" lon="-1.42806">
        <ele>56</ele>
        <time>2021-06-06T14:33:10.000Z</time>
      </trkpt>
      <trkpt lat="47.26728" lon="-1.42822">
        <ele>57</ele>
        <time>2021-06-06T14:33:12.000Z</time>
      </trkpt>
      <trkpt lat="47.26721" lon="-1.42838">
        <ele>57</ele>
        <time>2021-06-06T14:33:14.000Z</time>
      </trkpt>
      <trkpt lat="47.26713" lon="-1.42857">
        <ele>57</ele>
        <time>2021-06-06T14:33:16.000Z</time>
      </trkpt>
      <trkpt lat="47.26706" lon="-1.42875">
        <ele>56</ele>
        <time>2021-06-06T14:33:18.000Z</time>
      </trkpt>
      <trkpt lat="47.26699" lon="-1.42892">
        <ele>56</ele>
        <time>2021-06-06T14:33:20.000Z</time>
      </trkpt>
      <trkpt lat="47.26691" lon="-1.42909">
        <ele>56</ele>
        <time>2021-06-06T14:33:22.000Z</time>
      </trkpt>
      <trkpt lat="47.26683" lon="-1.42925">
        <ele>56</ele>
        <time>2021-06-06T14:33:24.000Z</time>
      </trkpt>
      <trkpt lat="47.26674" lon="-1.42941">
        <ele>56</ele>
        <time>2021-06-06T14:33:26.000Z</time>
      </trkpt>
      <trkpt lat="47.26666" lon="-1.42957">
        <ele>56</ele>
        <time>2021-06-06T14:33:28.000Z</time>
      </trkpt>
      <trkpt lat="47.26657" lon="-1.42973">
        <ele>55</ele>
        <time>2021-06-06T14:33:30.000Z</time>
      </trkpt>
      <trkpt lat="47.26649" lon="-1.42989">
        <ele>55</ele>
        <time>2021-06-06T14:33:32.000Z</time>
      </trkpt>
      <trkpt lat="47.26642" lon="-1.43005">
        <ele>56</ele>
        <time>2021-06-06T14:33:34.000Z</time>
      </trkpt>
      <trkpt lat="47.26634" lon="-1.43021">
        <ele>56</ele>
        <time>2021-06-06T14:33:36.000Z</time>
      </trkpt>
      <trkpt lat="47.26626" lon="-1.43037">
        <ele>56</ele>
        <time>2021-06-06T14:33:38.000Z</time>
      </trkpt>
      <trkpt lat="47.26619" lon="-1.43054">
        <ele>56</ele>
        <time>2021-06-06T14:33:40.000Z</time>
      </trkpt>
      <trkpt lat="47.2661" lon="-1.43069">
        <ele>56</ele>
        <time>2021-06-06T14:33:42.000Z</time>
      </trkpt>
      <trkpt lat="47.26602" lon="-1.43084">
        <ele>56</ele>
        <time>2021-06-06T14:33:44.000Z</time>
      </trkpt>
      <trkpt lat="47.26593" lon="-1.43098">
        <ele>56</ele>
        <time>2021-06-06T14:33:46.000Z</time>
      </trkpt>
      <trkpt lat="47.26585" lon="-1.43113">
        <ele>55</ele>
        <time>2021-06-06T14:33:48.000Z</time>
      </trkpt>
      <trkpt lat="47.26576" lon="-1.43127">
        <ele>55</ele>
        <time>2021-06-06T14:33:50.000Z</time>
      </trkpt>
      <trkpt lat="47.26567" lon="-1.4314">
        <ele>55</ele>
        <time>2021-06-06T14:33:52.000Z</time>
      </trkpt>
      <trkpt lat="47.26559" lon="-1.43155">
        <ele>55</ele>
        <time>2021-06-06T14:33:54.000Z</time>
      </trkpt>
      <trkpt lat="47.2655" lon="-1.43169">
        <ele>56</ele>
        <time>2021-06-06T14:33:56.000Z</time>
      </trkpt>
      <trkpt lat="47.26541" lon="-1.43183">
        <ele>56</ele>
        <time>2021-06-06T14:33:58.000Z</time>
      </trkpt>
      <trkpt lat="47.26531" lon="-1.43195">
        <ele>56</ele>
        <time>2021-06-06T14:34:00.000Z</time>
      </trkpt>
      <trkpt lat="47.26522" lon="-1.43207">
        <ele>57</ele>
        <time>2021-06-06T14:34:02.000Z</time>
      </trkpt>
      <trkpt lat="47.26512" lon="-1.4322">
        <ele>57</ele>
        <time>2021-06-06T14:34:04.000Z</time>
      </trkpt>
      <trkpt lat="47.26503" lon="-1.43232">
        <ele>57</ele>
        <time>2021-06-06T14:34:06.000Z</time>
      </trkpt>
      <trkpt lat="47.26494" lon="-1.43245">
        <ele>57</ele>
        <time>2021-06-06T14:34:08.000Z</time>
      </trkpt>
      <trkpt lat="47.26485" lon="-1.43258">
        <ele>57</ele>
        <time>2021-06-06T14:34:10.000Z</time>
      </trkpt>
      <trkpt lat="47.26477" lon="-1.43272">
        <ele>57</ele>
        <time>2021-06-06T14:34:12.000Z</time>
      </trkpt>
      <trkpt lat="47.26469" lon="-1.43285">
        <ele>57</ele>
        <time>2021-06-06T14:34:14.000Z</time>
      </trkpt>
      <trkpt lat="47.26461" lon="-1.43299">
        <ele>58</ele>
        <time>2021-06-06T14:34:16.000Z</time>
      </trkpt>
      <trkpt lat="47.26451" lon="-1.43313">
        <ele>57</ele>
        <time>2021-06-06T14:34:18.000Z</time>
      </trkpt>
      <trkpt lat="47.26441" lon="-1.43327">
        <ele>56</ele>
        <time>2021-06-06T14:34:20.000Z</time>
      </trkpt>
      <trkpt lat="47.26431" lon="-1.4334">
        <ele>56</ele>
        <time>2021-06-06T14:34:22.000Z</time>
      </trkpt>
      <trkpt lat="47.26422" lon="-1.43353">
        <ele>56</ele>
        <time>2021-06-06T14:34:24.000Z</time>
      </trkpt>
      <trkpt lat="47.26412" lon="-1.43365">
        <ele>55</ele>
        <time>2021-06-06T14:34:26.000Z</time>
      </trkpt>
      <trkpt lat="47.26402" lon="-1.43377">
        <ele>55</ele>
        <time>2021-06-06T14:34:28.000Z</time>
      </trkpt>
      <trkpt lat="47.26392" lon="-1.43388">
        <ele>55</ele>
        <time>2021-06-06T14:34:30.000Z</time>
      </trkpt>
      <trkpt lat="47.26381" lon="-1.434">
        <ele>55</ele>
        <time>2021-06-06T14:34:32.000Z</time>
      </trkpt>
      <trkpt lat="47.26371" lon="-1.43411">
        <ele>54</ele>
        <time>2021-06-06T14:34:34.000Z</time>
      </trkpt>
      <trkpt lat="47.2636" lon="-1.43422">
        <ele>54</ele>
        <time>2021-06-06T14:34:36.000Z</time>
      </trkpt>
      <trkpt lat="47.2635" lon="-1.43432">
        <ele>54</ele>
        <time>2021-06-06T14:34:38.000Z</time>
      </trkpt>
      <trkpt lat="47.2634" lon="-1.43443">
        <ele>55</ele>
        <time>2021-06-06T14:34:40.000Z</time>
      </trkpt>
      <trkpt lat="47.26331" lon="-1.43453">
        <ele>55</ele>
        <time>2021-06-06T14:34:42.000Z</time>
      </trkpt>
      <trkpt lat="47.26321" lon="-1.43463">
        <ele>55</ele>
        <time>2021-06-06T14:34:44.000Z</time>
      </trkpt>
      <trkpt lat="47.26311" lon="-1.43473">
        <ele>55</ele>
        <time>2021-06-06T14:34:46.000Z</time>
      </trkpt>
      <trkpt lat="47.26302" lon="-1.43481">
        <ele>56</ele>
        <time>2021-06-06T14:34:48.000Z</time>
      </trkpt>
      <trkpt lat="47.26292" lon="-1.43487">
        <ele>56</ele>
        <time>2021-06-06T14:34:50.000Z</time>
      </trkpt>
      <trkpt lat="47.26282" lon="-1.43492">
        <ele>56</ele>
        <time>2021-06-06T14:34:52.000Z</time>
      </trkpt>
      <trkpt lat="47.26272" lon="-1.43495">
        <ele>57</ele>
        <time>2021-06-06T14:34:54.000Z</time>
      </trkpt>
      <trkpt lat="47.26263" lon="-1.435">
        <ele>57</ele>
        <time>2021-06-06T14:34:56.000Z</time>
      </trkpt>
      <trkpt lat="47.26254" lon="-1.43506">
        <ele>57</ele>
        <time>2021-06-06T14:34:58.000Z</time>
      </trkpt>
      <trkpt lat="47.26244" lon="-1.43516">
        <ele>57</ele>
        <time>2021-06-06T14:35:00.000Z</time>
      </trkpt>
      <trkpt lat="47.26234" lon="-1.43527">
        <ele>56</ele>
        <time>2021-06-06T14:35:02.000Z</time>
      </trkpt>
      <trkpt lat="47.26225" lon="-1.43538">
        <ele>56</ele>
        <time>2021-06-06T14:35:04.000Z</time>
      </trkpt>
      <trkpt lat="47.26219" lon="-1.43549">
        <ele>57</ele>
        <time>2021-06-06T14:35:06.000Z</time>
      </trkpt>
      <trkpt lat="47.26214" lon="-1.43564">
        <ele>58</ele>
        <time>2021-06-06T14:35:08.000Z</time>
      </trkpt>
      <trkpt lat="47.26208" lon="-1.43582">
        <ele>57</ele>
        <time>2021-06-06T14:35:10.000Z</time>
      </trkpt>
      <trkpt lat="47.26201" lon="-1.43597">
        <ele>57</ele>
        <time>2021-06-06T14:35:12.000Z</time>
      </trkpt>
      <trkpt lat="47.26194" lon="-1.43611">
        <ele>57</ele>
        <time>2021-06-06T14:35:14.000Z</time>
      </trkpt>
      <trkpt lat="47.26186" lon="-1.43625">
        <ele>56</ele>
        <time>2021-06-06T14:35:16.000Z</time>
      </trkpt>
      <trkpt lat="47.26179" lon="-1.4364">
        <ele>57</ele>
        <time>2021-06-06T14:35:18.000Z</time>
      </trkpt>
      <trkpt lat="47.2617" lon="-1.43653">
        <ele>56</ele>
        <time>2021-06-06T14:35:20.000Z</time>
      </trkpt>
      <trkpt lat="47.26162" lon="-1.43667">
        <ele>56</ele>
        <time>2021-06-06T14:35:22.000Z</time>
      </trkpt>
      <trkpt lat="47.26153" lon="-1.43681">
        <ele>56</ele>
        <time>2021-06-06T14:35:24.000Z</time>
      </trkpt>
      <trkpt lat="47.26144" lon="-1.43694">
        <ele>55</ele>
        <time>2021-06-06T14:35:26.000Z</time>
      </trkpt>
      <trkpt lat="47.26135" lon="-1.43708">
        <ele>55</ele>
        <time>2021-06-06T14:35:28.000Z</time>
      </trkpt>
      <trkpt lat="47.26128" lon="-1.43721">
        <ele>56</ele>
        <time>2021-06-06T14:35:30.000Z</time>
      </trkpt>
      <trkpt lat="47.2612" lon="-1.43735">
        <ele>56</ele>
        <time>2021-06-06T14:35:32.000Z</time>
      </trkpt>
      <trkpt lat="47.26111" lon="-1.43748">
        <ele>56</ele>
        <time>2021-06-06T14:35:34.000Z</time>
      </trkpt>
      <trkpt lat="47.26102" lon="-1.43759">
        <ele>57</ele>
        <time>2021-06-06T14:35:36.000Z</time>
      </trkpt>
      <trkpt lat="47.26093" lon="-1.43769">
        <ele>57</ele>
        <time>2021-06-06T14:35:38.000Z</time>
      </trkpt>
      <trkpt lat="47.26085" lon="-1.43781">
        <ele>57</ele>
        <time>2021-06-06T14:35:40.000Z</time>
      </trkpt>
      <trkpt lat="47.26076" lon="-1.43793">
        <ele>58</ele>
        <time>2021-06-06T14:35:42.000Z</time>
      </trkpt>
      <trkpt lat="47.26067" lon="-1.43805">
        <ele>58</ele>
        <time>2021-06-06T14:35:44.000Z</time>
      </trkpt>
      <trkpt lat="47.26059" lon="-1.4382">
        <ele>58</ele>
        <time>2021-06-06T14:35:46.000Z</time>
      </trkpt>
      <trkpt lat="47.26052" lon="-1.43836">
        <ele>57</ele>
        <time>2021-06-06T14:35:48.000Z</time>
      </trkpt>
      <trkpt lat="47.26047" lon="-1.43853">
        <ele>57</ele>
        <time>2021-06-06T14:35:50.000Z</time>
      </trkpt>
      <trkpt lat="47.26038" lon="-1.43867">
        <ele>57</ele>
        <time>2021-06-06T14:35:52.000Z</time>
      </trkpt>
      <trkpt lat="47.26028" lon="-1.43877">
        <ele>57</ele>
        <time>2021-06-06T14:35:54.000Z</time>
      </trkpt>
      <trkpt lat="47.26017" lon="-1.43887">
        <ele>57</ele>
        <time>2021-06-06T14:35:56.000Z</time>
      </trkpt>
      <trkpt lat="47.26006" lon="-1.43897">
        <ele>57</ele>
        <time>2021-06-06T14:35:58.000Z</time>
      </trkpt>
      <trkpt lat="47.25996" lon="-1.43907">
        <ele>58</ele>
        <time>2021-06-06T14:36:00.000Z</time>
      </trkpt>
      <trkpt lat="47.25986" lon="-1.43919">
        <ele>58</ele>
        <time>2021-06-06T14:36:02.000Z</time>
      </trkpt>
      <trkpt lat="47.25976" lon="-1.43931">
        <ele>58</ele>
        <time>2021-06-06T14:36:04.000Z</time>
      </trkpt>
      <trkpt lat="47.25965" lon="-1.43942">
        <ele>58</ele>
        <time>2021-06-06T14:36:06.000Z</time>
      </trkpt>
      <trkpt lat="47.25956" lon="-1.43953">
        <ele>58</ele>
        <time>2021-06-06T14:36:08.000Z</time>
      </trkpt>
      <trkpt lat="47.25947" lon="-1.43966">
        <ele>59</ele>
        <time>2021-06-06T14:36:10.000Z</time>
      </trkpt>
      <trkpt lat="47.25936" lon="-1.43978">
        <ele>59</ele>
        <time>2021-06-06T14:36:12.000Z</time>
      </trkpt>
      <trkpt lat="47.25927" lon="-1.43989">
        <ele>59</ele>
        <time>2021-06-06T14:36:14.000Z</time>
      </trkpt>
      <trkpt lat="47.25917" lon="-1.44">
        <ele>59</ele>
        <time>2021-06-06T14:36:16.000Z</time>
      </trkpt>
      <trkpt lat="47.25907" lon="-1.44011">
        <ele>60</ele>
        <time>2021-06-06T14:36:18.000Z</time>
      </trkpt>
      <trkpt lat="47.25896" lon="-1.44022">
        <ele>60</ele>
        <time>2021-06-06T14:36:20.000Z</time>
      </trkpt>
      <trkpt lat="47.25885" lon="-1.44035">
        <ele>59</ele>
        <time>2021-06-06T14:36:22.000Z</time>
      </trkpt>
      <trkpt lat="47.25877" lon="-1.44049">
        <ele>58</ele>
        <time>2021-06-06T14:36:24.000Z</time>
      </trkpt>
      <trkpt lat="47.25871" lon="-1.44068">
        <ele>56</ele>
        <time>2021-06-06T14:36:26.000Z</time>
      </trkpt>
      <trkpt lat="47.25865" lon="-1.44084">
        <ele>55</ele>
        <time>2021-06-06T14:36:28.000Z</time>
      </trkpt>
      <trkpt lat="47.25857" lon="-1.44097">
        <ele>54</ele>
        <time>2021-06-06T14:36:30.000Z</time>
      </trkpt>
      <trkpt lat="47.25847" lon="-1.44109">
        <ele>54</ele>
        <time>2021-06-06T14:36:32.000Z</time>
      </trkpt>
      <trkpt lat="47.25837" lon="-1.4412">
        <ele>54</ele>
        <time>2021-06-06T14:36:34.000Z</time>
      </trkpt>
      <trkpt lat="47.25827" lon="-1.44132">
        <ele>54</ele>
        <time>2021-06-06T14:36:36.000Z</time>
      </trkpt>
      <trkpt lat="47.25817" lon="-1.44143">
        <ele>55</ele>
        <time>2021-06-06T14:36:38.000Z</time>
      </trkpt>
      <trkpt lat="47.25807" lon="-1.44154">
        <ele>55</ele>
        <time>2021-06-06T14:36:40.000Z</time>
      </trkpt>
      <trkpt lat="47.25796" lon="-1.44164">
        <ele>55</ele>
        <time>2021-06-06T14:36:42.000Z</time>
      </trkpt>
      <trkpt lat="47.25786" lon="-1.44176">
        <ele>54</ele>
        <time>2021-06-06T14:36:44.000Z</time>
      </trkpt>
      <trkpt lat="47.25777" lon="-1.44188">
        <ele>55</ele>
        <time>2021-06-06T14:36:46.000Z</time>
      </trkpt>
      <trkpt lat="47.25768" lon="-1.44199">
        <ele>55</ele>
        <time>2021-06-06T14:36:48.000Z</time>
      </trkpt>
      <trkpt lat="47.25758" lon="-1.4421">
        <ele>55</ele>
        <time>2021-06-06T14:36:50.000Z</time>
      </trkpt>
      <trkpt lat="47.25749" lon="-1.44222">
        <ele>56</ele>
        <time>2021-06-06T14:36:52.000Z</time>
      </trkpt>
      <trkpt lat="47.2574" lon="-1.44235">
        <ele>56</ele>
        <time>2021-06-06T14:36:54.000Z</time>
      </trkpt>
      <trkpt lat="47.2573" lon="-1.44247">
        <ele>56</ele>
        <time>2021-06-06T14:36:56.000Z</time>
      </trkpt>
      <trkpt lat="47.2572" lon="-1.44259">
        <ele>55</ele>
        <time>2021-06-06T14:36:58.000Z</time>
      </trkpt>
      <trkpt lat="47.2571" lon="-1.4427">
        <ele>55</ele>
        <time>2021-06-06T14:37:00.000Z</time>
      </trkpt>
      <trkpt lat="47.257" lon="-1.4428">
        <ele>55</ele>
        <time>2021-06-06T14:37:02.000Z</time>
      </trkpt>
      <trkpt lat="47.2569" lon="-1.44292">
        <ele>55</ele>
        <time>2021-06-06T14:37:04.000Z</time>
      </trkpt>
      <trkpt lat="47.25681" lon="-1.44304">
        <ele>56</ele>
        <time>2021-06-06T14:37:06.000Z</time>
      </trkpt>
      <trkpt lat="47.25672" lon="-1.44318">
        <ele>56</ele>
        <time>2021-06-06T14:37:08.000Z</time>
      </trkpt>
      <trkpt lat="47.25663" lon="-1.44331">
        <ele>56</ele>
        <time>2021-06-06T14:37:10.000Z</time>
      </trkpt>
      <trkpt lat="47.25653" lon="-1.44342">
        <ele>56</ele>
        <time>2021-06-06T14:37:12.000Z</time>
      </trkpt>
      <trkpt lat="47.25642" lon="-1.44354">
        <ele>56</ele>
        <time>2021-06-06T14:37:14.000Z</time>
      </trkpt>
      <trkpt lat="47.25632" lon="-1.44363">
        <ele>55</ele>
        <time>2021-06-06T14:37:16.000Z</time>
      </trkpt>
      <trkpt lat="47.25621" lon="-1.44375">
        <ele>55</ele>
        <time>2021-06-06T14:37:18.000Z</time>
      </trkpt>
      <trkpt lat="47.25611" lon="-1.44387">
        <ele>56</ele>
        <time>2021-06-06T14:37:20.000Z</time>
      </trkpt>
      <trkpt lat="47.25602" lon="-1.44399">
        <ele>55</ele>
        <time>2021-06-06T14:37:22.000Z</time>
      </trkpt>
      <trkpt lat="47.25592" lon="-1.44411">
        <ele>56</ele>
        <time>2021-06-06T14:37:24.000Z</time>
      </trkpt>
      <trkpt lat="47.25582" lon="-1.44423">
        <ele>55</ele>
        <time>2021-06-06T14:37:26.000Z</time>
      </trkpt>
      <trkpt lat="47.25572" lon="-1.44434">
        <ele>54</ele>
        <time>2021-06-06T14:37:28.000Z</time>
      </trkpt>
      <trkpt lat="47.25562" lon="-1.44446">
        <ele>54</ele>
        <time>2021-06-06T14:37:30.000Z</time>
      </trkpt>
      <trkpt lat="47.25553" lon="-1.44458">
        <ele>54</ele>
        <time>2021-06-06T14:37:32.000Z</time>
      </trkpt>
      <trkpt lat="47.25544" lon="-1.44471">
        <ele>54</ele>
        <time>2021-06-06T14:37:34.000Z</time>
      </trkpt>
      <trkpt lat="47.25535" lon="-1.44484">
        <ele>54</ele>
        <time>2021-06-06T14:37:36.000Z</time>
      </trkpt>
      <trkpt lat="47.25526" lon="-1.44499">
        <ele>54</ele>
        <time>2021-06-06T14:37:38.000Z</time>
      </trkpt>
      <trkpt lat="47.25518" lon="-1.44513">
        <ele>54</ele>
        <time>2021-06-06T14:37:40.000Z</time>
      </trkpt>
      <trkpt lat="47.25509" lon="-1.44527">
        <ele>53</ele>
        <time>2021-06-06T14:37:42.000Z</time>
      </trkpt>
      <trkpt lat="47.25499" lon="-1.44539">
        <ele>52</ele>
        <time>2021-06-06T14:37:44.000Z</time>
      </trkpt>
      <trkpt lat="47.25489" lon="-1.44551">
        <ele>52</ele>
        <time>2021-06-06T14:37:46.000Z</time>
      </trkpt>
      <trkpt lat="47.2548" lon="-1.44563">
        <ele>52</ele>
        <time>2021-06-06T14:37:48.000Z</time>
      </trkpt>
      <trkpt lat="47.2547" lon="-1.44576">
        <ele>51</ele>
        <time>2021-06-06T14:37:50.000Z</time>
      </trkpt>
      <trkpt lat="47.25462" lon="-1.44591">
        <ele>51</ele>
        <time>2021-06-06T14:37:52.000Z</time>
      </trkpt>
      <trkpt lat="47.25453" lon="-1.44606">
        <ele>52</ele>
        <time>2021-06-06T14:37:54.000Z</time>
      </trkpt>
      <trkpt lat="47.25445" lon="-1.44619">
        <ele>52</ele>
        <time>2021-06-06T14:37:56.000Z</time>
      </trkpt>
      <trkpt lat="47.25436" lon="-1.44632">
        <ele>53</ele>
        <time>2021-06-06T14:37:58.000Z</time>
      </trkpt>
      <trkpt lat="47.25428" lon="-1.44645">
        <ele>53</ele>
        <time>2021-06-06T14:38:00.000Z</time>
      </trkpt>
      <trkpt lat="47.25418" lon="-1.44657">
        <ele>54</ele>
        <time>2021-06-06T14:38:02.000Z</time>
      </trkpt>
      <trkpt lat="47.25409" lon="-1.44671">
        <ele>54</ele>
        <time>2021-06-06T14:38:04.000Z</time>
      </trkpt>
      <trkpt lat="47.25399" lon="-1.44684">
        <ele>54</ele>
        <time>2021-06-06T14:38:06.000Z</time>
      </trkpt>
      <trkpt lat="47.25389" lon="-1.44697">
        <ele>54</ele>
        <time>2021-06-06T14:38:08.000Z</time>
      </trkpt>
      <trkpt lat="47.25378" lon="-1.4471">
        <ele>54</ele>
        <time>2021-06-06T14:38:10.000Z</time>
      </trkpt>
      <trkpt lat="47.25367" lon="-1.44724">
        <ele>54</ele>
        <time>2021-06-06T14:38:12.000Z</time>
      </trkpt>
      <trkpt lat="47.25356" lon="-1.44735">
        <ele>53</ele>
        <time>2021-06-06T14:38:14.000Z</time>
      </trkpt>
      <trkpt lat="47.25345" lon="-1.44746">
        <ele>54</ele>
        <time>2021-06-06T14:38:16.000Z</time>
      </trkpt>
      <trkpt lat="47.25334" lon="-1.44755">
        <ele>54</ele>
        <time>2021-06-06T14:38:18.000Z</time>
      </trkpt>
      <trkpt lat="47.25322" lon="-1.44767">
        <ele>54</ele>
        <time>2021-06-06T14:38:20.000Z</time>
      </trkpt>
      <trkpt lat="47.25312" lon="-1.44779">
        <ele>54</ele>
        <time>2021-06-06T14:38:22.000Z</time>
      </trkpt>
      <trkpt lat="47.25301" lon="-1.44791">
        <ele>54</ele>
        <time>2021-06-06T14:38:24.000Z</time>
      </trkpt>
      <trkpt lat="47.2529" lon="-1.44804">
        <ele>55</ele>
        <time>2021-06-06T14:38:26.000Z</time>
      </trkpt>
      <trkpt lat="47.2528" lon="-1.44817">
        <ele>54</ele>
        <time>2021-06-06T14:38:28.000Z</time>
      </trkpt>
      <trkpt lat="47.25269" lon="-1.4483">
        <ele>54</ele>
        <time>2021-06-06T14:38:30.000Z</time>
      </trkpt>
      <trkpt lat="47.25258" lon="-1.44843">
        <ele>55</ele>
        <time>2021-06-06T14:38:32.000Z</time>
      </trkpt>
      <trkpt lat="47.25246" lon="-1.44854">
        <ele>55</ele>
        <time>2021-06-06T14:38:34.000Z</time>
      </trkpt>
      <trkpt lat="47.25235" lon="-1.44865">
        <ele>54</ele>
        <time>2021-06-06T14:38:36.000Z</time>
      </trkpt>
      <trkpt lat="47.25223" lon="-1.44876">
        <ele>55</ele>
        <time>2021-06-06T14:38:38.000Z</time>
      </trkpt>
      <trkpt lat="47.25211" lon="-1.44887">
        <ele>55</ele>
        <time>2021-06-06T14:38:40.000Z</time>
      </trkpt>
      <trkpt lat="47.25198" lon="-1.44897">
        <ele>55</ele>
        <time>2021-06-06T14:38:42.000Z</time>
      </trkpt>
      <trkpt lat="47.25186" lon="-1.44906">
        <ele>55</ele>
        <time>2021-06-06T14:38:44.000Z</time>
      </trkpt>
      <trkpt lat="47.25173" lon="-1.44916">
        <ele>55</ele>
        <time>2021-06-06T14:38:46.000Z</time>
      </trkpt>
      <trkpt lat="47.25161" lon="-1.44927">
        <ele>55</ele>
        <time>2021-06-06T14:38:48.000Z</time>
      </trkpt>
      <trkpt lat="47.25149" lon="-1.44938">
        <ele>55</ele>
        <time>2021-06-06T14:38:50.000Z</time>
      </trkpt>
      <trkpt lat="47.25137" lon="-1.44949">
        <ele>55</ele>
        <time>2021-06-06T14:38:52.000Z</time>
      </trkpt>
      <trkpt lat="47.25125" lon="-1.44959">
        <ele>55</ele>
        <time>2021-06-06T14:38:54.000Z</time>
      </trkpt>
      <trkpt lat="47.25112" lon="-1.4497">
        <ele>54</ele>
        <time>2021-06-06T14:38:56.000Z</time>
      </trkpt>
      <trkpt lat="47.251" lon="-1.44982">
        <ele>54</ele>
        <time>2021-06-06T14:38:58.000Z</time>
      </trkpt>
      <trkpt lat="47.25088" lon="-1.44995">
        <ele>54</ele>
        <time>2021-06-06T14:39:00.000Z</time>
      </trkpt>
      <trkpt lat="47.25076" lon="-1.45005">
        <ele>55</ele>
        <time>2021-06-06T14:39:02.000Z</time>
      </trkpt>
      <trkpt lat="47.25064" lon="-1.45014">
        <ele>55</ele>
        <time>2021-06-06T14:39:04.000Z</time>
      </trkpt>
      <trkpt lat="47.25051" lon="-1.45025">
        <ele>55</ele>
        <time>2021-06-06T14:39:06.000Z</time>
      </trkpt>
      <trkpt lat="47.25038" lon="-1.45036">
        <ele>55</ele>
        <time>2021-06-06T14:39:08.000Z</time>
      </trkpt>
      <trkpt lat="47.25025" lon="-1.45046">
        <ele>54</ele>
        <time>2021-06-06T14:39:10.000Z</time>
      </trkpt>
      <trkpt lat="47.25012" lon="-1.45056">
        <ele>54</ele>
        <time>2021-06-06T14:39:12.000Z</time>
      </trkpt>
      <trkpt lat="47.25" lon="-1.45068">
        <ele>54</ele>
        <time>2021-06-06T14:39:14.000Z</time>
      </trkpt>
      <trkpt lat="47.24989" lon="-1.45082">
        <ele>53</ele>
        <time>2021-06-06T14:39:16.000Z</time>
      </trkpt>
      <trkpt lat="47.24977" lon="-1.45095">
        <ele>53</ele>
        <time>2021-06-06T14:39:18.000Z</time>
      </trkpt>
      <trkpt lat="47.24966" lon="-1.45108">
        <ele>53</ele>
        <time>2021-06-06T14:39:20.000Z</time>
      </trkpt>
      <trkpt lat="47.24955" lon="-1.45119">
        <ele>53</ele>
        <time>2021-06-06T14:39:22.000Z</time>
      </trkpt>
      <trkpt lat="47.24943" lon="-1.45131">
        <ele>53</ele>
        <time>2021-06-06T14:39:24.000Z</time>
      </trkpt>
      <trkpt lat="47.24932" lon="-1.45141">
        <ele>53</ele>
        <time>2021-06-06T14:39:26.000Z</time>
      </trkpt>
      <trkpt lat="47.24921" lon="-1.45155">
        <ele>52</ele>
        <time>2021-06-06T14:39:28.000Z</time>
      </trkpt>
      <trkpt lat="47.2491" lon="-1.45167">
        <ele>52</ele>
        <time>2021-06-06T14:39:30.000Z</time>
      </trkpt>
      <trkpt lat="47.249" lon="-1.45179">
        <ele>52</ele>
        <time>2021-06-06T14:39:32.000Z</time>
      </trkpt>
      <trkpt lat="47.24893" lon="-1.45192">
        <ele>53</ele>
        <time>2021-06-06T14:39:34.000Z</time>
      </trkpt>
      <trkpt lat="47.24883" lon="-1.45206">
        <ele>54</ele>
        <time>2021-06-06T14:39:36.000Z</time>
      </trkpt>
      <trkpt lat="47.24875" lon="-1.45219">
        <ele>54</ele>
        <time>2021-06-06T14:39:38.000Z</time>
      </trkpt>
      <trkpt lat="47.24867" lon="-1.45234">
        <ele>54</ele>
        <time>2021-06-06T14:39:40.000Z</time>
      </trkpt>
      <trkpt lat="47.24856" lon="-1.45248">
        <ele>54</ele>
        <time>2021-06-06T14:39:42.000Z</time>
      </trkpt>
      <trkpt lat="47.24846" lon="-1.45263">
        <ele>53</ele>
        <time>2021-06-06T14:39:44.000Z</time>
      </trkpt>
      <trkpt lat="47.24837" lon="-1.45279">
        <ele>54</ele>
        <time>2021-06-06T14:39:46.000Z</time>
      </trkpt>
      <trkpt lat="47.24828" lon="-1.45294">
        <ele>55</ele>
        <time>2021-06-06T14:39:48.000Z</time>
      </trkpt>
      <trkpt lat="47.24819" lon="-1.4531">
        <ele>55</ele>
        <time>2021-06-06T14:39:50.000Z</time>
      </trkpt>
      <trkpt lat="47.24811" lon="-1.45329">
        <ele>56</ele>
        <time>2021-06-06T14:39:52.000Z</time>
      </trkpt>
      <trkpt lat="47.24803" lon="-1.45347">
        <ele>56</ele>
        <time>2021-06-06T14:39:54.000Z</time>
      </trkpt>
      <trkpt lat="47.24794" lon="-1.45364">
        <ele>56</ele>
        <time>2021-06-06T14:39:56.000Z</time>
      </trkpt>
      <trkpt lat="47.24787" lon="-1.45382">
        <ele>56</ele>
        <time>2021-06-06T14:39:58.000Z</time>
      </trkpt>
      <trkpt lat="47.2478" lon="-1.45401">
        <ele>56</ele>
        <time>2021-06-06T14:40:00.000Z</time>
      </trkpt>
      <trkpt lat="47.24773" lon="-1.45418">
        <ele>56</ele>
        <time>2021-06-06T14:40:02.000Z</time>
      </trkpt>
      <trkpt lat="47.24765" lon="-1.45435">
        <ele>56</ele>
        <time>2021-06-06T14:40:04.000Z</time>
      </trkpt>
      <trkpt lat="47.24759" lon="-1.45452">
        <ele>56</ele>
        <time>2021-06-06T14:40:06.000Z</time>
      </trkpt>
      <trkpt lat="47.24752" lon="-1.45469">
        <ele>56</ele>
        <time>2021-06-06T14:40:08.000Z</time>
      </trkpt>
      <trkpt lat="47.24746" lon="-1.45485">
        <ele>56</ele>
        <time>2021-06-06T14:40:10.000Z</time>
      </trkpt>
      <trkpt lat="47.24739" lon="-1.45502">
        <ele>55</ele>
        <time>2021-06-06T14:40:12.000Z</time>
      </trkpt>
      <trkpt lat="47.24732" lon="-1.45519">
        <ele>54</ele>
        <time>2021-06-06T14:40:14.000Z</time>
      </trkpt>
      <trkpt lat="47.24726" lon="-1.45538">
        <ele>54</ele>
        <time>2021-06-06T14:40:16.000Z</time>
      </trkpt>
      <trkpt lat="47.24719" lon="-1.45556">
        <ele>54</ele>
        <time>2021-06-06T14:40:18.000Z</time>
      </trkpt>
      <trkpt lat="47.24713" lon="-1.45575">
        <ele>53</ele>
        <time>2021-06-06T14:40:20.000Z</time>
      </trkpt>
      <trkpt lat="47.24707" lon="-1.45595">
        <ele>53</ele>
        <time>2021-06-06T14:40:22.000Z</time>
      </trkpt>
      <trkpt lat="47.24701" lon="-1.45613">
        <ele>53</ele>
        <time>2021-06-06T14:40:24.000Z</time>
      </trkpt>
      <trkpt lat="47.24695" lon="-1.45631">
        <ele>53</ele>
        <time>2021-06-06T14:40:26.000Z</time>
      </trkpt>
      <trkpt lat="47.2469" lon="-1.45648">
        <ele>53</ele>
        <time>2021-06-06T14:40:28.000Z</time>
      </trkpt>
      <trkpt lat="47.24684" lon="-1.45665">
        <ele>53</ele>
        <time>2021-06-06T14:40:30.000Z</time>
      </trkpt>
      <trkpt lat="47.24679" lon="-1.45682">
        <ele>53</ele>
        <time>2021-06-06T14:40:32.000Z</time>
      </trkpt>
      <trkpt lat="47.24675" lon="-1.457">
        <ele>53</ele>
        <time>2021-06-06T14:40:34.000Z</time>
      </trkpt>
      <trkpt lat="47.2467" lon="-1.45718">
        <ele>53</ele>
        <time>2021-06-06T14:40:36.000Z</time>
      </trkpt>
      <trkpt lat="47.24665" lon="-1.45737">
        <ele>53</ele>
        <time>2021-06-06T14:40:38.000Z</time>
      </trkpt>
      <trkpt lat="47.24661" lon="-1.45755">
        <ele>54</ele>
        <time>2021-06-06T14:40:40.000Z</time>
      </trkpt>
      <trkpt lat="47.24657" lon="-1.45771">
        <ele>54</ele>
        <time>2021-06-06T14:40:42.000Z</time>
      </trkpt>
      <trkpt lat="47.24651" lon="-1.45786">
        <ele>55</ele>
        <time>2021-06-06T14:40:44.000Z</time>
      </trkpt>
      <trkpt lat="47.24645" lon="-1.45804">
        <ele>55</ele>
        <time>2021-06-06T14:40:46.000Z</time>
      </trkpt>
      <trkpt lat="47.24638" lon="-1.45821">
        <ele>55</ele>
        <time>2021-06-06T14:40:48.000Z</time>
      </trkpt>
      <trkpt lat="47.24633" lon="-1.4584">
        <ele>55</ele>
        <time>2021-06-06T14:40:50.000Z</time>
      </trkpt>
      <trkpt lat="47.2463" lon="-1.45859">
        <ele>56</ele>
        <time>2021-06-06T14:40:52.000Z</time>
      </trkpt>
      <trkpt lat="47.24625" lon="-1.45881">
        <ele>56</ele>
        <time>2021-06-06T14:40:54.000Z</time>
      </trkpt>
      <trkpt lat="47.24621" lon="-1.459">
        <ele>56</ele>
        <time>2021-06-06T14:40:56.000Z</time>
      </trkpt>
      <trkpt lat="47.24615" lon="-1.45918">
        <ele>56</ele>
        <time>2021-06-06T14:40:58.000Z</time>
      </trkpt>
      <trkpt lat="47.24608" lon="-1.45937">
        <ele>56</ele>
        <time>2021-06-06T14:41:00.000Z</time>
      </trkpt>
      <trkpt lat="47.246" lon="-1.45954">
        <ele>55</ele>
        <time>2021-06-06T14:41:02.000Z</time>
      </trkpt>
      <trkpt lat="47.24592" lon="-1.45971">
        <ele>56</ele>
        <time>2021-06-06T14:41:04.000Z</time>
      </trkpt>
      <trkpt lat="47.24585" lon="-1.4599">
        <ele>56</ele>
        <time>2021-06-06T14:41:06.000Z</time>
      </trkpt>
      <trkpt lat="47.24577" lon="-1.46008">
        <ele>56</ele>
        <time>2021-06-06T14:41:08.000Z</time>
      </trkpt>
      <trkpt lat="47.24569" lon="-1.46025">
        <ele>56</ele>
        <time>2021-06-06T14:41:10.000Z</time>
      </trkpt>
      <trkpt lat="47.2456" lon="-1.46041">
        <ele>57</ele>
        <time>2021-06-06T14:41:12.000Z</time>
      </trkpt>
      <trkpt lat="47.24551" lon="-1.46057">
        <ele>56</ele>
        <time>2021-06-06T14:41:14.000Z</time>
      </trkpt>
      <trkpt lat="47.24542" lon="-1.46074">
        <ele>56</ele>
        <time>2021-06-06T14:41:16.000Z</time>
      </trkpt>
      <trkpt lat="47.24534" lon="-1.4609">
        <ele>55</ele>
        <time>2021-06-06T14:41:18.000Z</time>
      </trkpt>
      <trkpt lat="47.24525" lon="-1.46104">
        <ele>55</ele>
        <time>2021-06-06T14:41:20.000Z</time>
      </trkpt>
      <trkpt lat="47.24515" lon="-1.46118">
        <ele>55</ele>
        <time>2021-06-06T14:41:22.000Z</time>
      </trkpt>
      <trkpt lat="47.24504" lon="-1.46131">
        <ele>55</ele>
        <time>2021-06-06T14:41:24.000Z</time>
      </trkpt>
      <trkpt lat="47.24494" lon="-1.46144">
        <ele>56</ele>
        <time>2021-06-06T14:41:26.000Z</time>
      </trkpt>
      <trkpt lat="47.24483" lon="-1.46158">
        <ele>56</ele>
        <time>2021-06-06T14:41:28.000Z</time>
      </trkpt>
      <trkpt lat="47.24473" lon="-1.46171">
        <ele>56</ele>
        <time>2021-06-06T14:41:30.000Z</time>
      </trkpt>
      <trkpt lat="47.24462" lon="-1.46183">
        <ele>56</ele>
        <time>2021-06-06T14:41:32.000Z</time>
      </trkpt>
      <trkpt lat="47.24452" lon="-1.46197">
        <ele>57</ele>
        <time>2021-06-06T14:41:34.000Z</time>
      </trkpt>
      <trkpt lat="47.24441" lon="-1.46212">
        <ele>57</ele>
        <time>2021-06-06T14:41:36.000Z</time>
      </trkpt>
      <trkpt lat="47.2443" lon="-1.46224">
        <ele>57</ele>
        <time>2021-06-06T14:41:38.000Z</time>
      </trkpt>
      <trkpt lat="47.2442" lon="-1.46239">
        <ele>58</ele>
        <time>2021-06-06T14:41:40.000Z</time>
      </trkpt>
      <trkpt lat="47.2441" lon="-1.46255">
        <ele>58</ele>
        <time>2021-06-06T14:41:42.000Z</time>
      </trkpt>
      <trkpt lat="47.244" lon="-1.46268">
        <ele>58</ele>
        <time>2021-06-06T14:41:44.000Z</time>
      </trkpt>
      <trkpt lat="47.2439" lon="-1.46283">
        <ele>59</ele>
        <time>2021-06-06T14:41:46.000Z</time>
      </trkpt>
      <trkpt lat="47.24381" lon="-1.463">
        <ele>59</ele>
        <time>2021-06-06T14:41:48.000Z</time>
      </trkpt>
      <trkpt lat="47.24371" lon="-1.46316">
        <ele>59</ele>
        <time>2021-06-06T14:41:50.000Z</time>
      </trkpt>
      <trkpt lat="47.24362" lon="-1.4633">
        <ele>59</ele>
        <time>2021-06-06T14:41:52.000Z</time>
      </trkpt>
      <trkpt lat="47.24352" lon="-1.46344">
        <ele>59</ele>
        <time>2021-06-06T14:41:54.000Z</time>
      </trkpt>
      <trkpt lat="47.24343" lon="-1.4636">
        <ele>58</ele>
        <time>2021-06-06T14:41:56.000Z</time>
      </trkpt>
      <trkpt lat="47.24333" lon="-1.46376">
        <ele>57</ele>
        <time>2021-06-06T14:41:58.000Z</time>
      </trkpt>
      <trkpt lat="47.24323" lon="-1.46391">
        <ele>56</ele>
        <time>2021-06-06T14:42:00.000Z</time>
      </trkpt>
      <trkpt lat="47.24314" lon="-1.46406">
        <ele>56</ele>
        <time>2021-06-06T14:42:02.000Z</time>
      </trkpt>
      <trkpt lat="47.24305" lon="-1.46421">
        <ele>55</ele>
        <time>2021-06-06T14:42:04.000Z</time>
      </trkpt>
      <trkpt lat="47.24296" lon="-1.46436">
        <ele>55</ele>
        <time>2021-06-06T14:42:06.000Z</time>
      </trkpt>
      <trkpt lat="47.24287" lon="-1.46449">
        <ele>55</ele>
        <time>2021-06-06T14:42:08.000Z</time>
      </trkpt>
      <trkpt lat="47.24277" lon="-1.46462">
        <ele>55</ele>
        <time>2021-06-06T14:42:10.000Z</time>
      </trkpt>
      <trkpt lat="47.24267" lon="-1.46474">
        <ele>55</ele>
        <time>2021-06-06T14:42:12.000Z</time>
      </trkpt>
      <trkpt lat="47.24256" lon="-1.46487">
        <ele>55</ele>
        <time>2021-06-06T14:42:14.000Z</time>
      </trkpt>
      <trkpt lat="47.24247" lon="-1.465">
        <ele>55</ele>
        <time>2021-06-06T14:42:16.000Z</time>
      </trkpt>
      <trkpt lat="47.24236" lon="-1.46512">
        <ele>55</ele>
        <time>2021-06-06T14:42:18.000Z</time>
      </trkpt>
      <trkpt lat="47.24226" lon="-1.46524">
        <ele>55</ele>
        <time>2021-06-06T14:42:20.000Z</time>
      </trkpt>
      <trkpt lat="47.24215" lon="-1.46535">
        <ele>55</ele>
        <time>2021-06-06T14:42:22.000Z</time>
      </trkpt>
      <trkpt lat="47.24205" lon="-1.46549">
        <ele>55</ele>
        <time>2021-06-06T14:42:24.000Z</time>
      </trkpt>
      <trkpt lat="47.24195" lon="-1.46563">
        <ele>54</ele>
        <time>2021-06-06T14:42:26.000Z</time>
      </trkpt>
      <trkpt lat="47.24184" lon="-1.46576">
        <ele>54</ele>
        <time>2021-06-06T14:42:28.000Z</time>
      </trkpt>
      <trkpt lat="47.24174" lon="-1.46589">
        <ele>54</ele>
        <time>2021-06-06T14:42:30.000Z</time>
      </trkpt>
      <trkpt lat="47.24165" lon="-1.46601">
        <ele>54</ele>
        <time>2021-06-06T14:42:32.000Z</time>
      </trkpt>
      <trkpt lat="47.24155" lon="-1.46613">
        <ele>55</ele>
        <time>2021-06-06T14:42:34.000Z</time>
      </trkpt>
      <trkpt lat="47.24146" lon="-1.46626">
        <ele>55</ele>
        <time>2021-06-06T14:42:36.000Z</time>
      </trkpt>
      <trkpt lat="47.24137" lon="-1.46639">
        <ele>55</ele>
        <time>2021-06-06T14:42:38.000Z</time>
      </trkpt>
      <trkpt lat="47.24128" lon="-1.46653">
        <ele>55</ele>
        <time>2021-06-06T14:42:40.000Z</time>
      </trkpt>
      <trkpt lat="47.24118" lon="-1.46666">
        <ele>56</ele>
        <time>2021-06-06T14:42:42.000Z</time>
      </trkpt>
      <trkpt lat="47.24108" lon="-1.46678">
        <ele>56</ele>
        <time>2021-06-06T14:42:44.000Z</time>
      </trkpt>
      <trkpt lat="47.24099" lon="-1.46692">
        <ele>56</ele>
        <time>2021-06-06T14:42:46.000Z</time>
      </trkpt>
      <trkpt lat="47.2409" lon="-1.46705">
        <ele>56</ele>
        <time>2021-06-06T14:42:48.000Z</time>
      </trkpt>
      <trkpt lat="47.24084" lon="-1.46721">
        <ele>55</ele>
        <time>2021-06-06T14:42:50.000Z</time>
      </trkpt>
      <trkpt lat="47.24077" lon="-1.46737">
        <ele>54</ele>
        <time>2021-06-06T14:42:52.000Z</time>
      </trkpt>
      <trkpt lat="47.24065" lon="-1.46745">
        <ele>54</ele>
        <time>2021-06-06T14:42:54.000Z</time>
      </trkpt>
      <trkpt lat="47.24052" lon="-1.46752">
        <ele>53</ele>
        <time>2021-06-06T14:42:56.000Z</time>
      </trkpt>
      <trkpt lat="47.24041" lon="-1.46764">
        <ele>53</ele>
        <time>2021-06-06T14:42:58.000Z</time>
      </trkpt>
      <trkpt lat="47.24031" lon="-1.46776">
        <ele>53</ele>
        <time>2021-06-06T14:43:00.000Z</time>
      </trkpt>
      <trkpt lat="47.2402" lon="-1.46788">
        <ele>53</ele>
        <time>2021-06-06T14:43:02.000Z</time>
      </trkpt>
      <trkpt lat="47.2401" lon="-1.468">
        <ele>53</ele>
        <time>2021-06-06T14:43:04.000Z</time>
      </trkpt>
      <trkpt lat="47.23999" lon="-1.46812">
        <ele>54</ele>
        <time>2021-06-06T14:43:06.000Z</time>
      </trkpt>
      <trkpt lat="47.23988" lon="-1.46824">
        <ele>54</ele>
        <time>2021-06-06T14:43:08.000Z</time>
      </trkpt>
      <trkpt lat="47.23978" lon="-1.46835">
        <ele>54</ele>
        <time>2021-06-06T14:43:10.000Z</time>
      </trkpt>
      <trkpt lat="47.23967" lon="-1.46847">
        <ele>54</ele>
        <time>2021-06-06T14:43:12.000Z</time>
      </trkpt>
      <trkpt lat="47.23956" lon="-1.46859">
        <ele>54</ele>
        <time>2021-06-06T14:43:14.000Z</time>
      </trkpt>
      <trkpt lat="47.23945" lon="-1.46868">
        <ele>55</ele>
        <time>2021-06-06T14:43:16.000Z</time>
      </trkpt>
      <trkpt lat="47.23933" lon="-1.46877">
        <ele>55</ele>
        <time>2021-06-06T14:43:18.000Z</time>
      </trkpt>
      <trkpt lat="47.23924" lon="-1.46889">
        <ele>55</ele>
        <time>2021-06-06T14:43:20.000Z</time>
      </trkpt>
      <trkpt lat="47.23913" lon="-1.46901">
        <ele>56</ele>
        <time>2021-06-06T14:43:22.000Z</time>
      </trkpt>
      <trkpt lat="47.23903" lon="-1.46913">
        <ele>56</ele>
        <time>2021-06-06T14:43:24.000Z</time>
      </trkpt>
      <trkpt lat="47.23894" lon="-1.46926">
        <ele>56</ele>
        <time>2021-06-06T14:43:26.000Z</time>
      </trkpt>
      <trkpt lat="47.23883" lon="-1.4694">
        <ele>56</ele>
        <time>2021-06-06T14:43:28.000Z</time>
      </trkpt>
      <trkpt lat="47.23872" lon="-1.46953">
        <ele>56</ele>
        <time>2021-06-06T14:43:30.000Z</time>
      </trkpt>
      <trkpt lat="47.23862" lon="-1.46966">
        <ele>55</ele>
        <time>2021-06-06T14:43:32.000Z</time>
      </trkpt>
      <trkpt lat="47.23852" lon="-1.46979">
        <ele>55</ele>
        <time>2021-06-06T14:43:34.000Z</time>
      </trkpt>
      <trkpt lat="47.23843" lon="-1.46993">
        <ele>55</ele>
        <time>2021-06-06T14:43:36.000Z</time>
      </trkpt>
      <trkpt lat="47.23834" lon="-1.47007">
        <ele>55</ele>
        <time>2021-06-06T14:43:38.000Z</time>
      </trkpt>
      <trkpt lat="47.23825" lon="-1.4702">
        <ele>55</ele>
        <time>2021-06-06T14:43:40.000Z</time>
      </trkpt>
      <trkpt lat="47.23815" lon="-1.47033">
        <ele>54</ele>
        <time>2021-06-06T14:43:42.000Z</time>
      </trkpt>
      <trkpt lat="47.23806" lon="-1.47048">
        <ele>54</ele>
        <time>2021-06-06T14:43:44.000Z</time>
      </trkpt>
      <trkpt lat="47.23796" lon="-1.47061">
        <ele>54</ele>
        <time>2021-06-06T14:43:46.000Z</time>
      </trkpt>
      <trkpt lat="47.23786" lon="-1.47075">
        <ele>53</ele>
        <time>2021-06-06T14:43:48.000Z</time>
      </trkpt>
      <trkpt lat="47.23777" lon="-1.47089">
        <ele>53</ele>
        <time>2021-06-06T14:43:50.000Z</time>
      </trkpt>
      <trkpt lat="47.23767" lon="-1.47102">
        <ele>53</ele>
        <time>2021-06-06T14:43:52.000Z</time>
      </trkpt>
      <trkpt lat="47.23757" lon="-1.47115">
        <ele>53</ele>
        <time>2021-06-06T14:43:54.000Z</time>
      </trkpt>
      <trkpt lat="47.23747" lon="-1.47129">
        <ele>53</ele>
        <time>2021-06-06T14:43:56.000Z</time>
      </trkpt>
      <trkpt lat="47.23737" lon="-1.4714">
        <ele>53</ele>
        <time>2021-06-06T14:43:58.000Z</time>
      </trkpt>
      <trkpt lat="47.23726" lon="-1.4715">
        <ele>53</ele>
        <time>2021-06-06T14:44:00.000Z</time>
      </trkpt>
      <trkpt lat="47.23717" lon="-1.47164">
        <ele>53</ele>
        <time>2021-06-06T14:44:02.000Z</time>
      </trkpt>
      <trkpt lat="47.23707" lon="-1.47179">
        <ele>52</ele>
        <time>2021-06-06T14:44:04.000Z</time>
      </trkpt>
      <trkpt lat="47.23698" lon="-1.47194">
        <ele>53</ele>
        <time>2021-06-06T14:44:06.000Z</time>
      </trkpt>
      <trkpt lat="47.23688" lon="-1.47208">
        <ele>52</ele>
        <time>2021-06-06T14:44:08.000Z</time>
      </trkpt>
      <trkpt lat="47.23679" lon="-1.47223">
        <ele>52</ele>
        <time>2021-06-06T14:44:10.000Z</time>
      </trkpt>
      <trkpt lat="47.23669" lon="-1.47235">
        <ele>52</ele>
        <time>2021-06-06T14:44:12.000Z</time>
      </trkpt>
      <trkpt lat="47.23658" lon="-1.47246">
        <ele>52</ele>
        <time>2021-06-06T14:44:14.000Z</time>
      </trkpt>
      <trkpt lat="47.23647" lon="-1.47258">
        <ele>52</ele>
        <time>2021-06-06T14:44:16.000Z</time>
      </trkpt>
      <trkpt lat="47.23637" lon="-1.47271">
        <ele>52</ele>
        <time>2021-06-06T14:44:18.000Z</time>
      </trkpt>
      <trkpt lat="47.23627" lon="-1.47283">
        <ele>53</ele>
        <time>2021-06-06T14:44:20.000Z</time>
      </trkpt>
      <trkpt lat="47.23617" lon="-1.47295">
        <ele>53</ele>
        <time>2021-06-06T14:44:22.000Z</time>
      </trkpt>
      <trkpt lat="47.23606" lon="-1.47305">
        <ele>53</ele>
        <time>2021-06-06T14:44:24.000Z</time>
      </trkpt>
      <trkpt lat="47.23595" lon="-1.47316">
        <ele>53</ele>
        <time>2021-06-06T14:44:26.000Z</time>
      </trkpt>
      <trkpt lat="47.23584" lon="-1.47327">
        <ele>53</ele>
        <time>2021-06-06T14:44:28.000Z</time>
      </trkpt>
      <trkpt lat="47.23573" lon="-1.47337">
        <ele>53</ele>
        <time>2021-06-06T14:44:30.000Z</time>
      </trkpt>
      <trkpt lat="47.23561" lon="-1.47346">
        <ele>54</ele>
        <time>2021-06-06T14:44:32.000Z</time>
      </trkpt>
      <trkpt lat="47.23549" lon="-1.47354">
        <ele>54</ele>
        <time>2021-06-06T14:44:34.000Z</time>
      </trkpt>
      <trkpt lat="47.23538" lon="-1.47364">
        <ele>54</ele>
        <time>2021-06-06T14:44:36.000Z</time>
      </trkpt>
      <trkpt lat="47.23526" lon="-1.47374">
        <ele>53</ele>
        <time>2021-06-06T14:44:38.000Z</time>
      </trkpt>
      <trkpt lat="47.23515" lon="-1.47383">
        <ele>53</ele>
        <time>2021-06-06T14:44:40.000Z</time>
      </trkpt>
      <trkpt lat="47.23503" lon="-1.47393">
        <ele>54</ele>
        <time>2021-06-06T14:44:42.000Z</time>
      </trkpt>
      <trkpt lat="47.23492" lon="-1.47401">
        <ele>54</ele>
        <time>2021-06-06T14:44:44.000Z</time>
      </trkpt>
      <trkpt lat="47.23479" lon="-1.47408">
        <ele>54</ele>
        <time>2021-06-06T14:44:46.000Z</time>
      </trkpt>
      <trkpt lat="47.23467" lon="-1.47413">
        <ele>54</ele>
        <time>2021-06-06T14:44:48.000Z</time>
      </trkpt>
      <trkpt lat="47.23455" lon="-1.47418">
        <ele>54</ele>
        <time>2021-06-06T14:44:50.000Z</time>
      </trkpt>
      <trkpt lat="47.23442" lon="-1.47424">
        <ele>54</ele>
        <time>2021-06-06T14:44:52.000Z</time>
      </trkpt>
      <trkpt lat="47.23433" lon="-1.4743">
        <ele>54</ele>
        <time>2021-06-06T14:44:54.000Z</time>
      </trkpt>
      <trkpt lat="47.23422" lon="-1.47438">
        <ele>54</ele>
        <time>2021-06-06T14:44:57.000Z</time>
      </trkpt>
      <trkpt lat="47.23409" lon="-1.47447">
        <ele>54</ele>
        <time>2021-06-06T14:45:00.000Z</time>
      </trkpt>
      <trkpt lat="47.23397" lon="-1.47453">
        <ele>55</ele>
        <time>2021-06-06T14:45:02.000Z</time>
      </trkpt>
      <trkpt lat="47.23385" lon="-1.4746">
        <ele>56</ele>
        <time>2021-06-06T14:45:04.000Z</time>
      </trkpt>
      <trkpt lat="47.23372" lon="-1.47467">
        <ele>56</ele>
        <time>2021-06-06T14:45:06.000Z</time>
      </trkpt>
      <trkpt lat="47.2336" lon="-1.47473">
        <ele>56</ele>
        <time>2021-06-06T14:45:08.000Z</time>
      </trkpt>
      <trkpt lat="47.23346" lon="-1.47479">
        <ele>55</ele>
        <time>2021-06-06T14:45:10.000Z</time>
      </trkpt>
      <trkpt lat="47.23334" lon="-1.47484">
        <ele>55</ele>
        <time>2021-06-06T14:45:12.000Z</time>
      </trkpt>
      <trkpt lat="47.23323" lon="-1.47496">
        <ele>55</ele>
        <time>2021-06-06T14:45:14.000Z</time>
      </trkpt>
      <trkpt lat="47.23311" lon="-1.47504">
        <ele>56</ele>
        <time>2021-06-06T14:45:16.000Z</time>
      </trkpt>
      <trkpt lat="47.23299" lon="-1.47511">
        <ele>57</ele>
        <time>2021-06-06T14:45:18.000Z</time>
      </trkpt>
      <trkpt lat="47.23287" lon="-1.47517">
        <ele>57</ele>
        <time>2021-06-06T14:45:20.000Z</time>
      </trkpt>
      <trkpt lat="47.23274" lon="-1.47524">
        <ele>57</ele>
        <time>2021-06-06T14:45:22.000Z</time>
      </trkpt>
      <trkpt lat="47.23263" lon="-1.47536">
        <ele>56</ele>
        <time>2021-06-06T14:45:24.000Z</time>
      </trkpt>
      <trkpt lat="47.23254" lon="-1.47549">
        <ele>55</ele>
        <time>2021-06-06T14:45:26.000Z</time>
      </trkpt>
      <trkpt lat="47.23246" lon="-1.47565">
        <ele>55</ele>
        <time>2021-06-06T14:45:28.000Z</time>
      </trkpt>
      <trkpt lat="47.23238" lon="-1.4758">
        <ele>54</ele>
        <time>2021-06-06T14:45:30.000Z</time>
      </trkpt>
      <trkpt lat="47.23231" lon="-1.47595">
        <ele>54</ele>
        <time>2021-06-06T14:45:32.000Z</time>
      </trkpt>
      <trkpt lat="47.23223" lon="-1.4761">
        <ele>54</ele>
        <time>2021-06-06T14:45:34.000Z</time>
      </trkpt>
      <trkpt lat="47.23216" lon="-1.47627">
        <ele>54</ele>
        <time>2021-06-06T14:45:36.000Z</time>
      </trkpt>
      <trkpt lat="47.23209" lon="-1.47645">
        <ele>54</ele>
        <time>2021-06-06T14:45:38.000Z</time>
      </trkpt>
      <trkpt lat="47.23203" lon="-1.47661">
        <ele>54</ele>
        <time>2021-06-06T14:45:40.000Z</time>
      </trkpt>
      <trkpt lat="47.23196" lon="-1.47678">
        <ele>54</ele>
        <time>2021-06-06T14:45:42.000Z</time>
      </trkpt>
      <trkpt lat="47.23189" lon="-1.47697">
        <ele>54</ele>
        <time>2021-06-06T14:45:44.000Z</time>
      </trkpt>
      <trkpt lat="47.23181" lon="-1.47716">
        <ele>55</ele>
        <time>2021-06-06T14:45:46.000Z</time>
      </trkpt>
      <trkpt lat="47.23173" lon="-1.47736">
        <ele>55</ele>
        <time>2021-06-06T14:45:48.000Z</time>
      </trkpt>
      <trkpt lat="47.23164" lon="-1.47755">
        <ele>54</ele>
        <time>2021-06-06T14:45:50.000Z</time>
      </trkpt>
      <trkpt lat="47.23155" lon="-1.47774">
        <ele>53</ele>
        <time>2021-06-06T14:45:52.000Z</time>
      </trkpt>
      <trkpt lat="47.23148" lon="-1.47791">
        <ele>53</ele>
        <time>2021-06-06T14:45:54.000Z</time>
      </trkpt>
      <trkpt lat="47.23142" lon="-1.47808">
        <ele>54</ele>
        <time>2021-06-06T14:45:56.000Z</time>
      </trkpt>
      <trkpt lat="47.23137" lon="-1.47824">
        <ele>54</ele>
        <time>2021-06-06T14:45:58.000Z</time>
      </trkpt>
      <trkpt lat="47.23131" lon="-1.47842">
        <ele>55</ele>
        <time>2021-06-06T14:46:00.000Z</time>
      </trkpt>
      <trkpt lat="47.23122" lon="-1.47859">
        <ele>55</ele>
        <time>2021-06-06T14:46:02.000Z</time>
      </trkpt>
      <trkpt lat="47.23112" lon="-1.47874">
        <ele>56</ele>
        <time>2021-06-06T14:46:04.000Z</time>
      </trkpt>
      <trkpt lat="47.23101" lon="-1.47889">
        <ele>55</ele>
        <time>2021-06-06T14:46:06.000Z</time>
      </trkpt>
      <trkpt lat="47.23091" lon="-1.47903">
        <ele>55</ele>
        <time>2021-06-06T14:46:08.000Z</time>
      </trkpt>
      <trkpt lat="47.2308" lon="-1.47916">
        <ele>55</ele>
        <time>2021-06-06T14:46:10.000Z</time>
      </trkpt>
      <trkpt lat="47.23069" lon="-1.47928">
        <ele>55</ele>
        <time>2021-06-06T14:46:12.000Z</time>
      </trkpt>
      <trkpt lat="47.23057" lon="-1.47943">
        <ele>55</ele>
        <time>2021-06-06T14:46:14.000Z</time>
      </trkpt>
      <trkpt lat="47.23047" lon="-1.47957">
        <ele>55</ele>
        <time>2021-06-06T14:46:16.000Z</time>
      </trkpt>
      <trkpt lat="47.23037" lon="-1.47972">
        <ele>55</ele>
        <time>2021-06-06T14:46:18.000Z</time>
      </trkpt>
      <trkpt lat="47.23027" lon="-1.47986">
        <ele>56</ele>
        <time>2021-06-06T14:46:20.000Z</time>
      </trkpt>
      <trkpt lat="47.23017" lon="-1.48002">
        <ele>56</ele>
        <time>2021-06-06T14:46:22.000Z</time>
      </trkpt>
      <trkpt lat="47.23008" lon="-1.48018">
        <ele>56</ele>
        <time>2021-06-06T14:46:24.000Z</time>
      </trkpt>
      <trkpt lat="47.22999" lon="-1.48035">
        <ele>56</ele>
        <time>2021-06-06T14:46:26.000Z</time>
      </trkpt>
      <trkpt lat="47.22989" lon="-1.48052">
        <ele>55</ele>
        <time>2021-06-06T14:46:28.000Z</time>
      </trkpt>
      <trkpt lat="47.22979" lon="-1.48067">
        <ele>55</ele>
        <time>2021-06-06T14:46:30.000Z</time>
      </trkpt>
      <trkpt lat="47.22969" lon="-1.48082">
        <ele>54</ele>
        <time>2021-06-06T14:46:32.000Z</time>
      </trkpt>
      <trkpt lat="47.22958" lon="-1.48096">
        <ele>54</ele>
        <time>2021-06-06T14:46:34.000Z</time>
      </trkpt>
      <trkpt lat="47.22947" lon="-1.4811">
        <ele>55</ele>
        <time>2021-06-06T14:46:36.000Z</time>
      </trkpt>
      <trkpt lat="47.22933" lon="-1.48114">
        <ele>55</ele>
        <time>2021-06-06T14:46:38.000Z</time>
      </trkpt>
      <trkpt lat="47.22918" lon="-1.48119">
        <ele>55</ele>
        <time>2021-06-06T14:46:40.000Z</time>
      </trkpt>
      <trkpt lat="47.22905" lon="-1.48129">
        <ele>55</ele>
        <time>2021-06-06T14:46:42.000Z</time>
      </trkpt>
      <trkpt lat="47.22894" lon="-1.48143">
        <ele>55</ele>
        <time>2021-06-06T14:46:44.000Z</time>
      </trkpt>
      <trkpt lat="47.22884" lon="-1.48158">
        <ele>55</ele>
        <time>2021-06-06T14:46:46.000Z</time>
      </trkpt>
      <trkpt lat="47.22875" lon="-1.48174">
        <ele>55</ele>
        <time>2021-06-06T14:46:48.000Z</time>
      </trkpt>
      <trkpt lat="47.22866" lon="-1.48189">
        <ele>55</ele>
        <time>2021-06-06T14:46:50.000Z</time>
      </trkpt>
      <trkpt lat="47.22857" lon="-1.48205">
        <ele>56</ele>
        <time>2021-06-06T14:46:52.000Z</time>
      </trkpt>
      <trkpt lat="47.22846" lon="-1.4822">
        <ele>56</ele>
        <time>2021-06-06T14:46:54.000Z</time>
      </trkpt>
      <trkpt lat="47.22835" lon="-1.48235">
        <ele>55</ele>
        <time>2021-06-06T14:46:56.000Z</time>
      </trkpt>
      <trkpt lat="47.22826" lon="-1.48249">
        <ele>55</ele>
        <time>2021-06-06T14:46:58.000Z</time>
      </trkpt>
      <trkpt lat="47.22817" lon="-1.48262">
        <ele>56</ele>
        <time>2021-06-06T14:47:00.000Z</time>
      </trkpt>
      <trkpt lat="47.22807" lon="-1.48278">
        <ele>57</ele>
        <time>2021-06-06T14:47:02.000Z</time>
      </trkpt>
      <trkpt lat="47.22798" lon="-1.48293">
        <ele>57</ele>
        <time>2021-06-06T14:47:04.000Z</time>
      </trkpt>
      <trkpt lat="47.22788" lon="-1.4831">
        <ele>57</ele>
        <time>2021-06-06T14:47:06.000Z</time>
      </trkpt>
      <trkpt lat="47.22779" lon="-1.48326">
        <ele>57</ele>
        <time>2021-06-06T14:47:08.000Z</time>
      </trkpt>
      <trkpt lat="47.2277" lon="-1.48341">
        <ele>57</ele>
        <time>2021-06-06T14:47:10.000Z</time>
      </trkpt>
      <trkpt lat="47.22759" lon="-1.48355">
        <ele>57</ele>
        <time>2021-06-06T14:47:12.000Z</time>
      </trkpt>
      <trkpt lat="47.22749" lon="-1.48369">
        <ele>57</ele>
        <time>2021-06-06T14:47:14.000Z</time>
      </trkpt>
      <trkpt lat="47.22738" lon="-1.48382">
        <ele>56</ele>
        <time>2021-06-06T14:47:16.000Z</time>
      </trkpt>
      <trkpt lat="47.22727" lon="-1.48394">
        <ele>57</ele>
        <time>2021-06-06T14:47:18.000Z</time>
      </trkpt>
      <trkpt lat="47.22717" lon="-1.48407">
        <ele>57</ele>
        <time>2021-06-06T14:47:20.000Z</time>
      </trkpt>
      <trkpt lat="47.2271" lon="-1.48424">
        <ele>57</ele>
        <time>2021-06-06T14:47:22.000Z</time>
      </trkpt>
      <trkpt lat="47.22703" lon="-1.48442">
        <ele>57</ele>
        <time>2021-06-06T14:47:24.000Z</time>
      </trkpt>
      <trkpt lat="47.22696" lon="-1.48461">
        <ele>56</ele>
        <time>2021-06-06T14:47:26.000Z</time>
      </trkpt>
      <trkpt lat="47.22689" lon="-1.48478">
        <ele>55</ele>
        <time>2021-06-06T14:47:28.000Z</time>
      </trkpt>
      <trkpt lat="47.22681" lon="-1.48495">
        <ele>55</ele>
        <time>2021-06-06T14:47:30.000Z</time>
      </trkpt>
      <trkpt lat="47.22673" lon="-1.48511">
        <ele>54</ele>
        <time>2021-06-06T14:47:32.000Z</time>
      </trkpt>
      <trkpt lat="47.22667" lon="-1.48528">
        <ele>55</ele>
        <time>2021-06-06T14:47:34.000Z</time>
      </trkpt>
      <trkpt lat="47.22662" lon="-1.48548">
        <ele>55</ele>
        <time>2021-06-06T14:47:36.000Z</time>
      </trkpt>
      <trkpt lat="47.22656" lon="-1.48566">
        <ele>54</ele>
        <time>2021-06-06T14:47:38.000Z</time>
      </trkpt>
      <trkpt lat="47.22649" lon="-1.48583">
        <ele>54</ele>
        <time>2021-06-06T14:47:40.000Z</time>
      </trkpt>
      <trkpt lat="47.22642" lon="-1.48599">
        <ele>54</ele>
        <time>2021-06-06T14:47:42.000Z</time>
      </trkpt>
      <trkpt lat="47.22638" lon="-1.48612">
        <ele>54</ele>
        <time>2021-06-06T14:47:44.000Z</time>
      </trkpt>
      <trkpt lat="47.22633" lon="-1.48626">
        <ele>54</ele>
        <time>2021-06-06T14:47:46.000Z</time>
      </trkpt>
      <trkpt lat="47.22628" lon="-1.48644">
        <ele>54</ele>
        <time>2021-06-06T14:47:48.000Z</time>
      </trkpt>
      <trkpt lat="47.22622" lon="-1.48662">
        <ele>54</ele>
        <time>2021-06-06T14:47:50.000Z</time>
      </trkpt>
      <trkpt lat="47.22616" lon="-1.48681">
        <ele>55</ele>
        <time>2021-06-06T14:47:52.000Z</time>
      </trkpt>
      <trkpt lat="47.22609" lon="-1.48702">
        <ele>56</ele>
        <time>2021-06-06T14:47:54.000Z</time>
      </trkpt>
      <trkpt lat="47.22603" lon="-1.48721">
        <ele>56</ele>
        <time>2021-06-06T14:47:56.000Z</time>
      </trkpt>
      <trkpt lat="47.22598" lon="-1.48742">
        <ele>57</ele>
        <time>2021-06-06T14:47:58.000Z</time>
      </trkpt>
      <trkpt lat="47.22593" lon="-1.48762">
        <ele>57</ele>
        <time>2021-06-06T14:48:00.000Z</time>
      </trkpt>
      <trkpt lat="47.22587" lon="-1.48781">
        <ele>57</ele>
        <time>2021-06-06T14:48:02.000Z</time>
      </trkpt>
      <trkpt lat="47.22582" lon="-1.48799">
        <ele>57</ele>
        <time>2021-06-06T14:48:04.000Z</time>
      </trkpt>
      <trkpt lat="47.22575" lon="-1.48817">
        <ele>56</ele>
        <time>2021-06-06T14:48:06.000Z</time>
      </trkpt>
      <trkpt lat="47.22569" lon="-1.48833">
        <ele>56</ele>
        <time>2021-06-06T14:48:08.000Z</time>
      </trkpt>
      <trkpt lat="47.22565" lon="-1.48848">
        <ele>57</ele>
        <time>2021-06-06T14:48:10.000Z</time>
      </trkpt>
      <trkpt lat="47.22561" lon="-1.48865">
        <ele>57</ele>
        <time>2021-06-06T14:48:12.000Z</time>
      </trkpt>
      <trkpt lat="47.22556" lon="-1.48883">
        <ele>59</ele>
        <time>2021-06-06T14:48:14.000Z</time>
      </trkpt>
      <trkpt lat="47.22551" lon="-1.48904">
        <ele>58</ele>
        <time>2021-06-06T14:48:16.000Z</time>
      </trkpt>
      <trkpt lat="47.22544" lon="-1.48925">
        <ele>58</ele>
        <time>2021-06-06T14:48:18.000Z</time>
      </trkpt>
      <trkpt lat="47.22537" lon="-1.48945">
        <ele>58</ele>
        <time>2021-06-06T14:48:20.000Z</time>
      </trkpt>
      <trkpt lat="47.2253" lon="-1.48963">
        <ele>58</ele>
        <time>2021-06-06T14:48:22.000Z</time>
      </trkpt>
      <trkpt lat="47.22523" lon="-1.4898">
        <ele>58</ele>
        <time>2021-06-06T14:48:24.000Z</time>
      </trkpt>
      <trkpt lat="47.22516" lon="-1.48997">
        <ele>58</ele>
        <time>2021-06-06T14:48:26.000Z</time>
      </trkpt>
      <trkpt lat="47.22511" lon="-1.49015">
        <ele>58</ele>
        <time>2021-06-06T14:48:28.000Z</time>
      </trkpt>
      <trkpt lat="47.22506" lon="-1.49033">
        <ele>58</ele>
        <time>2021-06-06T14:48:30.000Z</time>
      </trkpt>
      <trkpt lat="47.22501" lon="-1.4905">
        <ele>57</ele>
        <time>2021-06-06T14:48:32.000Z</time>
      </trkpt>
      <trkpt lat="47.22495" lon="-1.4907">
        <ele>57</ele>
        <time>2021-06-06T14:48:34.000Z</time>
      </trkpt>
      <trkpt lat="47.22488" lon="-1.49088">
        <ele>58</ele>
        <time>2021-06-06T14:48:36.000Z</time>
      </trkpt>
      <trkpt lat="47.22482" lon="-1.49108">
        <ele>58</ele>
        <time>2021-06-06T14:48:38.000Z</time>
      </trkpt>
      <trkpt lat="47.22476" lon="-1.49128">
        <ele>58</ele>
        <time>2021-06-06T14:48:40.000Z</time>
      </trkpt>
      <trkpt lat="47.22471" lon="-1.49147">
        <ele>58</ele>
        <time>2021-06-06T14:48:42.000Z</time>
      </trkpt>
      <trkpt lat="47.22466" lon="-1.49167">
        <ele>58</ele>
        <time>2021-06-06T14:48:44.000Z</time>
      </trkpt>
      <trkpt lat="47.22458" lon="-1.49185">
        <ele>57</ele>
        <time>2021-06-06T14:48:46.000Z</time>
      </trkpt>
      <trkpt lat="47.22452" lon="-1.49202">
        <ele>58</ele>
        <time>2021-06-06T14:48:48.000Z</time>
      </trkpt>
      <trkpt lat="47.22445" lon="-1.4922">
        <ele>58</ele>
        <time>2021-06-06T14:48:50.000Z</time>
      </trkpt>
      <trkpt lat="47.22438" lon="-1.49238">
        <ele>57</ele>
        <time>2021-06-06T14:48:52.000Z</time>
      </trkpt>
      <trkpt lat="47.22432" lon="-1.49256">
        <ele>58</ele>
        <time>2021-06-06T14:48:54.000Z</time>
      </trkpt>
      <trkpt lat="47.22425" lon="-1.49272">
        <ele>58</ele>
        <time>2021-06-06T14:48:56.000Z</time>
      </trkpt>
      <trkpt lat="47.22418" lon="-1.49289">
        <ele>58</ele>
        <time>2021-06-06T14:48:58.000Z</time>
      </trkpt>
      <trkpt lat="47.22412" lon="-1.49306">
        <ele>58</ele>
        <time>2021-06-06T14:49:00.000Z</time>
      </trkpt>
      <trkpt lat="47.22407" lon="-1.49325">
        <ele>58</ele>
        <time>2021-06-06T14:49:02.000Z</time>
      </trkpt>
      <trkpt lat="47.224" lon="-1.49343">
        <ele>58</ele>
        <time>2021-06-06T14:49:04.000Z</time>
      </trkpt>
      <trkpt lat="47.22394" lon="-1.49359">
        <ele>58</ele>
        <time>2021-06-06T14:49:06.000Z</time>
      </trkpt>
      <trkpt lat="47.22386" lon="-1.49376">
        <ele>58</ele>
        <time>2021-06-06T14:49:08.000Z</time>
      </trkpt>
      <trkpt lat="47.22379" lon="-1.49392">
        <ele>58</ele>
        <time>2021-06-06T14:49:10.000Z</time>
      </trkpt>
      <trkpt lat="47.22371" lon="-1.49408">
        <ele>58</ele>
        <time>2021-06-06T14:49:12.000Z</time>
      </trkpt>
      <trkpt lat="47.22364" lon="-1.49425">
        <ele>58</ele>
        <time>2021-06-06T14:49:14.000Z</time>
      </trkpt>
      <trkpt lat="47.22358" lon="-1.49441">
        <ele>57</ele>
        <time>2021-06-06T14:49:16.000Z</time>
      </trkpt>
      <trkpt lat="47.22351" lon="-1.49457">
        <ele>57</ele>
        <time>2021-06-06T14:49:18.000Z</time>
      </trkpt>
      <trkpt lat="47.22345" lon="-1.49473">
        <ele>58</ele>
        <time>2021-06-06T14:49:20.000Z</time>
      </trkpt>
      <trkpt lat="47.2234" lon="-1.4949">
        <ele>59</ele>
        <time>2021-06-06T14:49:22.000Z</time>
      </trkpt>
      <trkpt lat="47.22334" lon="-1.49509">
        <ele>58</ele>
        <time>2021-06-06T14:49:24.000Z</time>
      </trkpt>
      <trkpt lat="47.22329" lon="-1.49528">
        <ele>58</ele>
        <time>2021-06-06T14:49:26.000Z</time>
      </trkpt>
      <trkpt lat="47.22323" lon="-1.49546">
        <ele>59</ele>
        <time>2021-06-06T14:49:28.000Z</time>
      </trkpt>
      <trkpt lat="47.22318" lon="-1.49564">
        <ele>59</ele>
        <time>2021-06-06T14:49:30.000Z</time>
      </trkpt>
      <trkpt lat="47.22312" lon="-1.49581">
        <ele>59</ele>
        <time>2021-06-06T14:49:32.000Z</time>
      </trkpt>
      <trkpt lat="47.22305" lon="-1.49599">
        <ele>59</ele>
        <time>2021-06-06T14:49:34.000Z</time>
      </trkpt>
      <trkpt lat="47.22299" lon="-1.49617">
        <ele>59</ele>
        <time>2021-06-06T14:49:36.000Z</time>
      </trkpt>
      <trkpt lat="47.22294" lon="-1.49635">
        <ele>58</ele>
        <time>2021-06-06T14:49:38.000Z</time>
      </trkpt>
      <trkpt lat="47.22289" lon="-1.49652">
        <ele>58</ele>
        <time>2021-06-06T14:49:40.000Z</time>
      </trkpt>
      <trkpt lat="47.22284" lon="-1.49671">
        <ele>58</ele>
        <time>2021-06-06T14:49:42.000Z</time>
      </trkpt>
      <trkpt lat="47.22278" lon="-1.49689">
        <ele>59</ele>
        <time>2021-06-06T14:49:44.000Z</time>
      </trkpt>
      <trkpt lat="47.22272" lon="-1.49707">
        <ele>59</ele>
        <time>2021-06-06T14:49:46.000Z</time>
      </trkpt>
      <trkpt lat="47.22266" lon="-1.49725">
        <ele>59</ele>
        <time>2021-06-06T14:49:48.000Z</time>
      </trkpt>
      <trkpt lat="47.22261" lon="-1.49743">
        <ele>59</ele>
        <time>2021-06-06T14:49:50.000Z</time>
      </trkpt>
      <trkpt lat="47.22256" lon="-1.49761">
        <ele>58</ele>
        <time>2021-06-06T14:49:52.000Z</time>
      </trkpt>
      <trkpt lat="47.22254" lon="-1.4978">
        <ele>57</ele>
        <time>2021-06-06T14:49:54.000Z</time>
      </trkpt>
      <trkpt lat="47.22251" lon="-1.49798">
        <ele>58</ele>
        <time>2021-06-06T14:49:56.000Z</time>
      </trkpt>
      <trkpt lat="47.22247" lon="-1.49817">
        <ele>57</ele>
        <time>2021-06-06T14:49:58.000Z</time>
      </trkpt>
      <trkpt lat="47.22244" lon="-1.49837">
        <ele>57</ele>
        <time>2021-06-06T14:50:00.000Z</time>
      </trkpt>
      <trkpt lat="47.22239" lon="-1.49856">
        <ele>57</ele>
        <time>2021-06-06T14:50:02.000Z</time>
      </trkpt>
      <trkpt lat="47.22235" lon="-1.49875">
        <ele>58</ele>
        <time>2021-06-06T14:50:04.000Z</time>
      </trkpt>
      <trkpt lat="47.22232" lon="-1.49894">
        <ele>58</ele>
        <time>2021-06-06T14:50:06.000Z</time>
      </trkpt>
      <trkpt lat="47.22228" lon="-1.49914">
        <ele>58</ele>
        <time>2021-06-06T14:50:08.000Z</time>
      </trkpt>
      <trkpt lat="47.22224" lon="-1.49933">
        <ele>58</ele>
        <time>2021-06-06T14:50:10.000Z</time>
      </trkpt>
      <trkpt lat="47.22219" lon="-1.49951">
        <ele>58</ele>
        <time>2021-06-06T14:50:12.000Z</time>
      </trkpt>
      <trkpt lat="47.22216" lon="-1.49967">
        <ele>58</ele>
        <time>2021-06-06T14:50:14.000Z</time>
      </trkpt>
      <trkpt lat="47.22212" lon="-1.49984">
        <ele>58</ele>
        <time>2021-06-06T14:50:16.000Z</time>
      </trkpt>
      <trkpt lat="47.22206" lon="-1.50002">
        <ele>58</ele>
        <time>2021-06-06T14:50:18.000Z</time>
      </trkpt>
      <trkpt lat="47.22201" lon="-1.50022">
        <ele>58</ele>
        <time>2021-06-06T14:50:20.000Z</time>
      </trkpt>
      <trkpt lat="47.22195" lon="-1.50041">
        <ele>58</ele>
        <time>2021-06-06T14:50:22.000Z</time>
      </trkpt>
      <trkpt lat="47.22191" lon="-1.5006">
        <ele>58</ele>
        <time>2021-06-06T14:50:24.000Z</time>
      </trkpt>
      <trkpt lat="47.22185" lon="-1.50079">
        <ele>57</ele>
        <time>2021-06-06T14:50:26.000Z</time>
      </trkpt>
      <trkpt lat="47.2218" lon="-1.50097">
        <ele>56</ele>
        <time>2021-06-06T14:50:28.000Z</time>
      </trkpt>
      <trkpt lat="47.22174" lon="-1.50117">
        <ele>56</ele>
        <time>2021-06-06T14:50:30.000Z</time>
      </trkpt>
      <trkpt lat="47.22168" lon="-1.50134">
        <ele>57</ele>
        <time>2021-06-06T14:50:32.000Z</time>
      </trkpt>
      <trkpt lat="47.22162" lon="-1.50152">
        <ele>57</ele>
        <time>2021-06-06T14:50:34.000Z</time>
      </trkpt>
      <trkpt lat="47.22156" lon="-1.50171">
        <ele>57</ele>
        <time>2021-06-06T14:50:36.000Z</time>
      </trkpt>
      <trkpt lat="47.22152" lon="-1.5019">
        <ele>56</ele>
        <time>2021-06-06T14:50:38.000Z</time>
      </trkpt>
      <trkpt lat="47.22149" lon="-1.50208">
        <ele>55</ele>
        <time>2021-06-06T14:50:40.000Z</time>
      </trkpt>
      <trkpt lat="47.22145" lon="-1.50225">
        <ele>56</ele>
        <time>2021-06-06T14:50:42.000Z</time>
      </trkpt>
      <trkpt lat="47.2214" lon="-1.50242">
        <ele>55</ele>
        <time>2021-06-06T14:50:44.000Z</time>
      </trkpt>
      <trkpt lat="47.22135" lon="-1.50259">
        <ele>55</ele>
        <time>2021-06-06T14:50:46.000Z</time>
      </trkpt>
      <trkpt lat="47.2213" lon="-1.50277">
        <ele>55</ele>
        <time>2021-06-06T14:50:48.000Z</time>
      </trkpt>
      <trkpt lat="47.22124" lon="-1.50293">
        <ele>56</ele>
        <time>2021-06-06T14:50:50.000Z</time>
      </trkpt>
      <trkpt lat="47.22117" lon="-1.50303">
        <ele>57</ele>
        <time>2021-06-06T14:50:52.000Z</time>
      </trkpt>
      <trkpt lat="47.22108" lon="-1.50317">
        <ele>57</ele>
        <time>2021-06-06T14:50:54.000Z</time>
      </trkpt>
      <trkpt lat="47.22101" lon="-1.50333">
        <ele>58</ele>
        <time>2021-06-06T14:50:56.000Z</time>
      </trkpt>
      <trkpt lat="47.22094" lon="-1.50351">
        <ele>58</ele>
        <time>2021-06-06T14:50:58.000Z</time>
      </trkpt>
      <trkpt lat="47.22089" lon="-1.50372">
        <ele>58</ele>
        <time>2021-06-06T14:51:00.000Z</time>
      </trkpt>
      <trkpt lat="47.22084" lon="-1.50393">
        <ele>57</ele>
        <time>2021-06-06T14:51:02.000Z</time>
      </trkpt>
      <trkpt lat="47.22078" lon="-1.50413">
        <ele>57</ele>
        <time>2021-06-06T14:51:04.000Z</time>
      </trkpt>
      <trkpt lat="47.22074" lon="-1.50433">
        <ele>57</ele>
        <time>2021-06-06T14:51:06.000Z</time>
      </trkpt>
      <trkpt lat="47.2207" lon="-1.50454">
        <ele>56</ele>
        <time>2021-06-06T14:51:08.000Z</time>
      </trkpt>
      <trkpt lat="47.22068" lon="-1.50475">
        <ele>56</ele>
        <time>2021-06-06T14:51:10.000Z</time>
      </trkpt>
      <trkpt lat="47.22067" lon="-1.50494">
        <ele>55</ele>
        <time>2021-06-06T14:51:12.000Z</time>
      </trkpt>
      <trkpt lat="47.22065" lon="-1.50514">
        <ele>55</ele>
        <time>2021-06-06T14:51:14.000Z</time>
      </trkpt>
      <trkpt lat="47.22063" lon="-1.50537">
        <ele>55</ele>
        <time>2021-06-06T14:51:16.000Z</time>
      </trkpt>
      <trkpt lat="47.22062" lon="-1.50557">
        <ele>55</ele>
        <time>2021-06-06T14:51:18.000Z</time>
      </trkpt>
      <trkpt lat="47.2206" lon="-1.50576">
        <ele>55</ele>
        <time>2021-06-06T14:51:20.000Z</time>
      </trkpt>
      <trkpt lat="47.22059" lon="-1.50595">
        <ele>55</ele>
        <time>2021-06-06T14:51:22.000Z</time>
      </trkpt>
      <trkpt lat="47.22058" lon="-1.50612">
        <ele>56</ele>
        <time>2021-06-06T14:51:24.000Z</time>
      </trkpt>
      <trkpt lat="47.22056" lon="-1.50631">
        <ele>56</ele>
        <time>2021-06-06T14:51:26.000Z</time>
      </trkpt>
      <trkpt lat="47.22056" lon="-1.50651">
        <ele>56</ele>
        <time>2021-06-06T14:51:28.000Z</time>
      </trkpt>
      <trkpt lat="47.22053" lon="-1.50671">
        <ele>57</ele>
        <time>2021-06-06T14:51:30.000Z</time>
      </trkpt>
      <trkpt lat="47.22051" lon="-1.50691">
        <ele>57</ele>
        <time>2021-06-06T14:51:32.000Z</time>
      </trkpt>
      <trkpt lat="47.22049" lon="-1.50712">
        <ele>58</ele>
        <time>2021-06-06T14:51:34.000Z</time>
      </trkpt>
      <trkpt lat="47.22049" lon="-1.50733">
        <ele>57</ele>
        <time>2021-06-06T14:51:36.000Z</time>
      </trkpt>
      <trkpt lat="47.22048" lon="-1.50753">
        <ele>58</ele>
        <time>2021-06-06T14:51:38.000Z</time>
      </trkpt>
      <trkpt lat="47.22045" lon="-1.50772">
        <ele>58</ele>
        <time>2021-06-06T14:51:40.000Z</time>
      </trkpt>
      <trkpt lat="47.2204" lon="-1.50794">
        <ele>58</ele>
        <time>2021-06-06T14:51:42.000Z</time>
      </trkpt>
      <trkpt lat="47.22033" lon="-1.50812">
        <ele>58</ele>
        <time>2021-06-06T14:51:44.000Z</time>
      </trkpt>
      <trkpt lat="47.22026" lon="-1.50827">
        <ele>58</ele>
        <time>2021-06-06T14:51:46.000Z</time>
      </trkpt>
      <trkpt lat="47.22018" lon="-1.50844">
        <ele>59</ele>
        <time>2021-06-06T14:51:48.000Z</time>
      </trkpt>
      <trkpt lat="47.2201" lon="-1.50864">
        <ele>60</ele>
        <time>2021-06-06T14:51:50.000Z</time>
      </trkpt>
      <trkpt lat="47.22002" lon="-1.50883">
        <ele>61</ele>
        <time>2021-06-06T14:51:52.000Z</time>
      </trkpt>
      <trkpt lat="47.21996" lon="-1.50903">
        <ele>60</ele>
        <time>2021-06-06T14:51:54.000Z</time>
      </trkpt>
      <trkpt lat="47.21991" lon="-1.50924">
        <ele>59</ele>
        <time>2021-06-06T14:51:56.000Z</time>
      </trkpt>
      <trkpt lat="47.21986" lon="-1.50943">
        <ele>58</ele>
        <time>2021-06-06T14:51:58.000Z</time>
      </trkpt>
      <trkpt lat="47.21981" lon="-1.50963">
        <ele>58</ele>
        <time>2021-06-06T14:52:00.000Z</time>
      </trkpt>
      <trkpt lat="47.21976" lon="-1.50981">
        <ele>58</ele>
        <time>2021-06-06T14:52:02.000Z</time>
      </trkpt>
      <trkpt lat="47.2197" lon="-1.51">
        <ele>58</ele>
        <time>2021-06-06T14:52:04.000Z</time>
      </trkpt>
      <trkpt lat="47.21964" lon="-1.51019">
        <ele>57</ele>
        <time>2021-06-06T14:52:06.000Z</time>
      </trkpt>
      <trkpt lat="47.21959" lon="-1.51037">
        <ele>56</ele>
        <time>2021-06-06T14:52:08.000Z</time>
      </trkpt>
      <trkpt lat="47.21953" lon="-1.51052">
        <ele>57</ele>
        <time>2021-06-06T14:52:10.000Z</time>
      </trkpt>
      <trkpt lat="47.21946" lon="-1.51065">
        <ele>57</ele>
        <time>2021-06-06T14:52:12.000Z</time>
      </trkpt>
      <trkpt lat="47.21938" lon="-1.5108">
        <ele>56</ele>
        <time>2021-06-06T14:52:14.000Z</time>
      </trkpt>
      <trkpt lat="47.21931" lon="-1.51099">
        <ele>56</ele>
        <time>2021-06-06T14:52:16.000Z</time>
      </trkpt>
      <trkpt lat="47.21926" lon="-1.51116">
        <ele>55</ele>
        <time>2021-06-06T14:52:18.000Z</time>
      </trkpt>
      <trkpt lat="47.2192" lon="-1.51134">
        <ele>55</ele>
        <time>2021-06-06T14:52:20.000Z</time>
      </trkpt>
      <trkpt lat="47.21915" lon="-1.51149">
        <ele>56</ele>
        <time>2021-06-06T14:52:22.000Z</time>
      </trkpt>
      <trkpt lat="47.21909" lon="-1.51164">
        <ele>56</ele>
        <time>2021-06-06T14:52:24.000Z</time>
      </trkpt>
      <trkpt lat="47.21904" lon="-1.51178">
        <ele>55</ele>
        <time>2021-06-06T14:52:26.000Z</time>
      </trkpt>
      <trkpt lat="47.219" lon="-1.51195">
        <ele>55</ele>
        <time>2021-06-06T14:52:28.000Z</time>
      </trkpt>
      <trkpt lat="47.21894" lon="-1.51211">
        <ele>55</ele>
        <time>2021-06-06T14:52:30.000Z</time>
      </trkpt>
      <trkpt lat="47.21888" lon="-1.51229">
        <ele>55</ele>
        <time>2021-06-06T14:52:32.000Z</time>
      </trkpt>
      <trkpt lat="47.21881" lon="-1.51248">
        <ele>55</ele>
        <time>2021-06-06T14:52:34.000Z</time>
      </trkpt>
      <trkpt lat="47.21874" lon="-1.51269">
        <ele>55</ele>
        <time>2021-06-06T14:52:36.000Z</time>
      </trkpt>
      <trkpt lat="47.21867" lon="-1.51289">
        <ele>55</ele>
        <time>2021-06-06T14:52:38.000Z</time>
      </trkpt>
      <trkpt lat="47.21861" lon="-1.51309">
        <ele>55</ele>
        <time>2021-06-06T14:52:40.000Z</time>
      </trkpt>
      <trkpt lat="47.21856" lon="-1.51329">
        <ele>56</ele>
        <time>2021-06-06T14:52:42.000Z</time>
      </trkpt>
      <trkpt lat="47.2185" lon="-1.51348">
        <ele>55</ele>
        <time>2021-06-06T14:52:44.000Z</time>
      </trkpt>
      <trkpt lat="47.21845" lon="-1.51367">
        <ele>55</ele>
        <time>2021-06-06T14:52:46.000Z</time>
      </trkpt>
      <trkpt lat="47.2184" lon="-1.51387">
        <ele>56</ele>
        <time>2021-06-06T14:52:48.000Z</time>
      </trkpt>
      <trkpt lat="47.21836" lon="-1.51406">
        <ele>55</ele>
        <time>2021-06-06T14:52:50.000Z</time>
      </trkpt>
      <trkpt lat="47.2183" lon="-1.51424">
        <ele>54</ele>
        <time>2021-06-06T14:52:52.000Z</time>
      </trkpt>
      <trkpt lat="47.21825" lon="-1.51443">
        <ele>53</ele>
        <time>2021-06-06T14:52:54.000Z</time>
      </trkpt>
      <trkpt lat="47.21821" lon="-1.51462">
        <ele>53</ele>
        <time>2021-06-06T14:52:56.000Z</time>
      </trkpt>
      <trkpt lat="47.21818" lon="-1.51481">
        <ele>53</ele>
        <time>2021-06-06T14:52:58.000Z</time>
      </trkpt>
      <trkpt lat="47.21812" lon="-1.51499">
        <ele>52</ele>
        <time>2021-06-06T14:53:00.000Z</time>
      </trkpt>
      <trkpt lat="47.21805" lon="-1.51515">
        <ele>53</ele>
        <time>2021-06-06T14:53:02.000Z</time>
      </trkpt>
      <trkpt lat="47.21798" lon="-1.51532">
        <ele>53</ele>
        <time>2021-06-06T14:53:04.000Z</time>
      </trkpt>
      <trkpt lat="47.21791" lon="-1.5155">
        <ele>53</ele>
        <time>2021-06-06T14:53:06.000Z</time>
      </trkpt>
      <trkpt lat="47.21784" lon="-1.51565">
        <ele>53</ele>
        <time>2021-06-06T14:53:08.000Z</time>
      </trkpt>
      <trkpt lat="47.21776" lon="-1.51581">
        <ele>53</ele>
        <time>2021-06-06T14:53:10.000Z</time>
      </trkpt>
      <trkpt lat="47.21767" lon="-1.51595">
        <ele>54</ele>
        <time>2021-06-06T14:53:12.000Z</time>
      </trkpt>
      <trkpt lat="47.21757" lon="-1.51608">
        <ele>54</ele>
        <time>2021-06-06T14:53:14.000Z</time>
      </trkpt>
      <trkpt lat="47.21749" lon="-1.51622">
        <ele>54</ele>
        <time>2021-06-06T14:53:16.000Z</time>
      </trkpt>
      <trkpt lat="47.2174" lon="-1.51637">
        <ele>54</ele>
        <time>2021-06-06T14:53:18.000Z</time>
      </trkpt>
      <trkpt lat="47.21734" lon="-1.51655">
        <ele>54</ele>
        <time>2021-06-06T14:53:20.000Z</time>
      </trkpt>
      <trkpt lat="47.21727" lon="-1.51671">
        <ele>54</ele>
        <time>2021-06-06T14:53:22.000Z</time>
      </trkpt>
      <trkpt lat="47.21719" lon="-1.51687">
        <ele>54</ele>
        <time>2021-06-06T14:53:24.000Z</time>
      </trkpt>
      <trkpt lat="47.21713" lon="-1.51702">
        <ele>54</ele>
        <time>2021-06-06T14:53:26.000Z</time>
      </trkpt>
      <trkpt lat="47.21709" lon="-1.51717">
        <ele>54</ele>
        <time>2021-06-06T14:53:28.000Z</time>
      </trkpt>
      <trkpt lat="47.21702" lon="-1.51735">
        <ele>55</ele>
        <time>2021-06-06T14:53:30.000Z</time>
      </trkpt>
      <trkpt lat="47.21694" lon="-1.51754">
        <ele>55</ele>
        <time>2021-06-06T14:53:32.000Z</time>
      </trkpt>
      <trkpt lat="47.21685" lon="-1.5177">
        <ele>55</ele>
        <time>2021-06-06T14:53:34.000Z</time>
      </trkpt>
      <trkpt lat="47.21678" lon="-1.51787">
        <ele>54</ele>
        <time>2021-06-06T14:53:36.000Z</time>
      </trkpt>
      <trkpt lat="47.21671" lon="-1.51802">
        <ele>54</ele>
        <time>2021-06-06T14:53:38.000Z</time>
      </trkpt>
      <trkpt lat="47.21664" lon="-1.51818">
        <ele>55</ele>
        <time>2021-06-06T14:53:40.000Z</time>
      </trkpt>
      <trkpt lat="47.21657" lon="-1.51835">
        <ele>55</ele>
        <time>2021-06-06T14:53:42.000Z</time>
      </trkpt>
      <trkpt lat="47.21651" lon="-1.51852">
        <ele>54</ele>
        <time>2021-06-06T14:53:44.000Z</time>
      </trkpt>
      <trkpt lat="47.21647" lon="-1.51869">
        <ele>54</ele>
        <time>2021-06-06T14:53:46.000Z</time>
      </trkpt>
      <trkpt lat="47.21642" lon="-1.51887">
        <ele>54</ele>
        <time>2021-06-06T14:53:48.000Z</time>
      </trkpt>
      <trkpt lat="47.21635" lon="-1.51902">
        <ele>54</ele>
        <time>2021-06-06T14:53:50.000Z</time>
      </trkpt>
      <trkpt lat="47.21628" lon="-1.51918">
        <ele>54</ele>
        <time>2021-06-06T14:53:52.000Z</time>
      </trkpt>
      <trkpt lat="47.21623" lon="-1.51936">
        <ele>54</ele>
        <time>2021-06-06T14:53:54.000Z</time>
      </trkpt>
      <trkpt lat="47.21621" lon="-1.51953">
        <ele>53</ele>
        <time>2021-06-06T14:53:56.000Z</time>
      </trkpt>
      <trkpt lat="47.21619" lon="-1.51972">
        <ele>52</ele>
        <time>2021-06-06T14:53:58.000Z</time>
      </trkpt>
      <trkpt lat="47.21613" lon="-1.51988">
        <ele>53</ele>
        <time>2021-06-06T14:54:00.000Z</time>
      </trkpt>
      <trkpt lat="47.21606" lon="-1.52003">
        <ele>52</ele>
        <time>2021-06-06T14:54:02.000Z</time>
      </trkpt>
      <trkpt lat="47.216" lon="-1.52021">
        <ele>54</ele>
        <time>2021-06-06T14:54:04.000Z</time>
      </trkpt>
      <trkpt lat="47.21593" lon="-1.5204">
        <ele>55</ele>
        <time>2021-06-06T14:54:06.000Z</time>
      </trkpt>
      <trkpt lat="47.21587" lon="-1.52058">
        <ele>55</ele>
        <time>2021-06-06T14:54:08.000Z</time>
      </trkpt>
      <trkpt lat="47.21581" lon="-1.52076">
        <ele>54</ele>
        <time>2021-06-06T14:54:10.000Z</time>
      </trkpt>
      <trkpt lat="47.21575" lon="-1.52094">
        <ele>54</ele>
        <time>2021-06-06T14:54:12.000Z</time>
      </trkpt>
      <trkpt lat="47.21569" lon="-1.52112">
        <ele>54</ele>
        <time>2021-06-06T14:54:14.000Z</time>
      </trkpt>
      <trkpt lat="47.21563" lon="-1.5213">
        <ele>54</ele>
        <time>2021-06-06T14:54:16.000Z</time>
      </trkpt>
      <trkpt lat="47.21557" lon="-1.52148">
        <ele>54</ele>
        <time>2021-06-06T14:54:18.000Z</time>
      </trkpt>
      <trkpt lat="47.21551" lon="-1.52166">
        <ele>54</ele>
        <time>2021-06-06T14:54:20.000Z</time>
      </trkpt>
      <trkpt lat="47.21545" lon="-1.52184">
        <ele>54</ele>
        <time>2021-06-06T14:54:22.000Z</time>
      </trkpt>
      <trkpt lat="47.21539" lon="-1.52203">
        <ele>54</ele>
        <time>2021-06-06T14:54:24.000Z</time>
      </trkpt>
      <trkpt lat="47.21533" lon="-1.52221">
        <ele>54</ele>
        <time>2021-06-06T14:54:26.000Z</time>
      </trkpt>
      <trkpt lat="47.21527" lon="-1.52239">
        <ele>54</ele>
        <time>2021-06-06T14:54:28.000Z</time>
      </trkpt>
      <trkpt lat="47.21521" lon="-1.52256">
        <ele>54</ele>
        <time>2021-06-06T14:54:30.000Z</time>
      </trkpt>
      <trkpt lat="47.21516" lon="-1.52276">
        <ele>54</ele>
        <time>2021-06-06T14:54:32.000Z</time>
      </trkpt>
      <trkpt lat="47.2151" lon="-1.52295">
        <ele>54</ele>
        <time>2021-06-06T14:54:34.000Z</time>
      </trkpt>
      <trkpt lat="47.21504" lon="-1.52314">
        <ele>54</ele>
        <time>2021-06-06T14:54:36.000Z</time>
      </trkpt>
      <trkpt lat="47.21498" lon="-1.52332">
        <ele>54</ele>
        <time>2021-06-06T14:54:38.000Z</time>
      </trkpt>
      <trkpt lat="47.21492" lon="-1.52351">
        <ele>54</ele>
        <time>2021-06-06T14:54:40.000Z</time>
      </trkpt>
      <trkpt lat="47.21486" lon="-1.52369">
        <ele>54</ele>
        <time>2021-06-06T14:54:42.000Z</time>
      </trkpt>
      <trkpt lat="47.21479" lon="-1.52387">
        <ele>55</ele>
        <time>2021-06-06T14:54:44.000Z</time>
      </trkpt>
      <trkpt lat="47.21474" lon="-1.52405">
        <ele>55</ele>
        <time>2021-06-06T14:54:46.000Z</time>
      </trkpt>
      <trkpt lat="47.21469" lon="-1.52424">
        <ele>55</ele>
        <time>2021-06-06T14:54:48.000Z</time>
      </trkpt>
      <trkpt lat="47.21462" lon="-1.52441">
        <ele>55</ele>
        <time>2021-06-06T14:54:50.000Z</time>
      </trkpt>
      <trkpt lat="47.21457" lon="-1.52458">
        <ele>54</ele>
        <time>2021-06-06T14:54:52.000Z</time>
      </trkpt>
      <trkpt lat="47.21451" lon="-1.52476">
        <ele>54</ele>
        <time>2021-06-06T14:54:54.000Z</time>
      </trkpt>
      <trkpt lat="47.21445" lon="-1.52495">
        <ele>53</ele>
        <time>2021-06-06T14:54:56.000Z</time>
      </trkpt>
      <trkpt lat="47.21439" lon="-1.52513">
        <ele>53</ele>
        <time>2021-06-06T14:54:58.000Z</time>
      </trkpt>
      <trkpt lat="47.21432" lon="-1.52532">
        <ele>53</ele>
        <time>2021-06-06T14:55:00.000Z</time>
      </trkpt>
      <trkpt lat="47.21426" lon="-1.5255">
        <ele>53</ele>
        <time>2021-06-06T14:55:02.000Z</time>
      </trkpt>
      <trkpt lat="47.21421" lon="-1.52568">
        <ele>54</ele>
        <time>2021-06-06T14:55:04.000Z</time>
      </trkpt>
      <trkpt lat="47.21415" lon="-1.52586">
        <ele>54</ele>
        <time>2021-06-06T14:55:06.000Z</time>
      </trkpt>
      <trkpt lat="47.2141" lon="-1.52605">
        <ele>53</ele>
        <time>2021-06-06T14:55:08.000Z</time>
      </trkpt>
      <trkpt lat="47.21404" lon="-1.52623">
        <ele>53</ele>
        <time>2021-06-06T14:55:10.000Z</time>
      </trkpt>
      <trkpt lat="47.21399" lon="-1.5264">
        <ele>54</ele>
        <time>2021-06-06T14:55:12.000Z</time>
      </trkpt>
      <trkpt lat="47.21393" lon="-1.52658">
        <ele>54</ele>
        <time>2021-06-06T14:55:14.000Z</time>
      </trkpt>
      <trkpt lat="47.21388" lon="-1.52676">
        <ele>55</ele>
        <time>2021-06-06T14:55:16.000Z</time>
      </trkpt>
      <trkpt lat="47.21384" lon="-1.52698">
        <ele>55</ele>
        <time>2021-06-06T14:55:18.000Z</time>
      </trkpt>
      <trkpt lat="47.2138" lon="-1.52716">
        <ele>56</ele>
        <time>2021-06-06T14:55:20.000Z</time>
      </trkpt>
      <trkpt lat="47.21375" lon="-1.52735">
        <ele>56</ele>
        <time>2021-06-06T14:55:22.000Z</time>
      </trkpt>
      <trkpt lat="47.21371" lon="-1.52757">
        <ele>56</ele>
        <time>2021-06-06T14:55:24.000Z</time>
      </trkpt>
      <trkpt lat="47.21367" lon="-1.52777">
        <ele>56</ele>
        <time>2021-06-06T14:55:26.000Z</time>
      </trkpt>
      <trkpt lat="47.21365" lon="-1.52795">
        <ele>56</ele>
        <time>2021-06-06T14:55:28.000Z</time>
      </trkpt>
      <trkpt lat="47.21363" lon="-1.52812">
        <ele>57</ele>
        <time>2021-06-06T14:55:30.000Z</time>
      </trkpt>
      <trkpt lat="47.21359" lon="-1.5283">
        <ele>56</ele>
        <time>2021-06-06T14:55:32.000Z</time>
      </trkpt>
      <trkpt lat="47.21355" lon="-1.52848">
        <ele>56</ele>
        <time>2021-06-06T14:55:34.000Z</time>
      </trkpt>
      <trkpt lat="47.21351" lon="-1.52868">
        <ele>56</ele>
        <time>2021-06-06T14:55:36.000Z</time>
      </trkpt>
      <trkpt lat="47.21347" lon="-1.52887">
        <ele>55</ele>
        <time>2021-06-06T14:55:38.000Z</time>
      </trkpt>
      <trkpt lat="47.21344" lon="-1.52907">
        <ele>55</ele>
        <time>2021-06-06T14:55:40.000Z</time>
      </trkpt>
      <trkpt lat="47.21341" lon="-1.52928">
        <ele>54</ele>
        <time>2021-06-06T14:55:42.000Z</time>
      </trkpt>
      <trkpt lat="47.21338" lon="-1.52947">
        <ele>54</ele>
        <time>2021-06-06T14:55:44.000Z</time>
      </trkpt>
      <trkpt lat="47.21336" lon="-1.52967">
        <ele>54</ele>
        <time>2021-06-06T14:55:46.000Z</time>
      </trkpt>
      <trkpt lat="47.21334" lon="-1.52987">
        <ele>54</ele>
        <time>2021-06-06T14:55:48.000Z</time>
      </trkpt>
      <trkpt lat="47.21333" lon="-1.53007">
        <ele>54</ele>
        <time>2021-06-06T14:55:50.000Z</time>
      </trkpt>
      <trkpt lat="47.21331" lon="-1.53028">
        <ele>53</ele>
        <time>2021-06-06T14:55:52.000Z</time>
      </trkpt>
      <trkpt lat="47.21329" lon="-1.53047">
        <ele>53</ele>
        <time>2021-06-06T14:55:54.000Z</time>
      </trkpt>
      <trkpt lat="47.21327" lon="-1.53066">
        <ele>53</ele>
        <time>2021-06-06T14:55:56.000Z</time>
      </trkpt>
      <trkpt lat="47.21326" lon="-1.53084">
        <ele>54</ele>
        <time>2021-06-06T14:55:58.000Z</time>
      </trkpt>
      <trkpt lat="47.21324" lon="-1.53102">
        <ele>54</ele>
        <time>2021-06-06T14:56:00.000Z</time>
      </trkpt>
      <trkpt lat="47.21322" lon="-1.5312">
        <ele>54</ele>
        <time>2021-06-06T14:56:02.000Z</time>
      </trkpt>
      <trkpt lat="47.21319" lon="-1.53139">
        <ele>54</ele>
        <time>2021-06-06T14:56:04.000Z</time>
      </trkpt>
      <trkpt lat="47.21316" lon="-1.53158">
        <ele>53</ele>
        <time>2021-06-06T14:56:06.000Z</time>
      </trkpt>
      <trkpt lat="47.21314" lon="-1.53177">
        <ele>53</ele>
        <time>2021-06-06T14:56:08.000Z</time>
      </trkpt>
      <trkpt lat="47.21311" lon="-1.53197">
        <ele>54</ele>
        <time>2021-06-06T14:56:10.000Z</time>
      </trkpt>
      <trkpt lat="47.21309" lon="-1.53216">
        <ele>53</ele>
        <time>2021-06-06T14:56:12.000Z</time>
      </trkpt>
      <trkpt lat="47.21308" lon="-1.53235">
        <ele>54</ele>
        <time>2021-06-06T14:56:14.000Z</time>
      </trkpt>
      <trkpt lat="47.21308" lon="-1.53255">
        <ele>54</ele>
        <time>2021-06-06T14:56:16.000Z</time>
      </trkpt>
      <trkpt lat="47.21309" lon="-1.53275">
        <ele>54</ele>
        <time>2021-06-06T14:56:18.000Z</time>
      </trkpt>
      <trkpt lat="47.21309" lon="-1.53294">
        <ele>54</ele>
        <time>2021-06-06T14:56:20.000Z</time>
      </trkpt>
      <trkpt lat="47.21307" lon="-1.53313">
        <ele>54</ele>
        <time>2021-06-06T14:56:22.000Z</time>
      </trkpt>
      <trkpt lat="47.21305" lon="-1.53333">
        <ele>54</ele>
        <time>2021-06-06T14:56:24.000Z</time>
      </trkpt>
      <trkpt lat="47.21302" lon="-1.53351">
        <ele>54</ele>
        <time>2021-06-06T14:56:26.000Z</time>
      </trkpt>
      <trkpt lat="47.21299" lon="-1.5337">
        <ele>54</ele>
        <time>2021-06-06T14:56:28.000Z</time>
      </trkpt>
      <trkpt lat="47.21296" lon="-1.53389">
        <ele>54</ele>
        <time>2021-06-06T14:56:30.000Z</time>
      </trkpt>
      <trkpt lat="47.21294" lon="-1.53409">
        <ele>54</ele>
        <time>2021-06-06T14:56:32.000Z</time>
      </trkpt>
      <trkpt lat="47.21292" lon="-1.53427">
        <ele>53</ele>
        <time>2021-06-06T14:56:34.000Z</time>
      </trkpt>
      <trkpt lat="47.21291" lon="-1.53446">
        <ele>55</ele>
        <time>2021-06-06T14:56:36.000Z</time>
      </trkpt>
      <trkpt lat="47.21294" lon="-1.53465">
        <ele>55</ele>
        <time>2021-06-06T14:56:38.000Z</time>
      </trkpt>
      <trkpt lat="47.21299" lon="-1.53483">
        <ele>55</ele>
        <time>2021-06-06T14:56:40.000Z</time>
      </trkpt>
      <trkpt lat="47.213" lon="-1.53501">
        <ele>55</ele>
        <time>2021-06-06T14:56:42.000Z</time>
      </trkpt>
      <trkpt lat="47.21301" lon="-1.53521">
        <ele>55</ele>
        <time>2021-06-06T14:56:44.000Z</time>
      </trkpt>
      <trkpt lat="47.21301" lon="-1.5354">
        <ele>56</ele>
        <time>2021-06-06T14:56:46.000Z</time>
      </trkpt>
      <trkpt lat="47.21301" lon="-1.53558">
        <ele>56</ele>
        <time>2021-06-06T14:56:48.000Z</time>
      </trkpt>
      <trkpt lat="47.21301" lon="-1.53576">
        <ele>56</ele>
        <time>2021-06-06T14:56:50.000Z</time>
      </trkpt>
      <trkpt lat="47.21302" lon="-1.53593">
        <ele>56</ele>
        <time>2021-06-06T14:56:52.000Z</time>
      </trkpt>
      <trkpt lat="47.21303" lon="-1.5361">
        <ele>55</ele>
        <time>2021-06-06T14:56:54.000Z</time>
      </trkpt>
      <trkpt lat="47.21302" lon="-1.53626">
        <ele>55</ele>
        <time>2021-06-06T14:56:56.000Z</time>
      </trkpt>
      <trkpt lat="47.21297" lon="-1.53638">
        <ele>56</ele>
        <time>2021-06-06T14:56:59.000Z</time>
      </trkpt>
      <trkpt lat="47.21295" lon="-1.53656">
        <ele>57</ele>
        <time>2021-06-06T14:57:05.000Z</time>
      </trkpt>
      <trkpt lat="47.21295" lon="-1.53672">
        <ele>58</ele>
        <time>2021-06-06T14:57:08.000Z</time>
      </trkpt>
      <trkpt lat="47.21301" lon="-1.53683">
        <ele>58</ele>
        <time>2021-06-06T14:57:10.000Z</time>
      </trkpt>
      <trkpt lat="47.21305" lon="-1.537">
        <ele>58</ele>
        <time>2021-06-06T14:57:12.000Z</time>
      </trkpt>
      <trkpt lat="47.21308" lon="-1.53718">
        <ele>57</ele>
        <time>2021-06-06T14:57:14.000Z</time>
      </trkpt>
      <trkpt lat="47.21312" lon="-1.53736">
        <ele>57</ele>
        <time>2021-06-06T14:57:16.000Z</time>
      </trkpt>
      <trkpt lat="47.21315" lon="-1.53755">
        <ele>56</ele>
        <time>2021-06-06T14:57:18.000Z</time>
      </trkpt>
      <trkpt lat="47.21317" lon="-1.53773">
        <ele>57</ele>
        <time>2021-06-06T14:57:20.000Z</time>
      </trkpt>
      <trkpt lat="47.21319" lon="-1.5379">
        <ele>57</ele>
        <time>2021-06-06T14:57:22.000Z</time>
      </trkpt>
      <trkpt lat="47.21322" lon="-1.53806">
        <ele>57</ele>
        <time>2021-06-06T14:57:24.000Z</time>
      </trkpt>
      <trkpt lat="47.21324" lon="-1.53823">
        <ele>57</ele>
        <time>2021-06-06T14:57:26.000Z</time>
      </trkpt>
      <trkpt lat="47.21327" lon="-1.53841">
        <ele>56</ele>
        <time>2021-06-06T14:57:28.000Z</time>
      </trkpt>
      <trkpt lat="47.21329" lon="-1.53857">
        <ele>56</ele>
        <time>2021-06-06T14:57:30.000Z</time>
      </trkpt>
      <trkpt lat="47.21332" lon="-1.53872">
        <ele>56</ele>
        <time>2021-06-06T14:57:32.000Z</time>
      </trkpt>
      <trkpt lat="47.21334" lon="-1.53888">
        <ele>56</ele>
        <time>2021-06-06T14:57:34.000Z</time>
      </trkpt>
      <trkpt lat="47.21336" lon="-1.53903">
        <ele>55</ele>
        <time>2021-06-06T14:57:36.000Z</time>
      </trkpt>
      <trkpt lat="47.21335" lon="-1.53918">
        <ele>56</ele>
        <time>2021-06-06T14:57:39.000Z</time>
      </trkpt>
      <trkpt lat="47.21344" lon="-1.53923">
        <ele>58</ele>
        <time>2021-06-06T14:57:44.000Z</time>
      </trkpt>
      <trkpt lat="47.21354" lon="-1.53926">
        <ele>57</ele>
        <time>2021-06-06T14:57:47.000Z</time>
      </trkpt>
      <trkpt lat="47.21366" lon="-1.5393">
        <ele>58</ele>
        <time>2021-06-06T14:57:49.000Z</time>
      </trkpt>
      <trkpt lat="47.21381" lon="-1.53936">
        <ele>59</ele>
        <time>2021-06-06T14:57:51.000Z</time>
      </trkpt>
      <trkpt lat="47.21389" lon="-1.53956">
        <ele>59</ele>
        <time>2021-06-06T14:57:53.000Z</time>
      </trkpt>
      <trkpt lat="47.21389" lon="-1.53981">
        <ele>58</ele>
        <time>2021-06-06T14:57:55.000Z</time>
      </trkpt>
      <trkpt lat="47.21388" lon="-1.54003">
        <ele>56</ele>
        <time>2021-06-06T14:57:57.000Z</time>
      </trkpt>
      <trkpt lat="47.21397" lon="-1.54018">
        <ele>57</ele>
        <time>2021-06-06T14:57:59.000Z</time>
      </trkpt>
      <trkpt lat="47.21407" lon="-1.54033">
        <ele>58</ele>
        <time>2021-06-06T14:58:01.000Z</time>
      </trkpt>
      <trkpt lat="47.21417" lon="-1.54047">
        <ele>59</ele>
        <time>2021-06-06T14:58:03.000Z</time>
      </trkpt>
      <trkpt lat="47.21426" lon="-1.54064">
        <ele>60</ele>
        <time>2021-06-06T14:58:05.000Z</time>
      </trkpt>
      <trkpt lat="47.21437" lon="-1.54078">
        <ele>61</ele>
        <time>2021-06-06T14:58:07.000Z</time>
      </trkpt>
      <trkpt lat="47.21447" lon="-1.54092">
        <ele>61</ele>
        <time>2021-06-06T14:58:09.000Z</time>
      </trkpt>
      <trkpt lat="47.21457" lon="-1.54105">
        <ele>61</ele>
        <time>2021-06-06T14:58:11.000Z</time>
      </trkpt>
      <trkpt lat="47.21466" lon="-1.54119">
        <ele>60</ele>
        <time>2021-06-06T14:58:13.000Z</time>
      </trkpt>
      <trkpt lat="47.21475" lon="-1.54133">
        <ele>60</ele>
        <time>2021-06-06T14:58:15.000Z</time>
      </trkpt>
      <trkpt lat="47.21485" lon="-1.54147">
        <ele>61</ele>
        <time>2021-06-06T14:58:17.000Z</time>
      </trkpt>
      <trkpt lat="47.21492" lon="-1.54159">
        <ele>61</ele>
        <time>2021-06-06T14:58:19.000Z</time>
      </trkpt>
      <trkpt lat="47.21501" lon="-1.54171">
        <ele>62</ele>
        <time>2021-06-06T14:58:21.000Z</time>
      </trkpt>
      <trkpt lat="47.21508" lon="-1.54185">
        <ele>60</ele>
        <time>2021-06-06T14:58:23.000Z</time>
      </trkpt>
      <trkpt lat="47.21515" lon="-1.54198">
        <ele>59</ele>
        <time>2021-06-06T14:58:25.000Z</time>
      </trkpt>
      <trkpt lat="47.21523" lon="-1.5421">
        <ele>59</ele>
        <time>2021-06-06T14:58:27.000Z</time>
      </trkpt>
      <trkpt lat="47.21532" lon="-1.54221">
        <ele>58</ele>
        <time>2021-06-06T14:58:29.000Z</time>
      </trkpt>
      <trkpt lat="47.21539" lon="-1.5423">
        <ele>58</ele>
        <time>2021-06-06T14:58:31.000Z</time>
      </trkpt>
      <trkpt lat="47.21547" lon="-1.54239">
        <ele>59</ele>
        <time>2021-06-06T14:58:36.000Z</time>
      </trkpt>
      <trkpt lat="47.21558" lon="-1.54243">
        <ele>59</ele>
        <time>2021-06-06T14:58:40.000Z</time>
      </trkpt>
      <trkpt lat="47.21567" lon="-1.54242">
        <ele>60</ele>
        <time>2021-06-06T14:58:43.000Z</time>
      </trkpt>
      <trkpt lat="47.21576" lon="-1.54247">
        <ele>61</ele>
        <time>2021-06-06T14:58:46.000Z</time>
      </trkpt>
      <trkpt lat="47.21582" lon="-1.54265">
        <ele>62</ele>
        <time>2021-06-06T14:58:49.000Z</time>
      </trkpt>
      <trkpt lat="47.21586" lon="-1.54281">
        <ele>62</ele>
        <time>2021-06-06T14:58:51.000Z</time>
      </trkpt>
      <trkpt lat="47.2159" lon="-1.54298">
        <ele>61</ele>
        <time>2021-06-06T14:58:53.000Z</time>
      </trkpt>
      <trkpt lat="47.21594" lon="-1.54315">
        <ele>60</ele>
        <time>2021-06-06T14:58:55.000Z</time>
      </trkpt>
      <trkpt lat="47.216" lon="-1.54331">
        <ele>60</ele>
        <time>2021-06-06T14:58:57.000Z</time>
      </trkpt>
      <trkpt lat="47.21607" lon="-1.54347">
        <ele>60</ele>
        <time>2021-06-06T14:58:59.000Z</time>
      </trkpt>
      <trkpt lat="47.21613" lon="-1.54363">
        <ele>60</ele>
        <time>2021-06-06T14:59:01.000Z</time>
      </trkpt>
      <trkpt lat="47.21618" lon="-1.54379">
        <ele>60</ele>
        <time>2021-06-06T14:59:03.000Z</time>
      </trkpt>
      <trkpt lat="47.21621" lon="-1.54395">
        <ele>59</ele>
        <time>2021-06-06T14:59:05.000Z</time>
      </trkpt>
      <trkpt lat="47.2162" lon="-1.54413">
        <ele>58</ele>
        <time>2021-06-06T14:59:07.000Z</time>
      </trkpt>
      <trkpt lat="47.21616" lon="-1.54431">
        <ele>58</ele>
        <time>2021-06-06T14:59:09.000Z</time>
      </trkpt>
      <trkpt lat="47.21614" lon="-1.54448">
        <ele>58</ele>
        <time>2021-06-06T14:59:11.000Z</time>
      </trkpt>
      <trkpt lat="47.21612" lon="-1.54466">
        <ele>57</ele>
        <time>2021-06-06T14:59:13.000Z</time>
      </trkpt>
      <trkpt lat="47.21609" lon="-1.54484">
        <ele>57</ele>
        <time>2021-06-06T14:59:15.000Z</time>
      </trkpt>
      <trkpt lat="47.21606" lon="-1.54502">
        <ele>56</ele>
        <time>2021-06-06T14:59:17.000Z</time>
      </trkpt>
      <trkpt lat="47.21601" lon="-1.54519">
        <ele>57</ele>
        <time>2021-06-06T14:59:19.000Z</time>
      </trkpt>
      <trkpt lat="47.21595" lon="-1.54535">
        <ele>57</ele>
        <time>2021-06-06T14:59:21.000Z</time>
      </trkpt>
      <trkpt lat="47.2159" lon="-1.54551">
        <ele>58</ele>
        <time>2021-06-06T14:59:23.000Z</time>
      </trkpt>
      <trkpt lat="47.21583" lon="-1.54566">
        <ele>58</ele>
        <time>2021-06-06T14:59:25.000Z</time>
      </trkpt>
      <trkpt lat="47.21577" lon="-1.54583">
        <ele>57</ele>
        <time>2021-06-06T14:59:27.000Z</time>
      </trkpt>
      <trkpt lat="47.2157" lon="-1.54602">
        <ele>56</ele>
        <time>2021-06-06T14:59:29.000Z</time>
      </trkpt>
      <trkpt lat="47.21563" lon="-1.5462">
        <ele>55</ele>
        <time>2021-06-06T14:59:31.000Z</time>
      </trkpt>
      <trkpt lat="47.21557" lon="-1.54638">
        <ele>55</ele>
        <time>2021-06-06T14:59:33.000Z</time>
      </trkpt>
      <trkpt lat="47.21551" lon="-1.54655">
        <ele>55</ele>
        <time>2021-06-06T14:59:35.000Z</time>
      </trkpt>
      <trkpt lat="47.21544" lon="-1.54671">
        <ele>56</ele>
        <time>2021-06-06T14:59:37.000Z</time>
      </trkpt>
      <trkpt lat="47.21538" lon="-1.5469">
        <ele>57</ele>
        <time>2021-06-06T14:59:39.000Z</time>
      </trkpt>
      <trkpt lat="47.21532" lon="-1.54708">
        <ele>57</ele>
        <time>2021-06-06T14:59:41.000Z</time>
      </trkpt>
      <trkpt lat="47.21526" lon="-1.54727">
        <ele>57</ele>
        <time>2021-06-06T14:59:43.000Z</time>
      </trkpt>
      <trkpt lat="47.21519" lon="-1.54745">
        <ele>57</ele>
        <time>2021-06-06T14:59:45.000Z</time>
      </trkpt>
      <trkpt lat="47.21512" lon="-1.54763">
        <ele>57</ele>
        <time>2021-06-06T14:59:47.000Z</time>
      </trkpt>
      <trkpt lat="47.21505" lon="-1.5478">
        <ele>57</ele>
        <time>2021-06-06T14:59:49.000Z</time>
      </trkpt>
      <trkpt lat="47.21498" lon="-1.54798">
        <ele>58</ele>
        <time>2021-06-06T14:59:51.000Z</time>
      </trkpt>
      <trkpt lat="47.2149" lon="-1.54816">
        <ele>58</ele>
        <time>2021-06-06T14:59:53.000Z</time>
      </trkpt>
      <trkpt lat="47.21482" lon="-1.54832">
        <ele>59</ele>
        <time>2021-06-06T14:59:55.000Z</time>
      </trkpt>
      <trkpt lat="47.21474" lon="-1.54848">
        <ele>59</ele>
        <time>2021-06-06T14:59:57.000Z</time>
      </trkpt>
      <trkpt lat="47.21466" lon="-1.54864">
        <ele>59</ele>
        <time>2021-06-06T14:59:59.000Z</time>
      </trkpt>
      <trkpt lat="47.21458" lon="-1.5488">
        <ele>59</ele>
        <time>2021-06-06T15:00:01.000Z</time>
      </trkpt>
      <trkpt lat="47.21449" lon="-1.54895">
        <ele>60</ele>
        <time>2021-06-06T15:00:03.000Z</time>
      </trkpt>
      <trkpt lat="47.21441" lon="-1.54912">
        <ele>60</ele>
        <time>2021-06-06T15:00:05.000Z</time>
      </trkpt>
      <trkpt lat="47.21433" lon="-1.54928">
        <ele>60</ele>
        <time>2021-06-06T15:00:07.000Z</time>
      </trkpt>
      <trkpt lat="47.21425" lon="-1.54945">
        <ele>59</ele>
        <time>2021-06-06T15:00:09.000Z</time>
      </trkpt>
      <trkpt lat="47.21417" lon="-1.54961">
        <ele>58</ele>
        <time>2021-06-06T15:00:11.000Z</time>
      </trkpt>
      <trkpt lat="47.21409" lon="-1.54977">
        <ele>58</ele>
        <time>2021-06-06T15:00:13.000Z</time>
      </trkpt>
      <trkpt lat="47.21402" lon="-1.54993">
        <ele>58</ele>
        <time>2021-06-06T15:00:15.000Z</time>
      </trkpt>
      <trkpt lat="47.21395" lon="-1.5501">
        <ele>58</ele>
        <time>2021-06-06T15:00:17.000Z</time>
      </trkpt>
      <trkpt lat="47.21388" lon="-1.55028">
        <ele>58</ele>
        <time>2021-06-06T15:00:19.000Z</time>
      </trkpt>
      <trkpt lat="47.21381" lon="-1.55045">
        <ele>57</ele>
        <time>2021-06-06T15:00:21.000Z</time>
      </trkpt>
      <trkpt lat="47.21374" lon="-1.55062">
        <ele>57</ele>
        <time>2021-06-06T15:00:23.000Z</time>
      </trkpt>
      <trkpt lat="47.21367" lon="-1.55079">
        <ele>56</ele>
        <time>2021-06-06T15:00:25.000Z</time>
      </trkpt>
      <trkpt lat="47.21361" lon="-1.55095">
        <ele>56</ele>
        <time>2021-06-06T15:00:27.000Z</time>
      </trkpt>
      <trkpt lat="47.21354" lon="-1.55112">
        <ele>57</ele>
        <time>2021-06-06T15:00:29.000Z</time>
      </trkpt>
      <trkpt lat="47.21348" lon="-1.55129">
        <ele>56</ele>
        <time>2021-06-06T15:00:31.000Z</time>
      </trkpt>
      <trkpt lat="47.21342" lon="-1.55145">
        <ele>57</ele>
        <time>2021-06-06T15:00:33.000Z</time>
      </trkpt>
      <trkpt lat="47.21335" lon="-1.55161">
        <ele>57</ele>
        <time>2021-06-06T15:00:35.000Z</time>
      </trkpt>
      <trkpt lat="47.21329" lon="-1.55178">
        <ele>57</ele>
        <time>2021-06-06T15:00:37.000Z</time>
      </trkpt>
      <trkpt lat="47.21322" lon="-1.55195">
        <ele>57</ele>
        <time>2021-06-06T15:00:39.000Z</time>
      </trkpt>
      <trkpt lat="47.21316" lon="-1.55211">
        <ele>57</ele>
        <time>2021-06-06T15:00:41.000Z</time>
      </trkpt>
      <trkpt lat="47.21309" lon="-1.55227">
        <ele>57</ele>
        <time>2021-06-06T15:00:43.000Z</time>
      </trkpt>
      <trkpt lat="47.21303" lon="-1.55243">
        <ele>57</ele>
        <time>2021-06-06T15:00:45.000Z</time>
      </trkpt>
      <trkpt lat="47.21296" lon="-1.55258">
        <ele>57</ele>
        <time>2021-06-06T15:00:47.000Z</time>
      </trkpt>
      <trkpt lat="47.2129" lon="-1.55274">
        <ele>57</ele>
        <time>2021-06-06T15:00:49.000Z</time>
      </trkpt>
      <trkpt lat="47.21284" lon="-1.55289">
        <ele>58</ele>
        <time>2021-06-06T15:00:51.000Z</time>
      </trkpt>
      <trkpt lat="47.21277" lon="-1.55298">
        <ele>58</ele>
        <time>2021-06-06T15:00:53.000Z</time>
      </trkpt>
      <trkpt lat="47.21268" lon="-1.55301">
        <ele>59</ele>
        <time>2021-06-06T15:00:55.000Z</time>
      </trkpt>
      <trkpt lat="47.21258" lon="-1.55311">
        <ele>59</ele>
        <time>2021-06-06T15:00:58.000Z</time>
      </trkpt>
      <trkpt lat="47.2126" lon="-1.5533">
        <ele>58</ele>
        <time>2021-06-06T15:01:01.000Z</time>
      </trkpt>
      <trkpt lat="47.21267" lon="-1.55343">
        <ele>58</ele>
        <time>2021-06-06T15:01:04.000Z</time>
      </trkpt>
      <trkpt lat="47.21276" lon="-1.55351">
        <ele>58</ele>
        <time>2021-06-06T15:01:07.000Z</time>
      </trkpt>
      <trkpt lat="47.21283" lon="-1.55362">
        <ele>57</ele>
        <time>2021-06-06T15:01:09.000Z</time>
      </trkpt>
      <trkpt lat="47.21285" lon="-1.55378">
        <ele>56</ele>
        <time>2021-06-06T15:01:11.000Z</time>
      </trkpt>
      <trkpt lat="47.21278" lon="-1.55392">
        <ele>57</ele>
        <time>2021-06-06T15:01:13.000Z</time>
      </trkpt>
      <trkpt lat="47.21269" lon="-1.55406">
        <ele>57</ele>
        <time>2021-06-06T15:01:15.000Z</time>
      </trkpt>
      <trkpt lat="47.21261" lon="-1.55422">
        <ele>58</ele>
        <time>2021-06-06T15:01:17.000Z</time>
      </trkpt>
      <trkpt lat="47.21253" lon="-1.55437">
        <ele>58</ele>
        <time>2021-06-06T15:01:19.000Z</time>
      </trkpt>
      <trkpt lat="47.21244" lon="-1.55452">
        <ele>58</ele>
        <time>2021-06-06T15:01:21.000Z</time>
      </trkpt>
      <trkpt lat="47.21235" lon="-1.55467">
        <ele>58</ele>
        <time>2021-06-06T15:01:23.000Z</time>
      </trkpt>
      <trkpt lat="47.21227" lon="-1.55483">
        <ele>58</ele>
        <time>2021-06-06T15:01:25.000Z</time>
      </trkpt>
      <trkpt lat="47.2122" lon="-1.55499">
        <ele>57</ele>
        <time>2021-06-06T15:01:27.000Z</time>
      </trkpt>
      <trkpt lat="47.21214" lon="-1.55517">
        <ele>57</ele>
        <time>2021-06-06T15:01:29.000Z</time>
      </trkpt>
      <trkpt lat="47.21209" lon="-1.55535">
        <ele>56</ele>
        <time>2021-06-06T15:01:31.000Z</time>
      </trkpt>
      <trkpt lat="47.21203" lon="-1.55554">
        <ele>56</ele>
        <time>2021-06-06T15:01:33.000Z</time>
      </trkpt>
      <trkpt lat="47.21197" lon="-1.55573">
        <ele>56</ele>
        <time>2021-06-06T15:01:35.000Z</time>
      </trkpt>
      <trkpt lat="47.2119" lon="-1.55592">
        <ele>56</ele>
        <time>2021-06-06T15:01:37.000Z</time>
      </trkpt>
      <trkpt lat="47.21184" lon="-1.55612">
        <ele>56</ele>
        <time>2021-06-06T15:01:39.000Z</time>
      </trkpt>
      <trkpt lat="47.21178" lon="-1.5563">
        <ele>56</ele>
        <time>2021-06-06T15:01:41.000Z</time>
      </trkpt>
      <trkpt lat="47.21173" lon="-1.55649">
        <ele>56</ele>
        <time>2021-06-06T15:01:43.000Z</time>
      </trkpt>
      <trkpt lat="47.21171" lon="-1.55672">
        <ele>56</ele>
        <time>2021-06-06T15:01:45.000Z</time>
      </trkpt>
      <trkpt lat="47.21174" lon="-1.55697">
        <ele>56</ele>
        <time>2021-06-06T15:01:47.000Z</time>
      </trkpt>
      <trkpt lat="47.2117" lon="-1.55723">
        <ele>55</ele>
        <time>2021-06-06T15:01:49.000Z</time>
      </trkpt>
      <trkpt lat="47.21166" lon="-1.55736">
        <ele>54</ele>
        <time>2021-06-06T15:01:50.000Z</time>
      </trkpt>
      <trkpt lat="47.21161" lon="-1.55748">
        <ele>54</ele>
        <time>2021-06-06T15:01:51.000Z</time>
      </trkpt>
      <trkpt lat="47.21153" lon="-1.5577">
        <ele>54</ele>
        <time>2021-06-06T15:01:53.000Z</time>
      </trkpt>
      <trkpt lat="47.21147" lon="-1.55793">
        <ele>54</ele>
        <time>2021-06-06T15:01:55.000Z</time>
      </trkpt>
      <trkpt lat="47.21143" lon="-1.55816">
        <ele>54</ele>
        <time>2021-06-06T15:01:57.000Z</time>
      </trkpt>
      <trkpt lat="47.21141" lon="-1.55839">
        <ele>53</ele>
        <time>2021-06-06T15:01:59.000Z</time>
      </trkpt>
      <trkpt lat="47.21142" lon="-1.55861">
        <ele>53</ele>
        <time>2021-06-06T15:02:01.000Z</time>
      </trkpt>
      <trkpt lat="47.21147" lon="-1.55882">
        <ele>53</ele>
        <time>2021-06-06T15:02:03.000Z</time>
      </trkpt>
      <trkpt lat="47.21146" lon="-1.55902">
        <ele>53</ele>
        <time>2021-06-06T15:02:05.000Z</time>
      </trkpt>
      <trkpt lat="47.21136" lon="-1.55917">
        <ele>54</ele>
        <time>2021-06-06T15:02:07.000Z</time>
      </trkpt>
      <trkpt lat="47.21122" lon="-1.55925">
        <ele>54</ele>
        <time>2021-06-06T15:02:09.000Z</time>
      </trkpt>
      <trkpt lat="47.21109" lon="-1.55934">
        <ele>55</ele>
        <time>2021-06-06T15:02:11.000Z</time>
      </trkpt>
      <trkpt lat="47.21097" lon="-1.55946">
        <ele>55</ele>
        <time>2021-06-06T15:02:13.000Z</time>
      </trkpt>
      <trkpt lat="47.21086" lon="-1.55959">
        <ele>55</ele>
        <time>2021-06-06T15:02:15.000Z</time>
      </trkpt>
      <trkpt lat="47.21075" lon="-1.55975">
        <ele>55</ele>
        <time>2021-06-06T15:02:17.000Z</time>
      </trkpt>
      <trkpt lat="47.21066" lon="-1.55992">
        <ele>54</ele>
        <time>2021-06-06T15:02:19.000Z</time>
      </trkpt>
      <trkpt lat="47.2106" lon="-1.5601">
        <ele>55</ele>
        <time>2021-06-06T15:02:21.000Z</time>
      </trkpt>
      <trkpt lat="47.21052" lon="-1.56028">
        <ele>55</ele>
        <time>2021-06-06T15:02:23.000Z</time>
      </trkpt>
      <trkpt lat="47.21045" lon="-1.56045">
        <ele>55</ele>
        <time>2021-06-06T15:02:25.000Z</time>
      </trkpt>
      <trkpt lat="47.21037" lon="-1.56063">
        <ele>55</ele>
        <time>2021-06-06T15:02:27.000Z</time>
      </trkpt>
      <trkpt lat="47.21031" lon="-1.56081">
        <ele>55</ele>
        <time>2021-06-06T15:02:29.000Z</time>
      </trkpt>
      <trkpt lat="47.21025" lon="-1.56097">
        <ele>55</ele>
        <time>2021-06-06T15:02:31.000Z</time>
      </trkpt>
      <trkpt lat="47.21018" lon="-1.56112">
        <ele>55</ele>
        <time>2021-06-06T15:02:33.000Z</time>
      </trkpt>
      <trkpt lat="47.21012" lon="-1.56124">
        <ele>55</ele>
        <time>2021-06-06T15:02:35.000Z</time>
      </trkpt>
      <trkpt lat="47.21007" lon="-1.56139">
        <ele>55</ele>
        <time>2021-06-06T15:02:38.000Z</time>
      </trkpt>
      <trkpt lat="47.21002" lon="-1.56153">
        <ele>55</ele>
        <time>2021-06-06T15:02:41.000Z</time>
      </trkpt>
      <trkpt lat="47.20999" lon="-1.56166">
        <ele>55</ele>
        <time>2021-06-06T15:02:45.000Z</time>
      </trkpt>
      <trkpt lat="47.20988" lon="-1.56175">
        <ele>57</ele>
        <time>2021-06-06T15:02:49.000Z</time>
      </trkpt>
      <trkpt lat="47.20974" lon="-1.56171">
        <ele>58</ele>
        <time>2021-06-06T15:02:51.000Z</time>
      </trkpt>
      <trkpt lat="47.20959" lon="-1.5617">
        <ele>58</ele>
        <time>2021-06-06T15:02:53.000Z</time>
      </trkpt>
      <trkpt lat="47.20944" lon="-1.56167">
        <ele>60</ele>
        <time>2021-06-06T15:02:55.000Z</time>
      </trkpt>
      <trkpt lat="47.2093" lon="-1.56164">
        <ele>61</ele>
        <time>2021-06-06T15:02:57.000Z</time>
      </trkpt>
      <trkpt lat="47.20916" lon="-1.56161">
        <ele>60</ele>
        <time>2021-06-06T15:02:59.000Z</time>
      </trkpt>
      <trkpt lat="47.20903" lon="-1.56157">
        <ele>60</ele>
        <time>2021-06-06T15:03:01.000Z</time>
      </trkpt>
      <trkpt lat="47.20892" lon="-1.56154">
        <ele>59</ele>
        <time>2021-06-06T15:03:03.000Z</time>
      </trkpt>
      <trkpt lat="47.20881" lon="-1.56151">
        <ele>59</ele>
        <time>2021-06-06T15:03:05.000Z</time>
      </trkpt>
      <trkpt lat="47.20869" lon="-1.56148">
        <ele>59</ele>
        <time>2021-06-06T15:03:07.000Z</time>
      </trkpt>
      <trkpt lat="47.20855" lon="-1.56144">
        <ele>58</ele>
        <time>2021-06-06T15:03:09.000Z</time>
      </trkpt>
      <trkpt lat="47.20844" lon="-1.56142">
        <ele>58</ele>
        <time>2021-06-06T15:03:11.000Z</time>
      </trkpt>
      <trkpt lat="47.20837" lon="-1.56157">
        <ele>57</ele>
        <time>2021-06-06T15:03:13.000Z</time>
      </trkpt>
      <trkpt lat="47.20837" lon="-1.56174">
        <ele>56</ele>
        <time>2021-06-06T15:03:15.000Z</time>
      </trkpt>
      <trkpt lat="47.20835" lon="-1.56192">
        <ele>55</ele>
        <time>2021-06-06T15:03:17.000Z</time>
      </trkpt>
      <trkpt lat="47.20834" lon="-1.56211">
        <ele>54</ele>
        <time>2021-06-06T15:03:19.000Z</time>
      </trkpt>
      <trkpt lat="47.20833" lon="-1.56228">
        <ele>54</ele>
        <time>2021-06-06T15:03:21.000Z</time>
      </trkpt>
      <trkpt lat="47.20832" lon="-1.56245">
        <ele>53</ele>
        <time>2021-06-06T15:03:23.000Z</time>
      </trkpt>
      <trkpt lat="47.20832" lon="-1.56264">
        <ele>53</ele>
        <time>2021-06-06T15:03:25.000Z</time>
      </trkpt>
      <trkpt lat="47.20832" lon="-1.56283">
        <ele>53</ele>
        <time>2021-06-06T15:03:27.000Z</time>
      </trkpt>
      <trkpt lat="47.20831" lon="-1.56302">
        <ele>52</ele>
        <time>2021-06-06T15:03:29.000Z</time>
      </trkpt>
      <trkpt lat="47.20828" lon="-1.5632">
        <ele>52</ele>
        <time>2021-06-06T15:03:31.000Z</time>
      </trkpt>
      <trkpt lat="47.20823" lon="-1.56339">
        <ele>52</ele>
        <time>2021-06-06T15:03:33.000Z</time>
      </trkpt>
      <trkpt lat="47.20819" lon="-1.56357">
        <ele>52</ele>
        <time>2021-06-06T15:03:35.000Z</time>
      </trkpt>
      <trkpt lat="47.20815" lon="-1.56375">
        <ele>52</ele>
        <time>2021-06-06T15:03:37.000Z</time>
      </trkpt>
      <trkpt lat="47.20811" lon="-1.56393">
        <ele>52</ele>
        <time>2021-06-06T15:03:39.000Z</time>
      </trkpt>
      <trkpt lat="47.20807" lon="-1.56411">
        <ele>52</ele>
        <time>2021-06-06T15:03:41.000Z</time>
      </trkpt>
      <trkpt lat="47.20802" lon="-1.56428">
        <ele>52</ele>
        <time>2021-06-06T15:03:43.000Z</time>
      </trkpt>
      <trkpt lat="47.20795" lon="-1.56454">
        <ele>52</ele>
        <time>2021-06-06T15:03:46.000Z</time>
      </trkpt>
      <trkpt lat="47.20788" lon="-1.5648">
        <ele>53</ele>
        <time>2021-06-06T15:03:49.000Z</time>
      </trkpt>
      <trkpt lat="47.20782" lon="-1.56502">
        <ele>53</ele>
        <time>2021-06-06T15:03:52.000Z</time>
      </trkpt>
      <trkpt lat="47.20777" lon="-1.56518">
        <ele>53</ele>
        <time>2021-06-06T15:03:54.000Z</time>
      </trkpt>
      <trkpt lat="47.20764" lon="-1.56512">
        <ele>53</ele>
        <time>2021-06-06T15:03:57.000Z</time>
      </trkpt>
      <trkpt lat="47.20756" lon="-1.56504">
        <ele>54</ele>
        <time>2021-06-06T15:03:59.000Z</time>
      </trkpt>
      <trkpt lat="47.20746" lon="-1.56496">
        <ele>56</ele>
        <time>2021-06-06T15:04:02.000Z</time>
      </trkpt>
      <trkpt lat="47.20738" lon="-1.56516">
        <ele>59</ele>
        <time>2021-06-06T15:04:10.000Z</time>
      </trkpt>
      <trkpt lat="47.2073" lon="-1.56531">
        <ele>59</ele>
        <time>2021-06-06T15:04:12.000Z</time>
      </trkpt>
      <trkpt lat="47.20723" lon="-1.56545">
        <ele>59</ele>
        <time>2021-06-06T15:04:14.000Z</time>
      </trkpt>
      <trkpt lat="47.20715" lon="-1.5656">
        <ele>58</ele>
        <time>2021-06-06T15:04:16.000Z</time>
      </trkpt>
      <trkpt lat="47.20705" lon="-1.5657">
        <ele>58</ele>
        <time>2021-06-06T15:04:18.000Z</time>
      </trkpt>
      <trkpt lat="47.20688" lon="-1.5658">
        <ele>58</ele>
        <time>2021-06-06T15:04:21.000Z</time>
      </trkpt>
      <trkpt lat="47.20677" lon="-1.56589">
        <ele>57</ele>
        <time>2021-06-06T15:04:23.000Z</time>
      </trkpt>
      <trkpt lat="47.20665" lon="-1.56596">
        <ele>57</ele>
        <time>2021-06-06T15:04:25.000Z</time>
      </trkpt>
      <trkpt lat="47.20651" lon="-1.56597">
        <ele>56</ele>
        <time>2021-06-06T15:04:27.000Z</time>
      </trkpt>
      <trkpt lat="47.20638" lon="-1.566">
        <ele>56</ele>
        <time>2021-06-06T15:04:29.000Z</time>
      </trkpt>
      <trkpt lat="47.20624" lon="-1.56607">
        <ele>55</ele>
        <time>2021-06-06T15:04:31.000Z</time>
      </trkpt>
      <trkpt lat="47.20612" lon="-1.56618">
        <ele>54</ele>
        <time>2021-06-06T15:04:33.000Z</time>
      </trkpt>
      <trkpt lat="47.20599" lon="-1.56629">
        <ele>54</ele>
        <time>2021-06-06T15:04:35.000Z</time>
      </trkpt>
      <trkpt lat="47.20586" lon="-1.56636">
        <ele>54</ele>
        <time>2021-06-06T15:04:37.000Z</time>
      </trkpt>
      <trkpt lat="47.20574" lon="-1.5665">
        <ele>53</ele>
        <time>2021-06-06T15:04:39.000Z</time>
      </trkpt>
      <trkpt lat="47.20568" lon="-1.56671">
        <ele>53</ele>
        <time>2021-06-06T15:04:41.000Z</time>
      </trkpt>
      <trkpt lat="47.20559" lon="-1.56687">
        <ele>54</ele>
        <time>2021-06-06T15:04:43.000Z</time>
      </trkpt>
      <trkpt lat="47.20543" lon="-1.56706">
        <ele>53</ele>
        <time>2021-06-06T15:04:46.000Z</time>
      </trkpt>
      <trkpt lat="47.20524" lon="-1.56716">
        <ele>54</ele>
        <time>2021-06-06T15:04:49.000Z</time>
      </trkpt>
      <trkpt lat="47.20505" lon="-1.56719">
        <ele>54</ele>
        <time>2021-06-06T15:04:52.000Z</time>
      </trkpt>
      <trkpt lat="47.20486" lon="-1.56716">
        <ele>55</ele>
        <time>2021-06-06T15:04:55.000Z</time>
      </trkpt>
      <trkpt lat="47.20466" lon="-1.56713">
        <ele>56</ele>
        <time>2021-06-06T15:04:58.000Z</time>
      </trkpt>
      <trkpt lat="47.20453" lon="-1.5671">
        <ele>57</ele>
        <time>2021-06-06T15:05:00.000Z</time>
      </trkpt>
      <trkpt lat="47.20441" lon="-1.56709">
        <ele>58</ele>
        <time>2021-06-06T15:05:02.000Z</time>
      </trkpt>
      <trkpt lat="47.20428" lon="-1.56708">
        <ele>60</ele>
        <time>2021-06-06T15:05:04.000Z</time>
      </trkpt>
      <trkpt lat="47.20418" lon="-1.56705">
        <ele>61</ele>
        <time>2021-06-06T15:05:06.000Z</time>
      </trkpt>
      <trkpt lat="47.20406" lon="-1.56706">
        <ele>63</ele>
        <time>2021-06-06T15:05:08.000Z</time>
      </trkpt>
      <trkpt lat="47.20393" lon="-1.56709">
        <ele>63</ele>
        <time>2021-06-06T15:05:11.000Z</time>
      </trkpt>
      <trkpt lat="47.20393" lon="-1.56726">
        <ele>62</ele>
        <time>2021-06-06T15:05:13.000Z</time>
      </trkpt>
      <trkpt lat="47.20394" lon="-1.56752">
        <ele>62</ele>
        <time>2021-06-06T15:05:15.000Z</time>
      </trkpt>
      <trkpt lat="47.20394" lon="-1.56775">
        <ele>63</ele>
        <time>2021-06-06T15:05:17.000Z</time>
      </trkpt>
      <trkpt lat="47.20393" lon="-1.56794">
        <ele>64</ele>
        <time>2021-06-06T15:05:19.000Z</time>
      </trkpt>
      <trkpt lat="47.20392" lon="-1.56826">
        <ele>64</ele>
        <time>2021-06-06T15:05:22.000Z</time>
      </trkpt>
      <trkpt lat="47.2039" lon="-1.56847">
        <ele>64</ele>
        <time>2021-06-06T15:05:24.000Z</time>
      </trkpt>
      <trkpt lat="47.20389" lon="-1.56864">
        <ele>64</ele>
        <time>2021-06-06T15:05:26.000Z</time>
      </trkpt>
      <trkpt lat="47.20389" lon="-1.56882">
        <ele>65</ele>
        <time>2021-06-06T15:05:28.000Z</time>
      </trkpt>
      <trkpt lat="47.20389" lon="-1.56901">
        <ele>64</ele>
        <time>2021-06-06T15:05:30.000Z</time>
      </trkpt>
      <trkpt lat="47.20389" lon="-1.56921">
        <ele>64</ele>
        <time>2021-06-06T15:05:32.000Z</time>
      </trkpt>
      <trkpt lat="47.20384" lon="-1.56952">
        <ele>63</ele>
        <time>2021-06-06T15:05:35.000Z</time>
      </trkpt>
      <trkpt lat="47.20381" lon="-1.56969">
        <ele>61</ele>
        <time>2021-06-06T15:05:37.000Z</time>
      </trkpt>
      <trkpt lat="47.20379" lon="-1.56988">
        <ele>60</ele>
        <time>2021-06-06T15:05:39.000Z</time>
      </trkpt>
      <trkpt lat="47.20377" lon="-1.57005">
        <ele>59</ele>
        <time>2021-06-06T15:05:41.000Z</time>
      </trkpt>
      <trkpt lat="47.20374" lon="-1.57023">
        <ele>58</ele>
        <time>2021-06-06T15:05:43.000Z</time>
      </trkpt>
      <trkpt lat="47.20369" lon="-1.57041">
        <ele>57</ele>
        <time>2021-06-06T15:05:45.000Z</time>
      </trkpt>
      <trkpt lat="47.20363" lon="-1.57057">
        <ele>57</ele>
        <time>2021-06-06T15:05:47.000Z</time>
      </trkpt>
      <trkpt lat="47.20356" lon="-1.57072">
        <ele>57</ele>
        <time>2021-06-06T15:05:49.000Z</time>
      </trkpt>
      <trkpt lat="47.20348" lon="-1.57088">
        <ele>57</ele>
        <time>2021-06-06T15:05:51.000Z</time>
      </trkpt>
      <trkpt lat="47.2034" lon="-1.57103">
        <ele>57</ele>
        <time>2021-06-06T15:05:53.000Z</time>
      </trkpt>
      <trkpt lat="47.20328" lon="-1.57112">
        <ele>57</ele>
        <time>2021-06-06T15:05:55.000Z</time>
      </trkpt>
      <trkpt lat="47.20316" lon="-1.57121">
        <ele>58</ele>
        <time>2021-06-06T15:05:57.000Z</time>
      </trkpt>
      <trkpt lat="47.20305" lon="-1.57131">
        <ele>59</ele>
        <time>2021-06-06T15:05:59.000Z</time>
      </trkpt>
      <trkpt lat="47.20294" lon="-1.57141">
        <ele>60</ele>
        <time>2021-06-06T15:06:01.000Z</time>
      </trkpt>
      <trkpt lat="47.2028" lon="-1.57149">
        <ele>60</ele>
        <time>2021-06-06T15:06:03.000Z</time>
      </trkpt>
      <trkpt lat="47.20266" lon="-1.57157">
        <ele>59</ele>
        <time>2021-06-06T15:06:05.000Z</time>
      </trkpt>
      <trkpt lat="47.20252" lon="-1.57166">
        <ele>58</ele>
        <time>2021-06-06T15:06:07.000Z</time>
      </trkpt>
      <trkpt lat="47.20238" lon="-1.57175">
        <ele>58</ele>
        <time>2021-06-06T15:06:09.000Z</time>
      </trkpt>
      <trkpt lat="47.20224" lon="-1.57183">
        <ele>57</ele>
        <time>2021-06-06T15:06:11.000Z</time>
      </trkpt>
      <trkpt lat="47.20211" lon="-1.57192">
        <ele>57</ele>
        <time>2021-06-06T15:06:13.000Z</time>
      </trkpt>
      <trkpt lat="47.20198" lon="-1.57201">
        <ele>56</ele>
        <time>2021-06-06T15:06:15.000Z</time>
      </trkpt>
      <trkpt lat="47.20184" lon="-1.57209">
        <ele>56</ele>
        <time>2021-06-06T15:06:17.000Z</time>
      </trkpt>
      <trkpt lat="47.20171" lon="-1.57218">
        <ele>56</ele>
        <time>2021-06-06T15:06:19.000Z</time>
      </trkpt>
      <trkpt lat="47.20158" lon="-1.57227">
        <ele>57</ele>
        <time>2021-06-06T15:06:21.000Z</time>
      </trkpt>
      <trkpt lat="47.20145" lon="-1.57236">
        <ele>56</ele>
        <time>2021-06-06T15:06:23.000Z</time>
      </trkpt>
      <trkpt lat="47.20131" lon="-1.57245">
        <ele>56</ele>
        <time>2021-06-06T15:06:25.000Z</time>
      </trkpt>
      <trkpt lat="47.20111" lon="-1.57259">
        <ele>56</ele>
        <time>2021-06-06T15:06:28.000Z</time>
      </trkpt>
      <trkpt lat="47.20098" lon="-1.57268">
        <ele>56</ele>
        <time>2021-06-06T15:06:30.000Z</time>
      </trkpt>
      <trkpt lat="47.20084" lon="-1.57277">
        <ele>55</ele>
        <time>2021-06-06T15:06:32.000Z</time>
      </trkpt>
      <trkpt lat="47.20072" lon="-1.57288">
        <ele>55</ele>
        <time>2021-06-06T15:06:34.000Z</time>
      </trkpt>
      <trkpt lat="47.2006" lon="-1.573">
        <ele>56</ele>
        <time>2021-06-06T15:06:36.000Z</time>
      </trkpt>
      <trkpt lat="47.20048" lon="-1.57311">
        <ele>56</ele>
        <time>2021-06-06T15:06:38.000Z</time>
      </trkpt>
      <trkpt lat="47.20035" lon="-1.5732">
        <ele>57</ele>
        <time>2021-06-06T15:06:40.000Z</time>
      </trkpt>
      <trkpt lat="47.20022" lon="-1.57329">
        <ele>57</ele>
        <time>2021-06-06T15:06:42.000Z</time>
      </trkpt>
      <trkpt lat="47.20009" lon="-1.57337">
        <ele>57</ele>
        <time>2021-06-06T15:06:44.000Z</time>
      </trkpt>
      <trkpt lat="47.19996" lon="-1.57341">
        <ele>57</ele>
        <time>2021-06-06T15:06:46.000Z</time>
      </trkpt>
      <trkpt lat="47.19984" lon="-1.57331">
        <ele>57</ele>
        <time>2021-06-06T15:06:48.000Z</time>
      </trkpt>
      <trkpt lat="47.1998" lon="-1.57311">
        <ele>56</ele>
        <time>2021-06-06T15:06:50.000Z</time>
      </trkpt>
      <trkpt lat="47.19979" lon="-1.5729">
        <ele>57</ele>
        <time>2021-06-06T15:06:52.000Z</time>
      </trkpt>
      <trkpt lat="47.19979" lon="-1.57271">
        <ele>56</ele>
        <time>2021-06-06T15:06:54.000Z</time>
      </trkpt>
      <trkpt lat="47.19979" lon="-1.57253">
        <ele>57</ele>
        <time>2021-06-06T15:06:56.000Z</time>
      </trkpt>
      <trkpt lat="47.19978" lon="-1.57233">
        <ele>57</ele>
        <time>2021-06-06T15:06:58.000Z</time>
      </trkpt>
      <trkpt lat="47.19978" lon="-1.57213">
        <ele>57</ele>
        <time>2021-06-06T15:07:00.000Z</time>
      </trkpt>
      <trkpt lat="47.19978" lon="-1.5719">
        <ele>57</ele>
        <time>2021-06-06T15:07:02.000Z</time>
      </trkpt>
      <trkpt lat="47.19978" lon="-1.57167">
        <ele>57</ele>
        <time>2021-06-06T15:07:04.000Z</time>
      </trkpt>
      <trkpt lat="47.19976" lon="-1.57145">
        <ele>57</ele>
        <time>2021-06-06T15:07:06.000Z</time>
      </trkpt>
      <trkpt lat="47.19972" lon="-1.57123">
        <ele>57</ele>
        <time>2021-06-06T15:07:08.000Z</time>
      </trkpt>
      <trkpt lat="47.19967" lon="-1.57104">
        <ele>57</ele>
        <time>2021-06-06T15:07:10.000Z</time>
      </trkpt>
      <trkpt lat="47.19963" lon="-1.57084">
        <ele>56</ele>
        <time>2021-06-06T15:07:12.000Z</time>
      </trkpt>
      <trkpt lat="47.19959" lon="-1.57064">
        <ele>56</ele>
        <time>2021-06-06T15:07:14.000Z</time>
      </trkpt>
      <trkpt lat="47.19953" lon="-1.57046">
        <ele>56</ele>
        <time>2021-06-06T15:07:16.000Z</time>
      </trkpt>
      <trkpt lat="47.1995" lon="-1.57026">
        <ele>56</ele>
        <time>2021-06-06T15:07:18.000Z</time>
      </trkpt>
      <trkpt lat="47.19951" lon="-1.57006">
        <ele>56</ele>
        <time>2021-06-06T15:07:20.000Z</time>
      </trkpt>
      <trkpt lat="47.1995" lon="-1.56985">
        <ele>56</ele>
        <time>2021-06-06T15:07:22.000Z</time>
      </trkpt>
      <trkpt lat="47.19951" lon="-1.56964">
        <ele>55</ele>
        <time>2021-06-06T15:07:24.000Z</time>
      </trkpt>
      <trkpt lat="47.19951" lon="-1.56943">
        <ele>55</ele>
        <time>2021-06-06T15:07:26.000Z</time>
      </trkpt>
      <trkpt lat="47.19952" lon="-1.5692">
        <ele>56</ele>
        <time>2021-06-06T15:07:28.000Z</time>
      </trkpt>
      <trkpt lat="47.19952" lon="-1.56897">
        <ele>55</ele>
        <time>2021-06-06T15:07:30.000Z</time>
      </trkpt>
      <trkpt lat="47.19952" lon="-1.56874">
        <ele>55</ele>
        <time>2021-06-06T15:07:32.000Z</time>
      </trkpt>
      <trkpt lat="47.19952" lon="-1.56851">
        <ele>55</ele>
        <time>2021-06-06T15:07:34.000Z</time>
      </trkpt>
      <trkpt lat="47.19952" lon="-1.56828">
        <ele>54</ele>
        <time>2021-06-06T15:07:36.000Z</time>
      </trkpt>
      <trkpt lat="47.19952" lon="-1.56806">
        <ele>54</ele>
        <time>2021-06-06T15:07:38.000Z</time>
      </trkpt>
      <trkpt lat="47.19951" lon="-1.56784">
        <ele>54</ele>
        <time>2021-06-06T15:07:40.000Z</time>
      </trkpt>
      <trkpt lat="47.19952" lon="-1.56762">
        <ele>54</ele>
        <time>2021-06-06T15:07:42.000Z</time>
      </trkpt>
      <trkpt lat="47.19952" lon="-1.5674">
        <ele>54</ele>
        <time>2021-06-06T15:07:44.000Z</time>
      </trkpt>
      <trkpt lat="47.19952" lon="-1.56719">
        <ele>53</ele>
        <time>2021-06-06T15:07:46.000Z</time>
      </trkpt>
      <trkpt lat="47.19952" lon="-1.56698">
        <ele>54</ele>
        <time>2021-06-06T15:07:48.000Z</time>
      </trkpt>
      <trkpt lat="47.19952" lon="-1.56676">
        <ele>54</ele>
        <time>2021-06-06T15:07:50.000Z</time>
      </trkpt>
      <trkpt lat="47.19952" lon="-1.56655">
        <ele>54</ele>
        <time>2021-06-06T15:07:52.000Z</time>
      </trkpt>
      <trkpt lat="47.19952" lon="-1.56634">
        <ele>54</ele>
        <time>2021-06-06T15:07:54.000Z</time>
      </trkpt>
      <trkpt lat="47.19952" lon="-1.56612">
        <ele>54</ele>
        <time>2021-06-06T15:07:56.000Z</time>
      </trkpt>
      <trkpt lat="47.19952" lon="-1.56591">
        <ele>54</ele>
        <time>2021-06-06T15:07:58.000Z</time>
      </trkpt>
      <trkpt lat="47.19952" lon="-1.5657">
        <ele>54</ele>
        <time>2021-06-06T15:08:00.000Z</time>
      </trkpt>
      <trkpt lat="47.19952" lon="-1.56549">
        <ele>54</ele>
        <time>2021-06-06T15:08:02.000Z</time>
      </trkpt>
      <trkpt lat="47.19952" lon="-1.56529">
        <ele>55</ele>
        <time>2021-06-06T15:08:04.000Z</time>
      </trkpt>
      <trkpt lat="47.19953" lon="-1.56508">
        <ele>55</ele>
        <time>2021-06-06T15:08:06.000Z</time>
      </trkpt>
      <trkpt lat="47.19954" lon="-1.56488">
        <ele>55</ele>
        <time>2021-06-06T15:08:08.000Z</time>
      </trkpt>
      <trkpt lat="47.19955" lon="-1.56467">
        <ele>55</ele>
        <time>2021-06-06T15:08:10.000Z</time>
      </trkpt>
      <trkpt lat="47.19959" lon="-1.56448">
        <ele>55</ele>
        <time>2021-06-06T15:08:12.000Z</time>
      </trkpt>
      <trkpt lat="47.19963" lon="-1.56428">
        <ele>55</ele>
        <time>2021-06-06T15:08:14.000Z</time>
      </trkpt>
      <trkpt lat="47.19968" lon="-1.56408">
        <ele>55</ele>
        <time>2021-06-06T15:08:16.000Z</time>
      </trkpt>
      <trkpt lat="47.1997" lon="-1.56388">
        <ele>55</ele>
        <time>2021-06-06T15:08:18.000Z</time>
      </trkpt>
      <trkpt lat="47.19971" lon="-1.56368">
        <ele>55</ele>
        <time>2021-06-06T15:08:20.000Z</time>
      </trkpt>
      <trkpt lat="47.19972" lon="-1.56347">
        <ele>55</ele>
        <time>2021-06-06T15:08:22.000Z</time>
      </trkpt>
      <trkpt lat="47.19974" lon="-1.56328">
        <ele>55</ele>
        <time>2021-06-06T15:08:24.000Z</time>
      </trkpt>
      <trkpt lat="47.19976" lon="-1.56307">
        <ele>55</ele>
        <time>2021-06-06T15:08:26.000Z</time>
      </trkpt>
      <trkpt lat="47.19977" lon="-1.56287">
        <ele>55</ele>
        <time>2021-06-06T15:08:28.000Z</time>
      </trkpt>
      <trkpt lat="47.19977" lon="-1.56267">
        <ele>55</ele>
        <time>2021-06-06T15:08:30.000Z</time>
      </trkpt>
      <trkpt lat="47.19977" lon="-1.56248">
        <ele>55</ele>
        <time>2021-06-06T15:08:32.000Z</time>
      </trkpt>
      <trkpt lat="47.19976" lon="-1.5623">
        <ele>55</ele>
        <time>2021-06-06T15:08:34.000Z</time>
      </trkpt>
      <trkpt lat="47.19975" lon="-1.56212">
        <ele>56</ele>
        <time>2021-06-06T15:08:36.000Z</time>
      </trkpt>
      <trkpt lat="47.19976" lon="-1.56193">
        <ele>56</ele>
        <time>2021-06-06T15:08:38.000Z</time>
      </trkpt>
      <trkpt lat="47.19974" lon="-1.56177">
        <ele>56</ele>
        <time>2021-06-06T15:08:40.000Z</time>
      </trkpt>
      <trkpt lat="47.19967" lon="-1.56168">
        <ele>56</ele>
        <time>2021-06-06T15:08:42.000Z</time>
      </trkpt>
      <trkpt lat="47.19955" lon="-1.56167">
        <ele>56</ele>
        <time>2021-06-06T15:08:44.000Z</time>
      </trkpt>
      <trkpt lat="47.19943" lon="-1.5617">
        <ele>56</ele>
        <time>2021-06-06T15:08:46.000Z</time>
      </trkpt>
      <trkpt lat="47.19931" lon="-1.56173">
        <ele>57</ele>
        <time>2021-06-06T15:08:48.000Z</time>
      </trkpt>
      <trkpt lat="47.19919" lon="-1.56175">
        <ele>58</ele>
        <time>2021-06-06T15:08:50.000Z</time>
      </trkpt>
      <trkpt lat="47.19907" lon="-1.56177">
        <ele>58</ele>
        <time>2021-06-06T15:08:52.000Z</time>
      </trkpt>
      <trkpt lat="47.19895" lon="-1.5618">
        <ele>59</ele>
        <time>2021-06-06T15:08:54.000Z</time>
      </trkpt>
      <trkpt lat="47.19882" lon="-1.56181">
        <ele>59</ele>
        <time>2021-06-06T15:08:56.000Z</time>
      </trkpt>
      <trkpt lat="47.1987" lon="-1.56184">
        <ele>60</ele>
        <time>2021-06-06T15:08:58.000Z</time>
      </trkpt>
      <trkpt lat="47.19858" lon="-1.56186">
        <ele>60</ele>
        <time>2021-06-06T15:09:00.000Z</time>
      </trkpt>
      <trkpt lat="47.19846" lon="-1.56189">
        <ele>60</ele>
        <time>2021-06-06T15:09:02.000Z</time>
      </trkpt>
      <trkpt lat="47.19834" lon="-1.56191">
        <ele>60</ele>
        <time>2021-06-06T15:09:04.000Z</time>
      </trkpt>
      <trkpt lat="47.19822" lon="-1.56193">
        <ele>60</ele>
        <time>2021-06-06T15:09:06.000Z</time>
      </trkpt>
      <trkpt lat="47.1981" lon="-1.56195">
        <ele>60</ele>
        <time>2021-06-06T15:09:08.000Z</time>
      </trkpt>
      <trkpt lat="47.19798" lon="-1.56197">
        <ele>60</ele>
        <time>2021-06-06T15:09:10.000Z</time>
      </trkpt>
      <trkpt lat="47.19787" lon="-1.562">
        <ele>60</ele>
        <time>2021-06-06T15:09:12.000Z</time>
      </trkpt>
      <trkpt lat="47.19775" lon="-1.56202">
        <ele>60</ele>
        <time>2021-06-06T15:09:14.000Z</time>
      </trkpt>
      <trkpt lat="47.19762" lon="-1.56204">
        <ele>59</ele>
        <time>2021-06-06T15:09:16.000Z</time>
      </trkpt>
      <trkpt lat="47.1975" lon="-1.56207">
        <ele>59</ele>
        <time>2021-06-06T15:09:18.000Z</time>
      </trkpt>
      <trkpt lat="47.19736" lon="-1.56209">
        <ele>58</ele>
        <time>2021-06-06T15:09:20.000Z</time>
      </trkpt>
      <trkpt lat="47.19723" lon="-1.56212">
        <ele>58</ele>
        <time>2021-06-06T15:09:22.000Z</time>
      </trkpt>
      <trkpt lat="47.19708" lon="-1.56214">
        <ele>57</ele>
        <time>2021-06-06T15:09:24.000Z</time>
      </trkpt>
      <trkpt lat="47.19692" lon="-1.56217">
        <ele>56</ele>
        <time>2021-06-06T15:09:26.000Z</time>
      </trkpt>
      <trkpt lat="47.19676" lon="-1.56221">
        <ele>55</ele>
        <time>2021-06-06T15:09:28.000Z</time>
      </trkpt>
      <trkpt lat="47.19659" lon="-1.56226">
        <ele>54</ele>
        <time>2021-06-06T15:09:30.000Z</time>
      </trkpt>
      <trkpt lat="47.19642" lon="-1.56232">
        <ele>54</ele>
        <time>2021-06-06T15:09:32.000Z</time>
      </trkpt>
      <trkpt lat="47.19633" lon="-1.56254">
        <ele>53</ele>
        <time>2021-06-06T15:09:34.000Z</time>
      </trkpt>
      <trkpt lat="47.19632" lon="-1.56278">
        <ele>53</ele>
        <time>2021-06-06T15:09:36.000Z</time>
      </trkpt>
      <trkpt lat="47.19631" lon="-1.56301">
        <ele>53</ele>
        <time>2021-06-06T15:09:38.000Z</time>
      </trkpt>
      <trkpt lat="47.1963" lon="-1.56323">
        <ele>53</ele>
        <time>2021-06-06T15:09:40.000Z</time>
      </trkpt>
      <trkpt lat="47.19629" lon="-1.56346">
        <ele>52</ele>
        <time>2021-06-06T15:09:42.000Z</time>
      </trkpt>
      <trkpt lat="47.19629" lon="-1.56368">
        <ele>52</ele>
        <time>2021-06-06T15:09:44.000Z</time>
      </trkpt>
      <trkpt lat="47.1963" lon="-1.5639">
        <ele>52</ele>
        <time>2021-06-06T15:09:46.000Z</time>
      </trkpt>
      <trkpt lat="47.19631" lon="-1.5641">
        <ele>52</ele>
        <time>2021-06-06T15:09:48.000Z</time>
      </trkpt>
      <trkpt lat="47.19631" lon="-1.5643">
        <ele>52</ele>
        <time>2021-06-06T15:09:50.000Z</time>
      </trkpt>
      <trkpt lat="47.19631" lon="-1.5645">
        <ele>52</ele>
        <time>2021-06-06T15:09:52.000Z</time>
      </trkpt>
      <trkpt lat="47.19632" lon="-1.56471">
        <ele>52</ele>
        <time>2021-06-06T15:09:54.000Z</time>
      </trkpt>
      <trkpt lat="47.19632" lon="-1.56493">
        <ele>51</ele>
        <time>2021-06-06T15:09:56.000Z</time>
      </trkpt>
      <trkpt lat="47.19632" lon="-1.56513">
        <ele>51</ele>
        <time>2021-06-06T15:09:58.000Z</time>
      </trkpt>
      <trkpt lat="47.19632" lon="-1.56532">
        <ele>51</ele>
        <time>2021-06-06T15:10:00.000Z</time>
      </trkpt>
      <trkpt lat="47.19631" lon="-1.56551">
        <ele>51</ele>
        <time>2021-06-06T15:10:02.000Z</time>
      </trkpt>
      <trkpt lat="47.1963" lon="-1.56572">
        <ele>51</ele>
        <time>2021-06-06T15:10:04.000Z</time>
      </trkpt>
      <trkpt lat="47.1963" lon="-1.56592">
        <ele>51</ele>
        <time>2021-06-06T15:10:06.000Z</time>
      </trkpt>
      <trkpt lat="47.19628" lon="-1.56612">
        <ele>52</ele>
        <time>2021-06-06T15:10:08.000Z</time>
      </trkpt>
      <trkpt lat="47.19628" lon="-1.56632">
        <ele>52</ele>
        <time>2021-06-06T15:10:10.000Z</time>
      </trkpt>
      <trkpt lat="47.19627" lon="-1.56653">
        <ele>52</ele>
        <time>2021-06-06T15:10:12.000Z</time>
      </trkpt>
      <trkpt lat="47.19626" lon="-1.56673">
        <ele>53</ele>
        <time>2021-06-06T15:10:14.000Z</time>
      </trkpt>
      <trkpt lat="47.19626" lon="-1.56694">
        <ele>53</ele>
        <time>2021-06-06T15:10:16.000Z</time>
      </trkpt>
      <trkpt lat="47.19625" lon="-1.56714">
        <ele>53</ele>
        <time>2021-06-06T15:10:18.000Z</time>
      </trkpt>
      <trkpt lat="47.19624" lon="-1.56733">
        <ele>53</ele>
        <time>2021-06-06T15:10:20.000Z</time>
      </trkpt>
      <trkpt lat="47.19622" lon="-1.56754">
        <ele>53</ele>
        <time>2021-06-06T15:10:22.000Z</time>
      </trkpt>
      <trkpt lat="47.19621" lon="-1.56774">
        <ele>52</ele>
        <time>2021-06-06T15:10:24.000Z</time>
      </trkpt>
      <trkpt lat="47.19619" lon="-1.56795">
        <ele>52</ele>
        <time>2021-06-06T15:10:26.000Z</time>
      </trkpt>
      <trkpt lat="47.19618" lon="-1.56815">
        <ele>52</ele>
        <time>2021-06-06T15:10:28.000Z</time>
      </trkpt>
      <trkpt lat="47.19616" lon="-1.56835">
        <ele>52</ele>
        <time>2021-06-06T15:10:30.000Z</time>
      </trkpt>
      <trkpt lat="47.19615" lon="-1.56855">
        <ele>52</ele>
        <time>2021-06-06T15:10:32.000Z</time>
      </trkpt>
      <trkpt lat="47.19614" lon="-1.56875">
        <ele>52</ele>
        <time>2021-06-06T15:10:34.000Z</time>
      </trkpt>
      <trkpt lat="47.19613" lon="-1.56895">
        <ele>52</ele>
        <time>2021-06-06T15:10:36.000Z</time>
      </trkpt>
      <trkpt lat="47.19612" lon="-1.56914">
        <ele>52</ele>
        <time>2021-06-06T15:10:38.000Z</time>
      </trkpt>
      <trkpt lat="47.1961" lon="-1.56935">
        <ele>52</ele>
        <time>2021-06-06T15:10:40.000Z</time>
      </trkpt>
      <trkpt lat="47.1961" lon="-1.56955">
        <ele>52</ele>
        <time>2021-06-06T15:10:42.000Z</time>
      </trkpt>
      <trkpt lat="47.19608" lon="-1.56976">
        <ele>52</ele>
        <time>2021-06-06T15:10:44.000Z</time>
      </trkpt>
      <trkpt lat="47.19607" lon="-1.56997">
        <ele>53</ele>
        <time>2021-06-06T15:10:46.000Z</time>
      </trkpt>
      <trkpt lat="47.19605" lon="-1.57017">
        <ele>53</ele>
        <time>2021-06-06T15:10:48.000Z</time>
      </trkpt>
      <trkpt lat="47.19603" lon="-1.57037">
        <ele>54</ele>
        <time>2021-06-06T15:10:50.000Z</time>
      </trkpt>
      <trkpt lat="47.19602" lon="-1.57057">
        <ele>54</ele>
        <time>2021-06-06T15:10:52.000Z</time>
      </trkpt>
      <trkpt lat="47.196" lon="-1.57078">
        <ele>54</ele>
        <time>2021-06-06T15:10:54.000Z</time>
      </trkpt>
      <trkpt lat="47.19599" lon="-1.57097">
        <ele>54</ele>
        <time>2021-06-06T15:10:56.000Z</time>
      </trkpt>
      <trkpt lat="47.19598" lon="-1.57118">
        <ele>54</ele>
        <time>2021-06-06T15:10:58.000Z</time>
      </trkpt>
      <trkpt lat="47.19597" lon="-1.57138">
        <ele>53</ele>
        <time>2021-06-06T15:11:00.000Z</time>
      </trkpt>
      <trkpt lat="47.19596" lon="-1.57158">
        <ele>53</ele>
        <time>2021-06-06T15:11:02.000Z</time>
      </trkpt>
      <trkpt lat="47.19595" lon="-1.57177">
        <ele>53</ele>
        <time>2021-06-06T15:11:04.000Z</time>
      </trkpt>
      <trkpt lat="47.19593" lon="-1.57199">
        <ele>53</ele>
        <time>2021-06-06T15:11:06.000Z</time>
      </trkpt>
      <trkpt lat="47.19592" lon="-1.57219">
        <ele>52</ele>
        <time>2021-06-06T15:11:08.000Z</time>
      </trkpt>
      <trkpt lat="47.19591" lon="-1.57239">
        <ele>52</ele>
        <time>2021-06-06T15:11:10.000Z</time>
      </trkpt>
      <trkpt lat="47.19588" lon="-1.57258">
        <ele>52</ele>
        <time>2021-06-06T15:11:12.000Z</time>
      </trkpt>
      <trkpt lat="47.19587" lon="-1.57278">
        <ele>52</ele>
        <time>2021-06-06T15:11:14.000Z</time>
      </trkpt>
      <trkpt lat="47.19586" lon="-1.57299">
        <ele>52</ele>
        <time>2021-06-06T15:11:16.000Z</time>
      </trkpt>
      <trkpt lat="47.19584" lon="-1.57318">
        <ele>52</ele>
        <time>2021-06-06T15:11:18.000Z</time>
      </trkpt>
      <trkpt lat="47.19581" lon="-1.57337">
        <ele>52</ele>
        <time>2021-06-06T15:11:20.000Z</time>
      </trkpt>
      <trkpt lat="47.19577" lon="-1.57354">
        <ele>52</ele>
        <time>2021-06-06T15:11:22.000Z</time>
      </trkpt>
      <trkpt lat="47.19574" lon="-1.57373">
        <ele>52</ele>
        <time>2021-06-06T15:11:24.000Z</time>
      </trkpt>
      <trkpt lat="47.19571" lon="-1.57391">
        <ele>53</ele>
        <time>2021-06-06T15:11:26.000Z</time>
      </trkpt>
      <trkpt lat="47.19567" lon="-1.57409">
        <ele>53</ele>
        <time>2021-06-06T15:11:28.000Z</time>
      </trkpt>
      <trkpt lat="47.19563" lon="-1.57429">
        <ele>53</ele>
        <time>2021-06-06T15:11:30.000Z</time>
      </trkpt>
      <trkpt lat="47.1956" lon="-1.57448">
        <ele>53</ele>
        <time>2021-06-06T15:11:32.000Z</time>
      </trkpt>
      <trkpt lat="47.19556" lon="-1.57465">
        <ele>52</ele>
        <time>2021-06-06T15:11:34.000Z</time>
      </trkpt>
      <trkpt lat="47.19553" lon="-1.57484">
        <ele>53</ele>
        <time>2021-06-06T15:11:36.000Z</time>
      </trkpt>
      <trkpt lat="47.19549" lon="-1.57505">
        <ele>53</ele>
        <time>2021-06-06T15:11:38.000Z</time>
      </trkpt>
      <trkpt lat="47.19544" lon="-1.57525">
        <ele>53</ele>
        <time>2021-06-06T15:11:40.000Z</time>
      </trkpt>
      <trkpt lat="47.19541" lon="-1.57544">
        <ele>53</ele>
        <time>2021-06-06T15:11:42.000Z</time>
      </trkpt>
      <trkpt lat="47.19538" lon="-1.57563">
        <ele>53</ele>
        <time>2021-06-06T15:11:44.000Z</time>
      </trkpt>
      <trkpt lat="47.19534" lon="-1.57582">
        <ele>53</ele>
        <time>2021-06-06T15:11:46.000Z</time>
      </trkpt>
      <trkpt lat="47.1953" lon="-1.57601">
        <ele>53</ele>
        <time>2021-06-06T15:11:48.000Z</time>
      </trkpt>
      <trkpt lat="47.19526" lon="-1.57619">
        <ele>53</ele>
        <time>2021-06-06T15:11:50.000Z</time>
      </trkpt>
      <trkpt lat="47.19522" lon="-1.57638">
        <ele>53</ele>
        <time>2021-06-06T15:11:52.000Z</time>
      </trkpt>
      <trkpt lat="47.19518" lon="-1.57658">
        <ele>53</ele>
        <time>2021-06-06T15:11:54.000Z</time>
      </trkpt>
      <trkpt lat="47.19513" lon="-1.57676">
        <ele>53</ele>
        <time>2021-06-06T15:11:56.000Z</time>
      </trkpt>
      <trkpt lat="47.1951" lon="-1.57696">
        <ele>53</ele>
        <time>2021-06-06T15:11:58.000Z</time>
      </trkpt>
      <trkpt lat="47.19505" lon="-1.57715">
        <ele>52</ele>
        <time>2021-06-06T15:12:00.000Z</time>
      </trkpt>
      <trkpt lat="47.19501" lon="-1.57734">
        <ele>53</ele>
        <time>2021-06-06T15:12:02.000Z</time>
      </trkpt>
      <trkpt lat="47.19497" lon="-1.57753">
        <ele>53</ele>
        <time>2021-06-06T15:12:04.000Z</time>
      </trkpt>
      <trkpt lat="47.19493" lon="-1.57772">
        <ele>53</ele>
        <time>2021-06-06T15:12:06.000Z</time>
      </trkpt>
      <trkpt lat="47.19489" lon="-1.57791">
        <ele>52</ele>
        <time>2021-06-06T15:12:08.000Z</time>
      </trkpt>
      <trkpt lat="47.19485" lon="-1.57811">
        <ele>52</ele>
        <time>2021-06-06T15:12:10.000Z</time>
      </trkpt>
      <trkpt lat="47.19482" lon="-1.5783">
        <ele>52</ele>
        <time>2021-06-06T15:12:12.000Z</time>
      </trkpt>
      <trkpt lat="47.1948" lon="-1.57849">
        <ele>52</ele>
        <time>2021-06-06T15:12:14.000Z</time>
      </trkpt>
      <trkpt lat="47.19478" lon="-1.57869">
        <ele>52</ele>
        <time>2021-06-06T15:12:16.000Z</time>
      </trkpt>
      <trkpt lat="47.19474" lon="-1.57888">
        <ele>52</ele>
        <time>2021-06-06T15:12:18.000Z</time>
      </trkpt>
      <trkpt lat="47.1947" lon="-1.57908">
        <ele>52</ele>
        <time>2021-06-06T15:12:20.000Z</time>
      </trkpt>
      <trkpt lat="47.19468" lon="-1.57928">
        <ele>52</ele>
        <time>2021-06-06T15:12:22.000Z</time>
      </trkpt>
      <trkpt lat="47.19467" lon="-1.57948">
        <ele>52</ele>
        <time>2021-06-06T15:12:24.000Z</time>
      </trkpt>
      <trkpt lat="47.19465" lon="-1.57967">
        <ele>52</ele>
        <time>2021-06-06T15:12:26.000Z</time>
      </trkpt>
      <trkpt lat="47.19464" lon="-1.57986">
        <ele>52</ele>
        <time>2021-06-06T15:12:28.000Z</time>
      </trkpt>
      <trkpt lat="47.19463" lon="-1.58005">
        <ele>52</ele>
        <time>2021-06-06T15:12:30.000Z</time>
      </trkpt>
      <trkpt lat="47.19461" lon="-1.58023">
        <ele>52</ele>
        <time>2021-06-06T15:12:32.000Z</time>
      </trkpt>
      <trkpt lat="47.1946" lon="-1.58041">
        <ele>51</ele>
        <time>2021-06-06T15:12:34.000Z</time>
      </trkpt>
      <trkpt lat="47.19458" lon="-1.58057">
        <ele>51</ele>
        <time>2021-06-06T15:12:36.000Z</time>
      </trkpt>
      <trkpt lat="47.19456" lon="-1.58073">
        <ele>51</ele>
        <time>2021-06-06T15:12:38.000Z</time>
      </trkpt>
      <trkpt lat="47.19454" lon="-1.58088">
        <ele>51</ele>
        <time>2021-06-06T15:12:40.000Z</time>
      </trkpt>
      <trkpt lat="47.19446" lon="-1.58101">
        <ele>52</ele>
        <time>2021-06-06T15:12:42.000Z</time>
      </trkpt>
      <trkpt lat="47.19436" lon="-1.58113">
        <ele>52</ele>
        <time>2021-06-06T15:12:44.000Z</time>
      </trkpt>
      <trkpt lat="47.19425" lon="-1.58126">
        <ele>53</ele>
        <time>2021-06-06T15:12:46.000Z</time>
      </trkpt>
      <trkpt lat="47.19415" lon="-1.58139">
        <ele>53</ele>
        <time>2021-06-06T15:12:48.000Z</time>
      </trkpt>
      <trkpt lat="47.19405" lon="-1.58153">
        <ele>53</ele>
        <time>2021-06-06T15:12:50.000Z</time>
      </trkpt>
      <trkpt lat="47.19398" lon="-1.58167">
        <ele>52</ele>
        <time>2021-06-06T15:12:52.000Z</time>
      </trkpt>
      <trkpt lat="47.19391" lon="-1.58183">
        <ele>52</ele>
        <time>2021-06-06T15:12:54.000Z</time>
      </trkpt>
      <trkpt lat="47.19384" lon="-1.58199">
        <ele>53</ele>
        <time>2021-06-06T15:12:56.000Z</time>
      </trkpt>
      <trkpt lat="47.19376" lon="-1.58217">
        <ele>53</ele>
        <time>2021-06-06T15:12:58.000Z</time>
      </trkpt>
      <trkpt lat="47.19369" lon="-1.58235">
        <ele>53</ele>
        <time>2021-06-06T15:13:00.000Z</time>
      </trkpt>
      <trkpt lat="47.19363" lon="-1.58253">
        <ele>52</ele>
        <time>2021-06-06T15:13:02.000Z</time>
      </trkpt>
      <trkpt lat="47.19354" lon="-1.5827">
        <ele>52</ele>
        <time>2021-06-06T15:13:04.000Z</time>
      </trkpt>
      <trkpt lat="47.19344" lon="-1.58285">
        <ele>52</ele>
        <time>2021-06-06T15:13:06.000Z</time>
      </trkpt>
      <trkpt lat="47.19333" lon="-1.58297">
        <ele>51</ele>
        <time>2021-06-06T15:13:08.000Z</time>
      </trkpt>
      <trkpt lat="47.19321" lon="-1.58308">
        <ele>51</ele>
        <time>2021-06-06T15:13:10.000Z</time>
      </trkpt>
      <trkpt lat="47.19309" lon="-1.58319">
        <ele>51</ele>
        <time>2021-06-06T15:13:12.000Z</time>
      </trkpt>
      <trkpt lat="47.19297" lon="-1.58329">
        <ele>52</ele>
        <time>2021-06-06T15:13:14.000Z</time>
      </trkpt>
      <trkpt lat="47.19285" lon="-1.58339">
        <ele>52</ele>
        <time>2021-06-06T15:13:16.000Z</time>
      </trkpt>
      <trkpt lat="47.19274" lon="-1.58351">
        <ele>52</ele>
        <time>2021-06-06T15:13:18.000Z</time>
      </trkpt>
      <trkpt lat="47.19262" lon="-1.58362">
        <ele>51</ele>
        <time>2021-06-06T15:13:20.000Z</time>
      </trkpt>
      <trkpt lat="47.19251" lon="-1.58373">
        <ele>51</ele>
        <time>2021-06-06T15:13:22.000Z</time>
      </trkpt>
      <trkpt lat="47.19239" lon="-1.58384">
        <ele>51</ele>
        <time>2021-06-06T15:13:24.000Z</time>
      </trkpt>
      <trkpt lat="47.19227" lon="-1.58395">
        <ele>51</ele>
        <time>2021-06-06T15:13:26.000Z</time>
      </trkpt>
      <trkpt lat="47.19216" lon="-1.58406">
        <ele>51</ele>
        <time>2021-06-06T15:13:28.000Z</time>
      </trkpt>
      <trkpt lat="47.19204" lon="-1.58416">
        <ele>50</ele>
        <time>2021-06-06T15:13:30.000Z</time>
      </trkpt>
      <trkpt lat="47.19192" lon="-1.58427">
        <ele>51</ele>
        <time>2021-06-06T15:13:32.000Z</time>
      </trkpt>
      <trkpt lat="47.19181" lon="-1.58437">
        <ele>51</ele>
        <time>2021-06-06T15:13:34.000Z</time>
      </trkpt>
      <trkpt lat="47.1917" lon="-1.58447">
        <ele>51</ele>
        <time>2021-06-06T15:13:36.000Z</time>
      </trkpt>
      <trkpt lat="47.1916" lon="-1.58456">
        <ele>51</ele>
        <time>2021-06-06T15:13:38.000Z</time>
      </trkpt>
      <trkpt lat="47.1915" lon="-1.58467">
        <ele>51</ele>
        <time>2021-06-06T15:13:40.000Z</time>
      </trkpt>
      <trkpt lat="47.19141" lon="-1.58477">
        <ele>52</ele>
        <time>2021-06-06T15:13:42.000Z</time>
      </trkpt>
      <trkpt lat="47.1913" lon="-1.58488">
        <ele>51</ele>
        <time>2021-06-06T15:13:44.000Z</time>
      </trkpt>
      <trkpt lat="47.19118" lon="-1.58499">
        <ele>52</ele>
        <time>2021-06-06T15:13:46.000Z</time>
      </trkpt>
      <trkpt lat="47.19106" lon="-1.5851">
        <ele>52</ele>
        <time>2021-06-06T15:13:48.000Z</time>
      </trkpt>
      <trkpt lat="47.19095" lon="-1.58521">
        <ele>52</ele>
        <time>2021-06-06T15:13:50.000Z</time>
      </trkpt>
      <trkpt lat="47.19084" lon="-1.58532">
        <ele>52</ele>
        <time>2021-06-06T15:13:52.000Z</time>
      </trkpt>
      <trkpt lat="47.19073" lon="-1.58542">
        <ele>52</ele>
        <time>2021-06-06T15:13:54.000Z</time>
      </trkpt>
      <trkpt lat="47.19061" lon="-1.58553">
        <ele>52</ele>
        <time>2021-06-06T15:13:56.000Z</time>
      </trkpt>
      <trkpt lat="47.1905" lon="-1.58564">
        <ele>52</ele>
        <time>2021-06-06T15:13:58.000Z</time>
      </trkpt>
      <trkpt lat="47.19038" lon="-1.58576">
        <ele>52</ele>
        <time>2021-06-06T15:14:00.000Z</time>
      </trkpt>
      <trkpt lat="47.19027" lon="-1.58587">
        <ele>52</ele>
        <time>2021-06-06T15:14:02.000Z</time>
      </trkpt>
      <trkpt lat="47.19016" lon="-1.58598">
        <ele>52</ele>
        <time>2021-06-06T15:14:04.000Z</time>
      </trkpt>
      <trkpt lat="47.19005" lon="-1.58609">
        <ele>52</ele>
        <time>2021-06-06T15:14:06.000Z</time>
      </trkpt>
      <trkpt lat="47.18994" lon="-1.5862">
        <ele>52</ele>
        <time>2021-06-06T15:14:08.000Z</time>
      </trkpt>
      <trkpt lat="47.18983" lon="-1.5863">
        <ele>52</ele>
        <time>2021-06-06T15:14:10.000Z</time>
      </trkpt>
      <trkpt lat="47.18972" lon="-1.58641">
        <ele>52</ele>
        <time>2021-06-06T15:14:12.000Z</time>
      </trkpt>
      <trkpt lat="47.1896" lon="-1.58651">
        <ele>52</ele>
        <time>2021-06-06T15:14:14.000Z</time>
      </trkpt>
      <trkpt lat="47.18949" lon="-1.58662">
        <ele>52</ele>
        <time>2021-06-06T15:14:16.000Z</time>
      </trkpt>
      <trkpt lat="47.18938" lon="-1.58673">
        <ele>52</ele>
        <time>2021-06-06T15:14:18.000Z</time>
      </trkpt>
      <trkpt lat="47.18927" lon="-1.58683">
        <ele>52</ele>
        <time>2021-06-06T15:14:20.000Z</time>
      </trkpt>
      <trkpt lat="47.18916" lon="-1.58693">
        <ele>52</ele>
        <time>2021-06-06T15:14:22.000Z</time>
      </trkpt>
      <trkpt lat="47.18905" lon="-1.58703">
        <ele>53</ele>
        <time>2021-06-06T15:14:24.000Z</time>
      </trkpt>
      <trkpt lat="47.18892" lon="-1.58712">
        <ele>53</ele>
        <time>2021-06-06T15:14:26.000Z</time>
      </trkpt>
      <trkpt lat="47.18881" lon="-1.5872">
        <ele>53</ele>
        <time>2021-06-06T15:14:28.000Z</time>
      </trkpt>
      <trkpt lat="47.18869" lon="-1.58726">
        <ele>52</ele>
        <time>2021-06-06T15:14:30.000Z</time>
      </trkpt>
      <trkpt lat="47.18856" lon="-1.58733">
        <ele>52</ele>
        <time>2021-06-06T15:14:32.000Z</time>
      </trkpt>
      <trkpt lat="47.18845" lon="-1.5874">
        <ele>52</ele>
        <time>2021-06-06T15:14:34.000Z</time>
      </trkpt>
      <trkpt lat="47.18835" lon="-1.58751">
        <ele>52</ele>
        <time>2021-06-06T15:14:36.000Z</time>
      </trkpt>
      <trkpt lat="47.18831" lon="-1.58767">
        <ele>52</ele>
        <time>2021-06-06T15:14:38.000Z</time>
      </trkpt>
      <trkpt lat="47.18828" lon="-1.58782">
        <ele>52</ele>
        <time>2021-06-06T15:14:40.000Z</time>
      </trkpt>
      <trkpt lat="47.18821" lon="-1.58793">
        <ele>53</ele>
        <time>2021-06-06T15:14:42.000Z</time>
      </trkpt>
      <trkpt lat="47.18814" lon="-1.58803">
        <ele>53</ele>
        <time>2021-06-06T15:14:44.000Z</time>
      </trkpt>
      <trkpt lat="47.18804" lon="-1.58811">
        <ele>53</ele>
        <time>2021-06-06T15:14:46.000Z</time>
      </trkpt>
      <trkpt lat="47.18792" lon="-1.58818">
        <ele>53</ele>
        <time>2021-06-06T15:14:48.000Z</time>
      </trkpt>
      <trkpt lat="47.18786" lon="-1.58835">
        <ele>53</ele>
        <time>2021-06-06T15:14:50.000Z</time>
      </trkpt>
      <trkpt lat="47.18782" lon="-1.58853">
        <ele>53</ele>
        <time>2021-06-06T15:14:52.000Z</time>
      </trkpt>
      <trkpt lat="47.18778" lon="-1.58873">
        <ele>54</ele>
        <time>2021-06-06T15:14:54.000Z</time>
      </trkpt>
      <trkpt lat="47.18775" lon="-1.58893">
        <ele>54</ele>
        <time>2021-06-06T15:14:56.000Z</time>
      </trkpt>
      <trkpt lat="47.18773" lon="-1.58913">
        <ele>54</ele>
        <time>2021-06-06T15:14:58.000Z</time>
      </trkpt>
      <trkpt lat="47.18771" lon="-1.58933">
        <ele>54</ele>
        <time>2021-06-06T15:15:00.000Z</time>
      </trkpt>
      <trkpt lat="47.18769" lon="-1.58953">
        <ele>54</ele>
        <time>2021-06-06T15:15:02.000Z</time>
      </trkpt>
      <trkpt lat="47.18766" lon="-1.58972">
        <ele>54</ele>
        <time>2021-06-06T15:15:04.000Z</time>
      </trkpt>
      <trkpt lat="47.18764" lon="-1.58991">
        <ele>54</ele>
        <time>2021-06-06T15:15:06.000Z</time>
      </trkpt>
      <trkpt lat="47.18762" lon="-1.59011">
        <ele>54</ele>
        <time>2021-06-06T15:15:08.000Z</time>
      </trkpt>
      <trkpt lat="47.1876" lon="-1.59031">
        <ele>54</ele>
        <time>2021-06-06T15:15:10.000Z</time>
      </trkpt>
      <trkpt lat="47.18758" lon="-1.59051">
        <ele>53</ele>
        <time>2021-06-06T15:15:12.000Z</time>
      </trkpt>
      <trkpt lat="47.18756" lon="-1.5907">
        <ele>53</ele>
        <time>2021-06-06T15:15:14.000Z</time>
      </trkpt>
      <trkpt lat="47.18754" lon="-1.59089">
        <ele>53</ele>
        <time>2021-06-06T15:15:16.000Z</time>
      </trkpt>
      <trkpt lat="47.18752" lon="-1.59108">
        <ele>53</ele>
        <time>2021-06-06T15:15:18.000Z</time>
      </trkpt>
      <trkpt lat="47.1875" lon="-1.59126">
        <ele>53</ele>
        <time>2021-06-06T15:15:20.000Z</time>
      </trkpt>
      <trkpt lat="47.18748" lon="-1.59146">
        <ele>53</ele>
        <time>2021-06-06T15:15:22.000Z</time>
      </trkpt>
      <trkpt lat="47.18745" lon="-1.59165">
        <ele>53</ele>
        <time>2021-06-06T15:15:24.000Z</time>
      </trkpt>
      <trkpt lat="47.18743" lon="-1.59184">
        <ele>53</ele>
        <time>2021-06-06T15:15:26.000Z</time>
      </trkpt>
      <trkpt lat="47.18741" lon="-1.59202">
        <ele>53</ele>
        <time>2021-06-06T15:15:28.000Z</time>
      </trkpt>
      <trkpt lat="47.18738" lon="-1.59221">
        <ele>52</ele>
        <time>2021-06-06T15:15:30.000Z</time>
      </trkpt>
      <trkpt lat="47.18736" lon="-1.5924">
        <ele>52</ele>
        <time>2021-06-06T15:15:32.000Z</time>
      </trkpt>
      <trkpt lat="47.18734" lon="-1.5926">
        <ele>52</ele>
        <time>2021-06-06T15:15:34.000Z</time>
      </trkpt>
      <trkpt lat="47.18732" lon="-1.59279">
        <ele>52</ele>
        <time>2021-06-06T15:15:36.000Z</time>
      </trkpt>
      <trkpt lat="47.1873" lon="-1.59298">
        <ele>52</ele>
        <time>2021-06-06T15:15:38.000Z</time>
      </trkpt>
      <trkpt lat="47.18727" lon="-1.59318">
        <ele>52</ele>
        <time>2021-06-06T15:15:40.000Z</time>
      </trkpt>
      <trkpt lat="47.18725" lon="-1.59337">
        <ele>52</ele>
        <time>2021-06-06T15:15:42.000Z</time>
      </trkpt>
      <trkpt lat="47.18723" lon="-1.59356">
        <ele>52</ele>
        <time>2021-06-06T15:15:44.000Z</time>
      </trkpt>
      <trkpt lat="47.18721" lon="-1.59376">
        <ele>52</ele>
        <time>2021-06-06T15:15:46.000Z</time>
      </trkpt>
      <trkpt lat="47.18719" lon="-1.59395">
        <ele>52</ele>
        <time>2021-06-06T15:15:48.000Z</time>
      </trkpt>
      <trkpt lat="47.18717" lon="-1.59415">
        <ele>52</ele>
        <time>2021-06-06T15:15:50.000Z</time>
      </trkpt>
      <trkpt lat="47.18715" lon="-1.59435">
        <ele>52</ele>
        <time>2021-06-06T15:15:52.000Z</time>
      </trkpt>
      <trkpt lat="47.18712" lon="-1.59455">
        <ele>52</ele>
        <time>2021-06-06T15:15:54.000Z</time>
      </trkpt>
      <trkpt lat="47.1871" lon="-1.59475">
        <ele>52</ele>
        <time>2021-06-06T15:15:56.000Z</time>
      </trkpt>
      <trkpt lat="47.18708" lon="-1.59494">
        <ele>52</ele>
        <time>2021-06-06T15:15:58.000Z</time>
      </trkpt>
      <trkpt lat="47.18706" lon="-1.59514">
        <ele>52</ele>
        <time>2021-06-06T15:16:00.000Z</time>
      </trkpt>
      <trkpt lat="47.18704" lon="-1.59533">
        <ele>52</ele>
        <time>2021-06-06T15:16:02.000Z</time>
      </trkpt>
      <trkpt lat="47.18702" lon="-1.59552">
        <ele>52</ele>
        <time>2021-06-06T15:16:04.000Z</time>
      </trkpt>
      <trkpt lat="47.187" lon="-1.59571">
        <ele>52</ele>
        <time>2021-06-06T15:16:06.000Z</time>
      </trkpt>
      <trkpt lat="47.18698" lon="-1.59591">
        <ele>52</ele>
        <time>2021-06-06T15:16:08.000Z</time>
      </trkpt>
      <trkpt lat="47.18696" lon="-1.5961">
        <ele>52</ele>
        <time>2021-06-06T15:16:10.000Z</time>
      </trkpt>
      <trkpt lat="47.18693" lon="-1.59629">
        <ele>52</ele>
        <time>2021-06-06T15:16:12.000Z</time>
      </trkpt>
      <trkpt lat="47.1869" lon="-1.59648">
        <ele>52</ele>
        <time>2021-06-06T15:16:14.000Z</time>
      </trkpt>
      <trkpt lat="47.18688" lon="-1.59667">
        <ele>52</ele>
        <time>2021-06-06T15:16:16.000Z</time>
      </trkpt>
      <trkpt lat="47.18686" lon="-1.59686">
        <ele>52</ele>
        <time>2021-06-06T15:16:18.000Z</time>
      </trkpt>
      <trkpt lat="47.18683" lon="-1.59705">
        <ele>52</ele>
        <time>2021-06-06T15:16:20.000Z</time>
      </trkpt>
      <trkpt lat="47.18682" lon="-1.59724">
        <ele>51</ele>
        <time>2021-06-06T15:16:22.000Z</time>
      </trkpt>
      <trkpt lat="47.18682" lon="-1.59742">
        <ele>51</ele>
        <time>2021-06-06T15:16:24.000Z</time>
      </trkpt>
      <trkpt lat="47.18682" lon="-1.59757">
        <ele>52</ele>
        <time>2021-06-06T15:16:26.000Z</time>
      </trkpt>
      <trkpt lat="47.18686" lon="-1.59774">
        <ele>52</ele>
        <time>2021-06-06T15:16:30.000Z</time>
      </trkpt>
      <trkpt lat="47.1869" lon="-1.59792">
        <ele>52</ele>
        <time>2021-06-06T15:16:33.000Z</time>
      </trkpt>
      <trkpt lat="47.18685" lon="-1.59808">
        <ele>53</ele>
        <time>2021-06-06T15:16:35.000Z</time>
      </trkpt>
      <trkpt lat="47.18678" lon="-1.59827">
        <ele>52</ele>
        <time>2021-06-06T15:16:37.000Z</time>
      </trkpt>
      <trkpt lat="47.18666" lon="-1.59843">
        <ele>53</ele>
        <time>2021-06-06T15:16:39.000Z</time>
      </trkpt>
      <trkpt lat="47.18653" lon="-1.59847">
        <ele>53</ele>
        <time>2021-06-06T15:16:41.000Z</time>
      </trkpt>
      <trkpt lat="47.18639" lon="-1.59842">
        <ele>53</ele>
        <time>2021-06-06T15:16:43.000Z</time>
      </trkpt>
      <trkpt lat="47.18627" lon="-1.59834">
        <ele>53</ele>
        <time>2021-06-06T15:16:45.000Z</time>
      </trkpt>
      <trkpt lat="47.18616" lon="-1.59838">
        <ele>52</ele>
        <time>2021-06-06T15:16:47.000Z</time>
      </trkpt>
      <trkpt lat="47.18619" lon="-1.59859">
        <ele>52</ele>
        <time>2021-06-06T15:16:50.000Z</time>
      </trkpt>
      <trkpt lat="47.1862" lon="-1.59879">
        <ele>52</ele>
        <time>2021-06-06T15:16:52.000Z</time>
      </trkpt>
      <trkpt lat="47.18615" lon="-1.59897">
        <ele>52</ele>
        <time>2021-06-06T15:16:54.000Z</time>
      </trkpt>
      <trkpt lat="47.1861" lon="-1.59916">
        <ele>52</ele>
        <time>2021-06-06T15:16:56.000Z</time>
      </trkpt>
      <trkpt lat="47.18606" lon="-1.59934">
        <ele>52</ele>
        <time>2021-06-06T15:16:58.000Z</time>
      </trkpt>
      <trkpt lat="47.18601" lon="-1.59952">
        <ele>52</ele>
        <time>2021-06-06T15:17:00.000Z</time>
      </trkpt>
      <trkpt lat="47.18595" lon="-1.59971">
        <ele>52</ele>
        <time>2021-06-06T15:17:02.000Z</time>
      </trkpt>
      <trkpt lat="47.1859" lon="-1.59989">
        <ele>52</ele>
        <time>2021-06-06T15:17:04.000Z</time>
      </trkpt>
      <trkpt lat="47.18584" lon="-1.60008">
        <ele>51</ele>
        <time>2021-06-06T15:17:06.000Z</time>
      </trkpt>
      <trkpt lat="47.18577" lon="-1.60026">
        <ele>51</ele>
        <time>2021-06-06T15:17:08.000Z</time>
      </trkpt>
      <trkpt lat="47.18571" lon="-1.60044">
        <ele>52</ele>
        <time>2021-06-06T15:17:10.000Z</time>
      </trkpt>
      <trkpt lat="47.18564" lon="-1.60062">
        <ele>51</ele>
        <time>2021-06-06T15:17:12.000Z</time>
      </trkpt>
      <trkpt lat="47.18558" lon="-1.60079">
        <ele>52</ele>
        <time>2021-06-06T15:17:14.000Z</time>
      </trkpt>
      <trkpt lat="47.18551" lon="-1.60096">
        <ele>52</ele>
        <time>2021-06-06T15:17:16.000Z</time>
      </trkpt>
      <trkpt lat="47.18544" lon="-1.60113">
        <ele>52</ele>
        <time>2021-06-06T15:17:18.000Z</time>
      </trkpt>
      <trkpt lat="47.18537" lon="-1.60129">
        <ele>52</ele>
        <time>2021-06-06T15:17:20.000Z</time>
      </trkpt>
      <trkpt lat="47.1853" lon="-1.60146">
        <ele>52</ele>
        <time>2021-06-06T15:17:22.000Z</time>
      </trkpt>
      <trkpt lat="47.18522" lon="-1.60162">
        <ele>51</ele>
        <time>2021-06-06T15:17:24.000Z</time>
      </trkpt>
      <trkpt lat="47.18515" lon="-1.60178">
        <ele>52</ele>
        <time>2021-06-06T15:17:26.000Z</time>
      </trkpt>
      <trkpt lat="47.18508" lon="-1.60193">
        <ele>52</ele>
        <time>2021-06-06T15:17:28.000Z</time>
      </trkpt>
      <trkpt lat="47.185" lon="-1.60209">
        <ele>52</ele>
        <time>2021-06-06T15:17:30.000Z</time>
      </trkpt>
      <trkpt lat="47.18492" lon="-1.60225">
        <ele>52</ele>
        <time>2021-06-06T15:17:32.000Z</time>
      </trkpt>
      <trkpt lat="47.18484" lon="-1.6024">
        <ele>52</ele>
        <time>2021-06-06T15:17:34.000Z</time>
      </trkpt>
      <trkpt lat="47.18475" lon="-1.60255">
        <ele>51</ele>
        <time>2021-06-06T15:17:36.000Z</time>
      </trkpt>
      <trkpt lat="47.18467" lon="-1.6027">
        <ele>51</ele>
        <time>2021-06-06T15:17:38.000Z</time>
      </trkpt>
      <trkpt lat="47.18458" lon="-1.60285">
        <ele>52</ele>
        <time>2021-06-06T15:17:40.000Z</time>
      </trkpt>
      <trkpt lat="47.1845" lon="-1.603">
        <ele>52</ele>
        <time>2021-06-06T15:17:42.000Z</time>
      </trkpt>
      <trkpt lat="47.18441" lon="-1.60315">
        <ele>51</ele>
        <time>2021-06-06T15:17:44.000Z</time>
      </trkpt>
      <trkpt lat="47.18432" lon="-1.6033">
        <ele>51</ele>
        <time>2021-06-06T15:17:46.000Z</time>
      </trkpt>
      <trkpt lat="47.18423" lon="-1.60343">
        <ele>51</ele>
        <time>2021-06-06T15:17:48.000Z</time>
      </trkpt>
      <trkpt lat="47.18413" lon="-1.60357">
        <ele>51</ele>
        <time>2021-06-06T15:17:50.000Z</time>
      </trkpt>
      <trkpt lat="47.18403" lon="-1.6037">
        <ele>51</ele>
        <time>2021-06-06T15:17:52.000Z</time>
      </trkpt>
      <trkpt lat="47.18394" lon="-1.60383">
        <ele>51</ele>
        <time>2021-06-06T15:17:54.000Z</time>
      </trkpt>
      <trkpt lat="47.18384" lon="-1.60396">
        <ele>51</ele>
        <time>2021-06-06T15:17:56.000Z</time>
      </trkpt>
      <trkpt lat="47.18374" lon="-1.60409">
        <ele>51</ele>
        <time>2021-06-06T15:17:58.000Z</time>
      </trkpt>
      <trkpt lat="47.18364" lon="-1.60422">
        <ele>50</ele>
        <time>2021-06-06T15:18:00.000Z</time>
      </trkpt>
      <trkpt lat="47.18355" lon="-1.60434">
        <ele>50</ele>
        <time>2021-06-06T15:18:02.000Z</time>
      </trkpt>
      <trkpt lat="47.18344" lon="-1.60447">
        <ele>50</ele>
        <time>2021-06-06T15:18:04.000Z</time>
      </trkpt>
      <trkpt lat="47.18334" lon="-1.60459">
        <ele>50</ele>
        <time>2021-06-06T15:18:06.000Z</time>
      </trkpt>
      <trkpt lat="47.18324" lon="-1.60472">
        <ele>50</ele>
        <time>2021-06-06T15:18:08.000Z</time>
      </trkpt>
      <trkpt lat="47.18313" lon="-1.60484">
        <ele>50</ele>
        <time>2021-06-06T15:18:10.000Z</time>
      </trkpt>
      <trkpt lat="47.18302" lon="-1.60495">
        <ele>50</ele>
        <time>2021-06-06T15:18:12.000Z</time>
      </trkpt>
      <trkpt lat="47.18292" lon="-1.60507">
        <ele>50</ele>
        <time>2021-06-06T15:18:14.000Z</time>
      </trkpt>
      <trkpt lat="47.18282" lon="-1.60518">
        <ele>50</ele>
        <time>2021-06-06T15:18:16.000Z</time>
      </trkpt>
      <trkpt lat="47.18271" lon="-1.60528">
        <ele>50</ele>
        <time>2021-06-06T15:18:18.000Z</time>
      </trkpt>
      <trkpt lat="47.1826" lon="-1.60538">
        <ele>50</ele>
        <time>2021-06-06T15:18:20.000Z</time>
      </trkpt>
      <trkpt lat="47.18249" lon="-1.60548">
        <ele>50</ele>
        <time>2021-06-06T15:18:22.000Z</time>
      </trkpt>
      <trkpt lat="47.18238" lon="-1.60556">
        <ele>50</ele>
        <time>2021-06-06T15:18:24.000Z</time>
      </trkpt>
      <trkpt lat="47.18226" lon="-1.60563">
        <ele>51</ele>
        <time>2021-06-06T15:18:26.000Z</time>
      </trkpt>
      <trkpt lat="47.18215" lon="-1.60569">
        <ele>51</ele>
        <time>2021-06-06T15:18:28.000Z</time>
      </trkpt>
      <trkpt lat="47.18206" lon="-1.60574">
        <ele>51</ele>
        <time>2021-06-06T15:18:30.000Z</time>
      </trkpt>
      <trkpt lat="47.18196" lon="-1.60578">
        <ele>51</ele>
        <time>2021-06-06T15:18:32.000Z</time>
      </trkpt>
      <trkpt lat="47.18188" lon="-1.60588">
        <ele>51</ele>
        <time>2021-06-06T15:18:35.000Z</time>
      </trkpt>
      <trkpt lat="47.1818" lon="-1.60605">
        <ele>52</ele>
        <time>2021-06-06T15:18:38.000Z</time>
      </trkpt>
      <trkpt lat="47.18166" lon="-1.60607">
        <ele>51</ele>
        <time>2021-06-06T15:18:40.000Z</time>
      </trkpt>
      <trkpt lat="47.18154" lon="-1.60607">
        <ele>52</ele>
        <time>2021-06-06T15:18:42.000Z</time>
      </trkpt>
      <trkpt lat="47.18141" lon="-1.60606">
        <ele>52</ele>
        <time>2021-06-06T15:18:44.000Z</time>
      </trkpt>
      <trkpt lat="47.18129" lon="-1.60605">
        <ele>52</ele>
        <time>2021-06-06T15:18:46.000Z</time>
      </trkpt>
      <trkpt lat="47.18116" lon="-1.60602">
        <ele>53</ele>
        <time>2021-06-06T15:18:48.000Z</time>
      </trkpt>
      <trkpt lat="47.18103" lon="-1.60598">
        <ele>53</ele>
        <time>2021-06-06T15:18:50.000Z</time>
      </trkpt>
      <trkpt lat="47.18091" lon="-1.60593">
        <ele>54</ele>
        <time>2021-06-06T15:18:52.000Z</time>
      </trkpt>
      <trkpt lat="47.18079" lon="-1.60587">
        <ele>53</ele>
        <time>2021-06-06T15:18:54.000Z</time>
      </trkpt>
      <trkpt lat="47.18067" lon="-1.60579">
        <ele>53</ele>
        <time>2021-06-06T15:18:56.000Z</time>
      </trkpt>
      <trkpt lat="47.18055" lon="-1.60572">
        <ele>54</ele>
        <time>2021-06-06T15:18:58.000Z</time>
      </trkpt>
      <trkpt lat="47.18043" lon="-1.60564">
        <ele>54</ele>
        <time>2021-06-06T15:19:00.000Z</time>
      </trkpt>
      <trkpt lat="47.1803" lon="-1.60559">
        <ele>53</ele>
        <time>2021-06-06T15:19:02.000Z</time>
      </trkpt>
      <trkpt lat="47.18018" lon="-1.60556">
        <ele>53</ele>
        <time>2021-06-06T15:19:04.000Z</time>
      </trkpt>
      <trkpt lat="47.18005" lon="-1.60558">
        <ele>52</ele>
        <time>2021-06-06T15:19:06.000Z</time>
      </trkpt>
      <trkpt lat="47.17993" lon="-1.60562">
        <ele>52</ele>
        <time>2021-06-06T15:19:08.000Z</time>
      </trkpt>
      <trkpt lat="47.17981" lon="-1.60566">
        <ele>52</ele>
        <time>2021-06-06T15:19:10.000Z</time>
      </trkpt>
      <trkpt lat="47.1797" lon="-1.60571">
        <ele>53</ele>
        <time>2021-06-06T15:19:12.000Z</time>
      </trkpt>
      <trkpt lat="47.1796" lon="-1.60575">
        <ele>52</ele>
        <time>2021-06-06T15:19:14.000Z</time>
      </trkpt>
      <trkpt lat="47.17949" lon="-1.60581">
        <ele>53</ele>
        <time>2021-06-06T15:19:16.000Z</time>
      </trkpt>
      <trkpt lat="47.17938" lon="-1.60588">
        <ele>53</ele>
        <time>2021-06-06T15:19:18.000Z</time>
      </trkpt>
      <trkpt lat="47.17926" lon="-1.60591">
        <ele>54</ele>
        <time>2021-06-06T15:19:20.000Z</time>
      </trkpt>
      <trkpt lat="47.17914" lon="-1.60592">
        <ele>57</ele>
        <time>2021-06-06T15:19:28.000Z</time>
      </trkpt>
      <trkpt lat="47.17904" lon="-1.60603">
        <ele>57</ele>
        <time>2021-06-06T15:19:31.000Z</time>
      </trkpt>
      <trkpt lat="47.17902" lon="-1.60619">
        <ele>56</ele>
        <time>2021-06-06T15:19:33.000Z</time>
      </trkpt>
      <trkpt lat="47.17898" lon="-1.60636">
        <ele>55</ele>
        <time>2021-06-06T15:19:35.000Z</time>
      </trkpt>
      <trkpt lat="47.17892" lon="-1.60653">
        <ele>55</ele>
        <time>2021-06-06T15:19:37.000Z</time>
      </trkpt>
      <trkpt lat="47.17886" lon="-1.6067">
        <ele>54</ele>
        <time>2021-06-06T15:19:39.000Z</time>
      </trkpt>
      <trkpt lat="47.1788" lon="-1.60689">
        <ele>53</ele>
        <time>2021-06-06T15:19:41.000Z</time>
      </trkpt>
      <trkpt lat="47.17874" lon="-1.60709">
        <ele>52</ele>
        <time>2021-06-06T15:19:43.000Z</time>
      </trkpt>
      <trkpt lat="47.17869" lon="-1.60728">
        <ele>52</ele>
        <time>2021-06-06T15:19:45.000Z</time>
      </trkpt>
      <trkpt lat="47.17865" lon="-1.60747">
        <ele>52</ele>
        <time>2021-06-06T15:19:47.000Z</time>
      </trkpt>
      <trkpt lat="47.1786" lon="-1.60767">
        <ele>52</ele>
        <time>2021-06-06T15:19:49.000Z</time>
      </trkpt>
      <trkpt lat="47.17856" lon="-1.60785">
        <ele>52</ele>
        <time>2021-06-06T15:19:51.000Z</time>
      </trkpt>
      <trkpt lat="47.17852" lon="-1.60803">
        <ele>52</ele>
        <time>2021-06-06T15:19:53.000Z</time>
      </trkpt>
      <trkpt lat="47.17848" lon="-1.60821">
        <ele>52</ele>
        <time>2021-06-06T15:19:55.000Z</time>
      </trkpt>
      <trkpt lat="47.17843" lon="-1.60839">
        <ele>52</ele>
        <time>2021-06-06T15:19:57.000Z</time>
      </trkpt>
      <trkpt lat="47.17835" lon="-1.60855">
        <ele>52</ele>
        <time>2021-06-06T15:19:59.000Z</time>
      </trkpt>
      <trkpt lat="47.17827" lon="-1.6087">
        <ele>52</ele>
        <time>2021-06-06T15:20:01.000Z</time>
      </trkpt>
      <trkpt lat="47.17818" lon="-1.60883">
        <ele>52</ele>
        <time>2021-06-06T15:20:03.000Z</time>
      </trkpt>
      <trkpt lat="47.17808" lon="-1.60895">
        <ele>52</ele>
        <time>2021-06-06T15:20:05.000Z</time>
      </trkpt>
      <trkpt lat="47.17797" lon="-1.60905">
        <ele>51</ele>
        <time>2021-06-06T15:20:07.000Z</time>
      </trkpt>
      <trkpt lat="47.17785" lon="-1.60912">
        <ele>52</ele>
        <time>2021-06-06T15:20:09.000Z</time>
      </trkpt>
      <trkpt lat="47.17774" lon="-1.6092">
        <ele>52</ele>
        <time>2021-06-06T15:20:11.000Z</time>
      </trkpt>
      <trkpt lat="47.17763" lon="-1.60929">
        <ele>53</ele>
        <time>2021-06-06T15:20:13.000Z</time>
      </trkpt>
      <trkpt lat="47.17752" lon="-1.60937">
        <ele>53</ele>
        <time>2021-06-06T15:20:15.000Z</time>
      </trkpt>
      <trkpt lat="47.17741" lon="-1.60945">
        <ele>53</ele>
        <time>2021-06-06T15:20:17.000Z</time>
      </trkpt>
      <trkpt lat="47.1773" lon="-1.60953">
        <ele>53</ele>
        <time>2021-06-06T15:20:19.000Z</time>
      </trkpt>
      <trkpt lat="47.17719" lon="-1.60961">
        <ele>54</ele>
        <time>2021-06-06T15:20:21.000Z</time>
      </trkpt>
      <trkpt lat="47.17707" lon="-1.60968">
        <ele>54</ele>
        <time>2021-06-06T15:20:23.000Z</time>
      </trkpt>
      <trkpt lat="47.17696" lon="-1.60974">
        <ele>53</ele>
        <time>2021-06-06T15:20:25.000Z</time>
      </trkpt>
      <trkpt lat="47.17683" lon="-1.60974">
        <ele>53</ele>
        <time>2021-06-06T15:20:27.000Z</time>
      </trkpt>
      <trkpt lat="47.17669" lon="-1.60973">
        <ele>53</ele>
        <time>2021-06-06T15:20:29.000Z</time>
      </trkpt>
      <trkpt lat="47.17656" lon="-1.60978">
        <ele>52</ele>
        <time>2021-06-06T15:20:31.000Z</time>
      </trkpt>
      <trkpt lat="47.17644" lon="-1.60987">
        <ele>52</ele>
        <time>2021-06-06T15:20:33.000Z</time>
      </trkpt>
      <trkpt lat="47.17632" lon="-1.60998">
        <ele>51</ele>
        <time>2021-06-06T15:20:35.000Z</time>
      </trkpt>
      <trkpt lat="47.17622" lon="-1.61007">
        <ele>51</ele>
        <time>2021-06-06T15:20:37.000Z</time>
      </trkpt>
      <trkpt lat="47.17611" lon="-1.61017">
        <ele>51</ele>
        <time>2021-06-06T15:20:39.000Z</time>
      </trkpt>
      <trkpt lat="47.176" lon="-1.61027">
        <ele>50</ele>
        <time>2021-06-06T15:20:41.000Z</time>
      </trkpt>
      <trkpt lat="47.17589" lon="-1.61037">
        <ele>50</ele>
        <time>2021-06-06T15:20:43.000Z</time>
      </trkpt>
      <trkpt lat="47.17577" lon="-1.61047">
        <ele>50</ele>
        <time>2021-06-06T15:20:45.000Z</time>
      </trkpt>
      <trkpt lat="47.17565" lon="-1.61056">
        <ele>50</ele>
        <time>2021-06-06T15:20:47.000Z</time>
      </trkpt>
      <trkpt lat="47.17554" lon="-1.61065">
        <ele>50</ele>
        <time>2021-06-06T15:20:49.000Z</time>
      </trkpt>
      <trkpt lat="47.17543" lon="-1.61075">
        <ele>50</ele>
        <time>2021-06-06T15:20:51.000Z</time>
      </trkpt>
      <trkpt lat="47.17533" lon="-1.61084">
        <ele>50</ele>
        <time>2021-06-06T15:20:53.000Z</time>
      </trkpt>
      <trkpt lat="47.17522" lon="-1.61093">
        <ele>50</ele>
        <time>2021-06-06T15:20:55.000Z</time>
      </trkpt>
      <trkpt lat="47.17512" lon="-1.61102">
        <ele>51</ele>
        <time>2021-06-06T15:20:57.000Z</time>
      </trkpt>
      <trkpt lat="47.17501" lon="-1.61107">
        <ele>50</ele>
        <time>2021-06-06T15:20:59.000Z</time>
      </trkpt>
      <trkpt lat="47.17489" lon="-1.61108">
        <ele>50</ele>
        <time>2021-06-06T15:21:01.000Z</time>
      </trkpt>
      <trkpt lat="47.17476" lon="-1.61106">
        <ele>51</ele>
        <time>2021-06-06T15:21:03.000Z</time>
      </trkpt>
      <trkpt lat="47.17465" lon="-1.61099">
        <ele>51</ele>
        <time>2021-06-06T15:21:05.000Z</time>
      </trkpt>
      <trkpt lat="47.17455" lon="-1.61089">
        <ele>52</ele>
        <time>2021-06-06T15:21:07.000Z</time>
      </trkpt>
      <trkpt lat="47.17447" lon="-1.61078">
        <ele>53</ele>
        <time>2021-06-06T15:21:09.000Z</time>
      </trkpt>
      <trkpt lat="47.1744" lon="-1.61064">
        <ele>54</ele>
        <time>2021-06-06T15:21:11.000Z</time>
      </trkpt>
      <trkpt lat="47.17435" lon="-1.61051">
        <ele>54</ele>
        <time>2021-06-06T15:21:13.000Z</time>
      </trkpt>
      <trkpt lat="47.1743" lon="-1.61038">
        <ele>55</ele>
        <time>2021-06-06T15:21:15.000Z</time>
      </trkpt>
      <trkpt lat="47.17425" lon="-1.61024">
        <ele>55</ele>
        <time>2021-06-06T15:21:18.000Z</time>
      </trkpt>
      <trkpt lat="47.17421" lon="-1.61037">
        <ele>56</ele>
        <time>2021-06-06T15:21:22.000Z</time>
      </trkpt>
      <trkpt lat="47.17424" lon="-1.6105">
        <ele>55</ele>
        <time>2021-06-06T15:21:24.000Z</time>
      </trkpt>
      <trkpt lat="47.17428" lon="-1.61064">
        <ele>55</ele>
        <time>2021-06-06T15:21:26.000Z</time>
      </trkpt>
      <trkpt lat="47.17434" lon="-1.61079">
        <ele>56</ele>
        <time>2021-06-06T15:21:28.000Z</time>
      </trkpt>
      <trkpt lat="47.17441" lon="-1.61095">
        <ele>57</ele>
        <time>2021-06-06T15:21:30.000Z</time>
      </trkpt>
      <trkpt lat="47.17447" lon="-1.61109">
        <ele>57</ele>
        <time>2021-06-06T15:21:32.000Z</time>
      </trkpt>
      <trkpt lat="47.17453" lon="-1.61123">
        <ele>58</ele>
        <time>2021-06-06T15:21:34.000Z</time>
      </trkpt>
      <trkpt lat="47.17459" lon="-1.61137">
        <ele>59</ele>
        <time>2021-06-06T15:21:36.000Z</time>
      </trkpt>
      <trkpt lat="47.17464" lon="-1.6115">
        <ele>60</ele>
        <time>2021-06-06T15:21:38.000Z</time>
      </trkpt>
      <trkpt lat="47.1747" lon="-1.61165">
        <ele>59</ele>
        <time>2021-06-06T15:21:40.000Z</time>
      </trkpt>
      <trkpt lat="47.17476" lon="-1.61179">
        <ele>59</ele>
        <time>2021-06-06T15:21:42.000Z</time>
      </trkpt>
      <trkpt lat="47.17482" lon="-1.61193">
        <ele>59</ele>
        <time>2021-06-06T15:21:44.000Z</time>
      </trkpt>
      <trkpt lat="47.17488" lon="-1.61208">
        <ele>59</ele>
        <time>2021-06-06T15:21:46.000Z</time>
      </trkpt>
      <trkpt lat="47.17493" lon="-1.61221">
        <ele>58</ele>
        <time>2021-06-06T15:21:48.000Z</time>
      </trkpt>
      <trkpt lat="47.17499" lon="-1.61236">
        <ele>58</ele>
        <time>2021-06-06T15:21:50.000Z</time>
      </trkpt>
      <trkpt lat="47.17506" lon="-1.61249">
        <ele>59</ele>
        <time>2021-06-06T15:21:52.000Z</time>
      </trkpt>
      <trkpt lat="47.17514" lon="-1.61262">
        <ele>59</ele>
        <time>2021-06-06T15:21:54.000Z</time>
      </trkpt>
      <trkpt lat="47.17522" lon="-1.61273">
        <ele>60</ele>
        <time>2021-06-06T15:21:56.000Z</time>
      </trkpt>
      <trkpt lat="47.17531" lon="-1.61283">
        <ele>59</ele>
        <time>2021-06-06T15:21:58.000Z</time>
      </trkpt>
      <trkpt lat="47.17541" lon="-1.61291">
        <ele>59</ele>
        <time>2021-06-06T15:22:00.000Z</time>
      </trkpt>
      <trkpt lat="47.17552" lon="-1.61299">
        <ele>59</ele>
        <time>2021-06-06T15:22:02.000Z</time>
      </trkpt>
      <trkpt lat="47.1756" lon="-1.61314">
        <ele>59</ele>
        <time>2021-06-06T15:22:04.000Z</time>
      </trkpt>
      <trkpt lat="47.17559" lon="-1.61334">
        <ele>58</ele>
        <time>2021-06-06T15:22:06.000Z</time>
      </trkpt>
      <trkpt lat="47.17552" lon="-1.61351">
        <ele>59</ele>
        <time>2021-06-06T15:22:08.000Z</time>
      </trkpt>
      <trkpt lat="47.1754" lon="-1.61363">
        <ele>58</ele>
        <time>2021-06-06T15:22:10.000Z</time>
      </trkpt>
      <trkpt lat="47.17529" lon="-1.61376">
        <ele>58</ele>
        <time>2021-06-06T15:22:12.000Z</time>
      </trkpt>
      <trkpt lat="47.17524" lon="-1.61394">
        <ele>58</ele>
        <time>2021-06-06T15:22:14.000Z</time>
      </trkpt>
      <trkpt lat="47.1752" lon="-1.61412">
        <ele>59</ele>
        <time>2021-06-06T15:22:16.000Z</time>
      </trkpt>
      <trkpt lat="47.17517" lon="-1.6143">
        <ele>59</ele>
        <time>2021-06-06T15:22:18.000Z</time>
      </trkpt>
      <trkpt lat="47.17514" lon="-1.61447">
        <ele>60</ele>
        <time>2021-06-06T15:22:20.000Z</time>
      </trkpt>
      <trkpt lat="47.17507" lon="-1.61461">
        <ele>61</ele>
        <time>2021-06-06T15:22:22.000Z</time>
      </trkpt>
      <trkpt lat="47.17495" lon="-1.61468">
        <ele>61</ele>
        <time>2021-06-06T15:22:24.000Z</time>
      </trkpt>
      <trkpt lat="47.17483" lon="-1.61473">
        <ele>62</ele>
        <time>2021-06-06T15:22:26.000Z</time>
      </trkpt>
      <trkpt lat="47.17471" lon="-1.61479">
        <ele>63</ele>
        <time>2021-06-06T15:22:28.000Z</time>
      </trkpt>
      <trkpt lat="47.1746" lon="-1.61484">
        <ele>63</ele>
        <time>2021-06-06T15:22:30.000Z</time>
      </trkpt>
      <trkpt lat="47.17449" lon="-1.61489">
        <ele>64</ele>
        <time>2021-06-06T15:22:32.000Z</time>
      </trkpt>
      <trkpt lat="47.17438" lon="-1.61495">
        <ele>64</ele>
        <time>2021-06-06T15:22:34.000Z</time>
      </trkpt>
      <trkpt lat="47.17428" lon="-1.61501">
        <ele>63</ele>
        <time>2021-06-06T15:22:36.000Z</time>
      </trkpt>
      <trkpt lat="47.17417" lon="-1.61509">
        <ele>64</ele>
        <time>2021-06-06T15:22:38.000Z</time>
      </trkpt>
      <trkpt lat="47.17407" lon="-1.61516">
        <ele>64</ele>
        <time>2021-06-06T15:22:40.000Z</time>
      </trkpt>
      <trkpt lat="47.17397" lon="-1.61524">
        <ele>64</ele>
        <time>2021-06-06T15:22:42.000Z</time>
      </trkpt>
      <trkpt lat="47.17387" lon="-1.61532">
        <ele>64</ele>
        <time>2021-06-06T15:22:44.000Z</time>
      </trkpt>
      <trkpt lat="47.17378" lon="-1.6154">
        <ele>65</ele>
        <time>2021-06-06T15:22:46.000Z</time>
      </trkpt>
      <trkpt lat="47.17369" lon="-1.61549">
        <ele>65</ele>
        <time>2021-06-06T15:22:48.000Z</time>
      </trkpt>
      <trkpt lat="47.1736" lon="-1.61558">
        <ele>66</ele>
        <time>2021-06-06T15:22:50.000Z</time>
      </trkpt>
      <trkpt lat="47.17352" lon="-1.61567">
        <ele>67</ele>
        <time>2021-06-06T15:22:52.000Z</time>
      </trkpt>
      <trkpt lat="47.17345" lon="-1.61577">
        <ele>67</ele>
        <time>2021-06-06T15:22:54.000Z</time>
      </trkpt>
      <trkpt lat="47.17337" lon="-1.61586">
        <ele>67</ele>
        <time>2021-06-06T15:22:56.000Z</time>
      </trkpt>
      <trkpt lat="47.17329" lon="-1.61596">
        <ele>67</ele>
        <time>2021-06-06T15:22:58.000Z</time>
      </trkpt>
      <trkpt lat="47.1732" lon="-1.61605">
        <ele>68</ele>
        <time>2021-06-06T15:23:00.000Z</time>
      </trkpt>
      <trkpt lat="47.17313" lon="-1.61617">
        <ele>67</ele>
        <time>2021-06-06T15:23:02.000Z</time>
      </trkpt>
      <trkpt lat="47.17306" lon="-1.61629">
        <ele>67</ele>
        <time>2021-06-06T15:23:04.000Z</time>
      </trkpt>
      <trkpt lat="47.17298" lon="-1.61641">
        <ele>67</ele>
        <time>2021-06-06T15:23:06.000Z</time>
      </trkpt>
      <trkpt lat="47.17291" lon="-1.61653">
        <ele>67</ele>
        <time>2021-06-06T15:23:08.000Z</time>
      </trkpt>
      <trkpt lat="47.17286" lon="-1.61666">
        <ele>68</ele>
        <time>2021-06-06T15:23:10.000Z</time>
      </trkpt>
      <trkpt lat="47.17279" lon="-1.61679">
        <ele>68</ele>
        <time>2021-06-06T15:23:12.000Z</time>
      </trkpt>
      <trkpt lat="47.17273" lon="-1.61693">
        <ele>68</ele>
        <time>2021-06-06T15:23:14.000Z</time>
      </trkpt>
      <trkpt lat="47.17266" lon="-1.61706">
        <ele>68</ele>
        <time>2021-06-06T15:23:16.000Z</time>
      </trkpt>
      <trkpt lat="47.17259" lon="-1.6172">
        <ele>68</ele>
        <time>2021-06-06T15:23:18.000Z</time>
      </trkpt>
      <trkpt lat="47.17253" lon="-1.61734">
        <ele>68</ele>
        <time>2021-06-06T15:23:20.000Z</time>
      </trkpt>
      <trkpt lat="47.17248" lon="-1.61749">
        <ele>68</ele>
        <time>2021-06-06T15:23:22.000Z</time>
      </trkpt>
      <trkpt lat="47.17245" lon="-1.61765">
        <ele>68</ele>
        <time>2021-06-06T15:23:24.000Z</time>
      </trkpt>
      <trkpt lat="47.17239" lon="-1.61781">
        <ele>67</ele>
        <time>2021-06-06T15:23:26.000Z</time>
      </trkpt>
      <trkpt lat="47.1723" lon="-1.61792">
        <ele>67</ele>
        <time>2021-06-06T15:23:28.000Z</time>
      </trkpt>
      <trkpt lat="47.17219" lon="-1.61801">
        <ele>67</ele>
        <time>2021-06-06T15:23:30.000Z</time>
      </trkpt>
      <trkpt lat="47.17209" lon="-1.6181">
        <ele>67</ele>
        <time>2021-06-06T15:23:32.000Z</time>
      </trkpt>
      <trkpt lat="47.17198" lon="-1.61818">
        <ele>67</ele>
        <time>2021-06-06T15:23:34.000Z</time>
      </trkpt>
      <trkpt lat="47.17188" lon="-1.61827">
        <ele>67</ele>
        <time>2021-06-06T15:23:36.000Z</time>
      </trkpt>
      <trkpt lat="47.17178" lon="-1.61836">
        <ele>67</ele>
        <time>2021-06-06T15:23:38.000Z</time>
      </trkpt>
      <trkpt lat="47.17169" lon="-1.61845">
        <ele>66</ele>
        <time>2021-06-06T15:23:40.000Z</time>
      </trkpt>
      <trkpt lat="47.17159" lon="-1.61854">
        <ele>66</ele>
        <time>2021-06-06T15:23:42.000Z</time>
      </trkpt>
      <trkpt lat="47.1715" lon="-1.61864">
        <ele>66</ele>
        <time>2021-06-06T15:23:44.000Z</time>
      </trkpt>
      <trkpt lat="47.17141" lon="-1.61872">
        <ele>66</ele>
        <time>2021-06-06T15:23:46.000Z</time>
      </trkpt>
      <trkpt lat="47.17131" lon="-1.61882">
        <ele>66</ele>
        <time>2021-06-06T15:23:48.000Z</time>
      </trkpt>
      <trkpt lat="47.17122" lon="-1.61891">
        <ele>66</ele>
        <time>2021-06-06T15:23:50.000Z</time>
      </trkpt>
      <trkpt lat="47.17112" lon="-1.619">
        <ele>66</ele>
        <time>2021-06-06T15:23:52.000Z</time>
      </trkpt>
      <trkpt lat="47.17102" lon="-1.6191">
        <ele>66</ele>
        <time>2021-06-06T15:23:54.000Z</time>
      </trkpt>
      <trkpt lat="47.17092" lon="-1.61919">
        <ele>66</ele>
        <time>2021-06-06T15:23:56.000Z</time>
      </trkpt>
      <trkpt lat="47.17083" lon="-1.61928">
        <ele>66</ele>
        <time>2021-06-06T15:23:58.000Z</time>
      </trkpt>
      <trkpt lat="47.17074" lon="-1.61937">
        <ele>66</ele>
        <time>2021-06-06T15:24:00.000Z</time>
      </trkpt>
      <trkpt lat="47.17064" lon="-1.61946">
        <ele>67</ele>
        <time>2021-06-06T15:24:02.000Z</time>
      </trkpt>
      <trkpt lat="47.17055" lon="-1.61957">
        <ele>67</ele>
        <time>2021-06-06T15:24:04.000Z</time>
      </trkpt>
      <trkpt lat="47.17046" lon="-1.61969">
        <ele>66</ele>
        <time>2021-06-06T15:24:06.000Z</time>
      </trkpt>
      <trkpt lat="47.17038" lon="-1.61981">
        <ele>66</ele>
        <time>2021-06-06T15:24:08.000Z</time>
      </trkpt>
      <trkpt lat="47.1703" lon="-1.61994">
        <ele>66</ele>
        <time>2021-06-06T15:24:10.000Z</time>
      </trkpt>
      <trkpt lat="47.17022" lon="-1.62006">
        <ele>66</ele>
        <time>2021-06-06T15:24:12.000Z</time>
      </trkpt>
      <trkpt lat="47.17014" lon="-1.62018">
        <ele>66</ele>
        <time>2021-06-06T15:24:14.000Z</time>
      </trkpt>
      <trkpt lat="47.17006" lon="-1.6203">
        <ele>66</ele>
        <time>2021-06-06T15:24:16.000Z</time>
      </trkpt>
      <trkpt lat="47.16998" lon="-1.62044">
        <ele>66</ele>
        <time>2021-06-06T15:24:18.000Z</time>
      </trkpt>
      <trkpt lat="47.16991" lon="-1.62058">
        <ele>66</ele>
        <time>2021-06-06T15:24:20.000Z</time>
      </trkpt>
      <trkpt lat="47.16982" lon="-1.62072">
        <ele>66</ele>
        <time>2021-06-06T15:24:22.000Z</time>
      </trkpt>
      <trkpt lat="47.16974" lon="-1.62085">
        <ele>66</ele>
        <time>2021-06-06T15:24:24.000Z</time>
      </trkpt>
      <trkpt lat="47.16967" lon="-1.62098">
        <ele>66</ele>
        <time>2021-06-06T15:24:26.000Z</time>
      </trkpt>
      <trkpt lat="47.1696" lon="-1.62111">
        <ele>66</ele>
        <time>2021-06-06T15:24:28.000Z</time>
      </trkpt>
      <trkpt lat="47.16953" lon="-1.62125">
        <ele>66</ele>
        <time>2021-06-06T15:24:30.000Z</time>
      </trkpt>
      <trkpt lat="47.16946" lon="-1.6214">
        <ele>66</ele>
        <time>2021-06-06T15:24:32.000Z</time>
      </trkpt>
      <trkpt lat="47.16939" lon="-1.62153">
        <ele>67</ele>
        <time>2021-06-06T15:24:34.000Z</time>
      </trkpt>
      <trkpt lat="47.16933" lon="-1.62168">
        <ele>67</ele>
        <time>2021-06-06T15:24:36.000Z</time>
      </trkpt>
      <trkpt lat="47.16926" lon="-1.62183">
        <ele>67</ele>
        <time>2021-06-06T15:24:38.000Z</time>
      </trkpt>
      <trkpt lat="47.16918" lon="-1.62197">
        <ele>67</ele>
        <time>2021-06-06T15:24:40.000Z</time>
      </trkpt>
      <trkpt lat="47.1691" lon="-1.6221">
        <ele>67</ele>
        <time>2021-06-06T15:24:42.000Z</time>
      </trkpt>
      <trkpt lat="47.16902" lon="-1.62221">
        <ele>67</ele>
        <time>2021-06-06T15:24:44.000Z</time>
      </trkpt>
      <trkpt lat="47.16893" lon="-1.62234">
        <ele>67</ele>
        <time>2021-06-06T15:24:46.000Z</time>
      </trkpt>
      <trkpt lat="47.16883" lon="-1.62245">
        <ele>68</ele>
        <time>2021-06-06T15:24:48.000Z</time>
      </trkpt>
      <trkpt lat="47.16874" lon="-1.62257">
        <ele>68</ele>
        <time>2021-06-06T15:24:50.000Z</time>
      </trkpt>
      <trkpt lat="47.16865" lon="-1.62268">
        <ele>68</ele>
        <time>2021-06-06T15:24:52.000Z</time>
      </trkpt>
      <trkpt lat="47.16855" lon="-1.62279">
        <ele>67</ele>
        <time>2021-06-06T15:24:54.000Z</time>
      </trkpt>
      <trkpt lat="47.16846" lon="-1.6229">
        <ele>67</ele>
        <time>2021-06-06T15:24:56.000Z</time>
      </trkpt>
      <trkpt lat="47.16837" lon="-1.62301">
        <ele>68</ele>
        <time>2021-06-06T15:24:58.000Z</time>
      </trkpt>
      <trkpt lat="47.16828" lon="-1.62311">
        <ele>67</ele>
        <time>2021-06-06T15:25:00.000Z</time>
      </trkpt>
      <trkpt lat="47.16818" lon="-1.6232">
        <ele>68</ele>
        <time>2021-06-06T15:25:02.000Z</time>
      </trkpt>
      <trkpt lat="47.16807" lon="-1.62327">
        <ele>68</ele>
        <time>2021-06-06T15:25:04.000Z</time>
      </trkpt>
      <trkpt lat="47.16796" lon="-1.62333">
        <ele>68</ele>
        <time>2021-06-06T15:25:06.000Z</time>
      </trkpt>
      <trkpt lat="47.16785" lon="-1.62339">
        <ele>67</ele>
        <time>2021-06-06T15:25:08.000Z</time>
      </trkpt>
      <trkpt lat="47.16774" lon="-1.62345">
        <ele>68</ele>
        <time>2021-06-06T15:25:10.000Z</time>
      </trkpt>
      <trkpt lat="47.16764" lon="-1.62352">
        <ele>67</ele>
        <time>2021-06-06T15:25:12.000Z</time>
      </trkpt>
      <trkpt lat="47.16753" lon="-1.62361">
        <ele>67</ele>
        <time>2021-06-06T15:25:14.000Z</time>
      </trkpt>
      <trkpt lat="47.16743" lon="-1.6237">
        <ele>67</ele>
        <time>2021-06-06T15:25:16.000Z</time>
      </trkpt>
      <trkpt lat="47.16735" lon="-1.62383">
        <ele>66</ele>
        <time>2021-06-06T15:25:18.000Z</time>
      </trkpt>
      <trkpt lat="47.1673" lon="-1.62399">
        <ele>67</ele>
        <time>2021-06-06T15:25:20.000Z</time>
      </trkpt>
      <trkpt lat="47.16728" lon="-1.62414">
        <ele>66</ele>
        <time>2021-06-06T15:25:22.000Z</time>
      </trkpt>
      <trkpt lat="47.16726" lon="-1.62429">
        <ele>66</ele>
        <time>2021-06-06T15:25:24.000Z</time>
      </trkpt>
      <trkpt lat="47.16723" lon="-1.62445">
        <ele>65</ele>
        <time>2021-06-06T15:25:26.000Z</time>
      </trkpt>
      <trkpt lat="47.16719" lon="-1.62461">
        <ele>65</ele>
        <time>2021-06-06T15:25:28.000Z</time>
      </trkpt>
      <trkpt lat="47.16716" lon="-1.62477">
        <ele>65</ele>
        <time>2021-06-06T15:25:30.000Z</time>
      </trkpt>
      <trkpt lat="47.16715" lon="-1.62493">
        <ele>66</ele>
        <time>2021-06-06T15:25:32.000Z</time>
      </trkpt>
      <trkpt lat="47.16724" lon="-1.62499">
        <ele>66</ele>
        <time>2021-06-06T15:25:34.000Z</time>
      </trkpt>
      <trkpt lat="47.16736" lon="-1.62502">
        <ele>67</ele>
        <time>2021-06-06T15:25:36.000Z</time>
      </trkpt>
      <trkpt lat="47.16747" lon="-1.62507">
        <ele>67</ele>
        <time>2021-06-06T15:25:38.000Z</time>
      </trkpt>
      <trkpt lat="47.16758" lon="-1.62513">
        <ele>68</ele>
        <time>2021-06-06T15:25:40.000Z</time>
      </trkpt>
      <trkpt lat="47.16768" lon="-1.62518">
        <ele>68</ele>
        <time>2021-06-06T15:25:42.000Z</time>
      </trkpt>
      <trkpt lat="47.16779" lon="-1.62526">
        <ele>69</ele>
        <time>2021-06-06T15:25:44.000Z</time>
      </trkpt>
      <trkpt lat="47.16788" lon="-1.62532">
        <ele>69</ele>
        <time>2021-06-06T15:25:46.000Z</time>
      </trkpt>
      <trkpt lat="47.16798" lon="-1.62539">
        <ele>69</ele>
        <time>2021-06-06T15:25:48.000Z</time>
      </trkpt>
      <trkpt lat="47.16809" lon="-1.62546">
        <ele>69</ele>
        <time>2021-06-06T15:25:50.000Z</time>
      </trkpt>
      <trkpt lat="47.16818" lon="-1.62555">
        <ele>70</ele>
        <time>2021-06-06T15:25:52.000Z</time>
      </trkpt>
      <trkpt lat="47.16827" lon="-1.62565">
        <ele>70</ele>
        <time>2021-06-06T15:25:54.000Z</time>
      </trkpt>
      <trkpt lat="47.16831" lon="-1.62579">
        <ele>70</ele>
        <time>2021-06-06T15:25:56.000Z</time>
      </trkpt>
      <trkpt lat="47.16827" lon="-1.62593">
        <ele>69</ele>
        <time>2021-06-06T15:25:58.000Z</time>
      </trkpt>
      <trkpt lat="47.16819" lon="-1.62606">
        <ele>68</ele>
        <time>2021-06-06T15:26:00.000Z</time>
      </trkpt>
      <trkpt lat="47.16811" lon="-1.62618">
        <ele>68</ele>
        <time>2021-06-06T15:26:02.000Z</time>
      </trkpt>
      <trkpt lat="47.16805" lon="-1.6263">
        <ele>68</ele>
        <time>2021-06-06T15:26:04.000Z</time>
      </trkpt>
      <trkpt lat="47.16798" lon="-1.62641">
        <ele>68</ele>
        <time>2021-06-06T15:26:06.000Z</time>
      </trkpt>
      <trkpt lat="47.16789" lon="-1.62655">
        <ele>68</ele>
        <time>2021-06-06T15:26:09.000Z</time>
      </trkpt>
      <trkpt lat="47.16782" lon="-1.62664">
        <ele>68</ele>
        <time>2021-06-06T15:26:12.000Z</time>
      </trkpt>
    </trkseg>
  </trk>
</gpx>